<?xml version="1.0" encoding="UTF-8" standalone="no" ?>
<gpx xmlns="http://www.topografix.com/GPX/1/1" xmlns:xsi="http://www.w3.org/2001/XMLSchema-instance" xsi:schemaLocation="http://www.topografix.com/GPX/1/1 http://www.topografix.com/GPX/1/1/gpx.xsd" version="1.1" creator="VisuGPX - https://www.visugpx.com">
  <metadata>
    <name>Champagnat Cyclisme sur route</name>
  </metadata>
  <trk>
    <name><![CDATA[Champagnat Cyclisme sur route_1]]></name>
    <trkseg>
      <trkpt lat="46.48269" lon="5.36837">
        <ele>266</ele>
        <time>2022-04-21T12:19:20Z</time>
      </trkpt>
      <trkpt lat="46.48259" lon="5.36825">
        <ele>265.8</ele>
        <time>2022-04-21T12:19:21Z</time>
      </trkpt>
      <trkpt lat="46.48248" lon="5.36814">
        <ele>264.6</ele>
        <time>2022-04-21T12:19:22Z</time>
      </trkpt>
      <trkpt lat="46.48236" lon="5.36805">
        <ele>263.6</ele>
        <time>2022-04-21T12:19:23Z</time>
      </trkpt>
      <trkpt lat="46.48212" lon="5.36789">
        <ele>262.4</ele>
        <time>2022-04-21T12:19:25Z</time>
      </trkpt>
      <trkpt lat="46.48189" lon="5.3677">
        <ele>261.2</ele>
        <time>2022-04-21T12:19:27Z</time>
      </trkpt>
      <trkpt lat="46.48178" lon="5.3676">
        <ele>260.4</ele>
        <time>2022-04-21T12:19:28Z</time>
      </trkpt>
      <trkpt lat="46.48167" lon="5.36749">
        <ele>259</ele>
        <time>2022-04-21T12:19:29Z</time>
      </trkpt>
      <trkpt lat="46.48156" lon="5.36738">
        <ele>258</ele>
        <time>2022-04-21T12:19:30Z</time>
      </trkpt>
      <trkpt lat="46.48134" lon="5.3672">
        <ele>256.6</ele>
        <time>2022-04-21T12:19:32Z</time>
      </trkpt>
      <trkpt lat="46.48124" lon="5.36713">
        <ele>256.4</ele>
        <time>2022-04-21T12:19:33Z</time>
      </trkpt>
      <trkpt lat="46.48116" lon="5.36707">
        <ele>255.4</ele>
        <time>2022-04-21T12:19:34Z</time>
      </trkpt>
      <trkpt lat="46.48105" lon="5.36694">
        <ele>254</ele>
        <time>2022-04-21T12:19:36Z</time>
      </trkpt>
      <trkpt lat="46.48104" lon="5.36679">
        <ele>252.4</ele>
        <time>2022-04-21T12:19:38Z</time>
      </trkpt>
      <trkpt lat="46.48108" lon="5.36672">
        <ele>251.6</ele>
        <time>2022-04-21T12:19:39Z</time>
      </trkpt>
      <trkpt lat="46.48114" lon="5.36665">
        <ele>251.2</ele>
        <time>2022-04-21T12:19:40Z</time>
      </trkpt>
      <trkpt lat="46.48128" lon="5.36651">
        <ele>250</ele>
        <time>2022-04-21T12:19:42Z</time>
      </trkpt>
      <trkpt lat="46.48141" lon="5.36637">
        <ele>248.4</ele>
        <time>2022-04-21T12:19:44Z</time>
      </trkpt>
      <trkpt lat="46.4817" lon="5.36613">
        <ele>247.4</ele>
        <time>2022-04-21T12:19:47Z</time>
      </trkpt>
      <trkpt lat="46.4818" lon="5.36609">
        <ele>247.4</ele>
        <time>2022-04-21T12:19:48Z</time>
      </trkpt>
      <trkpt lat="46.48189" lon="5.36605">
        <ele>247.2</ele>
        <time>2022-04-21T12:19:49Z</time>
      </trkpt>
      <trkpt lat="46.48205" lon="5.36603">
        <ele>247</ele>
        <time>2022-04-21T12:19:51Z</time>
      </trkpt>
      <trkpt lat="46.48217" lon="5.36591">
        <ele>246.8</ele>
        <time>2022-04-21T12:19:53Z</time>
      </trkpt>
      <trkpt lat="46.48224" lon="5.36572">
        <ele>246.4</ele>
        <time>2022-04-21T12:19:55Z</time>
      </trkpt>
      <trkpt lat="46.48232" lon="5.36554">
        <ele>246.2</ele>
        <time>2022-04-21T12:19:57Z</time>
      </trkpt>
      <trkpt lat="46.48275" lon="5.36507">
        <ele>245.4</ele>
        <time>2022-04-21T12:20:04Z</time>
      </trkpt>
      <trkpt lat="46.48288" lon="5.36493">
        <ele>245.2</ele>
        <time>2022-04-21T12:20:06Z</time>
      </trkpt>
      <trkpt lat="46.4832" lon="5.36457">
        <ele>243.8</ele>
        <time>2022-04-21T12:20:11Z</time>
      </trkpt>
      <trkpt lat="46.48327" lon="5.36449">
        <ele>243.8</ele>
        <time>2022-04-21T12:20:12Z</time>
      </trkpt>
      <trkpt lat="46.48354" lon="5.36421">
        <ele>242.8</ele>
        <time>2022-04-21T12:20:16Z</time>
      </trkpt>
      <trkpt lat="46.48388" lon="5.36383">
        <ele>241.8</ele>
        <time>2022-04-21T12:20:21Z</time>
      </trkpt>
      <trkpt lat="46.48407" lon="5.36366">
        <ele>240.8</ele>
        <time>2022-04-21T12:20:24Z</time>
      </trkpt>
      <trkpt lat="46.48423" lon="5.36356">
        <ele>240.4</ele>
        <time>2022-04-21T12:20:26Z</time>
      </trkpt>
      <trkpt lat="46.48451" lon="5.36348">
        <ele>239.6</ele>
        <time>2022-04-21T12:20:30Z</time>
      </trkpt>
      <trkpt lat="46.4846" lon="5.36346">
        <ele>239.6</ele>
        <time>2022-04-21T12:20:31Z</time>
      </trkpt>
      <trkpt lat="46.48516" lon="5.36337">
        <ele>239.2</ele>
        <time>2022-04-21T12:20:39Z</time>
      </trkpt>
      <trkpt lat="46.48524" lon="5.36336">
        <ele>239.2</ele>
        <time>2022-04-21T12:20:40Z</time>
      </trkpt>
      <trkpt lat="46.48574" lon="5.36328">
        <ele>238.6</ele>
        <time>2022-04-21T12:20:47Z</time>
      </trkpt>
      <trkpt lat="46.48605" lon="5.36324">
        <ele>238</ele>
        <time>2022-04-21T12:20:51Z</time>
      </trkpt>
      <trkpt lat="46.48613" lon="5.36322">
        <ele>237.8</ele>
        <time>2022-04-21T12:20:52Z</time>
      </trkpt>
      <trkpt lat="46.48626" lon="5.36308">
        <ele>237.4</ele>
        <time>2022-04-21T12:20:54Z</time>
      </trkpt>
      <trkpt lat="46.48633" lon="5.36286">
        <ele>236.4</ele>
        <time>2022-04-21T12:20:56Z</time>
      </trkpt>
      <trkpt lat="46.48635" lon="5.36273">
        <ele>235.8</ele>
        <time>2022-04-21T12:20:57Z</time>
      </trkpt>
      <trkpt lat="46.48638" lon="5.36246">
        <ele>235.2</ele>
        <time>2022-04-21T12:20:59Z</time>
      </trkpt>
      <trkpt lat="46.48641" lon="5.36206">
        <ele>234</ele>
        <time>2022-04-21T12:21:02Z</time>
      </trkpt>
      <trkpt lat="46.48642" lon="5.36193">
        <ele>233.8</ele>
        <time>2022-04-21T12:21:03Z</time>
      </trkpt>
      <trkpt lat="46.48645" lon="5.36154">
        <ele>233</ele>
        <time>2022-04-21T12:21:06Z</time>
      </trkpt>
      <trkpt lat="46.48652" lon="5.36117">
        <ele>232.6</ele>
        <time>2022-04-21T12:21:09Z</time>
      </trkpt>
      <trkpt lat="46.48667" lon="5.36051">
        <ele>232</ele>
        <time>2022-04-21T12:21:15Z</time>
      </trkpt>
      <trkpt lat="46.48677" lon="5.35997">
        <ele>232.4</ele>
        <time>2022-04-21T12:21:21Z</time>
      </trkpt>
      <trkpt lat="46.48684" lon="5.35941">
        <ele>233</ele>
        <time>2022-04-21T12:21:27Z</time>
      </trkpt>
      <trkpt lat="46.48685" lon="5.3593">
        <ele>233.2</ele>
        <time>2022-04-21T12:21:28Z</time>
      </trkpt>
      <trkpt lat="46.4869" lon="5.3591">
        <ele>233.4</ele>
        <time>2022-04-21T12:21:30Z</time>
      </trkpt>
      <trkpt lat="46.48694" lon="5.359">
        <ele>233.4</ele>
        <time>2022-04-21T12:21:31Z</time>
      </trkpt>
      <trkpt lat="46.48717" lon="5.3584">
        <ele>232.8</ele>
        <time>2022-04-21T12:21:37Z</time>
      </trkpt>
      <trkpt lat="46.48737" lon="5.35793">
        <ele>232</ele>
        <time>2022-04-21T12:21:42Z</time>
      </trkpt>
      <trkpt lat="46.48754" lon="5.35757">
        <ele>231</ele>
        <time>2022-04-21T12:21:46Z</time>
      </trkpt>
      <trkpt lat="46.48774" lon="5.35712">
        <ele>230.6</ele>
        <time>2022-04-21T12:21:51Z</time>
      </trkpt>
      <trkpt lat="46.48804" lon="5.35643">
        <ele>230.4</ele>
        <time>2022-04-21T12:21:59Z</time>
      </trkpt>
      <trkpt lat="46.48808" lon="5.35635">
        <ele>230.4</ele>
        <time>2022-04-21T12:22:00Z</time>
      </trkpt>
      <trkpt lat="46.48838" lon="5.35572">
        <ele>230.6</ele>
        <time>2022-04-21T12:22:08Z</time>
      </trkpt>
      <trkpt lat="46.48849" lon="5.35563">
        <ele>230.6</ele>
        <time>2022-04-21T12:22:10Z</time>
      </trkpt>
      <trkpt lat="46.48855" lon="5.35562">
        <ele>230.6</ele>
        <time>2022-04-21T12:22:11Z</time>
      </trkpt>
      <trkpt lat="46.48891" lon="5.3556">
        <ele>230.4</ele>
        <time>2022-04-21T12:22:16Z</time>
      </trkpt>
      <trkpt lat="46.48935" lon="5.35558">
        <ele>229.8</ele>
        <time>2022-04-21T12:22:22Z</time>
      </trkpt>
      <trkpt lat="46.48951" lon="5.35558">
        <ele>229.4</ele>
        <time>2022-04-21T12:22:24Z</time>
      </trkpt>
      <trkpt lat="46.48984" lon="5.35556">
        <ele>228.6</ele>
        <time>2022-04-21T12:22:28Z</time>
      </trkpt>
      <trkpt lat="46.49007" lon="5.35555">
        <ele>228</ele>
        <time>2022-04-21T12:22:31Z</time>
      </trkpt>
      <trkpt lat="46.49057" lon="5.35552">
        <ele>228</ele>
        <time>2022-04-21T12:22:38Z</time>
      </trkpt>
      <trkpt lat="46.49063" lon="5.35551">
        <ele>228</ele>
        <time>2022-04-21T12:22:39Z</time>
      </trkpt>
      <trkpt lat="46.49081" lon="5.35548">
        <ele>228.2</ele>
        <time>2022-04-21T12:22:42Z</time>
      </trkpt>
      <trkpt lat="46.49131" lon="5.35547">
        <ele>228.6</ele>
        <time>2022-04-21T12:22:49Z</time>
      </trkpt>
      <trkpt lat="46.49148" lon="5.35547">
        <ele>229.2</ele>
        <time>2022-04-21T12:22:52Z</time>
      </trkpt>
      <trkpt lat="46.49169" lon="5.35546">
        <ele>229.8</ele>
        <time>2022-04-21T12:22:56Z</time>
      </trkpt>
      <trkpt lat="46.49173" lon="5.35547">
        <ele>230</ele>
        <time>2022-04-21T12:22:57Z</time>
      </trkpt>
      <trkpt lat="46.4919" lon="5.35545">
        <ele>230.6</ele>
        <time>2022-04-21T12:23:01Z</time>
      </trkpt>
      <trkpt lat="46.49195" lon="5.35546">
        <ele>230.8</ele>
        <time>2022-04-21T12:23:02Z</time>
      </trkpt>
      <trkpt lat="46.49211" lon="5.35544">
        <ele>231</ele>
        <time>2022-04-21T12:23:05Z</time>
      </trkpt>
      <trkpt lat="46.49255" lon="5.35541">
        <ele>231.6</ele>
        <time>2022-04-21T12:23:11Z</time>
      </trkpt>
      <trkpt lat="46.49297" lon="5.35537">
        <ele>231.4</ele>
        <time>2022-04-21T12:23:17Z</time>
      </trkpt>
      <trkpt lat="46.49338" lon="5.35535">
        <ele>231.2</ele>
        <time>2022-04-21T12:23:23Z</time>
      </trkpt>
      <trkpt lat="46.49377" lon="5.35536">
        <ele>231</ele>
        <time>2022-04-21T12:23:28Z</time>
      </trkpt>
      <trkpt lat="46.49423" lon="5.35552">
        <ele>229.8</ele>
        <time>2022-04-21T12:23:34Z</time>
      </trkpt>
      <trkpt lat="46.49431" lon="5.35554">
        <ele>229.6</ele>
        <time>2022-04-21T12:23:35Z</time>
      </trkpt>
      <trkpt lat="46.49455" lon="5.35563">
        <ele>229.2</ele>
        <time>2022-04-21T12:23:38Z</time>
      </trkpt>
      <trkpt lat="46.49506" lon="5.35584">
        <ele>228.8</ele>
        <time>2022-04-21T12:23:45Z</time>
      </trkpt>
      <trkpt lat="46.49528" lon="5.35593">
        <ele>228.8</ele>
        <time>2022-04-21T12:23:48Z</time>
      </trkpt>
      <trkpt lat="46.49563" lon="5.35607">
        <ele>228.2</ele>
        <time>2022-04-21T12:23:53Z</time>
      </trkpt>
      <trkpt lat="46.49578" lon="5.35612">
        <ele>227.8</ele>
        <time>2022-04-21T12:23:55Z</time>
      </trkpt>
      <trkpt lat="46.49592" lon="5.35616">
        <ele>227.6</ele>
        <time>2022-04-21T12:23:57Z</time>
      </trkpt>
      <trkpt lat="46.49643" lon="5.35631">
        <ele>226.6</ele>
        <time>2022-04-21T12:24:04Z</time>
      </trkpt>
      <trkpt lat="46.4968" lon="5.35642">
        <ele>226</ele>
        <time>2022-04-21T12:24:09Z</time>
      </trkpt>
      <trkpt lat="46.49692" lon="5.35647">
        <ele>225.8</ele>
        <time>2022-04-21T12:24:11Z</time>
      </trkpt>
      <trkpt lat="46.49696" lon="5.35651">
        <ele>225.8</ele>
        <time>2022-04-21T12:24:12Z</time>
      </trkpt>
      <trkpt lat="46.49697" lon="5.35657">
        <ele>225.4</ele>
        <time>2022-04-21T12:24:13Z</time>
      </trkpt>
      <trkpt lat="46.49697" lon="5.35665">
        <ele>225</ele>
        <time>2022-04-21T12:24:14Z</time>
      </trkpt>
      <trkpt lat="46.49696" lon="5.35673">
        <ele>225</ele>
        <time>2022-04-21T12:24:15Z</time>
      </trkpt>
      <trkpt lat="46.49689" lon="5.35702">
        <ele>224.4</ele>
        <time>2022-04-21T12:24:18Z</time>
      </trkpt>
      <trkpt lat="46.49675" lon="5.35741">
        <ele>223.4</ele>
        <time>2022-04-21T12:24:22Z</time>
      </trkpt>
      <trkpt lat="46.49666" lon="5.35761">
        <ele>222.8</ele>
        <time>2022-04-21T12:24:24Z</time>
      </trkpt>
      <trkpt lat="46.49656" lon="5.3578">
        <ele>222.2</ele>
        <time>2022-04-21T12:24:26Z</time>
      </trkpt>
      <trkpt lat="46.4964" lon="5.35823">
        <ele>221.4</ele>
        <time>2022-04-21T12:24:30Z</time>
      </trkpt>
      <trkpt lat="46.49636" lon="5.35849">
        <ele>221.2</ele>
        <time>2022-04-21T12:24:32Z</time>
      </trkpt>
      <trkpt lat="46.49636" lon="5.35877">
        <ele>220.8</ele>
        <time>2022-04-21T12:24:34Z</time>
      </trkpt>
      <trkpt lat="46.49638" lon="5.3592">
        <ele>220</ele>
        <time>2022-04-21T12:24:37Z</time>
      </trkpt>
      <trkpt lat="46.49641" lon="5.35961">
        <ele>218.8</ele>
        <time>2022-04-21T12:24:40Z</time>
      </trkpt>
      <trkpt lat="46.49642" lon="5.35974">
        <ele>218.4</ele>
        <time>2022-04-21T12:24:41Z</time>
      </trkpt>
      <trkpt lat="46.49646" lon="5.36049">
        <ele>217.8</ele>
        <time>2022-04-21T12:24:47Z</time>
      </trkpt>
      <trkpt lat="46.49647" lon="5.36061">
        <ele>217.8</ele>
        <time>2022-04-21T12:24:48Z</time>
      </trkpt>
      <trkpt lat="46.49651" lon="5.36084">
        <ele>217.4</ele>
        <time>2022-04-21T12:24:50Z</time>
      </trkpt>
      <trkpt lat="46.49654" lon="5.36095">
        <ele>217.6</ele>
        <time>2022-04-21T12:24:51Z</time>
      </trkpt>
      <trkpt lat="46.49666" lon="5.36125">
        <ele>217.4</ele>
        <time>2022-04-21T12:24:54Z</time>
      </trkpt>
      <trkpt lat="46.4967" lon="5.36134">
        <ele>217.4</ele>
        <time>2022-04-21T12:24:55Z</time>
      </trkpt>
      <trkpt lat="46.49693" lon="5.36173">
        <ele>217.6</ele>
        <time>2022-04-21T12:25:00Z</time>
      </trkpt>
      <trkpt lat="46.49698" lon="5.36181">
        <ele>217.6</ele>
        <time>2022-04-21T12:25:01Z</time>
      </trkpt>
      <trkpt lat="46.49721" lon="5.3622">
        <ele>217.8</ele>
        <time>2022-04-21T12:25:06Z</time>
      </trkpt>
      <trkpt lat="46.4975" lon="5.36283">
        <ele>218.4</ele>
        <time>2022-04-21T12:25:14Z</time>
      </trkpt>
      <trkpt lat="46.49767" lon="5.36323">
        <ele>219</ele>
        <time>2022-04-21T12:25:20Z</time>
      </trkpt>
      <trkpt lat="46.49769" lon="5.36329">
        <ele>219</ele>
        <time>2022-04-21T12:25:21Z</time>
      </trkpt>
      <trkpt lat="46.49783" lon="5.36359">
        <ele>220</ele>
        <time>2022-04-21T12:25:26Z</time>
      </trkpt>
      <trkpt lat="46.49791" lon="5.36376">
        <ele>220.8</ele>
        <time>2022-04-21T12:25:29Z</time>
      </trkpt>
      <trkpt lat="46.49796" lon="5.36388">
        <ele>221</ele>
        <time>2022-04-21T12:25:31Z</time>
      </trkpt>
      <trkpt lat="46.49812" lon="5.36427">
        <ele>222</ele>
        <time>2022-04-21T12:25:37Z</time>
      </trkpt>
      <trkpt lat="46.49833" lon="5.36471">
        <ele>223</ele>
        <time>2022-04-21T12:25:44Z</time>
      </trkpt>
      <trkpt lat="46.49847" lon="5.36494">
        <ele>223.6</ele>
        <time>2022-04-21T12:25:48Z</time>
      </trkpt>
      <trkpt lat="46.49872" lon="5.36531">
        <ele>224.2</ele>
        <time>2022-04-21T12:25:55Z</time>
      </trkpt>
      <trkpt lat="46.49889" lon="5.36557">
        <ele>224.8</ele>
        <time>2022-04-21T12:26:00Z</time>
      </trkpt>
      <trkpt lat="46.49903" lon="5.3658">
        <ele>225.4</ele>
        <time>2022-04-21T12:26:04Z</time>
      </trkpt>
      <trkpt lat="46.49907" lon="5.36586">
        <ele>225.6</ele>
        <time>2022-04-21T12:26:05Z</time>
      </trkpt>
      <trkpt lat="46.49918" lon="5.36611">
        <ele>226.2</ele>
        <time>2022-04-21T12:26:09Z</time>
      </trkpt>
      <trkpt lat="46.49922" lon="5.36624">
        <ele>226.2</ele>
        <time>2022-04-21T12:26:11Z</time>
      </trkpt>
      <trkpt lat="46.49924" lon="5.36629">
        <ele>226.2</ele>
        <time>2022-04-21T12:26:12Z</time>
      </trkpt>
      <trkpt lat="46.49928" lon="5.36631">
        <ele>226.2</ele>
        <time>2022-04-21T12:26:13Z</time>
      </trkpt>
      <trkpt lat="46.49934" lon="5.36624">
        <ele>226.4</ele>
        <time>2022-04-21T12:26:15Z</time>
      </trkpt>
      <trkpt lat="46.49936" lon="5.36617">
        <ele>226.6</ele>
        <time>2022-04-21T12:26:16Z</time>
      </trkpt>
      <trkpt lat="46.49939" lon="5.3661">
        <ele>226.6</ele>
        <time>2022-04-21T12:26:17Z</time>
      </trkpt>
      <trkpt lat="46.49947" lon="5.36596">
        <ele>226.6</ele>
        <time>2022-04-21T12:26:19Z</time>
      </trkpt>
      <trkpt lat="46.49951" lon="5.36591">
        <ele>226.6</ele>
        <time>2022-04-21T12:26:20Z</time>
      </trkpt>
      <trkpt lat="46.49957" lon="5.36586">
        <ele>226.6</ele>
        <time>2022-04-21T12:26:21Z</time>
      </trkpt>
      <trkpt lat="46.49968" lon="5.36582">
        <ele>226.6</ele>
        <time>2022-04-21T12:26:23Z</time>
      </trkpt>
      <trkpt lat="46.50001" lon="5.36581">
        <ele>227</ele>
        <time>2022-04-21T12:26:29Z</time>
      </trkpt>
      <trkpt lat="46.50007" lon="5.3658">
        <ele>227.2</ele>
        <time>2022-04-21T12:26:30Z</time>
      </trkpt>
      <trkpt lat="46.50012" lon="5.36578">
        <ele>227.2</ele>
        <time>2022-04-21T12:26:31Z</time>
      </trkpt>
      <trkpt lat="46.50017" lon="5.36576">
        <ele>227.6</ele>
        <time>2022-04-21T12:26:32Z</time>
      </trkpt>
      <trkpt lat="46.50027" lon="5.3657">
        <ele>228</ele>
        <time>2022-04-21T12:26:34Z</time>
      </trkpt>
      <trkpt lat="46.50031" lon="5.36565">
        <ele>228.2</ele>
        <time>2022-04-21T12:26:35Z</time>
      </trkpt>
      <trkpt lat="46.50039" lon="5.36556">
        <ele>228.2</ele>
        <time>2022-04-21T12:26:37Z</time>
      </trkpt>
      <trkpt lat="46.50046" lon="5.36545">
        <ele>228.4</ele>
        <time>2022-04-21T12:26:39Z</time>
      </trkpt>
      <trkpt lat="46.5005" lon="5.3654">
        <ele>228.6</ele>
        <time>2022-04-21T12:26:40Z</time>
      </trkpt>
      <trkpt lat="46.50054" lon="5.36535">
        <ele>228.6</ele>
        <time>2022-04-21T12:26:41Z</time>
      </trkpt>
      <trkpt lat="46.50061" lon="5.36523">
        <ele>228.8</ele>
        <time>2022-04-21T12:26:43Z</time>
      </trkpt>
      <trkpt lat="46.50071" lon="5.36503">
        <ele>229.4</ele>
        <time>2022-04-21T12:26:46Z</time>
      </trkpt>
      <trkpt lat="46.50078" lon="5.3649">
        <ele>229.8</ele>
        <time>2022-04-21T12:26:48Z</time>
      </trkpt>
      <trkpt lat="46.50089" lon="5.36468">
        <ele>230.2</ele>
        <time>2022-04-21T12:26:51Z</time>
      </trkpt>
      <trkpt lat="46.50112" lon="5.36427">
        <ele>230</ele>
        <time>2022-04-21T12:26:56Z</time>
      </trkpt>
      <trkpt lat="46.50152" lon="5.36362">
        <ele>228.8</ele>
        <time>2022-04-21T12:27:04Z</time>
      </trkpt>
      <trkpt lat="46.50161" lon="5.36347">
        <ele>228.8</ele>
        <time>2022-04-21T12:27:06Z</time>
      </trkpt>
      <trkpt lat="46.5017" lon="5.36333">
        <ele>228.6</ele>
        <time>2022-04-21T12:27:08Z</time>
      </trkpt>
      <trkpt lat="46.50201" lon="5.36289">
        <ele>228.6</ele>
        <time>2022-04-21T12:27:15Z</time>
      </trkpt>
      <trkpt lat="46.5023" lon="5.36274">
        <ele>228.8</ele>
        <time>2022-04-21T12:27:20Z</time>
      </trkpt>
      <trkpt lat="46.50277" lon="5.36257">
        <ele>228.6</ele>
        <time>2022-04-21T12:27:27Z</time>
      </trkpt>
      <trkpt lat="46.50315" lon="5.36234">
        <ele>227.4</ele>
        <time>2022-04-21T12:27:32Z</time>
      </trkpt>
      <trkpt lat="46.50338" lon="5.36212">
        <ele>226.6</ele>
        <time>2022-04-21T12:27:35Z</time>
      </trkpt>
      <trkpt lat="46.50345" lon="5.36203">
        <ele>226.2</ele>
        <time>2022-04-21T12:27:36Z</time>
      </trkpt>
      <trkpt lat="46.50352" lon="5.36195">
        <ele>225.6</ele>
        <time>2022-04-21T12:27:37Z</time>
      </trkpt>
      <trkpt lat="46.50365" lon="5.36178">
        <ele>224.6</ele>
        <time>2022-04-21T12:27:39Z</time>
      </trkpt>
      <trkpt lat="46.50383" lon="5.36151">
        <ele>223.2</ele>
        <time>2022-04-21T12:27:42Z</time>
      </trkpt>
      <trkpt lat="46.504" lon="5.36125">
        <ele>223</ele>
        <time>2022-04-21T12:27:45Z</time>
      </trkpt>
      <trkpt lat="46.50434" lon="5.36069">
        <ele>222.8</ele>
        <time>2022-04-21T12:27:52Z</time>
      </trkpt>
      <trkpt lat="46.50437" lon="5.36061">
        <ele>223</ele>
        <time>2022-04-21T12:27:53Z</time>
      </trkpt>
      <trkpt lat="46.50441" lon="5.36046">
        <ele>223</ele>
        <time>2022-04-21T12:27:55Z</time>
      </trkpt>
      <trkpt lat="46.50442" lon="5.36039">
        <ele>223.2</ele>
        <time>2022-04-21T12:27:56Z</time>
      </trkpt>
      <trkpt lat="46.50442" lon="5.36032">
        <ele>223.2</ele>
        <time>2022-04-21T12:27:57Z</time>
      </trkpt>
      <trkpt lat="46.50443" lon="5.35992">
        <ele>224.2</ele>
        <time>2022-04-21T12:28:02Z</time>
      </trkpt>
      <trkpt lat="46.50443" lon="5.35983">
        <ele>224.4</ele>
        <time>2022-04-21T12:28:03Z</time>
      </trkpt>
      <trkpt lat="46.50443" lon="5.35929">
        <ele>225.2</ele>
        <time>2022-04-21T12:28:09Z</time>
      </trkpt>
      <trkpt lat="46.50443" lon="5.3592">
        <ele>225.4</ele>
        <time>2022-04-21T12:28:10Z</time>
      </trkpt>
      <trkpt lat="46.50442" lon="5.35861">
        <ele>226</ele>
        <time>2022-04-21T12:28:17Z</time>
      </trkpt>
      <trkpt lat="46.50442" lon="5.35826">
        <ele>226.4</ele>
        <time>2022-04-21T12:28:21Z</time>
      </trkpt>
      <trkpt lat="46.50442" lon="5.35788">
        <ele>226.6</ele>
        <time>2022-04-21T12:28:25Z</time>
      </trkpt>
      <trkpt lat="46.50447" lon="5.3572">
        <ele>226.2</ele>
        <time>2022-04-21T12:28:32Z</time>
      </trkpt>
      <trkpt lat="46.50451" lon="5.35701">
        <ele>226</ele>
        <time>2022-04-21T12:28:34Z</time>
      </trkpt>
      <trkpt lat="46.50462" lon="5.35674">
        <ele>225.8</ele>
        <time>2022-04-21T12:28:37Z</time>
      </trkpt>
      <trkpt lat="46.50493" lon="5.35607">
        <ele>225.4</ele>
        <time>2022-04-21T12:28:45Z</time>
      </trkpt>
      <trkpt lat="46.50515" lon="5.35558">
        <ele>225.8</ele>
        <time>2022-04-21T12:28:51Z</time>
      </trkpt>
      <trkpt lat="46.50533" lon="5.35521">
        <ele>226</ele>
        <time>2022-04-21T12:28:56Z</time>
      </trkpt>
      <trkpt lat="46.50556" lon="5.35469">
        <ele>226.6</ele>
        <time>2022-04-21T12:29:03Z</time>
      </trkpt>
      <trkpt lat="46.5056" lon="5.35462">
        <ele>226.6</ele>
        <time>2022-04-21T12:29:04Z</time>
      </trkpt>
      <trkpt lat="46.50566" lon="5.35447">
        <ele>226.6</ele>
        <time>2022-04-21T12:29:06Z</time>
      </trkpt>
      <trkpt lat="46.50576" lon="5.35425">
        <ele>226.8</ele>
        <time>2022-04-21T12:29:09Z</time>
      </trkpt>
      <trkpt lat="46.50589" lon="5.35399">
        <ele>227</ele>
        <time>2022-04-21T12:29:13Z</time>
      </trkpt>
      <trkpt lat="46.50594" lon="5.35387">
        <ele>227</ele>
        <time>2022-04-21T12:29:15Z</time>
      </trkpt>
      <trkpt lat="46.50611" lon="5.35353">
        <ele>227.4</ele>
        <time>2022-04-21T12:29:20Z</time>
      </trkpt>
      <trkpt lat="46.50618" lon="5.35339">
        <ele>227.6</ele>
        <time>2022-04-21T12:29:22Z</time>
      </trkpt>
      <trkpt lat="46.50622" lon="5.35333">
        <ele>227.6</ele>
        <time>2022-04-21T12:29:23Z</time>
      </trkpt>
      <trkpt lat="46.5063" lon="5.3532">
        <ele>227.8</ele>
        <time>2022-04-21T12:29:25Z</time>
      </trkpt>
      <trkpt lat="46.50656" lon="5.35291">
        <ele>228.4</ele>
        <time>2022-04-21T12:29:30Z</time>
      </trkpt>
      <trkpt lat="46.50701" lon="5.35241">
        <ele>226.8</ele>
        <time>2022-04-21T12:29:38Z</time>
      </trkpt>
      <trkpt lat="46.50712" lon="5.35227">
        <ele>226.4</ele>
        <time>2022-04-21T12:29:40Z</time>
      </trkpt>
      <trkpt lat="46.50726" lon="5.35203">
        <ele>226</ele>
        <time>2022-04-21T12:29:43Z</time>
      </trkpt>
      <trkpt lat="46.5073" lon="5.35194">
        <ele>225.8</ele>
        <time>2022-04-21T12:29:44Z</time>
      </trkpt>
      <trkpt lat="46.5074" lon="5.35168">
        <ele>225.4</ele>
        <time>2022-04-21T12:29:47Z</time>
      </trkpt>
      <trkpt lat="46.50749" lon="5.3514">
        <ele>224.8</ele>
        <time>2022-04-21T12:29:50Z</time>
      </trkpt>
      <trkpt lat="46.50758" lon="5.35121">
        <ele>224.6</ele>
        <time>2022-04-21T12:29:52Z</time>
      </trkpt>
      <trkpt lat="46.50762" lon="5.35112">
        <ele>224.2</ele>
        <time>2022-04-21T12:29:53Z</time>
      </trkpt>
      <trkpt lat="46.50773" lon="5.35093">
        <ele>223.8</ele>
        <time>2022-04-21T12:29:55Z</time>
      </trkpt>
      <trkpt lat="46.50792" lon="5.35067">
        <ele>223.2</ele>
        <time>2022-04-21T12:29:58Z</time>
      </trkpt>
      <trkpt lat="46.50815" lon="5.3504">
        <ele>221.8</ele>
        <time>2022-04-21T12:30:01Z</time>
      </trkpt>
      <trkpt lat="46.50844" lon="5.35005">
        <ele>220.6</ele>
        <time>2022-04-21T12:30:05Z</time>
      </trkpt>
      <trkpt lat="46.50852" lon="5.34996">
        <ele>220.4</ele>
        <time>2022-04-21T12:30:06Z</time>
      </trkpt>
      <trkpt lat="46.50858" lon="5.34987">
        <ele>219.8</ele>
        <time>2022-04-21T12:30:07Z</time>
      </trkpt>
      <trkpt lat="46.50865" lon="5.34979">
        <ele>219.4</ele>
        <time>2022-04-21T12:30:08Z</time>
      </trkpt>
      <trkpt lat="46.50877" lon="5.34966">
        <ele>219.2</ele>
        <time>2022-04-21T12:30:10Z</time>
      </trkpt>
      <trkpt lat="46.50896" lon="5.34947">
        <ele>219</ele>
        <time>2022-04-21T12:30:13Z</time>
      </trkpt>
      <trkpt lat="46.50906" lon="5.34933">
        <ele>219</ele>
        <time>2022-04-21T12:30:15Z</time>
      </trkpt>
      <trkpt lat="46.50933" lon="5.34894">
        <ele>219</ele>
        <time>2022-04-21T12:30:20Z</time>
      </trkpt>
      <trkpt lat="46.50947" lon="5.34866">
        <ele>218.6</ele>
        <time>2022-04-21T12:30:23Z</time>
      </trkpt>
      <trkpt lat="46.50951" lon="5.34857">
        <ele>218.4</ele>
        <time>2022-04-21T12:30:24Z</time>
      </trkpt>
      <trkpt lat="46.50955" lon="5.34847">
        <ele>218.4</ele>
        <time>2022-04-21T12:30:25Z</time>
      </trkpt>
      <trkpt lat="46.5096" lon="5.34838">
        <ele>218.2</ele>
        <time>2022-04-21T12:30:26Z</time>
      </trkpt>
      <trkpt lat="46.50968" lon="5.34817">
        <ele>217.8</ele>
        <time>2022-04-21T12:30:28Z</time>
      </trkpt>
      <trkpt lat="46.50976" lon="5.34797">
        <ele>217.2</ele>
        <time>2022-04-21T12:30:30Z</time>
      </trkpt>
      <trkpt lat="46.5099" lon="5.34754">
        <ele>216.4</ele>
        <time>2022-04-21T12:30:34Z</time>
      </trkpt>
      <trkpt lat="46.50993" lon="5.34741">
        <ele>216</ele>
        <time>2022-04-21T12:30:35Z</time>
      </trkpt>
      <trkpt lat="46.50998" lon="5.34715">
        <ele>215.6</ele>
        <time>2022-04-21T12:30:37Z</time>
      </trkpt>
      <trkpt lat="46.51009" lon="5.34686">
        <ele>215</ele>
        <time>2022-04-21T12:30:40Z</time>
      </trkpt>
      <trkpt lat="46.51014" lon="5.34675">
        <ele>214.6</ele>
        <time>2022-04-21T12:30:41Z</time>
      </trkpt>
      <trkpt lat="46.51018" lon="5.34664">
        <ele>213.8</ele>
        <time>2022-04-21T12:30:42Z</time>
      </trkpt>
      <trkpt lat="46.51022" lon="5.34651">
        <ele>213.4</ele>
        <time>2022-04-21T12:30:43Z</time>
      </trkpt>
      <trkpt lat="46.51031" lon="5.34628">
        <ele>212.4</ele>
        <time>2022-04-21T12:30:45Z</time>
      </trkpt>
      <trkpt lat="46.51036" lon="5.34616">
        <ele>212.2</ele>
        <time>2022-04-21T12:30:46Z</time>
      </trkpt>
      <trkpt lat="46.51055" lon="5.34565">
        <ele>211.2</ele>
        <time>2022-04-21T12:30:50Z</time>
      </trkpt>
      <trkpt lat="46.51059" lon="5.34551">
        <ele>210.6</ele>
        <time>2022-04-21T12:30:51Z</time>
      </trkpt>
      <trkpt lat="46.51073" lon="5.3451">
        <ele>209</ele>
        <time>2022-04-21T12:30:54Z</time>
      </trkpt>
      <trkpt lat="46.51083" lon="5.34483">
        <ele>207.8</ele>
        <time>2022-04-21T12:30:56Z</time>
      </trkpt>
      <trkpt lat="46.51092" lon="5.34454">
        <ele>206.8</ele>
        <time>2022-04-21T12:30:58Z</time>
      </trkpt>
      <trkpt lat="46.51097" lon="5.34442">
        <ele>206.2</ele>
        <time>2022-04-21T12:30:59Z</time>
      </trkpt>
      <trkpt lat="46.51106" lon="5.34417">
        <ele>205.4</ele>
        <time>2022-04-21T12:31:01Z</time>
      </trkpt>
      <trkpt lat="46.51111" lon="5.34394">
        <ele>204.6</ele>
        <time>2022-04-21T12:31:03Z</time>
      </trkpt>
      <trkpt lat="46.51114" lon="5.34383">
        <ele>204.4</ele>
        <time>2022-04-21T12:31:04Z</time>
      </trkpt>
      <trkpt lat="46.51119" lon="5.34375">
        <ele>204</ele>
        <time>2022-04-21T12:31:05Z</time>
      </trkpt>
      <trkpt lat="46.51124" lon="5.34368">
        <ele>203.6</ele>
        <time>2022-04-21T12:31:06Z</time>
      </trkpt>
      <trkpt lat="46.51137" lon="5.34361">
        <ele>203</ele>
        <time>2022-04-21T12:31:08Z</time>
      </trkpt>
      <trkpt lat="46.51173" lon="5.34348">
        <ele>202.4</ele>
        <time>2022-04-21T12:31:13Z</time>
      </trkpt>
      <trkpt lat="46.51179" lon="5.34346">
        <ele>202.2</ele>
        <time>2022-04-21T12:31:14Z</time>
      </trkpt>
      <trkpt lat="46.51186" lon="5.34345">
        <ele>202.2</ele>
        <time>2022-04-21T12:31:15Z</time>
      </trkpt>
      <trkpt lat="46.51196" lon="5.34346">
        <ele>202.6</ele>
        <time>2022-04-21T12:31:17Z</time>
      </trkpt>
      <trkpt lat="46.512" lon="5.34347">
        <ele>202.8</ele>
        <time>2022-04-21T12:31:18Z</time>
      </trkpt>
      <trkpt lat="46.5121" lon="5.34352">
        <ele>203.4</ele>
        <time>2022-04-21T12:31:20Z</time>
      </trkpt>
      <trkpt lat="46.51218" lon="5.34358">
        <ele>204.4</ele>
        <time>2022-04-21T12:31:22Z</time>
      </trkpt>
      <trkpt lat="46.51221" lon="5.34361">
        <ele>204.6</ele>
        <time>2022-04-21T12:31:23Z</time>
      </trkpt>
      <trkpt lat="46.51229" lon="5.34371">
        <ele>205.8</ele>
        <time>2022-04-21T12:31:26Z</time>
      </trkpt>
      <trkpt lat="46.51234" lon="5.34379">
        <ele>206.4</ele>
        <time>2022-04-21T12:31:28Z</time>
      </trkpt>
      <trkpt lat="46.51237" lon="5.34382">
        <ele>207</ele>
        <time>2022-04-21T12:31:29Z</time>
      </trkpt>
      <trkpt lat="46.51247" lon="5.34399">
        <ele>208</ele>
        <time>2022-04-21T12:31:33Z</time>
      </trkpt>
      <trkpt lat="46.51255" lon="5.34419">
        <ele>209.2</ele>
        <time>2022-04-21T12:31:37Z</time>
      </trkpt>
      <trkpt lat="46.51258" lon="5.34429">
        <ele>209.6</ele>
        <time>2022-04-21T12:31:39Z</time>
      </trkpt>
      <trkpt lat="46.51262" lon="5.34439">
        <ele>210.2</ele>
        <time>2022-04-21T12:31:41Z</time>
      </trkpt>
      <trkpt lat="46.51271" lon="5.34454">
        <ele>211.2</ele>
        <time>2022-04-21T12:31:44Z</time>
      </trkpt>
      <trkpt lat="46.51273" lon="5.34459">
        <ele>211.4</ele>
        <time>2022-04-21T12:31:45Z</time>
      </trkpt>
      <trkpt lat="46.51289" lon="5.3448">
        <ele>212.6</ele>
        <time>2022-04-21T12:31:50Z</time>
      </trkpt>
      <trkpt lat="46.51292" lon="5.34484">
        <ele>212.8</ele>
        <time>2022-04-21T12:31:51Z</time>
      </trkpt>
      <trkpt lat="46.51298" lon="5.34493">
        <ele>213.4</ele>
        <time>2022-04-21T12:31:54Z</time>
      </trkpt>
      <trkpt lat="46.51299" lon="5.34495">
        <ele>213.6</ele>
        <time>2022-04-21T12:31:55Z</time>
      </trkpt>
      <trkpt lat="46.513" lon="5.34499">
        <ele>214</ele>
        <time>2022-04-21T12:31:56Z</time>
      </trkpt>
      <trkpt lat="46.51315" lon="5.34509">
        <ele>214.4</ele>
        <time>2022-04-21T12:32:00Z</time>
      </trkpt>
      <trkpt lat="46.51319" lon="5.34513">
        <ele>214.8</ele>
        <time>2022-04-21T12:32:01Z</time>
      </trkpt>
      <trkpt lat="46.51328" lon="5.34522">
        <ele>215.2</ele>
        <time>2022-04-21T12:32:05Z</time>
      </trkpt>
      <trkpt lat="46.5134" lon="5.34533">
        <ele>215.8</ele>
        <time>2022-04-21T12:32:08Z</time>
      </trkpt>
      <trkpt lat="46.51343" lon="5.34535">
        <ele>215.8</ele>
        <time>2022-04-21T12:32:09Z</time>
      </trkpt>
      <trkpt lat="46.51367" lon="5.34558">
        <ele>216.4</ele>
        <time>2022-04-21T12:32:15Z</time>
      </trkpt>
      <trkpt lat="46.51384" lon="5.34573">
        <ele>216.6</ele>
        <time>2022-04-21T12:32:19Z</time>
      </trkpt>
      <trkpt lat="46.5139" lon="5.34577">
        <ele>216.8</ele>
        <time>2022-04-21T12:32:20Z</time>
      </trkpt>
      <trkpt lat="46.51425" lon="5.34608">
        <ele>216.8</ele>
        <time>2022-04-21T12:32:27Z</time>
      </trkpt>
      <trkpt lat="46.51432" lon="5.34622">
        <ele>216.8</ele>
        <time>2022-04-21T12:32:29Z</time>
      </trkpt>
      <trkpt lat="46.51441" lon="5.34646">
        <ele>216.8</ele>
        <time>2022-04-21T12:32:32Z</time>
      </trkpt>
      <trkpt lat="46.51459" lon="5.34708">
        <ele>217.2</ele>
        <time>2022-04-21T12:32:40Z</time>
      </trkpt>
      <trkpt lat="46.51482" lon="5.34782">
        <ele>217.4</ele>
        <time>2022-04-21T12:32:49Z</time>
      </trkpt>
      <trkpt lat="46.51485" lon="5.34789">
        <ele>217.4</ele>
        <time>2022-04-21T12:32:50Z</time>
      </trkpt>
      <trkpt lat="46.51493" lon="5.34823">
        <ele>217.4</ele>
        <time>2022-04-21T12:32:54Z</time>
      </trkpt>
      <trkpt lat="46.51496" lon="5.3484">
        <ele>217.6</ele>
        <time>2022-04-21T12:32:56Z</time>
      </trkpt>
      <trkpt lat="46.51499" lon="5.349">
        <ele>217.2</ele>
        <time>2022-04-21T12:33:02Z</time>
      </trkpt>
      <trkpt lat="46.51504" lon="5.34984">
        <ele>216.4</ele>
        <time>2022-04-21T12:33:10Z</time>
      </trkpt>
      <trkpt lat="46.51506" lon="5.35068">
        <ele>215.6</ele>
        <time>2022-04-21T12:33:18Z</time>
      </trkpt>
      <trkpt lat="46.51506" lon="5.35107">
        <ele>215.4</ele>
        <time>2022-04-21T12:33:22Z</time>
      </trkpt>
      <trkpt lat="46.51505" lon="5.35137">
        <ele>215.4</ele>
        <time>2022-04-21T12:33:25Z</time>
      </trkpt>
      <trkpt lat="46.51506" lon="5.35165">
        <ele>215.2</ele>
        <time>2022-04-21T12:33:28Z</time>
      </trkpt>
      <trkpt lat="46.51511" lon="5.35184">
        <ele>215.4</ele>
        <time>2022-04-21T12:33:30Z</time>
      </trkpt>
      <trkpt lat="46.51522" lon="5.35198">
        <ele>215.4</ele>
        <time>2022-04-21T12:33:32Z</time>
      </trkpt>
      <trkpt lat="46.51527" lon="5.35202">
        <ele>215.6</ele>
        <time>2022-04-21T12:33:33Z</time>
      </trkpt>
      <trkpt lat="46.51558" lon="5.35224">
        <ele>215.8</ele>
        <time>2022-04-21T12:33:38Z</time>
      </trkpt>
      <trkpt lat="46.51563" lon="5.35232">
        <ele>215.8</ele>
        <time>2022-04-21T12:33:39Z</time>
      </trkpt>
      <trkpt lat="46.51566" lon="5.35239">
        <ele>215.8</ele>
        <time>2022-04-21T12:33:40Z</time>
      </trkpt>
      <trkpt lat="46.5157" lon="5.3526">
        <ele>216</ele>
        <time>2022-04-21T12:33:42Z</time>
      </trkpt>
      <trkpt lat="46.51567" lon="5.35323">
        <ele>216.6</ele>
        <time>2022-04-21T12:33:49Z</time>
      </trkpt>
      <trkpt lat="46.51567" lon="5.35333">
        <ele>216.6</ele>
        <time>2022-04-21T12:33:50Z</time>
      </trkpt>
      <trkpt lat="46.51565" lon="5.35361">
        <ele>217</ele>
        <time>2022-04-21T12:33:53Z</time>
      </trkpt>
      <trkpt lat="46.51562" lon="5.35418">
        <ele>217</ele>
        <time>2022-04-21T12:33:59Z</time>
      </trkpt>
      <trkpt lat="46.51561" lon="5.35499">
        <ele>217</ele>
        <time>2022-04-21T12:34:08Z</time>
      </trkpt>
      <trkpt lat="46.5156" lon="5.35526">
        <ele>217</ele>
        <time>2022-04-21T12:34:11Z</time>
      </trkpt>
      <trkpt lat="46.51559" lon="5.3561">
        <ele>217.4</ele>
        <time>2022-04-21T12:34:20Z</time>
      </trkpt>
      <trkpt lat="46.51558" lon="5.3562">
        <ele>217.2</ele>
        <time>2022-04-21T12:34:21Z</time>
      </trkpt>
      <trkpt lat="46.51555" lon="5.35684">
        <ele>217</ele>
        <time>2022-04-21T12:34:27Z</time>
      </trkpt>
      <trkpt lat="46.51556" lon="5.35692">
        <ele>216.8</ele>
        <time>2022-04-21T12:34:28Z</time>
      </trkpt>
      <trkpt lat="46.51568" lon="5.35738">
        <ele>216.2</ele>
        <time>2022-04-21T12:34:33Z</time>
      </trkpt>
      <trkpt lat="46.51574" lon="5.35754">
        <ele>216.2</ele>
        <time>2022-04-21T12:34:35Z</time>
      </trkpt>
      <trkpt lat="46.51583" lon="5.35768">
        <ele>216.2</ele>
        <time>2022-04-21T12:34:37Z</time>
      </trkpt>
      <trkpt lat="46.51593" lon="5.35778">
        <ele>216.4</ele>
        <time>2022-04-21T12:34:39Z</time>
      </trkpt>
      <trkpt lat="46.51604" lon="5.35785">
        <ele>216.6</ele>
        <time>2022-04-21T12:34:41Z</time>
      </trkpt>
      <trkpt lat="46.51609" lon="5.35788">
        <ele>216.6</ele>
        <time>2022-04-21T12:34:42Z</time>
      </trkpt>
      <trkpt lat="46.51633" lon="5.35802">
        <ele>217.4</ele>
        <time>2022-04-21T12:34:47Z</time>
      </trkpt>
      <trkpt lat="46.51643" lon="5.35808">
        <ele>217.8</ele>
        <time>2022-04-21T12:34:49Z</time>
      </trkpt>
      <trkpt lat="46.51647" lon="5.35811">
        <ele>218</ele>
        <time>2022-04-21T12:34:50Z</time>
      </trkpt>
      <trkpt lat="46.51655" lon="5.35818">
        <ele>218.4</ele>
        <time>2022-04-21T12:34:52Z</time>
      </trkpt>
      <trkpt lat="46.51658" lon="5.35822">
        <ele>218.8</ele>
        <time>2022-04-21T12:34:53Z</time>
      </trkpt>
      <trkpt lat="46.5168" lon="5.35845">
        <ele>219.4</ele>
        <time>2022-04-21T12:34:58Z</time>
      </trkpt>
      <trkpt lat="46.51688" lon="5.35855">
        <ele>219.8</ele>
        <time>2022-04-21T12:35:00Z</time>
      </trkpt>
      <trkpt lat="46.51707" lon="5.35875">
        <ele>220</ele>
        <time>2022-04-21T12:35:04Z</time>
      </trkpt>
      <trkpt lat="46.51736" lon="5.35897">
        <ele>219.6</ele>
        <time>2022-04-21T12:35:09Z</time>
      </trkpt>
      <trkpt lat="46.51758" lon="5.35912">
        <ele>218.8</ele>
        <time>2022-04-21T12:35:13Z</time>
      </trkpt>
      <trkpt lat="46.51761" lon="5.35916">
        <ele>218.4</ele>
        <time>2022-04-21T12:35:14Z</time>
      </trkpt>
      <trkpt lat="46.51766" lon="5.3592">
        <ele>217.4</ele>
        <time>2022-04-21T12:35:16Z</time>
      </trkpt>
      <trkpt lat="46.5177" lon="5.3592">
        <ele>217.2</ele>
        <time>2022-04-21T12:35:17Z</time>
      </trkpt>
      <trkpt lat="46.51779" lon="5.35916">
        <ele>216.8</ele>
        <time>2022-04-21T12:35:19Z</time>
      </trkpt>
      <trkpt lat="46.51783" lon="5.3591">
        <ele>216.4</ele>
        <time>2022-04-21T12:35:20Z</time>
      </trkpt>
      <trkpt lat="46.51804" lon="5.35879">
        <ele>215.2</ele>
        <time>2022-04-21T12:35:24Z</time>
      </trkpt>
      <trkpt lat="46.51837" lon="5.35831">
        <ele>213.8</ele>
        <time>2022-04-21T12:35:29Z</time>
      </trkpt>
      <trkpt lat="46.51843" lon="5.35821">
        <ele>213.4</ele>
        <time>2022-04-21T12:35:30Z</time>
      </trkpt>
      <trkpt lat="46.51865" lon="5.35791">
        <ele>212.8</ele>
        <time>2022-04-21T12:35:33Z</time>
      </trkpt>
      <trkpt lat="46.51887" lon="5.35759">
        <ele>211.4</ele>
        <time>2022-04-21T12:35:36Z</time>
      </trkpt>
      <trkpt lat="46.51895" lon="5.35749">
        <ele>210.6</ele>
        <time>2022-04-21T12:35:37Z</time>
      </trkpt>
      <trkpt lat="46.51902" lon="5.35738">
        <ele>210.2</ele>
        <time>2022-04-21T12:35:38Z</time>
      </trkpt>
      <trkpt lat="46.51923" lon="5.35707">
        <ele>208.8</ele>
        <time>2022-04-21T12:35:41Z</time>
      </trkpt>
      <trkpt lat="46.51944" lon="5.35678">
        <ele>207.8</ele>
        <time>2022-04-21T12:35:44Z</time>
      </trkpt>
      <trkpt lat="46.51957" lon="5.35661">
        <ele>207.4</ele>
        <time>2022-04-21T12:35:46Z</time>
      </trkpt>
      <trkpt lat="46.51986" lon="5.35619">
        <ele>207</ele>
        <time>2022-04-21T12:35:51Z</time>
      </trkpt>
      <trkpt lat="46.52019" lon="5.35573">
        <ele>206.6</ele>
        <time>2022-04-21T12:35:57Z</time>
      </trkpt>
      <trkpt lat="46.5203" lon="5.35558">
        <ele>206.4</ele>
        <time>2022-04-21T12:35:59Z</time>
      </trkpt>
      <trkpt lat="46.52064" lon="5.3551">
        <ele>205.4</ele>
        <time>2022-04-21T12:36:05Z</time>
      </trkpt>
      <trkpt lat="46.52086" lon="5.35479">
        <ele>205.2</ele>
        <time>2022-04-21T12:36:09Z</time>
      </trkpt>
      <trkpt lat="46.52129" lon="5.3542">
        <ele>205.2</ele>
        <time>2022-04-21T12:36:17Z</time>
      </trkpt>
      <trkpt lat="46.5217" lon="5.35365">
        <ele>205</ele>
        <time>2022-04-21T12:36:25Z</time>
      </trkpt>
      <trkpt lat="46.52187" lon="5.3534">
        <ele>205</ele>
        <time>2022-04-21T12:36:29Z</time>
      </trkpt>
      <trkpt lat="46.52196" lon="5.35347">
        <ele>205</ele>
        <time>2022-04-21T12:36:31Z</time>
      </trkpt>
      <trkpt lat="46.52198" lon="5.35354">
        <ele>205</ele>
        <time>2022-04-21T12:36:32Z</time>
      </trkpt>
      <trkpt lat="46.52199" lon="5.35363">
        <ele>204.8</ele>
        <time>2022-04-21T12:36:33Z</time>
      </trkpt>
      <trkpt lat="46.52199" lon="5.35425">
        <ele>204.4</ele>
        <time>2022-04-21T12:36:39Z</time>
      </trkpt>
      <trkpt lat="46.52202" lon="5.355">
        <ele>204.4</ele>
        <time>2022-04-21T12:36:46Z</time>
      </trkpt>
      <trkpt lat="46.52204" lon="5.35561">
        <ele>204.6</ele>
        <time>2022-04-21T12:36:52Z</time>
      </trkpt>
      <trkpt lat="46.52207" lon="5.35644">
        <ele>205</ele>
        <time>2022-04-21T12:37:00Z</time>
      </trkpt>
      <trkpt lat="46.52208" lon="5.35727">
        <ele>205.2</ele>
        <time>2022-04-21T12:37:08Z</time>
      </trkpt>
      <trkpt lat="46.52207" lon="5.35737">
        <ele>205.2</ele>
        <time>2022-04-21T12:37:09Z</time>
      </trkpt>
      <trkpt lat="46.52203" lon="5.35819">
        <ele>205</ele>
        <time>2022-04-21T12:37:17Z</time>
      </trkpt>
      <trkpt lat="46.52202" lon="5.35829">
        <ele>205</ele>
        <time>2022-04-21T12:37:18Z</time>
      </trkpt>
      <trkpt lat="46.522" lon="5.35838">
        <ele>205</ele>
        <time>2022-04-21T12:37:19Z</time>
      </trkpt>
      <trkpt lat="46.52193" lon="5.35883">
        <ele>205</ele>
        <time>2022-04-21T12:37:24Z</time>
      </trkpt>
      <trkpt lat="46.52182" lon="5.35945">
        <ele>206</ele>
        <time>2022-04-21T12:37:31Z</time>
      </trkpt>
      <trkpt lat="46.52179" lon="5.35962">
        <ele>206.2</ele>
        <time>2022-04-21T12:37:33Z</time>
      </trkpt>
      <trkpt lat="46.52173" lon="5.36004">
        <ele>206.6</ele>
        <time>2022-04-21T12:37:38Z</time>
      </trkpt>
      <trkpt lat="46.52166" lon="5.36067">
        <ele>207</ele>
        <time>2022-04-21T12:37:45Z</time>
      </trkpt>
      <trkpt lat="46.52165" lon="5.36094">
        <ele>207.2</ele>
        <time>2022-04-21T12:37:48Z</time>
      </trkpt>
      <trkpt lat="46.52163" lon="5.36121">
        <ele>207.2</ele>
        <time>2022-04-21T12:37:51Z</time>
      </trkpt>
      <trkpt lat="46.52162" lon="5.36174">
        <ele>207.8</ele>
        <time>2022-04-21T12:37:57Z</time>
      </trkpt>
      <trkpt lat="46.52161" lon="5.36198">
        <ele>208.2</ele>
        <time>2022-04-21T12:38:00Z</time>
      </trkpt>
      <trkpt lat="46.52161" lon="5.36221">
        <ele>208.6</ele>
        <time>2022-04-21T12:38:03Z</time>
      </trkpt>
      <trkpt lat="46.5216" lon="5.3623">
        <ele>208.6</ele>
        <time>2022-04-21T12:38:04Z</time>
      </trkpt>
      <trkpt lat="46.52158" lon="5.36263">
        <ele>209.2</ele>
        <time>2022-04-21T12:38:08Z</time>
      </trkpt>
      <trkpt lat="46.52157" lon="5.3628">
        <ele>209.6</ele>
        <time>2022-04-21T12:38:10Z</time>
      </trkpt>
      <trkpt lat="46.52156" lon="5.36313">
        <ele>210.2</ele>
        <time>2022-04-21T12:38:14Z</time>
      </trkpt>
      <trkpt lat="46.52155" lon="5.3632">
        <ele>210.4</ele>
        <time>2022-04-21T12:38:15Z</time>
      </trkpt>
      <trkpt lat="46.52155" lon="5.36327">
        <ele>210.6</ele>
        <time>2022-04-21T12:38:16Z</time>
      </trkpt>
      <trkpt lat="46.52154" lon="5.36341">
        <ele>210.8</ele>
        <time>2022-04-21T12:38:18Z</time>
      </trkpt>
      <trkpt lat="46.52154" lon="5.36355">
        <ele>211.6</ele>
        <time>2022-04-21T12:38:20Z</time>
      </trkpt>
      <trkpt lat="46.52157" lon="5.36397">
        <ele>212.4</ele>
        <time>2022-04-21T12:38:25Z</time>
      </trkpt>
      <trkpt lat="46.52157" lon="5.36406">
        <ele>212.6</ele>
        <time>2022-04-21T12:38:26Z</time>
      </trkpt>
      <trkpt lat="46.52157" lon="5.36414">
        <ele>212.8</ele>
        <time>2022-04-21T12:38:27Z</time>
      </trkpt>
      <trkpt lat="46.52158" lon="5.36439">
        <ele>213.2</ele>
        <time>2022-04-21T12:38:30Z</time>
      </trkpt>
      <trkpt lat="46.52158" lon="5.36447">
        <ele>213.4</ele>
        <time>2022-04-21T12:38:31Z</time>
      </trkpt>
      <trkpt lat="46.52159" lon="5.36455">
        <ele>213.4</ele>
        <time>2022-04-21T12:38:32Z</time>
      </trkpt>
      <trkpt lat="46.5216" lon="5.36462">
        <ele>213.6</ele>
        <time>2022-04-21T12:38:33Z</time>
      </trkpt>
      <trkpt lat="46.5216" lon="5.36471">
        <ele>213.8</ele>
        <time>2022-04-21T12:38:34Z</time>
      </trkpt>
      <trkpt lat="46.52161" lon="5.36499">
        <ele>214.2</ele>
        <time>2022-04-21T12:38:37Z</time>
      </trkpt>
      <trkpt lat="46.52163" lon="5.36524">
        <ele>214.4</ele>
        <time>2022-04-21T12:38:40Z</time>
      </trkpt>
      <trkpt lat="46.52164" lon="5.36569">
        <ele>214.8</ele>
        <time>2022-04-21T12:38:45Z</time>
      </trkpt>
      <trkpt lat="46.52164" lon="5.36587">
        <ele>214.6</ele>
        <time>2022-04-21T12:38:47Z</time>
      </trkpt>
      <trkpt lat="46.52162" lon="5.36664">
        <ele>215.2</ele>
        <time>2022-04-21T12:38:56Z</time>
      </trkpt>
      <trkpt lat="46.52162" lon="5.36688">
        <ele>215.6</ele>
        <time>2022-04-21T12:38:59Z</time>
      </trkpt>
      <trkpt lat="46.52162" lon="5.36696">
        <ele>215.6</ele>
        <time>2022-04-21T12:39:00Z</time>
      </trkpt>
      <trkpt lat="46.52163" lon="5.36721">
        <ele>215.8</ele>
        <time>2022-04-21T12:39:03Z</time>
      </trkpt>
      <trkpt lat="46.52164" lon="5.36737">
        <ele>216.2</ele>
        <time>2022-04-21T12:39:05Z</time>
      </trkpt>
      <trkpt lat="46.52163" lon="5.36745">
        <ele>216.2</ele>
        <time>2022-04-21T12:39:06Z</time>
      </trkpt>
      <trkpt lat="46.52163" lon="5.36779">
        <ele>216.6</ele>
        <time>2022-04-21T12:39:10Z</time>
      </trkpt>
      <trkpt lat="46.52163" lon="5.36796">
        <ele>217</ele>
        <time>2022-04-21T12:39:12Z</time>
      </trkpt>
      <trkpt lat="46.52165" lon="5.3685">
        <ele>217.4</ele>
        <time>2022-04-21T12:39:18Z</time>
      </trkpt>
      <trkpt lat="46.52165" lon="5.36859">
        <ele>217.6</ele>
        <time>2022-04-21T12:39:19Z</time>
      </trkpt>
      <trkpt lat="46.52164" lon="5.36869">
        <ele>217.6</ele>
        <time>2022-04-21T12:39:20Z</time>
      </trkpt>
      <trkpt lat="46.52164" lon="5.36889">
        <ele>217.6</ele>
        <time>2022-04-21T12:39:22Z</time>
      </trkpt>
      <trkpt lat="46.52163" lon="5.36935">
        <ele>217.8</ele>
        <time>2022-04-21T12:39:26Z</time>
      </trkpt>
      <trkpt lat="46.52162" lon="5.36945">
        <ele>217.6</ele>
        <time>2022-04-21T12:39:27Z</time>
      </trkpt>
      <trkpt lat="46.5216" lon="5.36987">
        <ele>217</ele>
        <time>2022-04-21T12:39:31Z</time>
      </trkpt>
      <trkpt lat="46.52158" lon="5.37004">
        <ele>216.8</ele>
        <time>2022-04-21T12:39:33Z</time>
      </trkpt>
      <trkpt lat="46.52157" lon="5.37012">
        <ele>216.8</ele>
        <time>2022-04-21T12:39:34Z</time>
      </trkpt>
      <trkpt lat="46.52151" lon="5.37035">
        <ele>217</ele>
        <time>2022-04-21T12:39:37Z</time>
      </trkpt>
      <trkpt lat="46.5215" lon="5.37043">
        <ele>217.2</ele>
        <time>2022-04-21T12:39:38Z</time>
      </trkpt>
      <trkpt lat="46.52145" lon="5.37067">
        <ele>218.2</ele>
        <time>2022-04-21T12:39:41Z</time>
      </trkpt>
      <trkpt lat="46.52142" lon="5.37082">
        <ele>218.4</ele>
        <time>2022-04-21T12:39:43Z</time>
      </trkpt>
      <trkpt lat="46.52138" lon="5.37104">
        <ele>219</ele>
        <time>2022-04-21T12:39:46Z</time>
      </trkpt>
      <trkpt lat="46.52132" lon="5.37133">
        <ele>220</ele>
        <time>2022-04-21T12:39:50Z</time>
      </trkpt>
      <trkpt lat="46.52127" lon="5.37153">
        <ele>220.6</ele>
        <time>2022-04-21T12:39:53Z</time>
      </trkpt>
      <trkpt lat="46.52123" lon="5.37166">
        <ele>221</ele>
        <time>2022-04-21T12:39:55Z</time>
      </trkpt>
      <trkpt lat="46.52122" lon="5.37172">
        <ele>221</ele>
        <time>2022-04-21T12:39:56Z</time>
      </trkpt>
      <trkpt lat="46.52121" lon="5.37179">
        <ele>221.4</ele>
        <time>2022-04-21T12:39:57Z</time>
      </trkpt>
      <trkpt lat="46.52117" lon="5.37194">
        <ele>222</ele>
        <time>2022-04-21T12:39:59Z</time>
      </trkpt>
      <trkpt lat="46.52116" lon="5.37201">
        <ele>222.2</ele>
        <time>2022-04-21T12:40:00Z</time>
      </trkpt>
      <trkpt lat="46.52115" lon="5.37209">
        <ele>222.4</ele>
        <time>2022-04-21T12:40:01Z</time>
      </trkpt>
      <trkpt lat="46.52113" lon="5.37216">
        <ele>222.4</ele>
        <time>2022-04-21T12:40:02Z</time>
      </trkpt>
      <trkpt lat="46.52102" lon="5.37264">
        <ele>223</ele>
        <time>2022-04-21T12:40:08Z</time>
      </trkpt>
      <trkpt lat="46.5209" lon="5.3732">
        <ele>223</ele>
        <time>2022-04-21T12:40:15Z</time>
      </trkpt>
      <trkpt lat="46.52091" lon="5.37327">
        <ele>223</ele>
        <time>2022-04-21T12:40:16Z</time>
      </trkpt>
      <trkpt lat="46.52093" lon="5.37332">
        <ele>223</ele>
        <time>2022-04-21T12:40:17Z</time>
      </trkpt>
      <trkpt lat="46.52098" lon="5.37335">
        <ele>223</ele>
        <time>2022-04-21T12:40:18Z</time>
      </trkpt>
      <trkpt lat="46.52116" lon="5.37326">
        <ele>222.8</ele>
        <time>2022-04-21T12:40:21Z</time>
      </trkpt>
      <trkpt lat="46.52148" lon="5.37303">
        <ele>221.6</ele>
        <time>2022-04-21T12:40:26Z</time>
      </trkpt>
      <trkpt lat="46.52154" lon="5.37299">
        <ele>221.2</ele>
        <time>2022-04-21T12:40:27Z</time>
      </trkpt>
      <trkpt lat="46.52169" lon="5.3729">
        <ele>220.6</ele>
        <time>2022-04-21T12:40:29Z</time>
      </trkpt>
      <trkpt lat="46.52185" lon="5.37278">
        <ele>220</ele>
        <time>2022-04-21T12:40:31Z</time>
      </trkpt>
      <trkpt lat="46.52206" lon="5.37261">
        <ele>218.4</ele>
        <time>2022-04-21T12:40:34Z</time>
      </trkpt>
      <trkpt lat="46.52227" lon="5.37243">
        <ele>217</ele>
        <time>2022-04-21T12:40:37Z</time>
      </trkpt>
      <trkpt lat="46.52262" lon="5.37209">
        <ele>215.6</ele>
        <time>2022-04-21T12:40:42Z</time>
      </trkpt>
      <trkpt lat="46.52276" lon="5.37193">
        <ele>215.2</ele>
        <time>2022-04-21T12:40:44Z</time>
      </trkpt>
      <trkpt lat="46.5229" lon="5.37177">
        <ele>214</ele>
        <time>2022-04-21T12:40:46Z</time>
      </trkpt>
      <trkpt lat="46.52319" lon="5.37146">
        <ele>213</ele>
        <time>2022-04-21T12:40:50Z</time>
      </trkpt>
      <trkpt lat="46.52326" lon="5.37138">
        <ele>212.4</ele>
        <time>2022-04-21T12:40:51Z</time>
      </trkpt>
      <trkpt lat="46.52342" lon="5.37123">
        <ele>211.6</ele>
        <time>2022-04-21T12:40:53Z</time>
      </trkpt>
      <trkpt lat="46.5238" lon="5.37084">
        <ele>209.8</ele>
        <time>2022-04-21T12:40:58Z</time>
      </trkpt>
      <trkpt lat="46.524" lon="5.37058">
        <ele>208.6</ele>
        <time>2022-04-21T12:41:01Z</time>
      </trkpt>
      <trkpt lat="46.52412" lon="5.37041">
        <ele>207.8</ele>
        <time>2022-04-21T12:41:03Z</time>
      </trkpt>
      <trkpt lat="46.52422" lon="5.37022">
        <ele>207.4</ele>
        <time>2022-04-21T12:41:05Z</time>
      </trkpt>
      <trkpt lat="46.52438" lon="5.36983">
        <ele>206.6</ele>
        <time>2022-04-21T12:41:09Z</time>
      </trkpt>
      <trkpt lat="46.52441" lon="5.36973">
        <ele>206.4</ele>
        <time>2022-04-21T12:41:10Z</time>
      </trkpt>
      <trkpt lat="46.52449" lon="5.36929">
        <ele>206.2</ele>
        <time>2022-04-21T12:41:14Z</time>
      </trkpt>
      <trkpt lat="46.52456" lon="5.36876">
        <ele>206.2</ele>
        <time>2022-04-21T12:41:19Z</time>
      </trkpt>
      <trkpt lat="46.52459" lon="5.36855">
        <ele>206.2</ele>
        <time>2022-04-21T12:41:21Z</time>
      </trkpt>
      <trkpt lat="46.52464" lon="5.36798">
        <ele>206.4</ele>
        <time>2022-04-21T12:41:27Z</time>
      </trkpt>
      <trkpt lat="46.52465" lon="5.36739">
        <ele>206.4</ele>
        <time>2022-04-21T12:41:33Z</time>
      </trkpt>
      <trkpt lat="46.52469" lon="5.3666">
        <ele>205.8</ele>
        <time>2022-04-21T12:41:41Z</time>
      </trkpt>
      <trkpt lat="46.52472" lon="5.36611">
        <ele>205.4</ele>
        <time>2022-04-21T12:41:46Z</time>
      </trkpt>
      <trkpt lat="46.52476" lon="5.36556">
        <ele>205.2</ele>
        <time>2022-04-21T12:41:52Z</time>
      </trkpt>
      <trkpt lat="46.52484" lon="5.36478">
        <ele>204.6</ele>
        <time>2022-04-21T12:42:00Z</time>
      </trkpt>
      <trkpt lat="46.52485" lon="5.36468">
        <ele>204.4</ele>
        <time>2022-04-21T12:42:01Z</time>
      </trkpt>
      <trkpt lat="46.52495" lon="5.36388">
        <ele>204.2</ele>
        <time>2022-04-21T12:42:09Z</time>
      </trkpt>
      <trkpt lat="46.52499" lon="5.36369">
        <ele>204.2</ele>
        <time>2022-04-21T12:42:11Z</time>
      </trkpt>
      <trkpt lat="46.52504" lon="5.3635">
        <ele>204</ele>
        <time>2022-04-21T12:42:13Z</time>
      </trkpt>
      <trkpt lat="46.52509" lon="5.3633">
        <ele>203.8</ele>
        <time>2022-04-21T12:42:15Z</time>
      </trkpt>
      <trkpt lat="46.52513" lon="5.36322">
        <ele>203.8</ele>
        <time>2022-04-21T12:42:16Z</time>
      </trkpt>
      <trkpt lat="46.52517" lon="5.36315">
        <ele>203.8</ele>
        <time>2022-04-21T12:42:17Z</time>
      </trkpt>
      <trkpt lat="46.52528" lon="5.36306">
        <ele>203.4</ele>
        <time>2022-04-21T12:42:19Z</time>
      </trkpt>
      <trkpt lat="46.52541" lon="5.36305">
        <ele>203.2</ele>
        <time>2022-04-21T12:42:21Z</time>
      </trkpt>
      <trkpt lat="46.52553" lon="5.36309">
        <ele>203.2</ele>
        <time>2022-04-21T12:42:23Z</time>
      </trkpt>
      <trkpt lat="46.52567" lon="5.36306">
        <ele>203</ele>
        <time>2022-04-21T12:42:25Z</time>
      </trkpt>
      <trkpt lat="46.52573" lon="5.36302">
        <ele>203</ele>
        <time>2022-04-21T12:42:26Z</time>
      </trkpt>
      <trkpt lat="46.52578" lon="5.36296">
        <ele>203</ele>
        <time>2022-04-21T12:42:27Z</time>
      </trkpt>
      <trkpt lat="46.52588" lon="5.36285">
        <ele>203</ele>
        <time>2022-04-21T12:42:29Z</time>
      </trkpt>
      <trkpt lat="46.526" lon="5.36276">
        <ele>203</ele>
        <time>2022-04-21T12:42:31Z</time>
      </trkpt>
      <trkpt lat="46.52638" lon="5.36255">
        <ele>202.8</ele>
        <time>2022-04-21T12:42:37Z</time>
      </trkpt>
      <trkpt lat="46.52686" lon="5.36225">
        <ele>202.8</ele>
        <time>2022-04-21T12:42:45Z</time>
      </trkpt>
      <trkpt lat="46.52701" lon="5.36207">
        <ele>202.6</ele>
        <time>2022-04-21T12:42:48Z</time>
      </trkpt>
      <trkpt lat="46.52706" lon="5.36199">
        <ele>202.4</ele>
        <time>2022-04-21T12:42:49Z</time>
      </trkpt>
      <trkpt lat="46.52709" lon="5.36194">
        <ele>202.4</ele>
        <time>2022-04-21T12:42:50Z</time>
      </trkpt>
      <trkpt lat="46.52725" lon="5.36146">
        <ele>202.4</ele>
        <time>2022-04-21T12:42:56Z</time>
      </trkpt>
      <trkpt lat="46.52751" lon="5.36069">
        <ele>202.4</ele>
        <time>2022-04-21T12:43:06Z</time>
      </trkpt>
      <trkpt lat="46.52757" lon="5.36055">
        <ele>202.6</ele>
        <time>2022-04-21T12:43:08Z</time>
      </trkpt>
      <trkpt lat="46.52767" lon="5.36047">
        <ele>202.6</ele>
        <time>2022-04-21T12:43:10Z</time>
      </trkpt>
      <trkpt lat="46.52777" lon="5.36046">
        <ele>203</ele>
        <time>2022-04-21T12:43:12Z</time>
      </trkpt>
      <trkpt lat="46.52782" lon="5.36048">
        <ele>203.2</ele>
        <time>2022-04-21T12:43:13Z</time>
      </trkpt>
      <trkpt lat="46.52793" lon="5.36051">
        <ele>203.6</ele>
        <time>2022-04-21T12:43:15Z</time>
      </trkpt>
      <trkpt lat="46.52821" lon="5.3606">
        <ele>204.6</ele>
        <time>2022-04-21T12:43:21Z</time>
      </trkpt>
      <trkpt lat="46.52825" lon="5.36062">
        <ele>204.8</ele>
        <time>2022-04-21T12:43:22Z</time>
      </trkpt>
      <trkpt lat="46.52833" lon="5.36066">
        <ele>205.2</ele>
        <time>2022-04-21T12:43:25Z</time>
      </trkpt>
      <trkpt lat="46.52839" lon="5.36067">
        <ele>205.8</ele>
        <time>2022-04-21T12:43:27Z</time>
      </trkpt>
      <trkpt lat="46.52847" lon="5.36066">
        <ele>206.2</ele>
        <time>2022-04-21T12:43:29Z</time>
      </trkpt>
      <trkpt lat="46.52879" lon="5.36071">
        <ele>207</ele>
        <time>2022-04-21T12:43:36Z</time>
      </trkpt>
      <trkpt lat="46.52888" lon="5.36072">
        <ele>207.2</ele>
        <time>2022-04-21T12:43:38Z</time>
      </trkpt>
      <trkpt lat="46.52899" lon="5.36072">
        <ele>207.2</ele>
        <time>2022-04-21T12:43:40Z</time>
      </trkpt>
      <trkpt lat="46.5291" lon="5.36073">
        <ele>207.4</ele>
        <time>2022-04-21T12:43:42Z</time>
      </trkpt>
      <trkpt lat="46.5292" lon="5.36075">
        <ele>207.8</ele>
        <time>2022-04-21T12:43:44Z</time>
      </trkpt>
      <trkpt lat="46.5293" lon="5.36078">
        <ele>208.2</ele>
        <time>2022-04-21T12:43:46Z</time>
      </trkpt>
      <trkpt lat="46.52935" lon="5.3608">
        <ele>208.4</ele>
        <time>2022-04-21T12:43:47Z</time>
      </trkpt>
      <trkpt lat="46.5294" lon="5.36083">
        <ele>208.6</ele>
        <time>2022-04-21T12:43:48Z</time>
      </trkpt>
      <trkpt lat="46.52949" lon="5.3609">
        <ele>209</ele>
        <time>2022-04-21T12:43:50Z</time>
      </trkpt>
      <trkpt lat="46.52953" lon="5.36094">
        <ele>209.2</ele>
        <time>2022-04-21T12:43:51Z</time>
      </trkpt>
      <trkpt lat="46.52957" lon="5.361">
        <ele>209.4</ele>
        <time>2022-04-21T12:43:52Z</time>
      </trkpt>
      <trkpt lat="46.52972" lon="5.36126">
        <ele>210.4</ele>
        <time>2022-04-21T12:43:57Z</time>
      </trkpt>
      <trkpt lat="46.52976" lon="5.36131">
        <ele>210.4</ele>
        <time>2022-04-21T12:43:58Z</time>
      </trkpt>
      <trkpt lat="46.52985" lon="5.36138">
        <ele>211.2</ele>
        <time>2022-04-21T12:44:00Z</time>
      </trkpt>
      <trkpt lat="46.52995" lon="5.3614">
        <ele>211.6</ele>
        <time>2022-04-21T12:44:02Z</time>
      </trkpt>
      <trkpt lat="46.53" lon="5.3614">
        <ele>211.6</ele>
        <time>2022-04-21T12:44:03Z</time>
      </trkpt>
      <trkpt lat="46.53014" lon="5.36141">
        <ele>212</ele>
        <time>2022-04-21T12:44:06Z</time>
      </trkpt>
      <trkpt lat="46.53025" lon="5.36144">
        <ele>212.6</ele>
        <time>2022-04-21T12:44:08Z</time>
      </trkpt>
      <trkpt lat="46.53029" lon="5.36145">
        <ele>212.8</ele>
        <time>2022-04-21T12:44:09Z</time>
      </trkpt>
      <trkpt lat="46.53052" lon="5.36144">
        <ele>213.8</ele>
        <time>2022-04-21T12:44:14Z</time>
      </trkpt>
      <trkpt lat="46.53071" lon="5.3613">
        <ele>214.8</ele>
        <time>2022-04-21T12:44:19Z</time>
      </trkpt>
      <trkpt lat="46.5309" lon="5.36107">
        <ele>215.8</ele>
        <time>2022-04-21T12:44:25Z</time>
      </trkpt>
      <trkpt lat="46.53093" lon="5.36102">
        <ele>215.8</ele>
        <time>2022-04-21T12:44:26Z</time>
      </trkpt>
      <trkpt lat="46.53105" lon="5.36079">
        <ele>217</ele>
        <time>2022-04-21T12:44:31Z</time>
      </trkpt>
      <trkpt lat="46.53117" lon="5.36054">
        <ele>217.8</ele>
        <time>2022-04-21T12:44:36Z</time>
      </trkpt>
      <trkpt lat="46.53123" lon="5.36044">
        <ele>218</ele>
        <time>2022-04-21T12:44:38Z</time>
      </trkpt>
      <trkpt lat="46.53141" lon="5.36015">
        <ele>218.8</ele>
        <time>2022-04-21T12:44:44Z</time>
      </trkpt>
      <trkpt lat="46.53147" lon="5.36005">
        <ele>219</ele>
        <time>2022-04-21T12:44:46Z</time>
      </trkpt>
      <trkpt lat="46.53166" lon="5.35968">
        <ele>220</ele>
        <time>2022-04-21T12:44:53Z</time>
      </trkpt>
      <trkpt lat="46.53171" lon="5.35957">
        <ele>220.2</ele>
        <time>2022-04-21T12:44:55Z</time>
      </trkpt>
      <trkpt lat="46.53188" lon="5.35932">
        <ele>220.6</ele>
        <time>2022-04-21T12:45:00Z</time>
      </trkpt>
      <trkpt lat="46.53192" lon="5.35928">
        <ele>220.6</ele>
        <time>2022-04-21T12:45:01Z</time>
      </trkpt>
      <trkpt lat="46.53197" lon="5.35926">
        <ele>220.8</ele>
        <time>2022-04-21T12:45:02Z</time>
      </trkpt>
      <trkpt lat="46.53225" lon="5.35914">
        <ele>220.8</ele>
        <time>2022-04-21T12:45:07Z</time>
      </trkpt>
      <trkpt lat="46.53279" lon="5.35892">
        <ele>220.8</ele>
        <time>2022-04-21T12:45:16Z</time>
      </trkpt>
      <trkpt lat="46.53333" lon="5.35869">
        <ele>221</ele>
        <time>2022-04-21T12:45:25Z</time>
      </trkpt>
      <trkpt lat="46.5334" lon="5.35867">
        <ele>221.2</ele>
        <time>2022-04-21T12:45:26Z</time>
      </trkpt>
      <trkpt lat="46.53346" lon="5.35866">
        <ele>221.2</ele>
        <time>2022-04-21T12:45:27Z</time>
      </trkpt>
      <trkpt lat="46.53361" lon="5.35863">
        <ele>221.4</ele>
        <time>2022-04-21T12:45:30Z</time>
      </trkpt>
      <trkpt lat="46.53373" lon="5.35864">
        <ele>221.6</ele>
        <time>2022-04-21T12:45:32Z</time>
      </trkpt>
      <trkpt lat="46.53377" lon="5.35865">
        <ele>221.6</ele>
        <time>2022-04-21T12:45:33Z</time>
      </trkpt>
      <trkpt lat="46.53395" lon="5.35867">
        <ele>222.2</ele>
        <time>2022-04-21T12:45:36Z</time>
      </trkpt>
      <trkpt lat="46.53405" lon="5.35868">
        <ele>222.6</ele>
        <time>2022-04-21T12:45:38Z</time>
      </trkpt>
      <trkpt lat="46.53423" lon="5.3587">
        <ele>223.2</ele>
        <time>2022-04-21T12:45:41Z</time>
      </trkpt>
      <trkpt lat="46.53428" lon="5.35871">
        <ele>223.2</ele>
        <time>2022-04-21T12:45:42Z</time>
      </trkpt>
      <trkpt lat="46.53432" lon="5.35872">
        <ele>223.4</ele>
        <time>2022-04-21T12:45:43Z</time>
      </trkpt>
      <trkpt lat="46.53442" lon="5.35872">
        <ele>223.8</ele>
        <time>2022-04-21T12:45:45Z</time>
      </trkpt>
      <trkpt lat="46.53452" lon="5.35871">
        <ele>224.4</ele>
        <time>2022-04-21T12:45:47Z</time>
      </trkpt>
      <trkpt lat="46.53457" lon="5.3587">
        <ele>224.6</ele>
        <time>2022-04-21T12:45:48Z</time>
      </trkpt>
      <trkpt lat="46.53473" lon="5.35864">
        <ele>224.8</ele>
        <time>2022-04-21T12:45:51Z</time>
      </trkpt>
      <trkpt lat="46.53501" lon="5.35853">
        <ele>225.4</ele>
        <time>2022-04-21T12:45:57Z</time>
      </trkpt>
      <trkpt lat="46.53506" lon="5.35852">
        <ele>225.6</ele>
        <time>2022-04-21T12:45:58Z</time>
      </trkpt>
      <trkpt lat="46.53546" lon="5.35858">
        <ele>226.2</ele>
        <time>2022-04-21T12:46:05Z</time>
      </trkpt>
      <trkpt lat="46.53575" lon="5.35863">
        <ele>226.6</ele>
        <time>2022-04-21T12:46:10Z</time>
      </trkpt>
      <trkpt lat="46.53611" lon="5.35874">
        <ele>226.4</ele>
        <time>2022-04-21T12:46:16Z</time>
      </trkpt>
      <trkpt lat="46.53637" lon="5.35885">
        <ele>225.8</ele>
        <time>2022-04-21T12:46:21Z</time>
      </trkpt>
      <trkpt lat="46.53646" lon="5.35881">
        <ele>225.4</ele>
        <time>2022-04-21T12:46:23Z</time>
      </trkpt>
      <trkpt lat="46.53651" lon="5.35877">
        <ele>225.2</ele>
        <time>2022-04-21T12:46:24Z</time>
      </trkpt>
      <trkpt lat="46.53657" lon="5.35872">
        <ele>224.8</ele>
        <time>2022-04-21T12:46:25Z</time>
      </trkpt>
      <trkpt lat="46.53674" lon="5.35849">
        <ele>224.2</ele>
        <time>2022-04-21T12:46:28Z</time>
      </trkpt>
      <trkpt lat="46.5368" lon="5.3584">
        <ele>224</ele>
        <time>2022-04-21T12:46:29Z</time>
      </trkpt>
      <trkpt lat="46.537" lon="5.35811">
        <ele>223.2</ele>
        <time>2022-04-21T12:46:32Z</time>
      </trkpt>
      <trkpt lat="46.53713" lon="5.35792">
        <ele>222.4</ele>
        <time>2022-04-21T12:46:34Z</time>
      </trkpt>
      <trkpt lat="46.53719" lon="5.35782">
        <ele>221.6</ele>
        <time>2022-04-21T12:46:35Z</time>
      </trkpt>
      <trkpt lat="46.53739" lon="5.3574">
        <ele>220.2</ele>
        <time>2022-04-21T12:46:39Z</time>
      </trkpt>
      <trkpt lat="46.53754" lon="5.35682">
        <ele>219</ele>
        <time>2022-04-21T12:46:44Z</time>
      </trkpt>
      <trkpt lat="46.53756" lon="5.35628">
        <ele>218.6</ele>
        <time>2022-04-21T12:46:49Z</time>
      </trkpt>
      <trkpt lat="46.53751" lon="5.35594">
        <ele>218.4</ele>
        <time>2022-04-21T12:46:52Z</time>
      </trkpt>
      <trkpt lat="46.53748" lon="5.35584">
        <ele>218.2</ele>
        <time>2022-04-21T12:46:53Z</time>
      </trkpt>
      <trkpt lat="46.53733" lon="5.35533">
        <ele>218.2</ele>
        <time>2022-04-21T12:46:58Z</time>
      </trkpt>
      <trkpt lat="46.53731" lon="5.35523">
        <ele>218</ele>
        <time>2022-04-21T12:46:59Z</time>
      </trkpt>
      <trkpt lat="46.53725" lon="5.35471">
        <ele>218</ele>
        <time>2022-04-21T12:47:04Z</time>
      </trkpt>
      <trkpt lat="46.53725" lon="5.35461">
        <ele>218.2</ele>
        <time>2022-04-21T12:47:05Z</time>
      </trkpt>
      <trkpt lat="46.53731" lon="5.35401">
        <ele>218.4</ele>
        <time>2022-04-21T12:47:11Z</time>
      </trkpt>
      <trkpt lat="46.53739" lon="5.3536">
        <ele>219.2</ele>
        <time>2022-04-21T12:47:16Z</time>
      </trkpt>
      <trkpt lat="46.53741" lon="5.3535">
        <ele>219.6</ele>
        <time>2022-04-21T12:47:17Z</time>
      </trkpt>
      <trkpt lat="46.53743" lon="5.35345">
        <ele>219.8</ele>
        <time>2022-04-21T12:47:18Z</time>
      </trkpt>
      <trkpt lat="46.53751" lon="5.35323">
        <ele>220.4</ele>
        <time>2022-04-21T12:47:21Z</time>
      </trkpt>
      <trkpt lat="46.53763" lon="5.35299">
        <ele>221.4</ele>
        <time>2022-04-21T12:47:25Z</time>
      </trkpt>
      <trkpt lat="46.53771" lon="5.35285">
        <ele>222</ele>
        <time>2022-04-21T12:47:27Z</time>
      </trkpt>
      <trkpt lat="46.53786" lon="5.35264">
        <ele>222.6</ele>
        <time>2022-04-21T12:47:31Z</time>
      </trkpt>
      <trkpt lat="46.53814" lon="5.35235">
        <ele>223</ele>
        <time>2022-04-21T12:47:36Z</time>
      </trkpt>
      <trkpt lat="46.53851" lon="5.35206">
        <ele>223.2</ele>
        <time>2022-04-21T12:47:42Z</time>
      </trkpt>
      <trkpt lat="46.53905" lon="5.35169">
        <ele>222.4</ele>
        <time>2022-04-21T12:47:50Z</time>
      </trkpt>
      <trkpt lat="46.53919" lon="5.35159">
        <ele>222.2</ele>
        <time>2022-04-21T12:47:52Z</time>
      </trkpt>
      <trkpt lat="46.53956" lon="5.35125">
        <ele>221.6</ele>
        <time>2022-04-21T12:47:58Z</time>
      </trkpt>
      <trkpt lat="46.53999" lon="5.35073">
        <ele>220.8</ele>
        <time>2022-04-21T12:48:06Z</time>
      </trkpt>
      <trkpt lat="46.54011" lon="5.35061">
        <ele>220.6</ele>
        <time>2022-04-21T12:48:08Z</time>
      </trkpt>
      <trkpt lat="46.54017" lon="5.35055">
        <ele>220.4</ele>
        <time>2022-04-21T12:48:09Z</time>
      </trkpt>
      <trkpt lat="46.54051" lon="5.3503">
        <ele>219.8</ele>
        <time>2022-04-21T12:48:14Z</time>
      </trkpt>
      <trkpt lat="46.54067" lon="5.35023">
        <ele>219.6</ele>
        <time>2022-04-21T12:48:16Z</time>
      </trkpt>
      <trkpt lat="46.54074" lon="5.3502">
        <ele>219.4</ele>
        <time>2022-04-21T12:48:17Z</time>
      </trkpt>
      <trkpt lat="46.5409" lon="5.35014">
        <ele>218.8</ele>
        <time>2022-04-21T12:48:19Z</time>
      </trkpt>
      <trkpt lat="46.54119" lon="5.35001">
        <ele>218.2</ele>
        <time>2022-04-21T12:48:23Z</time>
      </trkpt>
      <trkpt lat="46.5414" lon="5.34987">
        <ele>217.4</ele>
        <time>2022-04-21T12:48:26Z</time>
      </trkpt>
      <trkpt lat="46.54147" lon="5.34981">
        <ele>217.2</ele>
        <time>2022-04-21T12:48:27Z</time>
      </trkpt>
      <trkpt lat="46.5417" lon="5.34953">
        <ele>216.4</ele>
        <time>2022-04-21T12:48:31Z</time>
      </trkpt>
      <trkpt lat="46.54195" lon="5.34926">
        <ele>216</ele>
        <time>2022-04-21T12:48:35Z</time>
      </trkpt>
      <trkpt lat="46.54214" lon="5.34908">
        <ele>215.4</ele>
        <time>2022-04-21T12:48:38Z</time>
      </trkpt>
      <trkpt lat="46.54233" lon="5.34888">
        <ele>215</ele>
        <time>2022-04-21T12:48:41Z</time>
      </trkpt>
      <trkpt lat="46.54237" lon="5.34881">
        <ele>214.8</ele>
        <time>2022-04-21T12:48:42Z</time>
      </trkpt>
      <trkpt lat="46.54242" lon="5.34872">
        <ele>214.8</ele>
        <time>2022-04-21T12:48:43Z</time>
      </trkpt>
      <trkpt lat="46.5427" lon="5.34825">
        <ele>213.8</ele>
        <time>2022-04-21T12:48:49Z</time>
      </trkpt>
      <trkpt lat="46.54277" lon="5.34817">
        <ele>213.8</ele>
        <time>2022-04-21T12:48:50Z</time>
      </trkpt>
      <trkpt lat="46.54323" lon="5.3477">
        <ele>213.2</ele>
        <time>2022-04-21T12:48:58Z</time>
      </trkpt>
      <trkpt lat="46.5433" lon="5.34764">
        <ele>213.4</ele>
        <time>2022-04-21T12:48:59Z</time>
      </trkpt>
      <trkpt lat="46.54358" lon="5.34747">
        <ele>213.4</ele>
        <time>2022-04-21T12:49:04Z</time>
      </trkpt>
      <trkpt lat="46.54393" lon="5.34734">
        <ele>213.6</ele>
        <time>2022-04-21T12:49:10Z</time>
      </trkpt>
      <trkpt lat="46.54418" lon="5.34721">
        <ele>214</ele>
        <time>2022-04-21T12:49:15Z</time>
      </trkpt>
      <trkpt lat="46.54466" lon="5.34691">
        <ele>213.8</ele>
        <time>2022-04-21T12:49:24Z</time>
      </trkpt>
      <trkpt lat="46.54481" lon="5.34677">
        <ele>213.8</ele>
        <time>2022-04-21T12:49:27Z</time>
      </trkpt>
      <trkpt lat="46.54488" lon="5.34667">
        <ele>213.8</ele>
        <time>2022-04-21T12:49:29Z</time>
      </trkpt>
      <trkpt lat="46.54503" lon="5.34643">
        <ele>213.8</ele>
        <time>2022-04-21T12:49:33Z</time>
      </trkpt>
      <trkpt lat="46.54512" lon="5.34629">
        <ele>214</ele>
        <time>2022-04-21T12:49:35Z</time>
      </trkpt>
      <trkpt lat="46.54515" lon="5.34624">
        <ele>214</ele>
        <time>2022-04-21T12:49:36Z</time>
      </trkpt>
      <trkpt lat="46.54534" lon="5.34605">
        <ele>214.2</ele>
        <time>2022-04-21T12:49:40Z</time>
      </trkpt>
      <trkpt lat="46.54543" lon="5.34595">
        <ele>214.4</ele>
        <time>2022-04-21T12:49:42Z</time>
      </trkpt>
      <trkpt lat="46.54553" lon="5.34585">
        <ele>214.6</ele>
        <time>2022-04-21T12:49:45Z</time>
      </trkpt>
      <trkpt lat="46.54557" lon="5.34581">
        <ele>214.6</ele>
        <time>2022-04-21T12:49:46Z</time>
      </trkpt>
      <trkpt lat="46.54573" lon="5.34567">
        <ele>215.2</ele>
        <time>2022-04-21T12:49:50Z</time>
      </trkpt>
      <trkpt lat="46.54587" lon="5.34554">
        <ele>216.2</ele>
        <time>2022-04-21T12:49:54Z</time>
      </trkpt>
      <trkpt lat="46.54601" lon="5.34543">
        <ele>217.4</ele>
        <time>2022-04-21T12:49:58Z</time>
      </trkpt>
      <trkpt lat="46.54609" lon="5.34538">
        <ele>217.8</ele>
        <time>2022-04-21T12:50:00Z</time>
      </trkpt>
      <trkpt lat="46.54623" lon="5.34527">
        <ele>218.6</ele>
        <time>2022-04-21T12:50:03Z</time>
      </trkpt>
      <trkpt lat="46.54643" lon="5.34512">
        <ele>219.4</ele>
        <time>2022-04-21T12:50:07Z</time>
      </trkpt>
      <trkpt lat="46.54648" lon="5.34508">
        <ele>219.6</ele>
        <time>2022-04-21T12:50:08Z</time>
      </trkpt>
      <trkpt lat="46.54674" lon="5.34489">
        <ele>220</ele>
        <time>2022-04-21T12:50:13Z</time>
      </trkpt>
      <trkpt lat="46.54694" lon="5.34478">
        <ele>220.2</ele>
        <time>2022-04-21T12:50:17Z</time>
      </trkpt>
      <trkpt lat="46.54716" lon="5.3447">
        <ele>220.2</ele>
        <time>2022-04-21T12:50:21Z</time>
      </trkpt>
      <trkpt lat="46.54754" lon="5.34461">
        <ele>220</ele>
        <time>2022-04-21T12:50:27Z</time>
      </trkpt>
      <trkpt lat="46.54791" lon="5.34447">
        <ele>219.4</ele>
        <time>2022-04-21T12:50:33Z</time>
      </trkpt>
      <trkpt lat="46.54824" lon="5.34431">
        <ele>219</ele>
        <time>2022-04-21T12:50:39Z</time>
      </trkpt>
      <trkpt lat="46.5484" lon="5.34422">
        <ele>219.4</ele>
        <time>2022-04-21T12:50:42Z</time>
      </trkpt>
      <trkpt lat="46.54856" lon="5.34412">
        <ele>219.4</ele>
        <time>2022-04-21T12:50:45Z</time>
      </trkpt>
      <trkpt lat="46.54861" lon="5.34408">
        <ele>219.4</ele>
        <time>2022-04-21T12:50:46Z</time>
      </trkpt>
      <trkpt lat="46.54886" lon="5.34388">
        <ele>220</ele>
        <time>2022-04-21T12:50:51Z</time>
      </trkpt>
      <trkpt lat="46.54926" lon="5.34354">
        <ele>220.6</ele>
        <time>2022-04-21T12:50:58Z</time>
      </trkpt>
      <trkpt lat="46.54932" lon="5.34347">
        <ele>220.6</ele>
        <time>2022-04-21T12:50:59Z</time>
      </trkpt>
      <trkpt lat="46.54948" lon="5.3433">
        <ele>220.8</ele>
        <time>2022-04-21T12:51:02Z</time>
      </trkpt>
      <trkpt lat="46.54984" lon="5.3429">
        <ele>220.8</ele>
        <time>2022-04-21T12:51:08Z</time>
      </trkpt>
      <trkpt lat="46.55022" lon="5.34243">
        <ele>219.8</ele>
        <time>2022-04-21T12:51:15Z</time>
      </trkpt>
      <trkpt lat="46.55037" lon="5.34226">
        <ele>219.6</ele>
        <time>2022-04-21T12:51:18Z</time>
      </trkpt>
      <trkpt lat="46.5505" lon="5.34212">
        <ele>219.6</ele>
        <time>2022-04-21T12:51:20Z</time>
      </trkpt>
      <trkpt lat="46.55086" lon="5.34179">
        <ele>219.4</ele>
        <time>2022-04-21T12:51:26Z</time>
      </trkpt>
      <trkpt lat="46.55091" lon="5.34173">
        <ele>219.4</ele>
        <time>2022-04-21T12:51:27Z</time>
      </trkpt>
      <trkpt lat="46.55126" lon="5.34136">
        <ele>219.2</ele>
        <time>2022-04-21T12:51:33Z</time>
      </trkpt>
      <trkpt lat="46.55141" lon="5.34117">
        <ele>219</ele>
        <time>2022-04-21T12:51:36Z</time>
      </trkpt>
      <trkpt lat="46.55151" lon="5.34102">
        <ele>219</ele>
        <time>2022-04-21T12:51:38Z</time>
      </trkpt>
      <trkpt lat="46.55156" lon="5.34097">
        <ele>219</ele>
        <time>2022-04-21T12:51:39Z</time>
      </trkpt>
      <trkpt lat="46.5516" lon="5.34093">
        <ele>219</ele>
        <time>2022-04-21T12:51:40Z</time>
      </trkpt>
      <trkpt lat="46.55175" lon="5.34071">
        <ele>218.8</ele>
        <time>2022-04-21T12:51:43Z</time>
      </trkpt>
      <trkpt lat="46.55177" lon="5.34065">
        <ele>218.8</ele>
        <time>2022-04-21T12:51:44Z</time>
      </trkpt>
      <trkpt lat="46.55181" lon="5.3406">
        <ele>218.6</ele>
        <time>2022-04-21T12:51:45Z</time>
      </trkpt>
      <trkpt lat="46.55187" lon="5.34057">
        <ele>218.4</ele>
        <time>2022-04-21T12:51:46Z</time>
      </trkpt>
      <trkpt lat="46.5519" lon="5.34057">
        <ele>218.4</ele>
        <time>2022-04-21T12:51:47Z</time>
      </trkpt>
      <trkpt lat="46.55193" lon="5.3406">
        <ele>218.4</ele>
        <time>2022-04-21T12:51:48Z</time>
      </trkpt>
      <trkpt lat="46.55197" lon="5.34069">
        <ele>218.4</ele>
        <time>2022-04-21T12:51:50Z</time>
      </trkpt>
      <trkpt lat="46.552" lon="5.34079">
        <ele>218.2</ele>
        <time>2022-04-21T12:51:52Z</time>
      </trkpt>
      <trkpt lat="46.55206" lon="5.34097">
        <ele>218.2</ele>
        <time>2022-04-21T12:51:55Z</time>
      </trkpt>
      <trkpt lat="46.55212" lon="5.34117">
        <ele>218.2</ele>
        <time>2022-04-21T12:51:58Z</time>
      </trkpt>
      <trkpt lat="46.55221" lon="5.34149">
        <ele>218</ele>
        <time>2022-04-21T12:52:02Z</time>
      </trkpt>
      <trkpt lat="46.55227" lon="5.34186">
        <ele>218.8</ele>
        <time>2022-04-21T12:52:06Z</time>
      </trkpt>
      <trkpt lat="46.55228" lon="5.34196">
        <ele>218.8</ele>
        <time>2022-04-21T12:52:07Z</time>
      </trkpt>
      <trkpt lat="46.55235" lon="5.34226">
        <ele>218.6</ele>
        <time>2022-04-21T12:52:10Z</time>
      </trkpt>
      <trkpt lat="46.55239" lon="5.34236">
        <ele>218.4</ele>
        <time>2022-04-21T12:52:11Z</time>
      </trkpt>
      <trkpt lat="46.55252" lon="5.34261">
        <ele>218.4</ele>
        <time>2022-04-21T12:52:14Z</time>
      </trkpt>
      <trkpt lat="46.55257" lon="5.34268">
        <ele>218.4</ele>
        <time>2022-04-21T12:52:15Z</time>
      </trkpt>
      <trkpt lat="46.55263" lon="5.34274">
        <ele>218.4</ele>
        <time>2022-04-21T12:52:16Z</time>
      </trkpt>
      <trkpt lat="46.55295" lon="5.34305">
        <ele>218</ele>
        <time>2022-04-21T12:52:21Z</time>
      </trkpt>
      <trkpt lat="46.5531" lon="5.34321">
        <ele>217</ele>
        <time>2022-04-21T12:52:23Z</time>
      </trkpt>
      <trkpt lat="46.55317" lon="5.3433">
        <ele>216.8</ele>
        <time>2022-04-21T12:52:24Z</time>
      </trkpt>
      <trkpt lat="46.55339" lon="5.34352">
        <ele>215.8</ele>
        <time>2022-04-21T12:52:27Z</time>
      </trkpt>
      <trkpt lat="46.55354" lon="5.34366">
        <ele>215.6</ele>
        <time>2022-04-21T12:52:29Z</time>
      </trkpt>
      <trkpt lat="46.55381" lon="5.34394">
        <ele>214.8</ele>
        <time>2022-04-21T12:52:33Z</time>
      </trkpt>
      <trkpt lat="46.5541" lon="5.34423">
        <ele>214.2</ele>
        <time>2022-04-21T12:52:37Z</time>
      </trkpt>
      <trkpt lat="46.55454" lon="5.34469">
        <ele>213.8</ele>
        <time>2022-04-21T12:52:44Z</time>
      </trkpt>
      <trkpt lat="46.55472" lon="5.34488">
        <ele>213.8</ele>
        <time>2022-04-21T12:52:47Z</time>
      </trkpt>
      <trkpt lat="46.555" lon="5.34515">
        <ele>213.8</ele>
        <time>2022-04-21T12:52:52Z</time>
      </trkpt>
      <trkpt lat="46.55506" lon="5.3452">
        <ele>213.8</ele>
        <time>2022-04-21T12:52:53Z</time>
      </trkpt>
      <trkpt lat="46.5555" lon="5.34547">
        <ele>213.6</ele>
        <time>2022-04-21T12:53:00Z</time>
      </trkpt>
      <trkpt lat="46.55599" lon="5.34566">
        <ele>213</ele>
        <time>2022-04-21T12:53:07Z</time>
      </trkpt>
      <trkpt lat="46.55607" lon="5.34569">
        <ele>212.8</ele>
        <time>2022-04-21T12:53:08Z</time>
      </trkpt>
      <trkpt lat="46.5564" lon="5.3458">
        <ele>211.8</ele>
        <time>2022-04-21T12:53:12Z</time>
      </trkpt>
      <trkpt lat="46.55649" lon="5.3458">
        <ele>211.4</ele>
        <time>2022-04-21T12:53:13Z</time>
      </trkpt>
      <trkpt lat="46.55667" lon="5.34579">
        <ele>210.8</ele>
        <time>2022-04-21T12:53:15Z</time>
      </trkpt>
      <trkpt lat="46.55696" lon="5.34578">
        <ele>209.4</ele>
        <time>2022-04-21T12:53:18Z</time>
      </trkpt>
      <trkpt lat="46.55706" lon="5.34579">
        <ele>209</ele>
        <time>2022-04-21T12:53:19Z</time>
      </trkpt>
      <trkpt lat="46.55716" lon="5.34581">
        <ele>208.4</ele>
        <time>2022-04-21T12:53:20Z</time>
      </trkpt>
      <trkpt lat="46.55737" lon="5.34585">
        <ele>207.2</ele>
        <time>2022-04-21T12:53:22Z</time>
      </trkpt>
      <trkpt lat="46.5576" lon="5.34591">
        <ele>205.8</ele>
        <time>2022-04-21T12:53:24Z</time>
      </trkpt>
      <trkpt lat="46.55769" lon="5.34592">
        <ele>205.2</ele>
        <time>2022-04-21T12:53:25Z</time>
      </trkpt>
      <trkpt lat="46.55779" lon="5.34595">
        <ele>204.6</ele>
        <time>2022-04-21T12:53:26Z</time>
      </trkpt>
      <trkpt lat="46.558" lon="5.346">
        <ele>203.6</ele>
        <time>2022-04-21T12:53:28Z</time>
      </trkpt>
      <trkpt lat="46.55829" lon="5.34607">
        <ele>202.4</ele>
        <time>2022-04-21T12:53:31Z</time>
      </trkpt>
      <trkpt lat="46.55839" lon="5.34609">
        <ele>202.2</ele>
        <time>2022-04-21T12:53:32Z</time>
      </trkpt>
      <trkpt lat="46.55891" lon="5.34623">
        <ele>201.6</ele>
        <time>2022-04-21T12:53:38Z</time>
      </trkpt>
      <trkpt lat="46.559" lon="5.34625">
        <ele>201.2</ele>
        <time>2022-04-21T12:53:39Z</time>
      </trkpt>
      <trkpt lat="46.55959" lon="5.34638">
        <ele>200.2</ele>
        <time>2022-04-21T12:53:46Z</time>
      </trkpt>
      <trkpt lat="46.55966" lon="5.3464">
        <ele>200.2</ele>
        <time>2022-04-21T12:53:47Z</time>
      </trkpt>
      <trkpt lat="46.56008" lon="5.34651">
        <ele>200</ele>
        <time>2022-04-21T12:53:53Z</time>
      </trkpt>
      <trkpt lat="46.56065" lon="5.34665">
        <ele>200.2</ele>
        <time>2022-04-21T12:54:01Z</time>
      </trkpt>
      <trkpt lat="46.56079" lon="5.34668">
        <ele>200</ele>
        <time>2022-04-21T12:54:03Z</time>
      </trkpt>
      <trkpt lat="46.56123" lon="5.34679">
        <ele>199.8</ele>
        <time>2022-04-21T12:54:10Z</time>
      </trkpt>
      <trkpt lat="46.56133" lon="5.34679">
        <ele>200.2</ele>
        <time>2022-04-21T12:54:12Z</time>
      </trkpt>
      <trkpt lat="46.56146" lon="5.34681">
        <ele>200.6</ele>
        <time>2022-04-21T12:54:14Z</time>
      </trkpt>
      <trkpt lat="46.56169" lon="5.34681">
        <ele>201.4</ele>
        <time>2022-04-21T12:54:18Z</time>
      </trkpt>
      <trkpt lat="46.5618" lon="5.3468">
        <ele>202</ele>
        <time>2022-04-21T12:54:20Z</time>
      </trkpt>
      <trkpt lat="46.5619" lon="5.34678">
        <ele>202.4</ele>
        <time>2022-04-21T12:54:22Z</time>
      </trkpt>
      <trkpt lat="46.56206" lon="5.34674">
        <ele>203.4</ele>
        <time>2022-04-21T12:54:25Z</time>
      </trkpt>
      <trkpt lat="46.56216" lon="5.34672">
        <ele>203.8</ele>
        <time>2022-04-21T12:54:27Z</time>
      </trkpt>
      <trkpt lat="46.56235" lon="5.34666">
        <ele>204.8</ele>
        <time>2022-04-21T12:54:31Z</time>
      </trkpt>
      <trkpt lat="46.5626" lon="5.34658">
        <ele>205.8</ele>
        <time>2022-04-21T12:54:36Z</time>
      </trkpt>
      <trkpt lat="46.56265" lon="5.34657">
        <ele>206</ele>
        <time>2022-04-21T12:54:37Z</time>
      </trkpt>
      <trkpt lat="46.56289" lon="5.34652">
        <ele>207</ele>
        <time>2022-04-21T12:54:42Z</time>
      </trkpt>
      <trkpt lat="46.56312" lon="5.3465">
        <ele>207.8</ele>
        <time>2022-04-21T12:54:47Z</time>
      </trkpt>
      <trkpt lat="46.56316" lon="5.34651">
        <ele>208</ele>
        <time>2022-04-21T12:54:48Z</time>
      </trkpt>
      <trkpt lat="46.56331" lon="5.34653">
        <ele>208.6</ele>
        <time>2022-04-21T12:54:51Z</time>
      </trkpt>
      <trkpt lat="46.56341" lon="5.34657">
        <ele>209</ele>
        <time>2022-04-21T12:54:53Z</time>
      </trkpt>
      <trkpt lat="46.56345" lon="5.34659">
        <ele>209.2</ele>
        <time>2022-04-21T12:54:54Z</time>
      </trkpt>
      <trkpt lat="46.56367" lon="5.34671">
        <ele>210</ele>
        <time>2022-04-21T12:54:58Z</time>
      </trkpt>
      <trkpt lat="46.56378" lon="5.34674">
        <ele>210.2</ele>
        <time>2022-04-21T12:55:00Z</time>
      </trkpt>
      <trkpt lat="46.56414" lon="5.34683">
        <ele>210</ele>
        <time>2022-04-21T12:55:06Z</time>
      </trkpt>
      <trkpt lat="46.56421" lon="5.34687">
        <ele>209.8</ele>
        <time>2022-04-21T12:55:07Z</time>
      </trkpt>
      <trkpt lat="46.5644" lon="5.34698">
        <ele>209</ele>
        <time>2022-04-21T12:55:10Z</time>
      </trkpt>
      <trkpt lat="46.56456" lon="5.34707">
        <ele>208.8</ele>
        <time>2022-04-21T12:55:12Z</time>
      </trkpt>
      <trkpt lat="46.56485" lon="5.34722">
        <ele>207.8</ele>
        <time>2022-04-21T12:55:16Z</time>
      </trkpt>
      <trkpt lat="46.56515" lon="5.34739">
        <ele>206.8</ele>
        <time>2022-04-21T12:55:20Z</time>
      </trkpt>
      <trkpt lat="46.56523" lon="5.34743">
        <ele>206.4</ele>
        <time>2022-04-21T12:55:21Z</time>
      </trkpt>
      <trkpt lat="46.56555" lon="5.34764">
        <ele>205.2</ele>
        <time>2022-04-21T12:55:25Z</time>
      </trkpt>
      <trkpt lat="46.56563" lon="5.34768">
        <ele>205.2</ele>
        <time>2022-04-21T12:55:26Z</time>
      </trkpt>
      <trkpt lat="46.56581" lon="5.34774">
        <ele>204.6</ele>
        <time>2022-04-21T12:55:28Z</time>
      </trkpt>
      <trkpt lat="46.5659" lon="5.34774">
        <ele>204.4</ele>
        <time>2022-04-21T12:55:29Z</time>
      </trkpt>
      <trkpt lat="46.566" lon="5.34771">
        <ele>203.8</ele>
        <time>2022-04-21T12:55:30Z</time>
      </trkpt>
      <trkpt lat="46.56616" lon="5.34758">
        <ele>202.8</ele>
        <time>2022-04-21T12:55:32Z</time>
      </trkpt>
      <trkpt lat="46.56622" lon="5.34748">
        <ele>202.2</ele>
        <time>2022-04-21T12:55:33Z</time>
      </trkpt>
      <trkpt lat="46.56627" lon="5.34737">
        <ele>201.8</ele>
        <time>2022-04-21T12:55:34Z</time>
      </trkpt>
      <trkpt lat="46.56631" lon="5.34727">
        <ele>200.6</ele>
        <time>2022-04-21T12:55:35Z</time>
      </trkpt>
      <trkpt lat="46.56636" lon="5.34716">
        <ele>200.2</ele>
        <time>2022-04-21T12:55:36Z</time>
      </trkpt>
      <trkpt lat="46.56642" lon="5.34706">
        <ele>199.6</ele>
        <time>2022-04-21T12:55:37Z</time>
      </trkpt>
      <trkpt lat="46.5665" lon="5.34699">
        <ele>199</ele>
        <time>2022-04-21T12:55:38Z</time>
      </trkpt>
      <trkpt lat="46.56666" lon="5.34691">
        <ele>198</ele>
        <time>2022-04-21T12:55:40Z</time>
      </trkpt>
      <trkpt lat="46.56676" lon="5.34688">
        <ele>197.8</ele>
        <time>2022-04-21T12:55:41Z</time>
      </trkpt>
      <trkpt lat="46.56714" lon="5.34674">
        <ele>197</ele>
        <time>2022-04-21T12:55:46Z</time>
      </trkpt>
      <trkpt lat="46.56721" lon="5.34671">
        <ele>196.8</ele>
        <time>2022-04-21T12:55:47Z</time>
      </trkpt>
      <trkpt lat="46.56741" lon="5.34662">
        <ele>196.6</ele>
        <time>2022-04-21T12:55:50Z</time>
      </trkpt>
      <trkpt lat="46.56758" lon="5.34663">
        <ele>196.6</ele>
        <time>2022-04-21T12:55:52Z</time>
      </trkpt>
      <trkpt lat="46.56769" lon="5.34676">
        <ele>196.6</ele>
        <time>2022-04-21T12:55:54Z</time>
      </trkpt>
      <trkpt lat="46.56773" lon="5.34685">
        <ele>196.4</ele>
        <time>2022-04-21T12:55:55Z</time>
      </trkpt>
      <trkpt lat="46.56788" lon="5.34747">
        <ele>196</ele>
        <time>2022-04-21T12:56:01Z</time>
      </trkpt>
      <trkpt lat="46.56791" lon="5.34757">
        <ele>196</ele>
        <time>2022-04-21T12:56:02Z</time>
      </trkpt>
      <trkpt lat="46.56807" lon="5.3484">
        <ele>196</ele>
        <time>2022-04-21T12:56:10Z</time>
      </trkpt>
      <trkpt lat="46.56821" lon="5.34916">
        <ele>196</ele>
        <time>2022-04-21T12:56:18Z</time>
      </trkpt>
      <trkpt lat="46.56824" lon="5.34933">
        <ele>196.4</ele>
        <time>2022-04-21T12:56:20Z</time>
      </trkpt>
      <trkpt lat="46.56831" lon="5.34967">
        <ele>197</ele>
        <time>2022-04-21T12:56:24Z</time>
      </trkpt>
      <trkpt lat="46.56837" lon="5.34991">
        <ele>197.2</ele>
        <time>2022-04-21T12:56:27Z</time>
      </trkpt>
      <trkpt lat="46.56843" lon="5.35005">
        <ele>198.2</ele>
        <time>2022-04-21T12:56:29Z</time>
      </trkpt>
      <trkpt lat="46.56854" lon="5.35032">
        <ele>199.4</ele>
        <time>2022-04-21T12:56:33Z</time>
      </trkpt>
      <trkpt lat="46.5686" lon="5.35045">
        <ele>199.8</ele>
        <time>2022-04-21T12:56:35Z</time>
      </trkpt>
      <trkpt lat="46.56866" lon="5.35058">
        <ele>200.4</ele>
        <time>2022-04-21T12:56:37Z</time>
      </trkpt>
      <trkpt lat="46.56879" lon="5.35091">
        <ele>201.8</ele>
        <time>2022-04-21T12:56:42Z</time>
      </trkpt>
      <trkpt lat="46.56888" lon="5.35111">
        <ele>202.6</ele>
        <time>2022-04-21T12:56:45Z</time>
      </trkpt>
      <trkpt lat="46.56891" lon="5.35117">
        <ele>202.8</ele>
        <time>2022-04-21T12:56:46Z</time>
      </trkpt>
      <trkpt lat="46.56897" lon="5.3513">
        <ele>203.6</ele>
        <time>2022-04-21T12:56:48Z</time>
      </trkpt>
      <trkpt lat="46.56901" lon="5.35136">
        <ele>204</ele>
        <time>2022-04-21T12:56:49Z</time>
      </trkpt>
      <trkpt lat="46.56904" lon="5.35142">
        <ele>204.4</ele>
        <time>2022-04-21T12:56:50Z</time>
      </trkpt>
      <trkpt lat="46.56918" lon="5.35161">
        <ele>205.6</ele>
        <time>2022-04-21T12:56:54Z</time>
      </trkpt>
      <trkpt lat="46.5693" lon="5.35171">
        <ele>206.6</ele>
        <time>2022-04-21T12:56:56Z</time>
      </trkpt>
      <trkpt lat="46.56936" lon="5.35175">
        <ele>206.6</ele>
        <time>2022-04-21T12:56:57Z</time>
      </trkpt>
      <trkpt lat="46.56961" lon="5.35199">
        <ele>207.4</ele>
        <time>2022-04-21T12:57:01Z</time>
      </trkpt>
      <trkpt lat="46.5697" lon="5.35216">
        <ele>207.4</ele>
        <time>2022-04-21T12:57:03Z</time>
      </trkpt>
      <trkpt lat="46.56973" lon="5.35228">
        <ele>207.4</ele>
        <time>2022-04-21T12:57:04Z</time>
      </trkpt>
      <trkpt lat="46.56987" lon="5.35292">
        <ele>206</ele>
        <time>2022-04-21T12:57:09Z</time>
      </trkpt>
      <trkpt lat="46.5699" lon="5.35304">
        <ele>205.4</ele>
        <time>2022-04-21T12:57:10Z</time>
      </trkpt>
      <trkpt lat="46.57" lon="5.35338">
        <ele>204.2</ele>
        <time>2022-04-21T12:57:13Z</time>
      </trkpt>
      <trkpt lat="46.57021" lon="5.35402">
        <ele>202.8</ele>
        <time>2022-04-21T12:57:19Z</time>
      </trkpt>
      <trkpt lat="46.57034" lon="5.35457">
        <ele>202.4</ele>
        <time>2022-04-21T12:57:24Z</time>
      </trkpt>
      <trkpt lat="46.57042" lon="5.35545">
        <ele>201.8</ele>
        <time>2022-04-21T12:57:32Z</time>
      </trkpt>
      <trkpt lat="46.57043" lon="5.35557">
        <ele>201.6</ele>
        <time>2022-04-21T12:57:33Z</time>
      </trkpt>
      <trkpt lat="46.57048" lon="5.35604">
        <ele>201.2</ele>
        <time>2022-04-21T12:57:37Z</time>
      </trkpt>
      <trkpt lat="46.57052" lon="5.35615">
        <ele>201.2</ele>
        <time>2022-04-21T12:57:38Z</time>
      </trkpt>
      <trkpt lat="46.57056" lon="5.35626">
        <ele>201.2</ele>
        <time>2022-04-21T12:57:39Z</time>
      </trkpt>
      <trkpt lat="46.57066" lon="5.35643">
        <ele>200.8</ele>
        <time>2022-04-21T12:57:41Z</time>
      </trkpt>
      <trkpt lat="46.57072" lon="5.35651">
        <ele>200.8</ele>
        <time>2022-04-21T12:57:42Z</time>
      </trkpt>
      <trkpt lat="46.57102" lon="5.35692">
        <ele>200.4</ele>
        <time>2022-04-21T12:57:48Z</time>
      </trkpt>
      <trkpt lat="46.57132" lon="5.35729">
        <ele>200.4</ele>
        <time>2022-04-21T12:57:53Z</time>
      </trkpt>
      <trkpt lat="46.57138" lon="5.35734">
        <ele>200.4</ele>
        <time>2022-04-21T12:57:54Z</time>
      </trkpt>
      <trkpt lat="46.57192" lon="5.35768">
        <ele>200.6</ele>
        <time>2022-04-21T12:58:02Z</time>
      </trkpt>
      <trkpt lat="46.57244" lon="5.358">
        <ele>200.6</ele>
        <time>2022-04-21T12:58:10Z</time>
      </trkpt>
      <trkpt lat="46.5725" lon="5.35804">
        <ele>200.6</ele>
        <time>2022-04-21T12:58:11Z</time>
      </trkpt>
      <trkpt lat="46.57296" lon="5.35832">
        <ele>200.8</ele>
        <time>2022-04-21T12:58:19Z</time>
      </trkpt>
      <trkpt lat="46.57338" lon="5.3584">
        <ele>201.6</ele>
        <time>2022-04-21T12:58:26Z</time>
      </trkpt>
      <trkpt lat="46.5735" lon="5.35837">
        <ele>201.6</ele>
        <time>2022-04-21T12:58:28Z</time>
      </trkpt>
      <trkpt lat="46.5736" lon="5.35828">
        <ele>201.6</ele>
        <time>2022-04-21T12:58:30Z</time>
      </trkpt>
      <trkpt lat="46.57384" lon="5.35794">
        <ele>201.6</ele>
        <time>2022-04-21T12:58:36Z</time>
      </trkpt>
      <trkpt lat="46.57387" lon="5.35788">
        <ele>201.8</ele>
        <time>2022-04-21T12:58:37Z</time>
      </trkpt>
      <trkpt lat="46.57389" lon="5.35782">
        <ele>202</ele>
        <time>2022-04-21T12:58:38Z</time>
      </trkpt>
      <trkpt lat="46.57392" lon="5.35775">
        <ele>202.2</ele>
        <time>2022-04-21T12:58:39Z</time>
      </trkpt>
      <trkpt lat="46.57398" lon="5.35764">
        <ele>202.8</ele>
        <time>2022-04-21T12:58:41Z</time>
      </trkpt>
      <trkpt lat="46.57407" lon="5.35753">
        <ele>203</ele>
        <time>2022-04-21T12:58:43Z</time>
      </trkpt>
      <trkpt lat="46.57412" lon="5.35749">
        <ele>203</ele>
        <time>2022-04-21T12:58:44Z</time>
      </trkpt>
      <trkpt lat="46.57418" lon="5.35745">
        <ele>203.2</ele>
        <time>2022-04-21T12:58:45Z</time>
      </trkpt>
      <trkpt lat="46.57456" lon="5.35722">
        <ele>203</ele>
        <time>2022-04-21T12:58:50Z</time>
      </trkpt>
      <trkpt lat="46.57489" lon="5.357">
        <ele>201.8</ele>
        <time>2022-04-21T12:58:54Z</time>
      </trkpt>
      <trkpt lat="46.57516" lon="5.35681">
        <ele>200.2</ele>
        <time>2022-04-21T12:58:57Z</time>
      </trkpt>
      <trkpt lat="46.57538" lon="5.3566">
        <ele>199</ele>
        <time>2022-04-21T12:59:00Z</time>
      </trkpt>
      <trkpt lat="46.57551" lon="5.35642">
        <ele>198.4</ele>
        <time>2022-04-21T12:59:02Z</time>
      </trkpt>
      <trkpt lat="46.57564" lon="5.35622">
        <ele>197.8</ele>
        <time>2022-04-21T12:59:04Z</time>
      </trkpt>
      <trkpt lat="46.57571" lon="5.35613">
        <ele>197.6</ele>
        <time>2022-04-21T12:59:05Z</time>
      </trkpt>
      <trkpt lat="46.57585" lon="5.35598">
        <ele>196.6</ele>
        <time>2022-04-21T12:59:07Z</time>
      </trkpt>
      <trkpt lat="46.5763" lon="5.3556">
        <ele>195.6</ele>
        <time>2022-04-21T12:59:13Z</time>
      </trkpt>
      <trkpt lat="46.57671" lon="5.35523">
        <ele>194.8</ele>
        <time>2022-04-21T12:59:19Z</time>
      </trkpt>
      <trkpt lat="46.57713" lon="5.35495">
        <ele>195.2</ele>
        <time>2022-04-21T12:59:26Z</time>
      </trkpt>
      <trkpt lat="46.57742" lon="5.35476">
        <ele>196</ele>
        <time>2022-04-21T12:59:32Z</time>
      </trkpt>
      <trkpt lat="46.57754" lon="5.35468">
        <ele>196.8</ele>
        <time>2022-04-21T12:59:35Z</time>
      </trkpt>
      <trkpt lat="46.57766" lon="5.35459">
        <ele>197.4</ele>
        <time>2022-04-21T12:59:38Z</time>
      </trkpt>
      <trkpt lat="46.57769" lon="5.35457">
        <ele>198.2</ele>
        <time>2022-04-21T12:59:39Z</time>
      </trkpt>
      <trkpt lat="46.57784" lon="5.35446">
        <ele>199.2</ele>
        <time>2022-04-21T12:59:43Z</time>
      </trkpt>
      <trkpt lat="46.57787" lon="5.35443">
        <ele>199.8</ele>
        <time>2022-04-21T12:59:44Z</time>
      </trkpt>
      <trkpt lat="46.57807" lon="5.3543">
        <ele>201</ele>
        <time>2022-04-21T12:59:49Z</time>
      </trkpt>
      <trkpt lat="46.5781" lon="5.35428">
        <ele>201.2</ele>
        <time>2022-04-21T12:59:50Z</time>
      </trkpt>
      <trkpt lat="46.57814" lon="5.35427">
        <ele>201.6</ele>
        <time>2022-04-21T12:59:51Z</time>
      </trkpt>
      <trkpt lat="46.57818" lon="5.35429">
        <ele>201.8</ele>
        <time>2022-04-21T12:59:52Z</time>
      </trkpt>
      <trkpt lat="46.57821" lon="5.35433">
        <ele>202.4</ele>
        <time>2022-04-21T12:59:53Z</time>
      </trkpt>
      <trkpt lat="46.57824" lon="5.35438">
        <ele>202.6</ele>
        <time>2022-04-21T12:59:54Z</time>
      </trkpt>
      <trkpt lat="46.57827" lon="5.3547">
        <ele>203.6</ele>
        <time>2022-04-21T12:59:59Z</time>
      </trkpt>
      <trkpt lat="46.57831" lon="5.35495">
        <ele>204.2</ele>
        <time>2022-04-21T13:00:02Z</time>
      </trkpt>
      <trkpt lat="46.57835" lon="5.35512">
        <ele>204.4</ele>
        <time>2022-04-21T13:00:04Z</time>
      </trkpt>
      <trkpt lat="46.57855" lon="5.3556">
        <ele>203.8</ele>
        <time>2022-04-21T13:00:09Z</time>
      </trkpt>
      <trkpt lat="46.5787" lon="5.35599">
        <ele>203</ele>
        <time>2022-04-21T13:00:13Z</time>
      </trkpt>
      <trkpt lat="46.57872" lon="5.35611">
        <ele>202.4</ele>
        <time>2022-04-21T13:00:14Z</time>
      </trkpt>
      <trkpt lat="46.57881" lon="5.35667">
        <ele>201.8</ele>
        <time>2022-04-21T13:00:19Z</time>
      </trkpt>
      <trkpt lat="46.57887" lon="5.35694">
        <ele>201.8</ele>
        <time>2022-04-21T13:00:22Z</time>
      </trkpt>
      <trkpt lat="46.57894" lon="5.35711">
        <ele>202.2</ele>
        <time>2022-04-21T13:00:24Z</time>
      </trkpt>
      <trkpt lat="46.57926" lon="5.35778">
        <ele>203.2</ele>
        <time>2022-04-21T13:00:32Z</time>
      </trkpt>
      <trkpt lat="46.57934" lon="5.35797">
        <ele>203.4</ele>
        <time>2022-04-21T13:00:34Z</time>
      </trkpt>
      <trkpt lat="46.57938" lon="5.35819">
        <ele>203.4</ele>
        <time>2022-04-21T13:00:36Z</time>
      </trkpt>
      <trkpt lat="46.57938" lon="5.35831">
        <ele>203.2</ele>
        <time>2022-04-21T13:00:37Z</time>
      </trkpt>
      <trkpt lat="46.57936" lon="5.35843">
        <ele>203.2</ele>
        <time>2022-04-21T13:00:38Z</time>
      </trkpt>
      <trkpt lat="46.57931" lon="5.35866">
        <ele>202.6</ele>
        <time>2022-04-21T13:00:40Z</time>
      </trkpt>
      <trkpt lat="46.57927" lon="5.35877">
        <ele>202.4</ele>
        <time>2022-04-21T13:00:41Z</time>
      </trkpt>
      <trkpt lat="46.57924" lon="5.35887">
        <ele>202</ele>
        <time>2022-04-21T13:00:42Z</time>
      </trkpt>
      <trkpt lat="46.57914" lon="5.35931">
        <ele>201.4</ele>
        <time>2022-04-21T13:00:46Z</time>
      </trkpt>
      <trkpt lat="46.57911" lon="5.35953">
        <ele>201</ele>
        <time>2022-04-21T13:00:48Z</time>
      </trkpt>
      <trkpt lat="46.57915" lon="5.35978">
        <ele>200.8</ele>
        <time>2022-04-21T13:00:50Z</time>
      </trkpt>
      <trkpt lat="46.5792" lon="5.35989">
        <ele>200.8</ele>
        <time>2022-04-21T13:00:51Z</time>
      </trkpt>
      <trkpt lat="46.57927" lon="5.35997">
        <ele>200.6</ele>
        <time>2022-04-21T13:00:52Z</time>
      </trkpt>
      <trkpt lat="46.57934" lon="5.36004">
        <ele>200.2</ele>
        <time>2022-04-21T13:00:53Z</time>
      </trkpt>
      <trkpt lat="46.57941" lon="5.3601">
        <ele>199.6</ele>
        <time>2022-04-21T13:00:54Z</time>
      </trkpt>
      <trkpt lat="46.57964" lon="5.36031">
        <ele>199.2</ele>
        <time>2022-04-21T13:00:57Z</time>
      </trkpt>
      <trkpt lat="46.57977" lon="5.36047">
        <ele>199</ele>
        <time>2022-04-21T13:00:59Z</time>
      </trkpt>
      <trkpt lat="46.57989" lon="5.36064">
        <ele>198.6</ele>
        <time>2022-04-21T13:01:01Z</time>
      </trkpt>
      <trkpt lat="46.58002" lon="5.36089">
        <ele>198.8</ele>
        <time>2022-04-21T13:01:04Z</time>
      </trkpt>
      <trkpt lat="46.58006" lon="5.36099">
        <ele>199</ele>
        <time>2022-04-21T13:01:05Z</time>
      </trkpt>
      <trkpt lat="46.58015" lon="5.36127">
        <ele>199.4</ele>
        <time>2022-04-21T13:01:08Z</time>
      </trkpt>
      <trkpt lat="46.58022" lon="5.36164">
        <ele>199.6</ele>
        <time>2022-04-21T13:01:12Z</time>
      </trkpt>
      <trkpt lat="46.58022" lon="5.36174">
        <ele>199.6</ele>
        <time>2022-04-21T13:01:13Z</time>
      </trkpt>
      <trkpt lat="46.58023" lon="5.36195">
        <ele>200.2</ele>
        <time>2022-04-21T13:01:15Z</time>
      </trkpt>
      <trkpt lat="46.58019" lon="5.36244">
        <ele>200.8</ele>
        <time>2022-04-21T13:01:20Z</time>
      </trkpt>
      <trkpt lat="46.58024" lon="5.36312">
        <ele>201</ele>
        <time>2022-04-21T13:01:27Z</time>
      </trkpt>
      <trkpt lat="46.58026" lon="5.36322">
        <ele>201</ele>
        <time>2022-04-21T13:01:28Z</time>
      </trkpt>
      <trkpt lat="46.58031" lon="5.3634">
        <ele>201</ele>
        <time>2022-04-21T13:01:30Z</time>
      </trkpt>
      <trkpt lat="46.58034" lon="5.36349">
        <ele>201</ele>
        <time>2022-04-21T13:01:31Z</time>
      </trkpt>
      <trkpt lat="46.58038" lon="5.36357">
        <ele>201</ele>
        <time>2022-04-21T13:01:32Z</time>
      </trkpt>
      <trkpt lat="46.58057" lon="5.36384">
        <ele>201.2</ele>
        <time>2022-04-21T13:01:36Z</time>
      </trkpt>
      <trkpt lat="46.58088" lon="5.36433">
        <ele>201.6</ele>
        <time>2022-04-21T13:01:43Z</time>
      </trkpt>
      <trkpt lat="46.58091" lon="5.36442">
        <ele>201.8</ele>
        <time>2022-04-21T13:01:44Z</time>
      </trkpt>
      <trkpt lat="46.58098" lon="5.36458">
        <ele>201.8</ele>
        <time>2022-04-21T13:01:46Z</time>
      </trkpt>
      <trkpt lat="46.58106" lon="5.36474">
        <ele>202</ele>
        <time>2022-04-21T13:01:48Z</time>
      </trkpt>
      <trkpt lat="46.58123" lon="5.36523">
        <ele>202.2</ele>
        <time>2022-04-21T13:01:54Z</time>
      </trkpt>
      <trkpt lat="46.58126" lon="5.3654">
        <ele>202.4</ele>
        <time>2022-04-21T13:01:56Z</time>
      </trkpt>
      <trkpt lat="46.58126" lon="5.36557">
        <ele>202.6</ele>
        <time>2022-04-21T13:01:58Z</time>
      </trkpt>
      <trkpt lat="46.58126" lon="5.36566">
        <ele>202.6</ele>
        <time>2022-04-21T13:01:59Z</time>
      </trkpt>
      <trkpt lat="46.58127" lon="5.36592">
        <ele>203</ele>
        <time>2022-04-21T13:02:02Z</time>
      </trkpt>
      <trkpt lat="46.5813" lon="5.3661">
        <ele>203</ele>
        <time>2022-04-21T13:02:04Z</time>
      </trkpt>
      <trkpt lat="46.58149" lon="5.36667">
        <ele>203.2</ele>
        <time>2022-04-21T13:02:11Z</time>
      </trkpt>
      <trkpt lat="46.58171" lon="5.36717">
        <ele>203.2</ele>
        <time>2022-04-21T13:02:17Z</time>
      </trkpt>
      <trkpt lat="46.58174" lon="5.36727">
        <ele>203.2</ele>
        <time>2022-04-21T13:02:18Z</time>
      </trkpt>
      <trkpt lat="46.58182" lon="5.36744">
        <ele>203.4</ele>
        <time>2022-04-21T13:02:20Z</time>
      </trkpt>
      <trkpt lat="46.58201" lon="5.36793">
        <ele>203.4</ele>
        <time>2022-04-21T13:02:26Z</time>
      </trkpt>
      <trkpt lat="46.58229" lon="5.36863">
        <ele>203.4</ele>
        <time>2022-04-21T13:02:35Z</time>
      </trkpt>
      <trkpt lat="46.58235" lon="5.36878">
        <ele>203.6</ele>
        <time>2022-04-21T13:02:37Z</time>
      </trkpt>
      <trkpt lat="46.58241" lon="5.36893">
        <ele>203.8</ele>
        <time>2022-04-21T13:02:39Z</time>
      </trkpt>
      <trkpt lat="46.58253" lon="5.36923">
        <ele>203.8</ele>
        <time>2022-04-21T13:02:43Z</time>
      </trkpt>
      <trkpt lat="46.58262" lon="5.36945">
        <ele>204</ele>
        <time>2022-04-21T13:02:46Z</time>
      </trkpt>
      <trkpt lat="46.58268" lon="5.3696">
        <ele>204.6</ele>
        <time>2022-04-21T13:02:48Z</time>
      </trkpt>
      <trkpt lat="46.58272" lon="5.36966">
        <ele>204.8</ele>
        <time>2022-04-21T13:02:49Z</time>
      </trkpt>
      <trkpt lat="46.58281" lon="5.36979">
        <ele>205</ele>
        <time>2022-04-21T13:02:51Z</time>
      </trkpt>
      <trkpt lat="46.58291" lon="5.36988">
        <ele>205.2</ele>
        <time>2022-04-21T13:02:53Z</time>
      </trkpt>
      <trkpt lat="46.58295" lon="5.36991">
        <ele>205.2</ele>
        <time>2022-04-21T13:02:54Z</time>
      </trkpt>
      <trkpt lat="46.58327" lon="5.37006">
        <ele>205.6</ele>
        <time>2022-04-21T13:03:00Z</time>
      </trkpt>
      <trkpt lat="46.58332" lon="5.37009">
        <ele>205.6</ele>
        <time>2022-04-21T13:03:01Z</time>
      </trkpt>
      <trkpt lat="46.58367" lon="5.37027">
        <ele>206.8</ele>
        <time>2022-04-21T13:03:08Z</time>
      </trkpt>
      <trkpt lat="46.58377" lon="5.37033">
        <ele>207.2</ele>
        <time>2022-04-21T13:03:10Z</time>
      </trkpt>
      <trkpt lat="46.58392" lon="5.37039">
        <ele>208</ele>
        <time>2022-04-21T13:03:13Z</time>
      </trkpt>
      <trkpt lat="46.58402" lon="5.37043">
        <ele>208.2</ele>
        <time>2022-04-21T13:03:15Z</time>
      </trkpt>
      <trkpt lat="46.58425" lon="5.37055">
        <ele>209</ele>
        <time>2022-04-21T13:03:20Z</time>
      </trkpt>
      <trkpt lat="46.58447" lon="5.37067">
        <ele>210.4</ele>
        <time>2022-04-21T13:03:25Z</time>
      </trkpt>
      <trkpt lat="46.58472" lon="5.37079">
        <ele>211.4</ele>
        <time>2022-04-21T13:03:31Z</time>
      </trkpt>
      <trkpt lat="46.58486" lon="5.37089">
        <ele>212.2</ele>
        <time>2022-04-21T13:03:34Z</time>
      </trkpt>
      <trkpt lat="46.58494" lon="5.37096">
        <ele>212.6</ele>
        <time>2022-04-21T13:03:36Z</time>
      </trkpt>
      <trkpt lat="46.58515" lon="5.3712">
        <ele>213.4</ele>
        <time>2022-04-21T13:03:41Z</time>
      </trkpt>
      <trkpt lat="46.58541" lon="5.37152">
        <ele>213.8</ele>
        <time>2022-04-21T13:03:46Z</time>
      </trkpt>
      <trkpt lat="46.58545" lon="5.37161">
        <ele>213.6</ele>
        <time>2022-04-21T13:03:47Z</time>
      </trkpt>
      <trkpt lat="46.58563" lon="5.372">
        <ele>213.2</ele>
        <time>2022-04-21T13:03:51Z</time>
      </trkpt>
      <trkpt lat="46.58588" lon="5.37273">
        <ele>212.8</ele>
        <time>2022-04-21T13:03:59Z</time>
      </trkpt>
      <trkpt lat="46.58604" lon="5.37341">
        <ele>212.8</ele>
        <time>2022-04-21T13:04:06Z</time>
      </trkpt>
      <trkpt lat="46.58622" lon="5.37417">
        <ele>212.6</ele>
        <time>2022-04-21T13:04:14Z</time>
      </trkpt>
      <trkpt lat="46.58624" lon="5.37427">
        <ele>212.6</ele>
        <time>2022-04-21T13:04:15Z</time>
      </trkpt>
      <trkpt lat="46.58646" lon="5.37481">
        <ele>212.8</ele>
        <time>2022-04-21T13:04:21Z</time>
      </trkpt>
      <trkpt lat="46.58678" lon="5.37533">
        <ele>212.8</ele>
        <time>2022-04-21T13:04:28Z</time>
      </trkpt>
      <trkpt lat="46.58714" lon="5.37582">
        <ele>212.6</ele>
        <time>2022-04-21T13:04:36Z</time>
      </trkpt>
      <trkpt lat="46.58741" lon="5.37616">
        <ele>213.8</ele>
        <time>2022-04-21T13:04:42Z</time>
      </trkpt>
      <trkpt lat="46.58749" lon="5.37626">
        <ele>214.2</ele>
        <time>2022-04-21T13:04:44Z</time>
      </trkpt>
      <trkpt lat="46.5877" lon="5.37654">
        <ele>215</ele>
        <time>2022-04-21T13:04:49Z</time>
      </trkpt>
      <trkpt lat="46.58778" lon="5.37666">
        <ele>215.2</ele>
        <time>2022-04-21T13:04:51Z</time>
      </trkpt>
      <trkpt lat="46.58799" lon="5.37706">
        <ele>215.8</ele>
        <time>2022-04-21T13:04:57Z</time>
      </trkpt>
      <trkpt lat="46.58802" lon="5.37713">
        <ele>216.2</ele>
        <time>2022-04-21T13:04:58Z</time>
      </trkpt>
      <trkpt lat="46.58828" lon="5.37765">
        <ele>217</ele>
        <time>2022-04-21T13:05:05Z</time>
      </trkpt>
      <trkpt lat="46.58857" lon="5.37823">
        <ele>217</ele>
        <time>2022-04-21T13:05:13Z</time>
      </trkpt>
      <trkpt lat="46.5889" lon="5.37865">
        <ele>217</ele>
        <time>2022-04-21T13:05:20Z</time>
      </trkpt>
      <trkpt lat="46.5893" lon="5.37895">
        <ele>217.2</ele>
        <time>2022-04-21T13:05:27Z</time>
      </trkpt>
      <trkpt lat="46.58947" lon="5.37909">
        <ele>217.2</ele>
        <time>2022-04-21T13:05:30Z</time>
      </trkpt>
      <trkpt lat="46.58961" lon="5.3793">
        <ele>217</ele>
        <time>2022-04-21T13:05:33Z</time>
      </trkpt>
      <trkpt lat="46.58975" lon="5.37965">
        <ele>217</ele>
        <time>2022-04-21T13:05:37Z</time>
      </trkpt>
      <trkpt lat="46.58982" lon="5.37983">
        <ele>217</ele>
        <time>2022-04-21T13:05:39Z</time>
      </trkpt>
      <trkpt lat="46.59009" lon="5.38059">
        <ele>216.4</ele>
        <time>2022-04-21T13:05:47Z</time>
      </trkpt>
      <trkpt lat="46.59012" lon="5.38069">
        <ele>216.2</ele>
        <time>2022-04-21T13:05:48Z</time>
      </trkpt>
      <trkpt lat="46.59038" lon="5.38142">
        <ele>216</ele>
        <time>2022-04-21T13:05:56Z</time>
      </trkpt>
      <trkpt lat="46.59045" lon="5.38162">
        <ele>216</ele>
        <time>2022-04-21T13:05:58Z</time>
      </trkpt>
      <trkpt lat="46.59073" lon="5.38238">
        <ele>216.2</ele>
        <time>2022-04-21T13:06:06Z</time>
      </trkpt>
      <trkpt lat="46.5908" lon="5.38259">
        <ele>216.2</ele>
        <time>2022-04-21T13:06:08Z</time>
      </trkpt>
      <trkpt lat="46.59105" lon="5.38336">
        <ele>216</ele>
        <time>2022-04-21T13:06:16Z</time>
      </trkpt>
      <trkpt lat="46.59111" lon="5.38355">
        <ele>215.8</ele>
        <time>2022-04-21T13:06:18Z</time>
      </trkpt>
      <trkpt lat="46.59133" lon="5.3842">
        <ele>215.6</ele>
        <time>2022-04-21T13:06:25Z</time>
      </trkpt>
      <trkpt lat="46.59148" lon="5.38461">
        <ele>215.4</ele>
        <time>2022-04-21T13:06:30Z</time>
      </trkpt>
      <trkpt lat="46.59175" lon="5.38503">
        <ele>215.6</ele>
        <time>2022-04-21T13:06:36Z</time>
      </trkpt>
      <trkpt lat="46.592" lon="5.38535">
        <ele>216.4</ele>
        <time>2022-04-21T13:06:42Z</time>
      </trkpt>
      <trkpt lat="46.59233" lon="5.38571">
        <ele>217.4</ele>
        <time>2022-04-21T13:06:49Z</time>
      </trkpt>
      <trkpt lat="46.59238" lon="5.38576">
        <ele>217.6</ele>
        <time>2022-04-21T13:06:50Z</time>
      </trkpt>
      <trkpt lat="46.59275" lon="5.38616">
        <ele>218.2</ele>
        <time>2022-04-21T13:06:57Z</time>
      </trkpt>
      <trkpt lat="46.59312" lon="5.38655">
        <ele>217.8</ele>
        <time>2022-04-21T13:07:04Z</time>
      </trkpt>
      <trkpt lat="46.59347" lon="5.38694">
        <ele>217.6</ele>
        <time>2022-04-21T13:07:11Z</time>
      </trkpt>
      <trkpt lat="46.59393" lon="5.38743">
        <ele>218</ele>
        <time>2022-04-21T13:07:20Z</time>
      </trkpt>
      <trkpt lat="46.59431" lon="5.38785">
        <ele>218</ele>
        <time>2022-04-21T13:07:28Z</time>
      </trkpt>
      <trkpt lat="46.59441" lon="5.3881">
        <ele>218</ele>
        <time>2022-04-21T13:07:31Z</time>
      </trkpt>
      <trkpt lat="46.59443" lon="5.38818">
        <ele>218</ele>
        <time>2022-04-21T13:07:32Z</time>
      </trkpt>
      <trkpt lat="46.59447" lon="5.38836">
        <ele>218.2</ele>
        <time>2022-04-21T13:07:34Z</time>
      </trkpt>
      <trkpt lat="46.59448" lon="5.38863">
        <ele>218.2</ele>
        <time>2022-04-21T13:07:37Z</time>
      </trkpt>
      <trkpt lat="46.59451" lon="5.38891">
        <ele>218.4</ele>
        <time>2022-04-21T13:07:40Z</time>
      </trkpt>
      <trkpt lat="46.59456" lon="5.3891">
        <ele>218.4</ele>
        <time>2022-04-21T13:07:42Z</time>
      </trkpt>
      <trkpt lat="46.59473" lon="5.38957">
        <ele>218.2</ele>
        <time>2022-04-21T13:07:47Z</time>
      </trkpt>
      <trkpt lat="46.59482" lon="5.3901">
        <ele>218</ele>
        <time>2022-04-21T13:07:52Z</time>
      </trkpt>
      <trkpt lat="46.59491" lon="5.39094">
        <ele>217.8</ele>
        <time>2022-04-21T13:08:00Z</time>
      </trkpt>
      <trkpt lat="46.59492" lon="5.39102">
        <ele>217.8</ele>
        <time>2022-04-21T13:08:01Z</time>
      </trkpt>
      <trkpt lat="46.59502" lon="5.39173">
        <ele>218</ele>
        <time>2022-04-21T13:08:08Z</time>
      </trkpt>
      <trkpt lat="46.59505" lon="5.39181">
        <ele>218</ele>
        <time>2022-04-21T13:08:09Z</time>
      </trkpt>
      <trkpt lat="46.59509" lon="5.3919">
        <ele>218</ele>
        <time>2022-04-21T13:08:10Z</time>
      </trkpt>
      <trkpt lat="46.59519" lon="5.39204">
        <ele>218.2</ele>
        <time>2022-04-21T13:08:12Z</time>
      </trkpt>
      <trkpt lat="46.59524" lon="5.39209">
        <ele>218.4</ele>
        <time>2022-04-21T13:08:13Z</time>
      </trkpt>
      <trkpt lat="46.59531" lon="5.39212">
        <ele>218.4</ele>
        <time>2022-04-21T13:08:14Z</time>
      </trkpt>
      <trkpt lat="46.59544" lon="5.39214">
        <ele>218.6</ele>
        <time>2022-04-21T13:08:16Z</time>
      </trkpt>
      <trkpt lat="46.59577" lon="5.39208">
        <ele>218.8</ele>
        <time>2022-04-21T13:08:21Z</time>
      </trkpt>
      <trkpt lat="46.59583" lon="5.39205">
        <ele>219</ele>
        <time>2022-04-21T13:08:22Z</time>
      </trkpt>
      <trkpt lat="46.59611" lon="5.39192">
        <ele>219.2</ele>
        <time>2022-04-21T13:08:27Z</time>
      </trkpt>
      <trkpt lat="46.59617" lon="5.3919">
        <ele>219.4</ele>
        <time>2022-04-21T13:08:28Z</time>
      </trkpt>
      <trkpt lat="46.59623" lon="5.3919">
        <ele>219.4</ele>
        <time>2022-04-21T13:08:29Z</time>
      </trkpt>
      <trkpt lat="46.59653" lon="5.39192">
        <ele>219.4</ele>
        <time>2022-04-21T13:08:34Z</time>
      </trkpt>
      <trkpt lat="46.59711" lon="5.39205">
        <ele>219.8</ele>
        <time>2022-04-21T13:08:44Z</time>
      </trkpt>
      <trkpt lat="46.59717" lon="5.39207">
        <ele>220</ele>
        <time>2022-04-21T13:08:45Z</time>
      </trkpt>
      <trkpt lat="46.59725" lon="5.39215">
        <ele>220.2</ele>
        <time>2022-04-21T13:08:47Z</time>
      </trkpt>
      <trkpt lat="46.5973" lon="5.39221">
        <ele>220.2</ele>
        <time>2022-04-21T13:08:48Z</time>
      </trkpt>
      <trkpt lat="46.59735" lon="5.39224">
        <ele>220.2</ele>
        <time>2022-04-21T13:08:49Z</time>
      </trkpt>
      <trkpt lat="46.59746" lon="5.39221">
        <ele>220.2</ele>
        <time>2022-04-21T13:08:51Z</time>
      </trkpt>
      <trkpt lat="46.59772" lon="5.39203">
        <ele>220.2</ele>
        <time>2022-04-21T13:08:55Z</time>
      </trkpt>
      <trkpt lat="46.59786" lon="5.39197">
        <ele>220</ele>
        <time>2022-04-21T13:08:57Z</time>
      </trkpt>
      <trkpt lat="46.59806" lon="5.39194">
        <ele>219.6</ele>
        <time>2022-04-21T13:09:00Z</time>
      </trkpt>
      <trkpt lat="46.5984" lon="5.39198">
        <ele>219.6</ele>
        <time>2022-04-21T13:09:05Z</time>
      </trkpt>
      <trkpt lat="46.59867" lon="5.392">
        <ele>219.2</ele>
        <time>2022-04-21T13:09:09Z</time>
      </trkpt>
      <trkpt lat="46.59881" lon="5.39198">
        <ele>219</ele>
        <time>2022-04-21T13:09:11Z</time>
      </trkpt>
      <trkpt lat="46.59901" lon="5.39192">
        <ele>218.8</ele>
        <time>2022-04-21T13:09:14Z</time>
      </trkpt>
      <trkpt lat="46.59928" lon="5.39187">
        <ele>218.6</ele>
        <time>2022-04-21T13:09:18Z</time>
      </trkpt>
      <trkpt lat="46.59966" lon="5.39187">
        <ele>217.8</ele>
        <time>2022-04-21T13:09:23Z</time>
      </trkpt>
      <trkpt lat="46.59995" lon="5.39195">
        <ele>217</ele>
        <time>2022-04-21T13:09:27Z</time>
      </trkpt>
      <trkpt lat="46.60002" lon="5.39199">
        <ele>216.6</ele>
        <time>2022-04-21T13:09:28Z</time>
      </trkpt>
      <trkpt lat="46.60015" lon="5.39208">
        <ele>216.2</ele>
        <time>2022-04-21T13:09:30Z</time>
      </trkpt>
      <trkpt lat="46.60027" lon="5.39222">
        <ele>216</ele>
        <time>2022-04-21T13:09:32Z</time>
      </trkpt>
      <trkpt lat="46.60037" lon="5.39237">
        <ele>215.8</ele>
        <time>2022-04-21T13:09:34Z</time>
      </trkpt>
      <trkpt lat="46.60042" lon="5.39248">
        <ele>215.6</ele>
        <time>2022-04-21T13:09:35Z</time>
      </trkpt>
      <trkpt lat="46.60046" lon="5.39262">
        <ele>215.4</ele>
        <time>2022-04-21T13:09:36Z</time>
      </trkpt>
      <trkpt lat="46.60051" lon="5.39285">
        <ele>215</ele>
        <time>2022-04-21T13:09:38Z</time>
      </trkpt>
      <trkpt lat="46.60052" lon="5.39316">
        <ele>214.2</ele>
        <time>2022-04-21T13:09:40Z</time>
      </trkpt>
      <trkpt lat="46.6005" lon="5.39344">
        <ele>213.2</ele>
        <time>2022-04-21T13:09:42Z</time>
      </trkpt>
      <trkpt lat="46.60046" lon="5.3937">
        <ele>211.8</ele>
        <time>2022-04-21T13:09:44Z</time>
      </trkpt>
      <trkpt lat="46.60039" lon="5.39408">
        <ele>210.6</ele>
        <time>2022-04-21T13:09:47Z</time>
      </trkpt>
      <trkpt lat="46.60035" lon="5.39431">
        <ele>210</ele>
        <time>2022-04-21T13:09:49Z</time>
      </trkpt>
      <trkpt lat="46.60034" lon="5.39442">
        <ele>210</ele>
        <time>2022-04-21T13:09:50Z</time>
      </trkpt>
      <trkpt lat="46.60034" lon="5.39475">
        <ele>210.2</ele>
        <time>2022-04-21T13:09:53Z</time>
      </trkpt>
      <trkpt lat="46.60036" lon="5.39484">
        <ele>210.2</ele>
        <time>2022-04-21T13:09:54Z</time>
      </trkpt>
      <trkpt lat="46.60042" lon="5.39507">
        <ele>210.2</ele>
        <time>2022-04-21T13:09:56Z</time>
      </trkpt>
      <trkpt lat="46.60046" lon="5.39518">
        <ele>210.2</ele>
        <time>2022-04-21T13:09:57Z</time>
      </trkpt>
      <trkpt lat="46.6007" lon="5.39571">
        <ele>209.8</ele>
        <time>2022-04-21T13:10:02Z</time>
      </trkpt>
      <trkpt lat="46.60079" lon="5.39593">
        <ele>209.4</ele>
        <time>2022-04-21T13:10:04Z</time>
      </trkpt>
      <trkpt lat="46.60085" lon="5.39618">
        <ele>208.6</ele>
        <time>2022-04-21T13:10:06Z</time>
      </trkpt>
      <trkpt lat="46.60086" lon="5.39632">
        <ele>208.2</ele>
        <time>2022-04-21T13:10:07Z</time>
      </trkpt>
      <trkpt lat="46.60086" lon="5.39646">
        <ele>208</ele>
        <time>2022-04-21T13:10:08Z</time>
      </trkpt>
      <trkpt lat="46.60085" lon="5.39659">
        <ele>207.4</ele>
        <time>2022-04-21T13:10:09Z</time>
      </trkpt>
      <trkpt lat="46.60082" lon="5.39672">
        <ele>207</ele>
        <time>2022-04-21T13:10:10Z</time>
      </trkpt>
      <trkpt lat="46.60072" lon="5.39697">
        <ele>206</ele>
        <time>2022-04-21T13:10:12Z</time>
      </trkpt>
      <trkpt lat="46.60062" lon="5.3972">
        <ele>205.4</ele>
        <time>2022-04-21T13:10:14Z</time>
      </trkpt>
      <trkpt lat="46.6006" lon="5.39733">
        <ele>205</ele>
        <time>2022-04-21T13:10:15Z</time>
      </trkpt>
      <trkpt lat="46.60061" lon="5.39746">
        <ele>204.6</ele>
        <time>2022-04-21T13:10:16Z</time>
      </trkpt>
      <trkpt lat="46.60063" lon="5.39758">
        <ele>204.2</ele>
        <time>2022-04-21T13:10:17Z</time>
      </trkpt>
      <trkpt lat="46.60067" lon="5.3977">
        <ele>203.8</ele>
        <time>2022-04-21T13:10:18Z</time>
      </trkpt>
      <trkpt lat="46.60071" lon="5.39781">
        <ele>203.4</ele>
        <time>2022-04-21T13:10:19Z</time>
      </trkpt>
      <trkpt lat="46.6008" lon="5.39803">
        <ele>203</ele>
        <time>2022-04-21T13:10:21Z</time>
      </trkpt>
      <trkpt lat="46.60086" lon="5.39813">
        <ele>202.8</ele>
        <time>2022-04-21T13:10:22Z</time>
      </trkpt>
      <trkpt lat="46.60098" lon="5.39831">
        <ele>202.6</ele>
        <time>2022-04-21T13:10:24Z</time>
      </trkpt>
      <trkpt lat="46.60105" lon="5.39838">
        <ele>202.4</ele>
        <time>2022-04-21T13:10:25Z</time>
      </trkpt>
      <trkpt lat="46.60113" lon="5.39845">
        <ele>202.4</ele>
        <time>2022-04-21T13:10:26Z</time>
      </trkpt>
      <trkpt lat="46.60154" lon="5.39881">
        <ele>202</ele>
        <time>2022-04-21T13:10:32Z</time>
      </trkpt>
      <trkpt lat="46.60166" lon="5.39894">
        <ele>201.8</ele>
        <time>2022-04-21T13:10:34Z</time>
      </trkpt>
      <trkpt lat="46.60175" lon="5.39911">
        <ele>201.8</ele>
        <time>2022-04-21T13:10:36Z</time>
      </trkpt>
      <trkpt lat="46.60181" lon="5.3993">
        <ele>202</ele>
        <time>2022-04-21T13:10:38Z</time>
      </trkpt>
      <trkpt lat="46.60183" lon="5.3994">
        <ele>202</ele>
        <time>2022-04-21T13:10:39Z</time>
      </trkpt>
      <trkpt lat="46.60185" lon="5.39988">
        <ele>202.2</ele>
        <time>2022-04-21T13:10:44Z</time>
      </trkpt>
      <trkpt lat="46.60186" lon="5.40054">
        <ele>203.8</ele>
        <time>2022-04-21T13:10:51Z</time>
      </trkpt>
      <trkpt lat="46.60186" lon="5.40128">
        <ele>204.4</ele>
        <time>2022-04-21T13:10:59Z</time>
      </trkpt>
      <trkpt lat="46.60184" lon="5.40137">
        <ele>204.8</ele>
        <time>2022-04-21T13:11:00Z</time>
      </trkpt>
      <trkpt lat="46.60174" lon="5.40184">
        <ele>205.8</ele>
        <time>2022-04-21T13:11:05Z</time>
      </trkpt>
      <trkpt lat="46.60172" lon="5.40194">
        <ele>206</ele>
        <time>2022-04-21T13:11:06Z</time>
      </trkpt>
      <trkpt lat="46.60171" lon="5.40215">
        <ele>206.2</ele>
        <time>2022-04-21T13:11:08Z</time>
      </trkpt>
      <trkpt lat="46.60174" lon="5.40236">
        <ele>206.2</ele>
        <time>2022-04-21T13:11:10Z</time>
      </trkpt>
      <trkpt lat="46.60188" lon="5.40276">
        <ele>206.2</ele>
        <time>2022-04-21T13:11:14Z</time>
      </trkpt>
      <trkpt lat="46.60209" lon="5.40328">
        <ele>206.4</ele>
        <time>2022-04-21T13:11:20Z</time>
      </trkpt>
      <trkpt lat="46.60218" lon="5.40371">
        <ele>206.6</ele>
        <time>2022-04-21T13:11:25Z</time>
      </trkpt>
      <trkpt lat="46.60218" lon="5.40381">
        <ele>206.6</ele>
        <time>2022-04-21T13:11:26Z</time>
      </trkpt>
      <trkpt lat="46.60217" lon="5.40437">
        <ele>206.4</ele>
        <time>2022-04-21T13:11:31Z</time>
      </trkpt>
      <trkpt lat="46.60218" lon="5.4049">
        <ele>205.6</ele>
        <time>2022-04-21T13:11:35Z</time>
      </trkpt>
      <trkpt lat="46.6022" lon="5.40501">
        <ele>204.6</ele>
        <time>2022-04-21T13:11:36Z</time>
      </trkpt>
      <trkpt lat="46.60232" lon="5.40556">
        <ele>203.2</ele>
        <time>2022-04-21T13:11:40Z</time>
      </trkpt>
      <trkpt lat="46.60234" lon="5.40569">
        <ele>203.2</ele>
        <time>2022-04-21T13:11:41Z</time>
      </trkpt>
      <trkpt lat="46.60233" lon="5.40596">
        <ele>202.6</ele>
        <time>2022-04-21T13:11:43Z</time>
      </trkpt>
      <trkpt lat="46.60227" lon="5.40622">
        <ele>202.2</ele>
        <time>2022-04-21T13:11:45Z</time>
      </trkpt>
      <trkpt lat="46.60222" lon="5.40633">
        <ele>202</ele>
        <time>2022-04-21T13:11:46Z</time>
      </trkpt>
      <trkpt lat="46.60187" lon="5.40693">
        <ele>201.4</ele>
        <time>2022-04-21T13:11:52Z</time>
      </trkpt>
      <trkpt lat="46.60182" lon="5.40703">
        <ele>201.2</ele>
        <time>2022-04-21T13:11:53Z</time>
      </trkpt>
      <trkpt lat="46.60178" lon="5.40714">
        <ele>201.2</ele>
        <time>2022-04-21T13:11:54Z</time>
      </trkpt>
      <trkpt lat="46.60173" lon="5.40735">
        <ele>200.6</ele>
        <time>2022-04-21T13:11:56Z</time>
      </trkpt>
      <trkpt lat="46.60171" lon="5.40761">
        <ele>200.2</ele>
        <time>2022-04-21T13:11:58Z</time>
      </trkpt>
      <trkpt lat="46.60171" lon="5.40773">
        <ele>200.2</ele>
        <time>2022-04-21T13:11:59Z</time>
      </trkpt>
      <trkpt lat="46.60174" lon="5.40786">
        <ele>200.2</ele>
        <time>2022-04-21T13:12:00Z</time>
      </trkpt>
      <trkpt lat="46.60181" lon="5.40807">
        <ele>200.2</ele>
        <time>2022-04-21T13:12:02Z</time>
      </trkpt>
      <trkpt lat="46.60193" lon="5.40825">
        <ele>200.4</ele>
        <time>2022-04-21T13:12:04Z</time>
      </trkpt>
      <trkpt lat="46.60199" lon="5.40832">
        <ele>200.4</ele>
        <time>2022-04-21T13:12:05Z</time>
      </trkpt>
      <trkpt lat="46.6024" lon="5.40866">
        <ele>201.2</ele>
        <time>2022-04-21T13:12:11Z</time>
      </trkpt>
      <trkpt lat="46.60277" lon="5.40896">
        <ele>201.4</ele>
        <time>2022-04-21T13:12:17Z</time>
      </trkpt>
      <trkpt lat="46.60292" lon="5.40911">
        <ele>202.2</ele>
        <time>2022-04-21T13:12:20Z</time>
      </trkpt>
      <trkpt lat="46.60301" lon="5.40923">
        <ele>202.4</ele>
        <time>2022-04-21T13:12:22Z</time>
      </trkpt>
      <trkpt lat="46.60304" lon="5.40929">
        <ele>202.4</ele>
        <time>2022-04-21T13:12:23Z</time>
      </trkpt>
      <trkpt lat="46.60314" lon="5.40946">
        <ele>203.4</ele>
        <time>2022-04-21T13:12:26Z</time>
      </trkpt>
      <trkpt lat="46.60323" lon="5.40962">
        <ele>204.2</ele>
        <time>2022-04-21T13:12:29Z</time>
      </trkpt>
      <trkpt lat="46.60326" lon="5.40967">
        <ele>204.4</ele>
        <time>2022-04-21T13:12:30Z</time>
      </trkpt>
      <trkpt lat="46.60329" lon="5.40972">
        <ele>204.8</ele>
        <time>2022-04-21T13:12:31Z</time>
      </trkpt>
      <trkpt lat="46.60335" lon="5.40981">
        <ele>205.2</ele>
        <time>2022-04-21T13:12:33Z</time>
      </trkpt>
      <trkpt lat="46.60338" lon="5.40985">
        <ele>205.8</ele>
        <time>2022-04-21T13:12:34Z</time>
      </trkpt>
      <trkpt lat="46.6035" lon="5.41">
        <ele>207</ele>
        <time>2022-04-21T13:12:38Z</time>
      </trkpt>
      <trkpt lat="46.60357" lon="5.41006">
        <ele>207.8</ele>
        <time>2022-04-21T13:12:40Z</time>
      </trkpt>
      <trkpt lat="46.60361" lon="5.41008">
        <ele>208.2</ele>
        <time>2022-04-21T13:12:41Z</time>
      </trkpt>
      <trkpt lat="46.60385" lon="5.41026">
        <ele>209.2</ele>
        <time>2022-04-21T13:12:47Z</time>
      </trkpt>
      <trkpt lat="46.60399" lon="5.41041">
        <ele>210.4</ele>
        <time>2022-04-21T13:12:51Z</time>
      </trkpt>
      <trkpt lat="46.60403" lon="5.41045">
        <ele>210.8</ele>
        <time>2022-04-21T13:12:52Z</time>
      </trkpt>
      <trkpt lat="46.60406" lon="5.41051">
        <ele>211</ele>
        <time>2022-04-21T13:12:53Z</time>
      </trkpt>
      <trkpt lat="46.60409" lon="5.41056">
        <ele>211.4</ele>
        <time>2022-04-21T13:12:54Z</time>
      </trkpt>
      <trkpt lat="46.60411" lon="5.41062">
        <ele>211.6</ele>
        <time>2022-04-21T13:12:55Z</time>
      </trkpt>
      <trkpt lat="46.6042" lon="5.41086">
        <ele>212.6</ele>
        <time>2022-04-21T13:12:59Z</time>
      </trkpt>
      <trkpt lat="46.60425" lon="5.41099">
        <ele>212.8</ele>
        <time>2022-04-21T13:13:01Z</time>
      </trkpt>
      <trkpt lat="46.60428" lon="5.41106">
        <ele>213</ele>
        <time>2022-04-21T13:13:02Z</time>
      </trkpt>
      <trkpt lat="46.60435" lon="5.41118">
        <ele>213</ele>
        <time>2022-04-21T13:13:04Z</time>
      </trkpt>
      <trkpt lat="46.60445" lon="5.41129">
        <ele>212.8</ele>
        <time>2022-04-21T13:13:06Z</time>
      </trkpt>
      <trkpt lat="46.60457" lon="5.41136">
        <ele>212.8</ele>
        <time>2022-04-21T13:13:08Z</time>
      </trkpt>
      <trkpt lat="46.6049" lon="5.41142">
        <ele>212.4</ele>
        <time>2022-04-21T13:13:13Z</time>
      </trkpt>
      <trkpt lat="46.60513" lon="5.41142">
        <ele>211.8</ele>
        <time>2022-04-21T13:13:16Z</time>
      </trkpt>
      <trkpt lat="46.60536" lon="5.41143">
        <ele>211.4</ele>
        <time>2022-04-21T13:13:19Z</time>
      </trkpt>
      <trkpt lat="46.60559" lon="5.41146">
        <ele>210.6</ele>
        <time>2022-04-21T13:13:22Z</time>
      </trkpt>
      <trkpt lat="46.60598" lon="5.41156">
        <ele>209.4</ele>
        <time>2022-04-21T13:13:27Z</time>
      </trkpt>
      <trkpt lat="46.60637" lon="5.41168">
        <ele>208.4</ele>
        <time>2022-04-21T13:13:32Z</time>
      </trkpt>
      <trkpt lat="46.60668" lon="5.41179">
        <ele>207.2</ele>
        <time>2022-04-21T13:13:36Z</time>
      </trkpt>
      <trkpt lat="46.6069" lon="5.41191">
        <ele>206.8</ele>
        <time>2022-04-21T13:13:39Z</time>
      </trkpt>
      <trkpt lat="46.60696" lon="5.41197">
        <ele>206.8</ele>
        <time>2022-04-21T13:13:40Z</time>
      </trkpt>
      <trkpt lat="46.60702" lon="5.41204">
        <ele>206.6</ele>
        <time>2022-04-21T13:13:41Z</time>
      </trkpt>
      <trkpt lat="46.60714" lon="5.41218">
        <ele>206.2</ele>
        <time>2022-04-21T13:13:43Z</time>
      </trkpt>
      <trkpt lat="46.60723" lon="5.4123">
        <ele>206</ele>
        <time>2022-04-21T13:13:45Z</time>
      </trkpt>
      <trkpt lat="46.60754" lon="5.41268">
        <ele>206</ele>
        <time>2022-04-21T13:13:51Z</time>
      </trkpt>
      <trkpt lat="46.60787" lon="5.413">
        <ele>206</ele>
        <time>2022-04-21T13:13:57Z</time>
      </trkpt>
      <trkpt lat="46.60813" lon="5.41326">
        <ele>206</ele>
        <time>2022-04-21T13:14:01Z</time>
      </trkpt>
      <trkpt lat="46.60819" lon="5.4133">
        <ele>205.8</ele>
        <time>2022-04-21T13:14:02Z</time>
      </trkpt>
      <trkpt lat="46.60825" lon="5.41333">
        <ele>205.6</ele>
        <time>2022-04-21T13:14:03Z</time>
      </trkpt>
      <trkpt lat="46.60837" lon="5.41338">
        <ele>205</ele>
        <time>2022-04-21T13:14:05Z</time>
      </trkpt>
      <trkpt lat="46.60843" lon="5.41339">
        <ele>203.6</ele>
        <time>2022-04-21T13:14:07Z</time>
      </trkpt>
      <trkpt lat="46.60844" lon="5.41339">
        <ele>203.2</ele>
        <time>2022-04-21T13:14:08Z</time>
      </trkpt>
      <trkpt lat="46.60845" lon="5.41339">
        <ele>202.6</ele>
        <time>2022-04-21T13:14:09Z</time>
      </trkpt>
      <trkpt lat="46.60847" lon="5.41337">
        <ele>202.2</ele>
        <time>2022-04-21T13:14:11Z</time>
      </trkpt>
      <trkpt lat="46.60846" lon="5.41333">
        <ele>201.8</ele>
        <time>2022-04-21T13:14:13Z</time>
      </trkpt>
      <trkpt lat="46.60844" lon="5.41335">
        <ele>201.6</ele>
        <time>2022-04-21T13:14:15Z</time>
      </trkpt>
      <trkpt lat="46.60843" lon="5.41336">
        <ele>201.4</ele>
        <time>2022-04-21T13:14:17Z</time>
      </trkpt>
      <trkpt lat="46.60843" lon="5.41336">
        <ele>201.4</ele>
        <time>2022-04-21T13:14:18Z</time>
      </trkpt>
      <trkpt lat="46.60845" lon="5.41336">
        <ele>201.2</ele>
        <time>2022-04-21T13:17:36Z</time>
      </trkpt>
      <trkpt lat="46.6085" lon="5.41333">
        <ele>201.2</ele>
        <time>2022-04-21T13:17:38Z</time>
      </trkpt>
      <trkpt lat="46.60861" lon="5.4132">
        <ele>201.2</ele>
        <time>2022-04-21T13:17:41Z</time>
      </trkpt>
      <trkpt lat="46.60881" lon="5.41295">
        <ele>201</ele>
        <time>2022-04-21T13:17:45Z</time>
      </trkpt>
      <trkpt lat="46.60893" lon="5.41281">
        <ele>200.8</ele>
        <time>2022-04-21T13:17:47Z</time>
      </trkpt>
      <trkpt lat="46.60928" lon="5.41239">
        <ele>200.8</ele>
        <time>2022-04-21T13:17:53Z</time>
      </trkpt>
      <trkpt lat="46.60966" lon="5.412">
        <ele>200.4</ele>
        <time>2022-04-21T13:17:59Z</time>
      </trkpt>
      <trkpt lat="46.60971" lon="5.41195">
        <ele>200.2</ele>
        <time>2022-04-21T13:18:00Z</time>
      </trkpt>
      <trkpt lat="46.61003" lon="5.41167">
        <ele>200</ele>
        <time>2022-04-21T13:18:05Z</time>
      </trkpt>
      <trkpt lat="46.61014" lon="5.4116">
        <ele>199.8</ele>
        <time>2022-04-21T13:18:07Z</time>
      </trkpt>
      <trkpt lat="46.61022" lon="5.41157">
        <ele>199.8</ele>
        <time>2022-04-21T13:18:08Z</time>
      </trkpt>
      <trkpt lat="46.61033" lon="5.41154">
        <ele>199.8</ele>
        <time>2022-04-21T13:18:10Z</time>
      </trkpt>
      <trkpt lat="46.6104" lon="5.41154">
        <ele>199.8</ele>
        <time>2022-04-21T13:18:11Z</time>
      </trkpt>
      <trkpt lat="46.61044" lon="5.41156">
        <ele>199.6</ele>
        <time>2022-04-21T13:18:12Z</time>
      </trkpt>
      <trkpt lat="46.61052" lon="5.41169">
        <ele>199.6</ele>
        <time>2022-04-21T13:18:14Z</time>
      </trkpt>
      <trkpt lat="46.61062" lon="5.41208">
        <ele>199.6</ele>
        <time>2022-04-21T13:18:18Z</time>
      </trkpt>
      <trkpt lat="46.61083" lon="5.41264">
        <ele>199.4</ele>
        <time>2022-04-21T13:18:24Z</time>
      </trkpt>
      <trkpt lat="46.61107" lon="5.41309">
        <ele>199.4</ele>
        <time>2022-04-21T13:18:30Z</time>
      </trkpt>
      <trkpt lat="46.61111" lon="5.41317">
        <ele>199.4</ele>
        <time>2022-04-21T13:18:31Z</time>
      </trkpt>
      <trkpt lat="46.61113" lon="5.41327">
        <ele>199.4</ele>
        <time>2022-04-21T13:18:32Z</time>
      </trkpt>
      <trkpt lat="46.61116" lon="5.41357">
        <ele>199.6</ele>
        <time>2022-04-21T13:18:35Z</time>
      </trkpt>
      <trkpt lat="46.61124" lon="5.41434">
        <ele>199.4</ele>
        <time>2022-04-21T13:18:43Z</time>
      </trkpt>
      <trkpt lat="46.61141" lon="5.41487">
        <ele>199.6</ele>
        <time>2022-04-21T13:18:49Z</time>
      </trkpt>
      <trkpt lat="46.61166" lon="5.41534">
        <ele>199.8</ele>
        <time>2022-04-21T13:18:55Z</time>
      </trkpt>
      <trkpt lat="46.61203" lon="5.41591">
        <ele>200</ele>
        <time>2022-04-21T13:19:03Z</time>
      </trkpt>
      <trkpt lat="46.61208" lon="5.41599">
        <ele>200</ele>
        <time>2022-04-21T13:19:04Z</time>
      </trkpt>
      <trkpt lat="46.61239" lon="5.41663">
        <ele>199.8</ele>
        <time>2022-04-21T13:19:12Z</time>
      </trkpt>
      <trkpt lat="46.61248" lon="5.41681">
        <ele>199.8</ele>
        <time>2022-04-21T13:19:14Z</time>
      </trkpt>
      <trkpt lat="46.61284" lon="5.41739">
        <ele>200.4</ele>
        <time>2022-04-21T13:19:22Z</time>
      </trkpt>
      <trkpt lat="46.61324" lon="5.41795">
        <ele>200.8</ele>
        <time>2022-04-21T13:19:30Z</time>
      </trkpt>
      <trkpt lat="46.61334" lon="5.41809">
        <ele>200.8</ele>
        <time>2022-04-21T13:19:32Z</time>
      </trkpt>
      <trkpt lat="46.61359" lon="5.41843">
        <ele>201</ele>
        <time>2022-04-21T13:19:37Z</time>
      </trkpt>
      <trkpt lat="46.61386" lon="5.41873">
        <ele>201.2</ele>
        <time>2022-04-21T13:19:42Z</time>
      </trkpt>
      <trkpt lat="46.61403" lon="5.41892">
        <ele>201.2</ele>
        <time>2022-04-21T13:19:45Z</time>
      </trkpt>
      <trkpt lat="46.6141" lon="5.41905">
        <ele>201.2</ele>
        <time>2022-04-21T13:19:47Z</time>
      </trkpt>
      <trkpt lat="46.61445" lon="5.4198">
        <ele>201.8</ele>
        <time>2022-04-21T13:19:56Z</time>
      </trkpt>
      <trkpt lat="46.61452" lon="5.41994">
        <ele>201.8</ele>
        <time>2022-04-21T13:19:58Z</time>
      </trkpt>
      <trkpt lat="46.6148" lon="5.42051">
        <ele>202</ele>
        <time>2022-04-21T13:20:05Z</time>
      </trkpt>
      <trkpt lat="46.61485" lon="5.42057">
        <ele>202.2</ele>
        <time>2022-04-21T13:20:06Z</time>
      </trkpt>
      <trkpt lat="46.61506" lon="5.42085">
        <ele>202.2</ele>
        <time>2022-04-21T13:20:10Z</time>
      </trkpt>
      <trkpt lat="46.61512" lon="5.42099">
        <ele>202.2</ele>
        <time>2022-04-21T13:20:12Z</time>
      </trkpt>
      <trkpt lat="46.61536" lon="5.42171">
        <ele>202.2</ele>
        <time>2022-04-21T13:20:20Z</time>
      </trkpt>
      <trkpt lat="46.61538" lon="5.42181">
        <ele>202.2</ele>
        <time>2022-04-21T13:20:21Z</time>
      </trkpt>
      <trkpt lat="46.61554" lon="5.42245">
        <ele>202.2</ele>
        <time>2022-04-21T13:20:28Z</time>
      </trkpt>
      <trkpt lat="46.61564" lon="5.42311">
        <ele>202.2</ele>
        <time>2022-04-21T13:20:35Z</time>
      </trkpt>
      <trkpt lat="46.61571" lon="5.42378">
        <ele>202.4</ele>
        <time>2022-04-21T13:20:42Z</time>
      </trkpt>
      <trkpt lat="46.61581" lon="5.42432">
        <ele>202.4</ele>
        <time>2022-04-21T13:20:48Z</time>
      </trkpt>
      <trkpt lat="46.61604" lon="5.42494">
        <ele>202.8</ele>
        <time>2022-04-21T13:20:56Z</time>
      </trkpt>
      <trkpt lat="46.61607" lon="5.425">
        <ele>202.8</ele>
        <time>2022-04-21T13:20:57Z</time>
      </trkpt>
      <trkpt lat="46.61614" lon="5.42513">
        <ele>203</ele>
        <time>2022-04-21T13:20:59Z</time>
      </trkpt>
      <trkpt lat="46.61618" lon="5.42518">
        <ele>203</ele>
        <time>2022-04-21T13:21:00Z</time>
      </trkpt>
      <trkpt lat="46.61622" lon="5.42522">
        <ele>203.2</ele>
        <time>2022-04-21T13:21:01Z</time>
      </trkpt>
      <trkpt lat="46.61637" lon="5.42533">
        <ele>203.6</ele>
        <time>2022-04-21T13:21:04Z</time>
      </trkpt>
      <trkpt lat="46.61642" lon="5.42535">
        <ele>203.6</ele>
        <time>2022-04-21T13:21:05Z</time>
      </trkpt>
      <trkpt lat="46.61668" lon="5.42553">
        <ele>204.6</ele>
        <time>2022-04-21T13:21:11Z</time>
      </trkpt>
      <trkpt lat="46.61672" lon="5.42556">
        <ele>204.8</ele>
        <time>2022-04-21T13:21:12Z</time>
      </trkpt>
      <trkpt lat="46.61687" lon="5.4257">
        <ele>205.8</ele>
        <time>2022-04-21T13:21:16Z</time>
      </trkpt>
      <trkpt lat="46.61703" lon="5.42583">
        <ele>207</ele>
        <time>2022-04-21T13:21:20Z</time>
      </trkpt>
      <trkpt lat="46.61722" lon="5.42603">
        <ele>207.8</ele>
        <time>2022-04-21T13:21:25Z</time>
      </trkpt>
      <trkpt lat="46.61725" lon="5.42607">
        <ele>207.8</ele>
        <time>2022-04-21T13:21:26Z</time>
      </trkpt>
      <trkpt lat="46.61728" lon="5.42612">
        <ele>208</ele>
        <time>2022-04-21T13:21:27Z</time>
      </trkpt>
      <trkpt lat="46.61731" lon="5.42617">
        <ele>208.2</ele>
        <time>2022-04-21T13:21:28Z</time>
      </trkpt>
      <trkpt lat="46.61736" lon="5.42627">
        <ele>208.4</ele>
        <time>2022-04-21T13:21:30Z</time>
      </trkpt>
      <trkpt lat="46.61738" lon="5.42638">
        <ele>209</ele>
        <time>2022-04-21T13:21:32Z</time>
      </trkpt>
      <trkpt lat="46.61738" lon="5.42648">
        <ele>209.2</ele>
        <time>2022-04-21T13:21:34Z</time>
      </trkpt>
      <trkpt lat="46.61736" lon="5.42653">
        <ele>209.4</ele>
        <time>2022-04-21T13:21:35Z</time>
      </trkpt>
      <trkpt lat="46.61727" lon="5.42657">
        <ele>209.6</ele>
        <time>2022-04-21T13:21:37Z</time>
      </trkpt>
      <trkpt lat="46.61707" lon="5.42657">
        <ele>209.4</ele>
        <time>2022-04-21T13:21:40Z</time>
      </trkpt>
      <trkpt lat="46.61693" lon="5.4266">
        <ele>208.8</ele>
        <time>2022-04-21T13:21:42Z</time>
      </trkpt>
      <trkpt lat="46.61679" lon="5.42668">
        <ele>208.4</ele>
        <time>2022-04-21T13:21:44Z</time>
      </trkpt>
      <trkpt lat="46.61672" lon="5.42674">
        <ele>208</ele>
        <time>2022-04-21T13:21:45Z</time>
      </trkpt>
      <trkpt lat="46.61657" lon="5.42688">
        <ele>207.6</ele>
        <time>2022-04-21T13:21:47Z</time>
      </trkpt>
      <trkpt lat="46.6165" lon="5.42694">
        <ele>207</ele>
        <time>2022-04-21T13:21:48Z</time>
      </trkpt>
      <trkpt lat="46.61642" lon="5.42701">
        <ele>206.8</ele>
        <time>2022-04-21T13:21:49Z</time>
      </trkpt>
      <trkpt lat="46.61609" lon="5.42728">
        <ele>205.4</ele>
        <time>2022-04-21T13:21:53Z</time>
      </trkpt>
      <trkpt lat="46.6157" lon="5.42762">
        <ele>204.4</ele>
        <time>2022-04-21T13:21:58Z</time>
      </trkpt>
      <trkpt lat="46.61554" lon="5.42775">
        <ele>203.6</ele>
        <time>2022-04-21T13:22:00Z</time>
      </trkpt>
      <trkpt lat="46.6154" lon="5.42787">
        <ele>203.2</ele>
        <time>2022-04-21T13:22:02Z</time>
      </trkpt>
      <trkpt lat="46.61496" lon="5.42821">
        <ele>202.8</ele>
        <time>2022-04-21T13:22:08Z</time>
      </trkpt>
      <trkpt lat="46.61448" lon="5.42863">
        <ele>202.8</ele>
        <time>2022-04-21T13:22:15Z</time>
      </trkpt>
      <trkpt lat="46.61441" lon="5.4287">
        <ele>202.8</ele>
        <time>2022-04-21T13:22:16Z</time>
      </trkpt>
      <trkpt lat="46.61401" lon="5.42921">
        <ele>202.8</ele>
        <time>2022-04-21T13:22:23Z</time>
      </trkpt>
      <trkpt lat="46.61372" lon="5.42962">
        <ele>203</ele>
        <time>2022-04-21T13:22:29Z</time>
      </trkpt>
      <trkpt lat="46.61346" lon="5.42993">
        <ele>204.4</ele>
        <time>2022-04-21T13:22:35Z</time>
      </trkpt>
      <trkpt lat="46.61342" lon="5.42999">
        <ele>204.6</ele>
        <time>2022-04-21T13:22:36Z</time>
      </trkpt>
      <trkpt lat="46.61339" lon="5.43005">
        <ele>205</ele>
        <time>2022-04-21T13:22:37Z</time>
      </trkpt>
      <trkpt lat="46.61335" lon="5.43018">
        <ele>205.4</ele>
        <time>2022-04-21T13:22:39Z</time>
      </trkpt>
      <trkpt lat="46.61336" lon="5.43033">
        <ele>206.2</ele>
        <time>2022-04-21T13:22:41Z</time>
      </trkpt>
      <trkpt lat="46.61338" lon="5.43041">
        <ele>206.4</ele>
        <time>2022-04-21T13:22:42Z</time>
      </trkpt>
      <trkpt lat="46.61341" lon="5.43047">
        <ele>206.6</ele>
        <time>2022-04-21T13:22:43Z</time>
      </trkpt>
      <trkpt lat="46.61348" lon="5.43059">
        <ele>207</ele>
        <time>2022-04-21T13:22:45Z</time>
      </trkpt>
      <trkpt lat="46.61352" lon="5.43065">
        <ele>207.4</ele>
        <time>2022-04-21T13:22:46Z</time>
      </trkpt>
      <trkpt lat="46.61356" lon="5.4307">
        <ele>207.8</ele>
        <time>2022-04-21T13:22:47Z</time>
      </trkpt>
      <trkpt lat="46.61382" lon="5.43099">
        <ele>208.4</ele>
        <time>2022-04-21T13:22:52Z</time>
      </trkpt>
      <trkpt lat="46.61388" lon="5.43107">
        <ele>208.4</ele>
        <time>2022-04-21T13:22:53Z</time>
      </trkpt>
      <trkpt lat="46.61406" lon="5.43141">
        <ele>208.4</ele>
        <time>2022-04-21T13:22:57Z</time>
      </trkpt>
      <trkpt lat="46.6142" lon="5.4318">
        <ele>208</ele>
        <time>2022-04-21T13:23:01Z</time>
      </trkpt>
      <trkpt lat="46.61423" lon="5.43191">
        <ele>208</ele>
        <time>2022-04-21T13:23:02Z</time>
      </trkpt>
      <trkpt lat="46.61423" lon="5.43202">
        <ele>207.8</ele>
        <time>2022-04-21T13:23:03Z</time>
      </trkpt>
      <trkpt lat="46.61418" lon="5.43223">
        <ele>207.2</ele>
        <time>2022-04-21T13:23:05Z</time>
      </trkpt>
      <trkpt lat="46.61399" lon="5.43255">
        <ele>206.8</ele>
        <time>2022-04-21T13:23:09Z</time>
      </trkpt>
      <trkpt lat="46.61378" lon="5.43297">
        <ele>206.4</ele>
        <time>2022-04-21T13:23:14Z</time>
      </trkpt>
      <trkpt lat="46.61366" lon="5.43323">
        <ele>206.2</ele>
        <time>2022-04-21T13:23:17Z</time>
      </trkpt>
      <trkpt lat="46.61354" lon="5.43371">
        <ele>206.2</ele>
        <time>2022-04-21T13:23:22Z</time>
      </trkpt>
      <trkpt lat="46.61353" lon="5.43381">
        <ele>206.2</ele>
        <time>2022-04-21T13:23:23Z</time>
      </trkpt>
      <trkpt lat="46.61352" lon="5.43401">
        <ele>206.4</ele>
        <time>2022-04-21T13:23:25Z</time>
      </trkpt>
      <trkpt lat="46.61353" lon="5.43411">
        <ele>206.6</ele>
        <time>2022-04-21T13:23:26Z</time>
      </trkpt>
      <trkpt lat="46.61358" lon="5.43488">
        <ele>207</ele>
        <time>2022-04-21T13:23:34Z</time>
      </trkpt>
      <trkpt lat="46.61354" lon="5.43547">
        <ele>207.4</ele>
        <time>2022-04-21T13:23:40Z</time>
      </trkpt>
      <trkpt lat="46.61352" lon="5.43567">
        <ele>207.4</ele>
        <time>2022-04-21T13:23:42Z</time>
      </trkpt>
      <trkpt lat="46.61348" lon="5.43625">
        <ele>207.4</ele>
        <time>2022-04-21T13:23:48Z</time>
      </trkpt>
      <trkpt lat="46.61349" lon="5.43712">
        <ele>207.6</ele>
        <time>2022-04-21T13:23:57Z</time>
      </trkpt>
      <trkpt lat="46.61349" lon="5.43722">
        <ele>207.6</ele>
        <time>2022-04-21T13:23:58Z</time>
      </trkpt>
      <trkpt lat="46.61355" lon="5.43804">
        <ele>208.4</ele>
        <time>2022-04-21T13:24:07Z</time>
      </trkpt>
      <trkpt lat="46.61358" lon="5.43822">
        <ele>208.8</ele>
        <time>2022-04-21T13:24:09Z</time>
      </trkpt>
      <trkpt lat="46.61369" lon="5.4387">
        <ele>209.4</ele>
        <time>2022-04-21T13:24:15Z</time>
      </trkpt>
      <trkpt lat="46.61375" lon="5.43901">
        <ele>209.8</ele>
        <time>2022-04-21T13:24:19Z</time>
      </trkpt>
      <trkpt lat="46.61379" lon="5.43924">
        <ele>210.6</ele>
        <time>2022-04-21T13:24:22Z</time>
      </trkpt>
      <trkpt lat="46.61382" lon="5.4395">
        <ele>210.8</ele>
        <time>2022-04-21T13:24:25Z</time>
      </trkpt>
      <trkpt lat="46.61389" lon="5.44004">
        <ele>211.8</ele>
        <time>2022-04-21T13:24:31Z</time>
      </trkpt>
      <trkpt lat="46.6139" lon="5.44014">
        <ele>212</ele>
        <time>2022-04-21T13:24:32Z</time>
      </trkpt>
      <trkpt lat="46.61387" lon="5.44064">
        <ele>212.4</ele>
        <time>2022-04-21T13:24:37Z</time>
      </trkpt>
      <trkpt lat="46.61379" lon="5.44113">
        <ele>212</ele>
        <time>2022-04-21T13:24:42Z</time>
      </trkpt>
      <trkpt lat="46.61364" lon="5.44154">
        <ele>212</ele>
        <time>2022-04-21T13:24:47Z</time>
      </trkpt>
      <trkpt lat="46.61337" lon="5.44208">
        <ele>212</ele>
        <time>2022-04-21T13:24:54Z</time>
      </trkpt>
      <trkpt lat="46.61325" lon="5.44254">
        <ele>212</ele>
        <time>2022-04-21T13:24:59Z</time>
      </trkpt>
      <trkpt lat="46.61319" lon="5.4432">
        <ele>212</ele>
        <time>2022-04-21T13:25:06Z</time>
      </trkpt>
      <trkpt lat="46.61308" lon="5.44389">
        <ele>212.2</ele>
        <time>2022-04-21T13:25:14Z</time>
      </trkpt>
      <trkpt lat="46.61299" lon="5.4444">
        <ele>212.2</ele>
        <time>2022-04-21T13:25:20Z</time>
      </trkpt>
      <trkpt lat="46.61297" lon="5.44449">
        <ele>212.2</ele>
        <time>2022-04-21T13:25:21Z</time>
      </trkpt>
      <trkpt lat="46.6128" lon="5.44527">
        <ele>213</ele>
        <time>2022-04-21T13:25:31Z</time>
      </trkpt>
      <trkpt lat="46.61276" lon="5.44544">
        <ele>213.2</ele>
        <time>2022-04-21T13:25:33Z</time>
      </trkpt>
      <trkpt lat="46.61268" lon="5.44582">
        <ele>214.2</ele>
        <time>2022-04-21T13:25:38Z</time>
      </trkpt>
      <trkpt lat="46.61265" lon="5.44598">
        <ele>214.6</ele>
        <time>2022-04-21T13:25:40Z</time>
      </trkpt>
      <trkpt lat="46.61259" lon="5.44621">
        <ele>215.4</ele>
        <time>2022-04-21T13:25:43Z</time>
      </trkpt>
      <trkpt lat="46.61258" lon="5.44629">
        <ele>215.6</ele>
        <time>2022-04-21T13:25:44Z</time>
      </trkpt>
      <trkpt lat="46.61252" lon="5.44653">
        <ele>216.2</ele>
        <time>2022-04-21T13:25:47Z</time>
      </trkpt>
      <trkpt lat="46.61249" lon="5.44675">
        <ele>216.8</ele>
        <time>2022-04-21T13:25:50Z</time>
      </trkpt>
      <trkpt lat="46.61245" lon="5.44696">
        <ele>218.2</ele>
        <time>2022-04-21T13:25:53Z</time>
      </trkpt>
      <trkpt lat="46.61244" lon="5.44702">
        <ele>218.6</ele>
        <time>2022-04-21T13:25:54Z</time>
      </trkpt>
      <trkpt lat="46.61243" lon="5.44715">
        <ele>219.2</ele>
        <time>2022-04-21T13:25:56Z</time>
      </trkpt>
      <trkpt lat="46.6124" lon="5.44733">
        <ele>220</ele>
        <time>2022-04-21T13:25:59Z</time>
      </trkpt>
      <trkpt lat="46.6124" lon="5.44739">
        <ele>220.4</ele>
        <time>2022-04-21T13:26:00Z</time>
      </trkpt>
      <trkpt lat="46.61238" lon="5.44744">
        <ele>220.4</ele>
        <time>2022-04-21T13:26:01Z</time>
      </trkpt>
      <trkpt lat="46.61236" lon="5.44759">
        <ele>221.4</ele>
        <time>2022-04-21T13:26:04Z</time>
      </trkpt>
      <trkpt lat="46.61233" lon="5.44781">
        <ele>222.4</ele>
        <time>2022-04-21T13:26:08Z</time>
      </trkpt>
      <trkpt lat="46.61231" lon="5.44787">
        <ele>222.6</ele>
        <time>2022-04-21T13:26:09Z</time>
      </trkpt>
      <trkpt lat="46.61222" lon="5.44819">
        <ele>223.6</ele>
        <time>2022-04-21T13:26:13Z</time>
      </trkpt>
      <trkpt lat="46.6122" lon="5.44827">
        <ele>223.8</ele>
        <time>2022-04-21T13:26:14Z</time>
      </trkpt>
      <trkpt lat="46.61209" lon="5.44856">
        <ele>224.4</ele>
        <time>2022-04-21T13:26:18Z</time>
      </trkpt>
      <trkpt lat="46.61205" lon="5.44862">
        <ele>224.8</ele>
        <time>2022-04-21T13:26:19Z</time>
      </trkpt>
      <trkpt lat="46.61202" lon="5.44868">
        <ele>224.8</ele>
        <time>2022-04-21T13:26:20Z</time>
      </trkpt>
      <trkpt lat="46.61193" lon="5.4488">
        <ele>225</ele>
        <time>2022-04-21T13:26:22Z</time>
      </trkpt>
      <trkpt lat="46.6117" lon="5.44903">
        <ele>225.2</ele>
        <time>2022-04-21T13:26:27Z</time>
      </trkpt>
      <trkpt lat="46.61131" lon="5.44941">
        <ele>225.4</ele>
        <time>2022-04-21T13:26:35Z</time>
      </trkpt>
      <trkpt lat="46.61123" lon="5.44955">
        <ele>225.6</ele>
        <time>2022-04-21T13:26:37Z</time>
      </trkpt>
      <trkpt lat="46.61114" lon="5.44978">
        <ele>225.8</ele>
        <time>2022-04-21T13:26:40Z</time>
      </trkpt>
      <trkpt lat="46.61106" lon="5.45021">
        <ele>226.2</ele>
        <time>2022-04-21T13:26:45Z</time>
      </trkpt>
      <trkpt lat="46.611" lon="5.45074">
        <ele>226.8</ele>
        <time>2022-04-21T13:26:51Z</time>
      </trkpt>
      <trkpt lat="46.61099" lon="5.45092">
        <ele>227</ele>
        <time>2022-04-21T13:26:53Z</time>
      </trkpt>
      <trkpt lat="46.61094" lon="5.45135">
        <ele>227.8</ele>
        <time>2022-04-21T13:26:58Z</time>
      </trkpt>
      <trkpt lat="46.61091" lon="5.45161">
        <ele>227.8</ele>
        <time>2022-04-21T13:27:01Z</time>
      </trkpt>
      <trkpt lat="46.61088" lon="5.45178">
        <ele>228</ele>
        <time>2022-04-21T13:27:03Z</time>
      </trkpt>
      <trkpt lat="46.61069" lon="5.45257">
        <ele>228.8</ele>
        <time>2022-04-21T13:27:12Z</time>
      </trkpt>
      <trkpt lat="46.61052" lon="5.45328">
        <ele>229.2</ele>
        <time>2022-04-21T13:27:20Z</time>
      </trkpt>
      <trkpt lat="46.6105" lon="5.45337">
        <ele>229.2</ele>
        <time>2022-04-21T13:27:21Z</time>
      </trkpt>
      <trkpt lat="46.61042" lon="5.45419">
        <ele>229.8</ele>
        <time>2022-04-21T13:27:30Z</time>
      </trkpt>
      <trkpt lat="46.61041" lon="5.45428">
        <ele>230</ele>
        <time>2022-04-21T13:27:31Z</time>
      </trkpt>
      <trkpt lat="46.6104" lon="5.45437">
        <ele>230</ele>
        <time>2022-04-21T13:27:32Z</time>
      </trkpt>
      <trkpt lat="46.61037" lon="5.45501">
        <ele>230.4</ele>
        <time>2022-04-21T13:27:39Z</time>
      </trkpt>
      <trkpt lat="46.61034" lon="5.45549">
        <ele>231.2</ele>
        <time>2022-04-21T13:27:44Z</time>
      </trkpt>
      <trkpt lat="46.61032" lon="5.45557">
        <ele>231.2</ele>
        <time>2022-04-21T13:27:45Z</time>
      </trkpt>
      <trkpt lat="46.61016" lon="5.45638">
        <ele>231.4</ele>
        <time>2022-04-21T13:27:54Z</time>
      </trkpt>
      <trkpt lat="46.61014" lon="5.45647">
        <ele>231.4</ele>
        <time>2022-04-21T13:27:55Z</time>
      </trkpt>
      <trkpt lat="46.60995" lon="5.45728">
        <ele>231.8</ele>
        <time>2022-04-21T13:28:04Z</time>
      </trkpt>
      <trkpt lat="46.60993" lon="5.45737">
        <ele>231.8</ele>
        <time>2022-04-21T13:28:05Z</time>
      </trkpt>
      <trkpt lat="46.60976" lon="5.45801">
        <ele>232.2</ele>
        <time>2022-04-21T13:28:12Z</time>
      </trkpt>
      <trkpt lat="46.60967" lon="5.45829">
        <ele>232.2</ele>
        <time>2022-04-21T13:28:15Z</time>
      </trkpt>
      <trkpt lat="46.6095" lon="5.45898">
        <ele>232.4</ele>
        <time>2022-04-21T13:28:22Z</time>
      </trkpt>
      <trkpt lat="46.60939" lon="5.45983">
        <ele>232.2</ele>
        <time>2022-04-21T13:28:30Z</time>
      </trkpt>
      <trkpt lat="46.60935" lon="5.46004">
        <ele>232</ele>
        <time>2022-04-21T13:28:32Z</time>
      </trkpt>
      <trkpt lat="46.60928" lon="5.46024">
        <ele>231.8</ele>
        <time>2022-04-21T13:28:34Z</time>
      </trkpt>
      <trkpt lat="46.60924" lon="5.46033">
        <ele>231.6</ele>
        <time>2022-04-21T13:28:35Z</time>
      </trkpt>
      <trkpt lat="46.60909" lon="5.46058">
        <ele>231</ele>
        <time>2022-04-21T13:28:38Z</time>
      </trkpt>
      <trkpt lat="46.60904" lon="5.46067">
        <ele>231</ele>
        <time>2022-04-21T13:28:39Z</time>
      </trkpt>
      <trkpt lat="46.60864" lon="5.46126">
        <ele>230.2</ele>
        <time>2022-04-21T13:28:46Z</time>
      </trkpt>
      <trkpt lat="46.60858" lon="5.46135">
        <ele>230</ele>
        <time>2022-04-21T13:28:47Z</time>
      </trkpt>
      <trkpt lat="46.60852" lon="5.46144">
        <ele>229.8</ele>
        <time>2022-04-21T13:28:48Z</time>
      </trkpt>
      <trkpt lat="46.60828" lon="5.46175">
        <ele>228.8</ele>
        <time>2022-04-21T13:28:52Z</time>
      </trkpt>
      <trkpt lat="46.60816" lon="5.46189">
        <ele>227.8</ele>
        <time>2022-04-21T13:28:54Z</time>
      </trkpt>
      <trkpt lat="46.6081" lon="5.46196">
        <ele>227.6</ele>
        <time>2022-04-21T13:28:55Z</time>
      </trkpt>
      <trkpt lat="46.6079" lon="5.46217">
        <ele>226.6</ele>
        <time>2022-04-21T13:28:58Z</time>
      </trkpt>
      <trkpt lat="46.60767" lon="5.46241">
        <ele>225.2</ele>
        <time>2022-04-21T13:29:01Z</time>
      </trkpt>
      <trkpt lat="46.60761" lon="5.46247">
        <ele>225.2</ele>
        <time>2022-04-21T13:29:02Z</time>
      </trkpt>
      <trkpt lat="46.60739" lon="5.46271">
        <ele>224.6</ele>
        <time>2022-04-21T13:29:05Z</time>
      </trkpt>
      <trkpt lat="46.60732" lon="5.4628">
        <ele>224.2</ele>
        <time>2022-04-21T13:29:06Z</time>
      </trkpt>
      <trkpt lat="46.607" lon="5.46316">
        <ele>222.6</ele>
        <time>2022-04-21T13:29:10Z</time>
      </trkpt>
      <trkpt lat="46.60673" lon="5.46339">
        <ele>221.2</ele>
        <time>2022-04-21T13:29:13Z</time>
      </trkpt>
      <trkpt lat="46.60665" lon="5.46347">
        <ele>221</ele>
        <time>2022-04-21T13:29:14Z</time>
      </trkpt>
      <trkpt lat="46.60656" lon="5.46357">
        <ele>220.2</ele>
        <time>2022-04-21T13:29:15Z</time>
      </trkpt>
      <trkpt lat="46.60649" lon="5.46367">
        <ele>219.6</ele>
        <time>2022-04-21T13:29:16Z</time>
      </trkpt>
      <trkpt lat="46.60642" lon="5.46378">
        <ele>219</ele>
        <time>2022-04-21T13:29:17Z</time>
      </trkpt>
      <trkpt lat="46.60616" lon="5.46427">
        <ele>217.8</ele>
        <time>2022-04-21T13:29:21Z</time>
      </trkpt>
      <trkpt lat="46.60597" lon="5.46461">
        <ele>217.4</ele>
        <time>2022-04-21T13:29:24Z</time>
      </trkpt>
      <trkpt lat="46.6059" lon="5.4647">
        <ele>217</ele>
        <time>2022-04-21T13:29:25Z</time>
      </trkpt>
      <trkpt lat="46.60582" lon="5.46477">
        <ele>217</ele>
        <time>2022-04-21T13:29:26Z</time>
      </trkpt>
      <trkpt lat="46.60574" lon="5.46484">
        <ele>216.8</ele>
        <time>2022-04-21T13:29:27Z</time>
      </trkpt>
      <trkpt lat="46.60557" lon="5.46493">
        <ele>216.4</ele>
        <time>2022-04-21T13:29:29Z</time>
      </trkpt>
      <trkpt lat="46.60539" lon="5.46501">
        <ele>216.4</ele>
        <time>2022-04-21T13:29:31Z</time>
      </trkpt>
      <trkpt lat="46.60525" lon="5.46512">
        <ele>216.4</ele>
        <time>2022-04-21T13:29:33Z</time>
      </trkpt>
      <trkpt lat="46.60502" lon="5.46543">
        <ele>216.2</ele>
        <time>2022-04-21T13:29:37Z</time>
      </trkpt>
      <trkpt lat="46.6048" lon="5.46587">
        <ele>216.4</ele>
        <time>2022-04-21T13:29:42Z</time>
      </trkpt>
      <trkpt lat="46.60454" lon="5.46635">
        <ele>216.6</ele>
        <time>2022-04-21T13:29:49Z</time>
      </trkpt>
      <trkpt lat="46.60447" lon="5.46645">
        <ele>216.6</ele>
        <time>2022-04-21T13:29:51Z</time>
      </trkpt>
      <trkpt lat="46.60439" lon="5.46651">
        <ele>216.6</ele>
        <time>2022-04-21T13:29:53Z</time>
      </trkpt>
      <trkpt lat="46.60435" lon="5.46653">
        <ele>216.6</ele>
        <time>2022-04-21T13:29:56Z</time>
      </trkpt>
      <trkpt lat="46.60435" lon="5.46653">
        <ele>216.8</ele>
        <time>2022-04-21T13:29:58Z</time>
      </trkpt>
      <trkpt lat="46.60431" lon="5.46653">
        <ele>217.4</ele>
        <time>2022-04-21T13:30:24Z</time>
      </trkpt>
      <trkpt lat="46.60429" lon="5.46655">
        <ele>217.4</ele>
        <time>2022-04-21T13:30:25Z</time>
      </trkpt>
      <trkpt lat="46.60424" lon="5.46676">
        <ele>217.4</ele>
        <time>2022-04-21T13:30:29Z</time>
      </trkpt>
      <trkpt lat="46.60422" lon="5.46713">
        <ele>217.4</ele>
        <time>2022-04-21T13:30:33Z</time>
      </trkpt>
      <trkpt lat="46.60419" lon="5.46783">
        <ele>218</ele>
        <time>2022-04-21T13:30:39Z</time>
      </trkpt>
      <trkpt lat="46.60418" lon="5.46794">
        <ele>218</ele>
        <time>2022-04-21T13:30:40Z</time>
      </trkpt>
      <trkpt lat="46.60409" lon="5.46837">
        <ele>218.2</ele>
        <time>2022-04-21T13:30:44Z</time>
      </trkpt>
      <trkpt lat="46.60395" lon="5.46887">
        <ele>219</ele>
        <time>2022-04-21T13:30:49Z</time>
      </trkpt>
      <trkpt lat="46.6039" lon="5.46907">
        <ele>219.4</ele>
        <time>2022-04-21T13:30:51Z</time>
      </trkpt>
      <trkpt lat="46.60374" lon="5.46963">
        <ele>220</ele>
        <time>2022-04-21T13:30:57Z</time>
      </trkpt>
      <trkpt lat="46.60368" lon="5.46982">
        <ele>220</ele>
        <time>2022-04-21T13:30:59Z</time>
      </trkpt>
      <trkpt lat="46.60365" lon="5.46992">
        <ele>220.2</ele>
        <time>2022-04-21T13:31:00Z</time>
      </trkpt>
      <trkpt lat="46.60353" lon="5.47042">
        <ele>220.6</ele>
        <time>2022-04-21T13:31:05Z</time>
      </trkpt>
      <trkpt lat="46.60347" lon="5.47081">
        <ele>221.2</ele>
        <time>2022-04-21T13:31:09Z</time>
      </trkpt>
      <trkpt lat="46.60341" lon="5.47111">
        <ele>222</ele>
        <time>2022-04-21T13:31:12Z</time>
      </trkpt>
      <trkpt lat="46.60338" lon="5.4713">
        <ele>222.4</ele>
        <time>2022-04-21T13:31:14Z</time>
      </trkpt>
      <trkpt lat="46.60329" lon="5.47178">
        <ele>223.6</ele>
        <time>2022-04-21T13:31:19Z</time>
      </trkpt>
      <trkpt lat="46.60326" lon="5.47206">
        <ele>224.2</ele>
        <time>2022-04-21T13:31:22Z</time>
      </trkpt>
      <trkpt lat="46.6032" lon="5.47234">
        <ele>224.6</ele>
        <time>2022-04-21T13:31:25Z</time>
      </trkpt>
      <trkpt lat="46.60314" lon="5.47261">
        <ele>225.2</ele>
        <time>2022-04-21T13:31:28Z</time>
      </trkpt>
      <trkpt lat="46.60309" lon="5.47279">
        <ele>225.8</ele>
        <time>2022-04-21T13:31:30Z</time>
      </trkpt>
      <trkpt lat="46.60295" lon="5.47331">
        <ele>226.8</ele>
        <time>2022-04-21T13:31:36Z</time>
      </trkpt>
      <trkpt lat="46.60293" lon="5.47339">
        <ele>227</ele>
        <time>2022-04-21T13:31:37Z</time>
      </trkpt>
      <trkpt lat="46.60281" lon="5.47378">
        <ele>227.8</ele>
        <time>2022-04-21T13:31:42Z</time>
      </trkpt>
      <trkpt lat="46.60271" lon="5.47386">
        <ele>228.2</ele>
        <time>2022-04-21T13:31:44Z</time>
      </trkpt>
      <trkpt lat="46.60266" lon="5.47385">
        <ele>228.4</ele>
        <time>2022-04-21T13:31:45Z</time>
      </trkpt>
      <trkpt lat="46.60253" lon="5.47379">
        <ele>229</ele>
        <time>2022-04-21T13:31:48Z</time>
      </trkpt>
      <trkpt lat="46.60244" lon="5.47373">
        <ele>229.6</ele>
        <time>2022-04-21T13:31:50Z</time>
      </trkpt>
      <trkpt lat="46.60229" lon="5.47364">
        <ele>230.2</ele>
        <time>2022-04-21T13:31:53Z</time>
      </trkpt>
      <trkpt lat="46.60207" lon="5.47349">
        <ele>230.8</ele>
        <time>2022-04-21T13:31:57Z</time>
      </trkpt>
      <trkpt lat="46.60165" lon="5.47322">
        <ele>230.6</ele>
        <time>2022-04-21T13:32:03Z</time>
      </trkpt>
      <trkpt lat="46.60127" lon="5.473">
        <ele>229.6</ele>
        <time>2022-04-21T13:32:08Z</time>
      </trkpt>
      <trkpt lat="46.60119" lon="5.47295">
        <ele>229</ele>
        <time>2022-04-21T13:32:09Z</time>
      </trkpt>
      <trkpt lat="46.60094" lon="5.47281">
        <ele>228</ele>
        <time>2022-04-21T13:32:12Z</time>
      </trkpt>
      <trkpt lat="46.60077" lon="5.47272">
        <ele>226.8</ele>
        <time>2022-04-21T13:32:14Z</time>
      </trkpt>
      <trkpt lat="46.60051" lon="5.47254">
        <ele>225.8</ele>
        <time>2022-04-21T13:32:17Z</time>
      </trkpt>
      <trkpt lat="46.60034" lon="5.4724">
        <ele>224.6</ele>
        <time>2022-04-21T13:32:19Z</time>
      </trkpt>
      <trkpt lat="46.60003" lon="5.47208">
        <ele>223.4</ele>
        <time>2022-04-21T13:32:23Z</time>
      </trkpt>
      <trkpt lat="46.59996" lon="5.472">
        <ele>223</ele>
        <time>2022-04-21T13:32:24Z</time>
      </trkpt>
      <trkpt lat="46.59987" lon="5.47192">
        <ele>222.4</ele>
        <time>2022-04-21T13:32:25Z</time>
      </trkpt>
      <trkpt lat="46.59972" lon="5.4718">
        <ele>221.8</ele>
        <time>2022-04-21T13:32:27Z</time>
      </trkpt>
      <trkpt lat="46.59965" lon="5.47176">
        <ele>221.8</ele>
        <time>2022-04-21T13:32:28Z</time>
      </trkpt>
      <trkpt lat="46.5995" lon="5.47169">
        <ele>221.6</ele>
        <time>2022-04-21T13:32:30Z</time>
      </trkpt>
      <trkpt lat="46.59938" lon="5.47159">
        <ele>221.6</ele>
        <time>2022-04-21T13:32:32Z</time>
      </trkpt>
      <trkpt lat="46.59909" lon="5.47134">
        <ele>222.4</ele>
        <time>2022-04-21T13:32:37Z</time>
      </trkpt>
      <trkpt lat="46.59898" lon="5.47136">
        <ele>222.8</ele>
        <time>2022-04-21T13:32:39Z</time>
      </trkpt>
      <trkpt lat="46.59885" lon="5.4715">
        <ele>223.2</ele>
        <time>2022-04-21T13:32:42Z</time>
      </trkpt>
      <trkpt lat="46.59881" lon="5.47154">
        <ele>223.4</ele>
        <time>2022-04-21T13:32:43Z</time>
      </trkpt>
      <trkpt lat="46.59877" lon="5.47158">
        <ele>223.6</ele>
        <time>2022-04-21T13:32:44Z</time>
      </trkpt>
      <trkpt lat="46.59857" lon="5.47179">
        <ele>224.8</ele>
        <time>2022-04-21T13:32:49Z</time>
      </trkpt>
      <trkpt lat="46.59852" lon="5.47183">
        <ele>225</ele>
        <time>2022-04-21T13:32:50Z</time>
      </trkpt>
      <trkpt lat="46.5984" lon="5.47196">
        <ele>225.8</ele>
        <time>2022-04-21T13:32:53Z</time>
      </trkpt>
      <trkpt lat="46.5982" lon="5.47216">
        <ele>227</ele>
        <time>2022-04-21T13:32:58Z</time>
      </trkpt>
      <trkpt lat="46.59796" lon="5.47236">
        <ele>228</ele>
        <time>2022-04-21T13:33:04Z</time>
      </trkpt>
      <trkpt lat="46.59787" lon="5.4724">
        <ele>228.2</ele>
        <time>2022-04-21T13:33:06Z</time>
      </trkpt>
      <trkpt lat="46.59762" lon="5.47245">
        <ele>229.2</ele>
        <time>2022-04-21T13:33:12Z</time>
      </trkpt>
      <trkpt lat="46.59757" lon="5.47245">
        <ele>229.2</ele>
        <time>2022-04-21T13:33:13Z</time>
      </trkpt>
      <trkpt lat="46.59732" lon="5.47246">
        <ele>230.4</ele>
        <time>2022-04-21T13:33:19Z</time>
      </trkpt>
      <trkpt lat="46.5972" lon="5.47246">
        <ele>231.2</ele>
        <time>2022-04-21T13:33:22Z</time>
      </trkpt>
      <trkpt lat="46.59716" lon="5.47245">
        <ele>231.4</ele>
        <time>2022-04-21T13:33:23Z</time>
      </trkpt>
      <trkpt lat="46.59703" lon="5.47246">
        <ele>232.4</ele>
        <time>2022-04-21T13:33:26Z</time>
      </trkpt>
      <trkpt lat="46.59699" lon="5.47246">
        <ele>232.8</ele>
        <time>2022-04-21T13:33:27Z</time>
      </trkpt>
      <trkpt lat="46.59686" lon="5.47247">
        <ele>233.4</ele>
        <time>2022-04-21T13:33:30Z</time>
      </trkpt>
      <trkpt lat="46.59682" lon="5.47247">
        <ele>233.6</ele>
        <time>2022-04-21T13:33:31Z</time>
      </trkpt>
      <trkpt lat="46.59657" lon="5.47248">
        <ele>235</ele>
        <time>2022-04-21T13:33:37Z</time>
      </trkpt>
      <trkpt lat="46.59642" lon="5.47249">
        <ele>235.6</ele>
        <time>2022-04-21T13:33:41Z</time>
      </trkpt>
      <trkpt lat="46.59627" lon="5.47249">
        <ele>236.2</ele>
        <time>2022-04-21T13:33:45Z</time>
      </trkpt>
      <trkpt lat="46.59608" lon="5.4725">
        <ele>237.4</ele>
        <time>2022-04-21T13:33:50Z</time>
      </trkpt>
      <trkpt lat="46.59604" lon="5.4725">
        <ele>237.8</ele>
        <time>2022-04-21T13:33:51Z</time>
      </trkpt>
      <trkpt lat="46.59593" lon="5.4725">
        <ele>238.4</ele>
        <time>2022-04-21T13:33:54Z</time>
      </trkpt>
      <trkpt lat="46.59573" lon="5.4725">
        <ele>239.2</ele>
        <time>2022-04-21T13:33:59Z</time>
      </trkpt>
      <trkpt lat="46.59565" lon="5.4725">
        <ele>239.4</ele>
        <time>2022-04-21T13:34:01Z</time>
      </trkpt>
      <trkpt lat="46.59545" lon="5.47251">
        <ele>240.6</ele>
        <time>2022-04-21T13:34:06Z</time>
      </trkpt>
      <trkpt lat="46.5953" lon="5.47251">
        <ele>241.6</ele>
        <time>2022-04-21T13:34:10Z</time>
      </trkpt>
      <trkpt lat="46.59527" lon="5.4725">
        <ele>241.8</ele>
        <time>2022-04-21T13:34:11Z</time>
      </trkpt>
      <trkpt lat="46.59505" lon="5.47243">
        <ele>243</ele>
        <time>2022-04-21T13:34:17Z</time>
      </trkpt>
      <trkpt lat="46.59492" lon="5.47233">
        <ele>244.2</ele>
        <time>2022-04-21T13:34:21Z</time>
      </trkpt>
      <trkpt lat="46.59479" lon="5.47221">
        <ele>245</ele>
        <time>2022-04-21T13:34:25Z</time>
      </trkpt>
      <trkpt lat="46.59473" lon="5.47215">
        <ele>245.4</ele>
        <time>2022-04-21T13:34:27Z</time>
      </trkpt>
      <trkpt lat="46.59454" lon="5.47197">
        <ele>246.6</ele>
        <time>2022-04-21T13:34:33Z</time>
      </trkpt>
      <trkpt lat="46.59444" lon="5.47188">
        <ele>247.6</ele>
        <time>2022-04-21T13:34:36Z</time>
      </trkpt>
      <trkpt lat="46.59441" lon="5.47185">
        <ele>247.8</ele>
        <time>2022-04-21T13:34:37Z</time>
      </trkpt>
      <trkpt lat="46.59431" lon="5.47168">
        <ele>248.6</ele>
        <time>2022-04-21T13:34:41Z</time>
      </trkpt>
      <trkpt lat="46.59429" lon="5.47162">
        <ele>248.8</ele>
        <time>2022-04-21T13:34:42Z</time>
      </trkpt>
      <trkpt lat="46.59428" lon="5.4714">
        <ele>249.6</ele>
        <time>2022-04-21T13:34:46Z</time>
      </trkpt>
      <trkpt lat="46.5943" lon="5.47135">
        <ele>250</ele>
        <time>2022-04-21T13:34:47Z</time>
      </trkpt>
      <trkpt lat="46.59436" lon="5.47122">
        <ele>251.2</ele>
        <time>2022-04-21T13:34:50Z</time>
      </trkpt>
      <trkpt lat="46.59439" lon="5.47117">
        <ele>251.4</ele>
        <time>2022-04-21T13:34:51Z</time>
      </trkpt>
      <trkpt lat="46.59449" lon="5.47101">
        <ele>252.4</ele>
        <time>2022-04-21T13:34:55Z</time>
      </trkpt>
      <trkpt lat="46.59455" lon="5.47086">
        <ele>253</ele>
        <time>2022-04-21T13:34:58Z</time>
      </trkpt>
      <trkpt lat="46.59457" lon="5.4707">
        <ele>253.8</ele>
        <time>2022-04-21T13:35:01Z</time>
      </trkpt>
      <trkpt lat="46.59456" lon="5.47064">
        <ele>254</ele>
        <time>2022-04-21T13:35:02Z</time>
      </trkpt>
      <trkpt lat="46.59448" lon="5.47047">
        <ele>254.8</ele>
        <time>2022-04-21T13:35:06Z</time>
      </trkpt>
      <trkpt lat="46.59431" lon="5.47035">
        <ele>255.8</ele>
        <time>2022-04-21T13:35:11Z</time>
      </trkpt>
      <trkpt lat="46.59427" lon="5.47033">
        <ele>256</ele>
        <time>2022-04-21T13:35:12Z</time>
      </trkpt>
      <trkpt lat="46.59414" lon="5.47026">
        <ele>257.2</ele>
        <time>2022-04-21T13:35:16Z</time>
      </trkpt>
      <trkpt lat="46.59396" lon="5.47017">
        <ele>258.2</ele>
        <time>2022-04-21T13:35:21Z</time>
      </trkpt>
      <trkpt lat="46.59382" lon="5.4701">
        <ele>259</ele>
        <time>2022-04-21T13:35:25Z</time>
      </trkpt>
      <trkpt lat="46.59376" lon="5.47006">
        <ele>259.4</ele>
        <time>2022-04-21T13:35:27Z</time>
      </trkpt>
      <trkpt lat="46.59358" lon="5.46993">
        <ele>260.6</ele>
        <time>2022-04-21T13:35:32Z</time>
      </trkpt>
      <trkpt lat="46.59356" lon="5.46989">
        <ele>260.6</ele>
        <time>2022-04-21T13:35:33Z</time>
      </trkpt>
      <trkpt lat="46.59345" lon="5.46966">
        <ele>261.8</ele>
        <time>2022-04-21T13:35:38Z</time>
      </trkpt>
      <trkpt lat="46.59342" lon="5.46956">
        <ele>262.2</ele>
        <time>2022-04-21T13:35:40Z</time>
      </trkpt>
      <trkpt lat="46.59338" lon="5.4694">
        <ele>262.8</ele>
        <time>2022-04-21T13:35:43Z</time>
      </trkpt>
      <trkpt lat="46.59329" lon="5.4692">
        <ele>263.8</ele>
        <time>2022-04-21T13:35:47Z</time>
      </trkpt>
      <trkpt lat="46.59317" lon="5.46914">
        <ele>264.2</ele>
        <time>2022-04-21T13:35:50Z</time>
      </trkpt>
      <trkpt lat="46.59314" lon="5.46915">
        <ele>264.4</ele>
        <time>2022-04-21T13:35:51Z</time>
      </trkpt>
      <trkpt lat="46.59308" lon="5.46921">
        <ele>264.8</ele>
        <time>2022-04-21T13:35:53Z</time>
      </trkpt>
      <trkpt lat="46.59305" lon="5.46925">
        <ele>265</ele>
        <time>2022-04-21T13:35:54Z</time>
      </trkpt>
      <trkpt lat="46.59303" lon="5.4693">
        <ele>265.4</ele>
        <time>2022-04-21T13:35:55Z</time>
      </trkpt>
      <trkpt lat="46.59299" lon="5.4694">
        <ele>265.8</ele>
        <time>2022-04-21T13:35:57Z</time>
      </trkpt>
      <trkpt lat="46.59291" lon="5.46962">
        <ele>267</ele>
        <time>2022-04-21T13:36:01Z</time>
      </trkpt>
      <trkpt lat="46.5929" lon="5.46968">
        <ele>267.4</ele>
        <time>2022-04-21T13:36:02Z</time>
      </trkpt>
      <trkpt lat="46.59284" lon="5.46991">
        <ele>268.2</ele>
        <time>2022-04-21T13:36:06Z</time>
      </trkpt>
      <trkpt lat="46.59283" lon="5.46997">
        <ele>268.4</ele>
        <time>2022-04-21T13:36:07Z</time>
      </trkpt>
      <trkpt lat="46.59282" lon="5.47015">
        <ele>269.2</ele>
        <time>2022-04-21T13:36:10Z</time>
      </trkpt>
      <trkpt lat="46.59285" lon="5.47039">
        <ele>270.4</ele>
        <time>2022-04-21T13:36:14Z</time>
      </trkpt>
      <trkpt lat="46.59287" lon="5.47044">
        <ele>270.6</ele>
        <time>2022-04-21T13:36:15Z</time>
      </trkpt>
      <trkpt lat="46.59291" lon="5.47056">
        <ele>271</ele>
        <time>2022-04-21T13:36:17Z</time>
      </trkpt>
      <trkpt lat="46.59293" lon="5.4706">
        <ele>271.6</ele>
        <time>2022-04-21T13:36:18Z</time>
      </trkpt>
      <trkpt lat="46.59297" lon="5.47072">
        <ele>272</ele>
        <time>2022-04-21T13:36:20Z</time>
      </trkpt>
      <trkpt lat="46.59298" lon="5.47076">
        <ele>272.2</ele>
        <time>2022-04-21T13:36:21Z</time>
      </trkpt>
      <trkpt lat="46.59299" lon="5.47083">
        <ele>272.4</ele>
        <time>2022-04-21T13:36:22Z</time>
      </trkpt>
      <trkpt lat="46.59299" lon="5.47088">
        <ele>272.8</ele>
        <time>2022-04-21T13:36:23Z</time>
      </trkpt>
      <trkpt lat="46.59298" lon="5.47094">
        <ele>272.8</ele>
        <time>2022-04-21T13:36:24Z</time>
      </trkpt>
      <trkpt lat="46.59298" lon="5.471">
        <ele>273</ele>
        <time>2022-04-21T13:36:25Z</time>
      </trkpt>
      <trkpt lat="46.59296" lon="5.47105">
        <ele>273.2</ele>
        <time>2022-04-21T13:36:26Z</time>
      </trkpt>
      <trkpt lat="46.59292" lon="5.47116">
        <ele>273.8</ele>
        <time>2022-04-21T13:36:28Z</time>
      </trkpt>
      <trkpt lat="46.59288" lon="5.47125">
        <ele>274.4</ele>
        <time>2022-04-21T13:36:30Z</time>
      </trkpt>
      <trkpt lat="46.59282" lon="5.47131">
        <ele>274.8</ele>
        <time>2022-04-21T13:36:32Z</time>
      </trkpt>
      <trkpt lat="46.59271" lon="5.47137">
        <ele>275.8</ele>
        <time>2022-04-21T13:36:35Z</time>
      </trkpt>
      <trkpt lat="46.59249" lon="5.47151">
        <ele>277</ele>
        <time>2022-04-21T13:36:41Z</time>
      </trkpt>
      <trkpt lat="46.59242" lon="5.47157">
        <ele>277.4</ele>
        <time>2022-04-21T13:36:43Z</time>
      </trkpt>
      <trkpt lat="46.59227" lon="5.47176">
        <ele>278.2</ele>
        <time>2022-04-21T13:36:48Z</time>
      </trkpt>
      <trkpt lat="46.59225" lon="5.4718">
        <ele>278.4</ele>
        <time>2022-04-21T13:36:49Z</time>
      </trkpt>
      <trkpt lat="46.59216" lon="5.47198">
        <ele>279.4</ele>
        <time>2022-04-21T13:36:53Z</time>
      </trkpt>
      <trkpt lat="46.59209" lon="5.47219">
        <ele>280</ele>
        <time>2022-04-21T13:36:57Z</time>
      </trkpt>
      <trkpt lat="46.59207" lon="5.4723">
        <ele>280.4</ele>
        <time>2022-04-21T13:36:59Z</time>
      </trkpt>
      <trkpt lat="46.59205" lon="5.47258">
        <ele>281.4</ele>
        <time>2022-04-21T13:37:04Z</time>
      </trkpt>
      <trkpt lat="46.59215" lon="5.4729">
        <ele>282.8</ele>
        <time>2022-04-21T13:37:10Z</time>
      </trkpt>
      <trkpt lat="46.59222" lon="5.4731">
        <ele>284</ele>
        <time>2022-04-21T13:37:14Z</time>
      </trkpt>
      <trkpt lat="46.59227" lon="5.47325">
        <ele>285</ele>
        <time>2022-04-21T13:37:17Z</time>
      </trkpt>
      <trkpt lat="46.59229" lon="5.47336">
        <ele>285.4</ele>
        <time>2022-04-21T13:37:19Z</time>
      </trkpt>
      <trkpt lat="46.59223" lon="5.47354">
        <ele>286.2</ele>
        <time>2022-04-21T13:37:23Z</time>
      </trkpt>
      <trkpt lat="46.59208" lon="5.4737">
        <ele>287.4</ele>
        <time>2022-04-21T13:37:28Z</time>
      </trkpt>
      <trkpt lat="46.59199" lon="5.47379">
        <ele>288.2</ele>
        <time>2022-04-21T13:37:31Z</time>
      </trkpt>
      <trkpt lat="46.59195" lon="5.47384">
        <ele>288.4</ele>
        <time>2022-04-21T13:37:32Z</time>
      </trkpt>
      <trkpt lat="46.59184" lon="5.47404">
        <ele>289.6</ele>
        <time>2022-04-21T13:37:37Z</time>
      </trkpt>
      <trkpt lat="46.59182" lon="5.47408">
        <ele>289.8</ele>
        <time>2022-04-21T13:37:38Z</time>
      </trkpt>
      <trkpt lat="46.59171" lon="5.47432">
        <ele>290.6</ele>
        <time>2022-04-21T13:37:43Z</time>
      </trkpt>
      <trkpt lat="46.59163" lon="5.47449">
        <ele>291.6</ele>
        <time>2022-04-21T13:37:47Z</time>
      </trkpt>
      <trkpt lat="46.5916" lon="5.47454">
        <ele>291.8</ele>
        <time>2022-04-21T13:37:48Z</time>
      </trkpt>
      <trkpt lat="46.59147" lon="5.47482">
        <ele>293</ele>
        <time>2022-04-21T13:37:54Z</time>
      </trkpt>
      <trkpt lat="46.59136" lon="5.47506">
        <ele>293.8</ele>
        <time>2022-04-21T13:37:59Z</time>
      </trkpt>
      <trkpt lat="46.59134" lon="5.4751">
        <ele>294.2</ele>
        <time>2022-04-21T13:38:00Z</time>
      </trkpt>
      <trkpt lat="46.59123" lon="5.47535">
        <ele>295.4</ele>
        <time>2022-04-21T13:38:05Z</time>
      </trkpt>
      <trkpt lat="46.59116" lon="5.47548">
        <ele>295.8</ele>
        <time>2022-04-21T13:38:08Z</time>
      </trkpt>
      <trkpt lat="46.59103" lon="5.4757">
        <ele>296.4</ele>
        <time>2022-04-21T13:38:13Z</time>
      </trkpt>
      <trkpt lat="46.59098" lon="5.47579">
        <ele>296.8</ele>
        <time>2022-04-21T13:38:15Z</time>
      </trkpt>
      <trkpt lat="46.59088" lon="5.47595">
        <ele>297.4</ele>
        <time>2022-04-21T13:38:19Z</time>
      </trkpt>
      <trkpt lat="46.5908" lon="5.47606">
        <ele>298.6</ele>
        <time>2022-04-21T13:38:22Z</time>
      </trkpt>
      <trkpt lat="46.59066" lon="5.47621">
        <ele>299.8</ele>
        <time>2022-04-21T13:38:27Z</time>
      </trkpt>
      <trkpt lat="46.59064" lon="5.47623">
        <ele>299.8</ele>
        <time>2022-04-21T13:38:28Z</time>
      </trkpt>
      <trkpt lat="46.59054" lon="5.47632">
        <ele>300.8</ele>
        <time>2022-04-21T13:38:31Z</time>
      </trkpt>
      <trkpt lat="46.59046" lon="5.47642">
        <ele>301.6</ele>
        <time>2022-04-21T13:38:34Z</time>
      </trkpt>
      <trkpt lat="46.59043" lon="5.47645">
        <ele>301.8</ele>
        <time>2022-04-21T13:38:35Z</time>
      </trkpt>
      <trkpt lat="46.59035" lon="5.47656">
        <ele>303</ele>
        <time>2022-04-21T13:38:38Z</time>
      </trkpt>
      <trkpt lat="46.59025" lon="5.47664">
        <ele>303.6</ele>
        <time>2022-04-21T13:38:41Z</time>
      </trkpt>
      <trkpt lat="46.59017" lon="5.47668">
        <ele>304.2</ele>
        <time>2022-04-21T13:38:43Z</time>
      </trkpt>
      <trkpt lat="46.59002" lon="5.47677">
        <ele>305.4</ele>
        <time>2022-04-21T13:38:47Z</time>
      </trkpt>
      <trkpt lat="46.58987" lon="5.47676">
        <ele>306.6</ele>
        <time>2022-04-21T13:38:52Z</time>
      </trkpt>
      <trkpt lat="46.5898" lon="5.47675">
        <ele>307</ele>
        <time>2022-04-21T13:38:54Z</time>
      </trkpt>
      <trkpt lat="46.58969" lon="5.47671">
        <ele>307.8</ele>
        <time>2022-04-21T13:38:58Z</time>
      </trkpt>
      <trkpt lat="46.58954" lon="5.4767">
        <ele>308.8</ele>
        <time>2022-04-21T13:39:03Z</time>
      </trkpt>
      <trkpt lat="46.5894" lon="5.47674">
        <ele>310</ele>
        <time>2022-04-21T13:39:08Z</time>
      </trkpt>
      <trkpt lat="46.58924" lon="5.4768">
        <ele>311</ele>
        <time>2022-04-21T13:39:13Z</time>
      </trkpt>
      <trkpt lat="46.58919" lon="5.47683">
        <ele>311</ele>
        <time>2022-04-21T13:39:15Z</time>
      </trkpt>
      <trkpt lat="46.58911" lon="5.47688">
        <ele>311.2</ele>
        <time>2022-04-21T13:39:18Z</time>
      </trkpt>
      <trkpt lat="46.58906" lon="5.47692">
        <ele>311.8</ele>
        <time>2022-04-21T13:39:20Z</time>
      </trkpt>
      <trkpt lat="46.589" lon="5.47696">
        <ele>312.2</ele>
        <time>2022-04-21T13:39:22Z</time>
      </trkpt>
      <trkpt lat="46.58888" lon="5.47709">
        <ele>313.2</ele>
        <time>2022-04-21T13:39:27Z</time>
      </trkpt>
      <trkpt lat="46.58879" lon="5.4773">
        <ele>314.2</ele>
        <time>2022-04-21T13:39:32Z</time>
      </trkpt>
      <trkpt lat="46.58878" lon="5.47771">
        <ele>315</ele>
        <time>2022-04-21T13:39:39Z</time>
      </trkpt>
      <trkpt lat="46.58878" lon="5.47782">
        <ele>315.4</ele>
        <time>2022-04-21T13:39:41Z</time>
      </trkpt>
      <trkpt lat="46.58882" lon="5.4781">
        <ele>316.4</ele>
        <time>2022-04-21T13:39:46Z</time>
      </trkpt>
      <trkpt lat="46.58884" lon="5.47815">
        <ele>316.6</ele>
        <time>2022-04-21T13:39:47Z</time>
      </trkpt>
      <trkpt lat="46.58895" lon="5.47832">
        <ele>317.6</ele>
        <time>2022-04-21T13:39:51Z</time>
      </trkpt>
      <trkpt lat="46.58901" lon="5.47839">
        <ele>317.8</ele>
        <time>2022-04-21T13:39:53Z</time>
      </trkpt>
      <trkpt lat="46.58914" lon="5.4785">
        <ele>318.8</ele>
        <time>2022-04-21T13:39:57Z</time>
      </trkpt>
      <trkpt lat="46.58928" lon="5.4786">
        <ele>319.6</ele>
        <time>2022-04-21T13:40:01Z</time>
      </trkpt>
      <trkpt lat="46.58931" lon="5.47862">
        <ele>319.8</ele>
        <time>2022-04-21T13:40:02Z</time>
      </trkpt>
      <trkpt lat="46.58951" lon="5.47872">
        <ele>320.8</ele>
        <time>2022-04-21T13:40:07Z</time>
      </trkpt>
      <trkpt lat="46.58954" lon="5.47875">
        <ele>321</ele>
        <time>2022-04-21T13:40:08Z</time>
      </trkpt>
      <trkpt lat="46.58977" lon="5.47891">
        <ele>322.2</ele>
        <time>2022-04-21T13:40:14Z</time>
      </trkpt>
      <trkpt lat="46.58981" lon="5.47893">
        <ele>322.6</ele>
        <time>2022-04-21T13:40:15Z</time>
      </trkpt>
      <trkpt lat="46.58992" lon="5.47901">
        <ele>323.4</ele>
        <time>2022-04-21T13:40:18Z</time>
      </trkpt>
      <trkpt lat="46.59015" lon="5.47919">
        <ele>324.4</ele>
        <time>2022-04-21T13:40:24Z</time>
      </trkpt>
      <trkpt lat="46.59018" lon="5.47923">
        <ele>324.6</ele>
        <time>2022-04-21T13:40:25Z</time>
      </trkpt>
      <trkpt lat="46.59027" lon="5.47941">
        <ele>325</ele>
        <time>2022-04-21T13:40:29Z</time>
      </trkpt>
      <trkpt lat="46.59029" lon="5.47957">
        <ele>325.6</ele>
        <time>2022-04-21T13:40:32Z</time>
      </trkpt>
      <trkpt lat="46.59027" lon="5.47967">
        <ele>326.2</ele>
        <time>2022-04-21T13:40:34Z</time>
      </trkpt>
      <trkpt lat="46.59021" lon="5.4798">
        <ele>326.6</ele>
        <time>2022-04-21T13:40:37Z</time>
      </trkpt>
      <trkpt lat="46.59018" lon="5.47984">
        <ele>326.8</ele>
        <time>2022-04-21T13:40:38Z</time>
      </trkpt>
      <trkpt lat="46.59004" lon="5.47993">
        <ele>327.8</ele>
        <time>2022-04-21T13:40:42Z</time>
      </trkpt>
      <trkpt lat="46.58992" lon="5.48003">
        <ele>328.8</ele>
        <time>2022-04-21T13:40:45Z</time>
      </trkpt>
      <trkpt lat="46.58989" lon="5.48007">
        <ele>329.2</ele>
        <time>2022-04-21T13:40:46Z</time>
      </trkpt>
      <trkpt lat="46.58986" lon="5.48011">
        <ele>329.2</ele>
        <time>2022-04-21T13:40:47Z</time>
      </trkpt>
      <trkpt lat="46.58981" lon="5.4802">
        <ele>329.6</ele>
        <time>2022-04-21T13:40:49Z</time>
      </trkpt>
      <trkpt lat="46.58979" lon="5.48026">
        <ele>329.6</ele>
        <time>2022-04-21T13:40:50Z</time>
      </trkpt>
      <trkpt lat="46.58978" lon="5.48032">
        <ele>329.8</ele>
        <time>2022-04-21T13:40:51Z</time>
      </trkpt>
      <trkpt lat="46.58979" lon="5.48056">
        <ele>330.2</ele>
        <time>2022-04-21T13:40:55Z</time>
      </trkpt>
      <trkpt lat="46.58983" lon="5.48087">
        <ele>330.8</ele>
        <time>2022-04-21T13:41:00Z</time>
      </trkpt>
      <trkpt lat="46.58984" lon="5.48093">
        <ele>331</ele>
        <time>2022-04-21T13:41:01Z</time>
      </trkpt>
      <trkpt lat="46.58986" lon="5.48104">
        <ele>331.4</ele>
        <time>2022-04-21T13:41:03Z</time>
      </trkpt>
      <trkpt lat="46.58988" lon="5.48115">
        <ele>332</ele>
        <time>2022-04-21T13:41:05Z</time>
      </trkpt>
      <trkpt lat="46.58993" lon="5.48142">
        <ele>333</ele>
        <time>2022-04-21T13:41:10Z</time>
      </trkpt>
      <trkpt lat="46.58995" lon="5.48147">
        <ele>333.2</ele>
        <time>2022-04-21T13:41:11Z</time>
      </trkpt>
      <trkpt lat="46.59" lon="5.48165">
        <ele>334</ele>
        <time>2022-04-21T13:41:15Z</time>
      </trkpt>
      <trkpt lat="46.59002" lon="5.4817">
        <ele>334.4</ele>
        <time>2022-04-21T13:41:16Z</time>
      </trkpt>
      <trkpt lat="46.59013" lon="5.482">
        <ele>335.6</ele>
        <time>2022-04-21T13:41:22Z</time>
      </trkpt>
      <trkpt lat="46.5902" lon="5.48226">
        <ele>336.6</ele>
        <time>2022-04-21T13:41:27Z</time>
      </trkpt>
      <trkpt lat="46.59023" lon="5.48237">
        <ele>337.2</ele>
        <time>2022-04-21T13:41:29Z</time>
      </trkpt>
      <trkpt lat="46.59025" lon="5.48246">
        <ele>337.6</ele>
        <time>2022-04-21T13:41:31Z</time>
      </trkpt>
      <trkpt lat="46.59031" lon="5.48266">
        <ele>338.8</ele>
        <time>2022-04-21T13:41:35Z</time>
      </trkpt>
      <trkpt lat="46.59033" lon="5.48271">
        <ele>338.8</ele>
        <time>2022-04-21T13:41:36Z</time>
      </trkpt>
      <trkpt lat="46.59046" lon="5.48294">
        <ele>339.8</ele>
        <time>2022-04-21T13:41:41Z</time>
      </trkpt>
      <trkpt lat="46.59051" lon="5.48304">
        <ele>340.2</ele>
        <time>2022-04-21T13:41:43Z</time>
      </trkpt>
      <trkpt lat="46.59065" lon="5.48326">
        <ele>341</ele>
        <time>2022-04-21T13:41:48Z</time>
      </trkpt>
      <trkpt lat="46.59077" lon="5.48339">
        <ele>341.6</ele>
        <time>2022-04-21T13:41:52Z</time>
      </trkpt>
      <trkpt lat="46.5909" lon="5.48353">
        <ele>342.2</ele>
        <time>2022-04-21T13:41:56Z</time>
      </trkpt>
      <trkpt lat="46.59094" lon="5.48362">
        <ele>342.6</ele>
        <time>2022-04-21T13:41:58Z</time>
      </trkpt>
      <trkpt lat="46.59092" lon="5.48377">
        <ele>343.2</ele>
        <time>2022-04-21T13:42:01Z</time>
      </trkpt>
      <trkpt lat="46.5909" lon="5.48379">
        <ele>343.4</ele>
        <time>2022-04-21T13:42:02Z</time>
      </trkpt>
      <trkpt lat="46.5908" lon="5.48384">
        <ele>344.2</ele>
        <time>2022-04-21T13:42:05Z</time>
      </trkpt>
      <trkpt lat="46.59077" lon="5.48384">
        <ele>344.4</ele>
        <time>2022-04-21T13:42:06Z</time>
      </trkpt>
      <trkpt lat="46.59059" lon="5.48374">
        <ele>345.6</ele>
        <time>2022-04-21T13:42:11Z</time>
      </trkpt>
      <trkpt lat="46.59044" lon="5.48355">
        <ele>346.6</ele>
        <time>2022-04-21T13:42:16Z</time>
      </trkpt>
      <trkpt lat="46.59033" lon="5.48339">
        <ele>347.2</ele>
        <time>2022-04-21T13:42:20Z</time>
      </trkpt>
      <trkpt lat="46.59028" lon="5.48333">
        <ele>347.8</ele>
        <time>2022-04-21T13:42:22Z</time>
      </trkpt>
      <trkpt lat="46.59012" lon="5.48311">
        <ele>349.2</ele>
        <time>2022-04-21T13:42:28Z</time>
      </trkpt>
      <trkpt lat="46.59004" lon="5.48296">
        <ele>350.2</ele>
        <time>2022-04-21T13:42:32Z</time>
      </trkpt>
      <trkpt lat="46.58994" lon="5.48277">
        <ele>351.4</ele>
        <time>2022-04-21T13:42:37Z</time>
      </trkpt>
      <trkpt lat="46.58988" lon="5.48265">
        <ele>352.4</ele>
        <time>2022-04-21T13:42:40Z</time>
      </trkpt>
      <trkpt lat="46.58982" lon="5.48248">
        <ele>353.8</ele>
        <time>2022-04-21T13:42:44Z</time>
      </trkpt>
      <trkpt lat="46.58975" lon="5.48236">
        <ele>354.4</ele>
        <time>2022-04-21T13:42:47Z</time>
      </trkpt>
      <trkpt lat="46.58967" lon="5.48221">
        <ele>355</ele>
        <time>2022-04-21T13:42:51Z</time>
      </trkpt>
      <trkpt lat="46.58959" lon="5.4821">
        <ele>356</ele>
        <time>2022-04-21T13:42:54Z</time>
      </trkpt>
      <trkpt lat="46.58957" lon="5.48207">
        <ele>356.2</ele>
        <time>2022-04-21T13:42:55Z</time>
      </trkpt>
      <trkpt lat="46.58944" lon="5.48193">
        <ele>357</ele>
        <time>2022-04-21T13:43:00Z</time>
      </trkpt>
      <trkpt lat="46.58938" lon="5.48188">
        <ele>357.2</ele>
        <time>2022-04-21T13:43:02Z</time>
      </trkpt>
      <trkpt lat="46.58925" lon="5.48179">
        <ele>358.2</ele>
        <time>2022-04-21T13:43:06Z</time>
      </trkpt>
      <trkpt lat="46.58922" lon="5.48178">
        <ele>358.6</ele>
        <time>2022-04-21T13:43:07Z</time>
      </trkpt>
      <trkpt lat="46.58913" lon="5.48172">
        <ele>359.6</ele>
        <time>2022-04-21T13:43:10Z</time>
      </trkpt>
      <trkpt lat="46.58898" lon="5.48165">
        <ele>360.8</ele>
        <time>2022-04-21T13:43:14Z</time>
      </trkpt>
      <trkpt lat="46.58896" lon="5.48163">
        <ele>361.2</ele>
        <time>2022-04-21T13:43:15Z</time>
      </trkpt>
      <trkpt lat="46.58886" lon="5.48159">
        <ele>362</ele>
        <time>2022-04-21T13:43:18Z</time>
      </trkpt>
      <trkpt lat="46.58863" lon="5.48152">
        <ele>363</ele>
        <time>2022-04-21T13:43:24Z</time>
      </trkpt>
      <trkpt lat="46.58838" lon="5.4815">
        <ele>364.2</ele>
        <time>2022-04-21T13:43:31Z</time>
      </trkpt>
      <trkpt lat="46.58836" lon="5.4815">
        <ele>364.2</ele>
        <time>2022-04-21T13:43:32Z</time>
      </trkpt>
      <trkpt lat="46.58817" lon="5.48149">
        <ele>365.2</ele>
        <time>2022-04-21T13:43:37Z</time>
      </trkpt>
      <trkpt lat="46.58805" lon="5.48147">
        <ele>366.2</ele>
        <time>2022-04-21T13:43:40Z</time>
      </trkpt>
      <trkpt lat="46.58802" lon="5.48147">
        <ele>366.4</ele>
        <time>2022-04-21T13:43:41Z</time>
      </trkpt>
      <trkpt lat="46.58783" lon="5.4814">
        <ele>367.6</ele>
        <time>2022-04-21T13:43:47Z</time>
      </trkpt>
      <trkpt lat="46.5877" lon="5.48137">
        <ele>368.8</ele>
        <time>2022-04-21T13:43:51Z</time>
      </trkpt>
      <trkpt lat="46.58768" lon="5.48136">
        <ele>369</ele>
        <time>2022-04-21T13:43:52Z</time>
      </trkpt>
      <trkpt lat="46.58755" lon="5.48127">
        <ele>369.8</ele>
        <time>2022-04-21T13:43:56Z</time>
      </trkpt>
      <trkpt lat="46.58752" lon="5.48124">
        <ele>370</ele>
        <time>2022-04-21T13:43:57Z</time>
      </trkpt>
      <trkpt lat="46.58741" lon="5.48111">
        <ele>370.6</ele>
        <time>2022-04-21T13:44:00Z</time>
      </trkpt>
      <trkpt lat="46.58739" lon="5.48107">
        <ele>370.8</ele>
        <time>2022-04-21T13:44:01Z</time>
      </trkpt>
      <trkpt lat="46.58736" lon="5.48103">
        <ele>371</ele>
        <time>2022-04-21T13:44:02Z</time>
      </trkpt>
      <trkpt lat="46.5872" lon="5.48086">
        <ele>371.6</ele>
        <time>2022-04-21T13:44:07Z</time>
      </trkpt>
      <trkpt lat="46.58716" lon="5.48082">
        <ele>371.8</ele>
        <time>2022-04-21T13:44:08Z</time>
      </trkpt>
      <trkpt lat="46.5871" lon="5.48077">
        <ele>372</ele>
        <time>2022-04-21T13:44:10Z</time>
      </trkpt>
      <trkpt lat="46.58707" lon="5.48073">
        <ele>372.2</ele>
        <time>2022-04-21T13:44:11Z</time>
      </trkpt>
      <trkpt lat="46.58704" lon="5.48068">
        <ele>372.4</ele>
        <time>2022-04-21T13:44:12Z</time>
      </trkpt>
      <trkpt lat="46.58699" lon="5.48058">
        <ele>372.8</ele>
        <time>2022-04-21T13:44:14Z</time>
      </trkpt>
      <trkpt lat="46.58698" lon="5.48054">
        <ele>373</ele>
        <time>2022-04-21T13:44:15Z</time>
      </trkpt>
      <trkpt lat="46.58693" lon="5.48039">
        <ele>373.8</ele>
        <time>2022-04-21T13:44:18Z</time>
      </trkpt>
      <trkpt lat="46.58692" lon="5.48034">
        <ele>374.2</ele>
        <time>2022-04-21T13:44:19Z</time>
      </trkpt>
      <trkpt lat="46.58691" lon="5.48003">
        <ele>375.4</ele>
        <time>2022-04-21T13:44:24Z</time>
      </trkpt>
      <trkpt lat="46.58692" lon="5.47977">
        <ele>376.6</ele>
        <time>2022-04-21T13:44:29Z</time>
      </trkpt>
      <trkpt lat="46.5869" lon="5.47969">
        <ele>376.8</ele>
        <time>2022-04-21T13:44:30Z</time>
      </trkpt>
      <trkpt lat="46.5869" lon="5.47952">
        <ele>377.4</ele>
        <time>2022-04-21T13:44:33Z</time>
      </trkpt>
      <trkpt lat="46.58691" lon="5.47949">
        <ele>377.8</ele>
        <time>2022-04-21T13:44:34Z</time>
      </trkpt>
      <trkpt lat="46.58687" lon="5.47921">
        <ele>378.8</ele>
        <time>2022-04-21T13:44:38Z</time>
      </trkpt>
      <trkpt lat="46.58688" lon="5.47917">
        <ele>379</ele>
        <time>2022-04-21T13:44:39Z</time>
      </trkpt>
      <trkpt lat="46.58692" lon="5.47899">
        <ele>379.8</ele>
        <time>2022-04-21T13:44:42Z</time>
      </trkpt>
      <trkpt lat="46.58691" lon="5.47878">
        <ele>381</ele>
        <time>2022-04-21T13:44:46Z</time>
      </trkpt>
      <trkpt lat="46.58689" lon="5.47845">
        <ele>382.2</ele>
        <time>2022-04-21T13:44:52Z</time>
      </trkpt>
      <trkpt lat="46.58682" lon="5.47823">
        <ele>382.8</ele>
        <time>2022-04-21T13:44:56Z</time>
      </trkpt>
      <trkpt lat="46.58679" lon="5.47819">
        <ele>383</ele>
        <time>2022-04-21T13:44:57Z</time>
      </trkpt>
      <trkpt lat="46.58674" lon="5.47811">
        <ele>383.4</ele>
        <time>2022-04-21T13:44:59Z</time>
      </trkpt>
      <trkpt lat="46.58668" lon="5.47803">
        <ele>383.8</ele>
        <time>2022-04-21T13:45:01Z</time>
      </trkpt>
      <trkpt lat="46.58665" lon="5.47799">
        <ele>384</ele>
        <time>2022-04-21T13:45:02Z</time>
      </trkpt>
      <trkpt lat="46.58658" lon="5.47794">
        <ele>384.2</ele>
        <time>2022-04-21T13:45:04Z</time>
      </trkpt>
      <trkpt lat="46.58649" lon="5.47789">
        <ele>384.6</ele>
        <time>2022-04-21T13:45:06Z</time>
      </trkpt>
      <trkpt lat="46.58637" lon="5.47782">
        <ele>385</ele>
        <time>2022-04-21T13:45:09Z</time>
      </trkpt>
      <trkpt lat="46.58623" lon="5.47776">
        <ele>385.6</ele>
        <time>2022-04-21T13:45:13Z</time>
      </trkpt>
      <trkpt lat="46.58603" lon="5.47768">
        <ele>386.8</ele>
        <time>2022-04-21T13:45:18Z</time>
      </trkpt>
      <trkpt lat="46.58599" lon="5.47767">
        <ele>386.8</ele>
        <time>2022-04-21T13:45:19Z</time>
      </trkpt>
      <trkpt lat="46.5858" lon="5.47766">
        <ele>387.8</ele>
        <time>2022-04-21T13:45:24Z</time>
      </trkpt>
      <trkpt lat="46.58572" lon="5.47768">
        <ele>388.2</ele>
        <time>2022-04-21T13:45:26Z</time>
      </trkpt>
      <trkpt lat="46.58562" lon="5.47772">
        <ele>388.8</ele>
        <time>2022-04-21T13:45:29Z</time>
      </trkpt>
      <trkpt lat="46.58551" lon="5.4778">
        <ele>389.8</ele>
        <time>2022-04-21T13:45:32Z</time>
      </trkpt>
      <trkpt lat="46.58548" lon="5.47782">
        <ele>389.8</ele>
        <time>2022-04-21T13:45:33Z</time>
      </trkpt>
      <trkpt lat="46.58535" lon="5.47792">
        <ele>391</ele>
        <time>2022-04-21T13:45:37Z</time>
      </trkpt>
      <trkpt lat="46.58531" lon="5.47795">
        <ele>391.2</ele>
        <time>2022-04-21T13:45:38Z</time>
      </trkpt>
      <trkpt lat="46.58513" lon="5.47809">
        <ele>392</ele>
        <time>2022-04-21T13:45:43Z</time>
      </trkpt>
      <trkpt lat="46.58506" lon="5.47815">
        <ele>392.2</ele>
        <time>2022-04-21T13:45:45Z</time>
      </trkpt>
      <trkpt lat="46.58491" lon="5.47829">
        <ele>393.2</ele>
        <time>2022-04-21T13:45:49Z</time>
      </trkpt>
      <trkpt lat="46.58487" lon="5.47833">
        <ele>393.4</ele>
        <time>2022-04-21T13:45:50Z</time>
      </trkpt>
      <trkpt lat="46.58471" lon="5.4785">
        <ele>394.2</ele>
        <time>2022-04-21T13:45:55Z</time>
      </trkpt>
      <trkpt lat="46.58466" lon="5.47858">
        <ele>394.8</ele>
        <time>2022-04-21T13:45:57Z</time>
      </trkpt>
      <trkpt lat="46.58465" lon="5.47875">
        <ele>395.6</ele>
        <time>2022-04-21T13:46:00Z</time>
      </trkpt>
      <trkpt lat="46.58467" lon="5.47879">
        <ele>395.8</ele>
        <time>2022-04-21T13:46:01Z</time>
      </trkpt>
      <trkpt lat="46.5847" lon="5.47883">
        <ele>396.4</ele>
        <time>2022-04-21T13:46:02Z</time>
      </trkpt>
      <trkpt lat="46.58477" lon="5.47884">
        <ele>396.6</ele>
        <time>2022-04-21T13:46:04Z</time>
      </trkpt>
      <trkpt lat="46.58497" lon="5.47876">
        <ele>398</ele>
        <time>2022-04-21T13:46:09Z</time>
      </trkpt>
      <trkpt lat="46.58517" lon="5.47871">
        <ele>399</ele>
        <time>2022-04-21T13:46:14Z</time>
      </trkpt>
      <trkpt lat="46.58525" lon="5.47871">
        <ele>399.2</ele>
        <time>2022-04-21T13:46:16Z</time>
      </trkpt>
      <trkpt lat="46.58529" lon="5.4787">
        <ele>399.4</ele>
        <time>2022-04-21T13:46:17Z</time>
      </trkpt>
      <trkpt lat="46.5854" lon="5.47871">
        <ele>400</ele>
        <time>2022-04-21T13:46:20Z</time>
      </trkpt>
      <trkpt lat="46.58552" lon="5.47875">
        <ele>400.6</ele>
        <time>2022-04-21T13:46:23Z</time>
      </trkpt>
      <trkpt lat="46.58563" lon="5.47881">
        <ele>401.4</ele>
        <time>2022-04-21T13:46:26Z</time>
      </trkpt>
      <trkpt lat="46.58572" lon="5.47892">
        <ele>401.6</ele>
        <time>2022-04-21T13:46:29Z</time>
      </trkpt>
      <trkpt lat="46.5858" lon="5.47904">
        <ele>402.2</ele>
        <time>2022-04-21T13:46:32Z</time>
      </trkpt>
      <trkpt lat="46.58586" lon="5.47919">
        <ele>402.8</ele>
        <time>2022-04-21T13:46:35Z</time>
      </trkpt>
      <trkpt lat="46.58589" lon="5.47931">
        <ele>403.4</ele>
        <time>2022-04-21T13:46:37Z</time>
      </trkpt>
      <trkpt lat="46.58594" lon="5.47962">
        <ele>404.8</ele>
        <time>2022-04-21T13:46:42Z</time>
      </trkpt>
      <trkpt lat="46.58596" lon="5.47985">
        <ele>406</ele>
        <time>2022-04-21T13:46:46Z</time>
      </trkpt>
      <trkpt lat="46.58603" lon="5.4802">
        <ele>406.8</ele>
        <time>2022-04-21T13:46:52Z</time>
      </trkpt>
      <trkpt lat="46.58607" lon="5.48036">
        <ele>407</ele>
        <time>2022-04-21T13:46:55Z</time>
      </trkpt>
      <trkpt lat="46.58615" lon="5.48067">
        <ele>408.2</ele>
        <time>2022-04-21T13:47:01Z</time>
      </trkpt>
      <trkpt lat="46.5862" lon="5.48083">
        <ele>409.4</ele>
        <time>2022-04-21T13:47:04Z</time>
      </trkpt>
      <trkpt lat="46.5863" lon="5.48113">
        <ele>410.4</ele>
        <time>2022-04-21T13:47:10Z</time>
      </trkpt>
      <trkpt lat="46.58637" lon="5.48133">
        <ele>411.2</ele>
        <time>2022-04-21T13:47:14Z</time>
      </trkpt>
      <trkpt lat="46.58638" lon="5.48138">
        <ele>411.4</ele>
        <time>2022-04-21T13:47:15Z</time>
      </trkpt>
      <trkpt lat="46.58647" lon="5.48162">
        <ele>412.4</ele>
        <time>2022-04-21T13:47:20Z</time>
      </trkpt>
      <trkpt lat="46.58648" lon="5.48167">
        <ele>412.6</ele>
        <time>2022-04-21T13:47:21Z</time>
      </trkpt>
      <trkpt lat="46.58651" lon="5.48183">
        <ele>413.6</ele>
        <time>2022-04-21T13:47:24Z</time>
      </trkpt>
      <trkpt lat="46.58651" lon="5.48189">
        <ele>413.6</ele>
        <time>2022-04-21T13:47:25Z</time>
      </trkpt>
      <trkpt lat="46.58655" lon="5.48205">
        <ele>414.6</ele>
        <time>2022-04-21T13:47:28Z</time>
      </trkpt>
      <trkpt lat="46.58659" lon="5.48225">
        <ele>415.8</ele>
        <time>2022-04-21T13:47:32Z</time>
      </trkpt>
      <trkpt lat="46.58659" lon="5.4823">
        <ele>416</ele>
        <time>2022-04-21T13:47:33Z</time>
      </trkpt>
      <trkpt lat="46.58663" lon="5.4825">
        <ele>417</ele>
        <time>2022-04-21T13:47:37Z</time>
      </trkpt>
      <trkpt lat="46.58664" lon="5.48255">
        <ele>417.2</ele>
        <time>2022-04-21T13:47:38Z</time>
      </trkpt>
      <trkpt lat="46.5867" lon="5.48285">
        <ele>418.2</ele>
        <time>2022-04-21T13:47:44Z</time>
      </trkpt>
      <trkpt lat="46.58669" lon="5.48296">
        <ele>418.4</ele>
        <time>2022-04-21T13:47:46Z</time>
      </trkpt>
      <trkpt lat="46.58663" lon="5.48308">
        <ele>419.4</ele>
        <time>2022-04-21T13:47:49Z</time>
      </trkpt>
      <trkpt lat="46.5866" lon="5.48311">
        <ele>419.2</ele>
        <time>2022-04-21T13:47:50Z</time>
      </trkpt>
      <trkpt lat="46.5864" lon="5.48317">
        <ele>420.4</ele>
        <time>2022-04-21T13:47:56Z</time>
      </trkpt>
      <trkpt lat="46.58619" lon="5.48323">
        <ele>421.6</ele>
        <time>2022-04-21T13:48:02Z</time>
      </trkpt>
      <trkpt lat="46.58611" lon="5.48324">
        <ele>422.2</ele>
        <time>2022-04-21T13:48:04Z</time>
      </trkpt>
      <trkpt lat="46.58604" lon="5.48325">
        <ele>422.6</ele>
        <time>2022-04-21T13:48:06Z</time>
      </trkpt>
      <trkpt lat="46.58579" lon="5.48326">
        <ele>423.6</ele>
        <time>2022-04-21T13:48:13Z</time>
      </trkpt>
      <trkpt lat="46.58564" lon="5.48325">
        <ele>424.8</ele>
        <time>2022-04-21T13:48:17Z</time>
      </trkpt>
      <trkpt lat="46.58545" lon="5.48322">
        <ele>425.4</ele>
        <time>2022-04-21T13:48:22Z</time>
      </trkpt>
      <trkpt lat="46.58538" lon="5.4832">
        <ele>425.8</ele>
        <time>2022-04-21T13:48:24Z</time>
      </trkpt>
      <trkpt lat="46.5852" lon="5.48315">
        <ele>426.6</ele>
        <time>2022-04-21T13:48:29Z</time>
      </trkpt>
      <trkpt lat="46.58513" lon="5.48312">
        <ele>427</ele>
        <time>2022-04-21T13:48:31Z</time>
      </trkpt>
      <trkpt lat="46.58499" lon="5.48305">
        <ele>428</ele>
        <time>2022-04-21T13:48:35Z</time>
      </trkpt>
      <trkpt lat="46.58483" lon="5.48294">
        <ele>428.8</ele>
        <time>2022-04-21T13:48:40Z</time>
      </trkpt>
      <trkpt lat="46.58477" lon="5.48289">
        <ele>429.2</ele>
        <time>2022-04-21T13:48:42Z</time>
      </trkpt>
      <trkpt lat="46.58461" lon="5.48275">
        <ele>430.6</ele>
        <time>2022-04-21T13:48:47Z</time>
      </trkpt>
      <trkpt lat="46.58455" lon="5.48269">
        <ele>431</ele>
        <time>2022-04-21T13:48:49Z</time>
      </trkpt>
      <trkpt lat="46.5844" lon="5.48256">
        <ele>431.8</ele>
        <time>2022-04-21T13:48:54Z</time>
      </trkpt>
      <trkpt lat="46.58427" lon="5.48245">
        <ele>432.4</ele>
        <time>2022-04-21T13:48:58Z</time>
      </trkpt>
      <trkpt lat="46.58423" lon="5.48243">
        <ele>432.8</ele>
        <time>2022-04-21T13:48:59Z</time>
      </trkpt>
      <trkpt lat="46.58405" lon="5.4824">
        <ele>433.4</ele>
        <time>2022-04-21T13:49:03Z</time>
      </trkpt>
      <trkpt lat="46.58392" lon="5.4824">
        <ele>433.8</ele>
        <time>2022-04-21T13:49:06Z</time>
      </trkpt>
      <trkpt lat="46.5837" lon="5.48239">
        <ele>434.4</ele>
        <time>2022-04-21T13:49:11Z</time>
      </trkpt>
      <trkpt lat="46.58337" lon="5.48233">
        <ele>435</ele>
        <time>2022-04-21T13:49:17Z</time>
      </trkpt>
      <trkpt lat="46.58332" lon="5.48232">
        <ele>435</ele>
        <time>2022-04-21T13:49:18Z</time>
      </trkpt>
      <trkpt lat="46.58314" lon="5.48229">
        <ele>435.2</ele>
        <time>2022-04-21T13:49:21Z</time>
      </trkpt>
      <trkpt lat="46.58307" lon="5.48227">
        <ele>435.4</ele>
        <time>2022-04-21T13:49:22Z</time>
      </trkpt>
      <trkpt lat="46.58274" lon="5.48219">
        <ele>435.6</ele>
        <time>2022-04-21T13:49:28Z</time>
      </trkpt>
      <trkpt lat="46.58246" lon="5.48211">
        <ele>436</ele>
        <time>2022-04-21T13:49:33Z</time>
      </trkpt>
      <trkpt lat="46.58237" lon="5.48205">
        <ele>436.2</ele>
        <time>2022-04-21T13:49:35Z</time>
      </trkpt>
      <trkpt lat="46.58215" lon="5.48196">
        <ele>436.8</ele>
        <time>2022-04-21T13:49:40Z</time>
      </trkpt>
      <trkpt lat="46.58209" lon="5.48194">
        <ele>437</ele>
        <time>2022-04-21T13:49:42Z</time>
      </trkpt>
      <trkpt lat="46.58206" lon="5.48194">
        <ele>437.2</ele>
        <time>2022-04-21T13:49:43Z</time>
      </trkpt>
      <trkpt lat="46.58203" lon="5.48193">
        <ele>437.4</ele>
        <time>2022-04-21T13:49:44Z</time>
      </trkpt>
      <trkpt lat="46.58195" lon="5.4819">
        <ele>437.8</ele>
        <time>2022-04-21T13:49:46Z</time>
      </trkpt>
      <trkpt lat="46.5819" lon="5.48188">
        <ele>438.2</ele>
        <time>2022-04-21T13:49:47Z</time>
      </trkpt>
      <trkpt lat="46.58185" lon="5.48186">
        <ele>438.2</ele>
        <time>2022-04-21T13:49:48Z</time>
      </trkpt>
      <trkpt lat="46.58181" lon="5.48182">
        <ele>438.6</ele>
        <time>2022-04-21T13:49:49Z</time>
      </trkpt>
      <trkpt lat="46.58171" lon="5.48178">
        <ele>439.4</ele>
        <time>2022-04-21T13:49:52Z</time>
      </trkpt>
      <trkpt lat="46.58167" lon="5.48178">
        <ele>439.6</ele>
        <time>2022-04-21T13:49:53Z</time>
      </trkpt>
      <trkpt lat="46.58156" lon="5.48179">
        <ele>441</ele>
        <time>2022-04-21T13:49:56Z</time>
      </trkpt>
      <trkpt lat="46.58149" lon="5.4818">
        <ele>441.4</ele>
        <time>2022-04-21T13:49:58Z</time>
      </trkpt>
      <trkpt lat="46.58145" lon="5.4818">
        <ele>441.6</ele>
        <time>2022-04-21T13:49:59Z</time>
      </trkpt>
      <trkpt lat="46.58138" lon="5.48179">
        <ele>442.4</ele>
        <time>2022-04-21T13:50:01Z</time>
      </trkpt>
      <trkpt lat="46.58133" lon="5.48178">
        <ele>442.4</ele>
        <time>2022-04-21T13:50:02Z</time>
      </trkpt>
      <trkpt lat="46.58127" lon="5.48176">
        <ele>442.8</ele>
        <time>2022-04-21T13:50:03Z</time>
      </trkpt>
      <trkpt lat="46.58118" lon="5.48161">
        <ele>443.2</ele>
        <time>2022-04-21T13:50:05Z</time>
      </trkpt>
      <trkpt lat="46.58117" lon="5.48154">
        <ele>443.4</ele>
        <time>2022-04-21T13:50:06Z</time>
      </trkpt>
      <trkpt lat="46.58107" lon="5.48123">
        <ele>444.6</ele>
        <time>2022-04-21T13:50:10Z</time>
      </trkpt>
      <trkpt lat="46.58104" lon="5.48102">
        <ele>446</ele>
        <time>2022-04-21T13:50:13Z</time>
      </trkpt>
      <trkpt lat="46.58102" lon="5.48095">
        <ele>446.2</ele>
        <time>2022-04-21T13:50:14Z</time>
      </trkpt>
      <trkpt lat="46.58088" lon="5.48068">
        <ele>447</ele>
        <time>2022-04-21T13:50:19Z</time>
      </trkpt>
      <trkpt lat="46.58068" lon="5.48041">
        <ele>448.4</ele>
        <time>2022-04-21T13:50:24Z</time>
      </trkpt>
      <trkpt lat="46.58065" lon="5.48038">
        <ele>449</ele>
        <time>2022-04-21T13:50:25Z</time>
      </trkpt>
      <trkpt lat="46.5806" lon="5.48035">
        <ele>449.6</ele>
        <time>2022-04-21T13:50:27Z</time>
      </trkpt>
      <trkpt lat="46.58054" lon="5.48032">
        <ele>450</ele>
        <time>2022-04-21T13:50:29Z</time>
      </trkpt>
      <trkpt lat="46.58047" lon="5.48025">
        <ele>450.6</ele>
        <time>2022-04-21T13:50:32Z</time>
      </trkpt>
      <trkpt lat="46.58038" lon="5.48019">
        <ele>451.2</ele>
        <time>2022-04-21T13:50:35Z</time>
      </trkpt>
      <trkpt lat="46.58035" lon="5.48017">
        <ele>451.6</ele>
        <time>2022-04-21T13:50:36Z</time>
      </trkpt>
      <trkpt lat="46.58026" lon="5.48014">
        <ele>452.6</ele>
        <time>2022-04-21T13:50:40Z</time>
      </trkpt>
      <trkpt lat="46.58024" lon="5.48013">
        <ele>452.8</ele>
        <time>2022-04-21T13:50:41Z</time>
      </trkpt>
      <trkpt lat="46.58024" lon="5.48013">
        <ele>453.2</ele>
        <time>2022-04-21T13:50:44Z</time>
      </trkpt>
      <trkpt lat="46.58023" lon="5.48012">
        <ele>453.6</ele>
        <time>2022-04-21T13:50:47Z</time>
      </trkpt>
      <trkpt lat="46.58024" lon="5.48018">
        <ele>454</ele>
        <time>2022-04-21T13:51:34Z</time>
      </trkpt>
      <trkpt lat="46.58024" lon="5.48023">
        <ele>454</ele>
        <time>2022-04-21T13:51:35Z</time>
      </trkpt>
      <trkpt lat="46.58023" lon="5.48049">
        <ele>454.2</ele>
        <time>2022-04-21T13:51:40Z</time>
      </trkpt>
      <trkpt lat="46.58029" lon="5.48067">
        <ele>454.8</ele>
        <time>2022-04-21T13:51:43Z</time>
      </trkpt>
      <trkpt lat="46.58033" lon="5.48078">
        <ele>455.4</ele>
        <time>2022-04-21T13:51:45Z</time>
      </trkpt>
      <trkpt lat="46.5804" lon="5.481">
        <ele>456.4</ele>
        <time>2022-04-21T13:51:49Z</time>
      </trkpt>
      <trkpt lat="46.58046" lon="5.48123">
        <ele>457.2</ele>
        <time>2022-04-21T13:51:53Z</time>
      </trkpt>
      <trkpt lat="46.58047" lon="5.48129">
        <ele>457.4</ele>
        <time>2022-04-21T13:51:54Z</time>
      </trkpt>
      <trkpt lat="46.5805" lon="5.48161">
        <ele>458.2</ele>
        <time>2022-04-21T13:51:59Z</time>
      </trkpt>
      <trkpt lat="46.5805" lon="5.48167">
        <ele>458.2</ele>
        <time>2022-04-21T13:52:00Z</time>
      </trkpt>
      <trkpt lat="46.58048" lon="5.48184">
        <ele>459.2</ele>
        <time>2022-04-21T13:52:03Z</time>
      </trkpt>
      <trkpt lat="46.58043" lon="5.48207">
        <ele>460.4</ele>
        <time>2022-04-21T13:52:08Z</time>
      </trkpt>
      <trkpt lat="46.58041" lon="5.48212">
        <ele>460.6</ele>
        <time>2022-04-21T13:52:09Z</time>
      </trkpt>
      <trkpt lat="46.58034" lon="5.48234">
        <ele>461.6</ele>
        <time>2022-04-21T13:52:13Z</time>
      </trkpt>
      <trkpt lat="46.58026" lon="5.48246">
        <ele>462.6</ele>
        <time>2022-04-21T13:52:16Z</time>
      </trkpt>
      <trkpt lat="46.5801" lon="5.4827">
        <ele>463.8</ele>
        <time>2022-04-21T13:52:22Z</time>
      </trkpt>
      <trkpt lat="46.58" lon="5.4829">
        <ele>464.8</ele>
        <time>2022-04-21T13:52:27Z</time>
      </trkpt>
      <trkpt lat="46.57997" lon="5.48313">
        <ele>466</ele>
        <time>2022-04-21T13:52:32Z</time>
      </trkpt>
      <trkpt lat="46.57998" lon="5.48318">
        <ele>466.2</ele>
        <time>2022-04-21T13:52:33Z</time>
      </trkpt>
      <trkpt lat="46.58006" lon="5.48346">
        <ele>467.4</ele>
        <time>2022-04-21T13:52:38Z</time>
      </trkpt>
      <trkpt lat="46.58009" lon="5.48357">
        <ele>467.6</ele>
        <time>2022-04-21T13:52:40Z</time>
      </trkpt>
      <trkpt lat="46.58014" lon="5.48391">
        <ele>468.4</ele>
        <time>2022-04-21T13:52:46Z</time>
      </trkpt>
      <trkpt lat="46.5801" lon="5.48421">
        <ele>469</ele>
        <time>2022-04-21T13:52:52Z</time>
      </trkpt>
      <trkpt lat="46.58006" lon="5.4843">
        <ele>469.4</ele>
        <time>2022-04-21T13:52:54Z</time>
      </trkpt>
      <trkpt lat="46.58" lon="5.48437">
        <ele>470.2</ele>
        <time>2022-04-21T13:52:57Z</time>
      </trkpt>
      <trkpt lat="46.57997" lon="5.48439">
        <ele>470.4</ele>
        <time>2022-04-21T13:52:58Z</time>
      </trkpt>
      <trkpt lat="46.57983" lon="5.48453">
        <ele>471.6</ele>
        <time>2022-04-21T13:53:02Z</time>
      </trkpt>
      <trkpt lat="46.57969" lon="5.48458">
        <ele>472.6</ele>
        <time>2022-04-21T13:53:06Z</time>
      </trkpt>
      <trkpt lat="46.57956" lon="5.48458">
        <ele>473.2</ele>
        <time>2022-04-21T13:53:10Z</time>
      </trkpt>
      <trkpt lat="46.5794" lon="5.48455">
        <ele>473.8</ele>
        <time>2022-04-21T13:53:15Z</time>
      </trkpt>
      <trkpt lat="46.57934" lon="5.48453">
        <ele>474.6</ele>
        <time>2022-04-21T13:53:17Z</time>
      </trkpt>
      <trkpt lat="46.5793" lon="5.48452">
        <ele>475</ele>
        <time>2022-04-21T13:53:18Z</time>
      </trkpt>
      <trkpt lat="46.57923" lon="5.4845">
        <ele>475.4</ele>
        <time>2022-04-21T13:53:20Z</time>
      </trkpt>
      <trkpt lat="46.57915" lon="5.48447">
        <ele>476</ele>
        <time>2022-04-21T13:53:22Z</time>
      </trkpt>
      <trkpt lat="46.57904" lon="5.48444">
        <ele>476.4</ele>
        <time>2022-04-21T13:53:25Z</time>
      </trkpt>
      <trkpt lat="46.5789" lon="5.48438">
        <ele>476.8</ele>
        <time>2022-04-21T13:53:29Z</time>
      </trkpt>
      <trkpt lat="46.5788" lon="5.48435">
        <ele>477.6</ele>
        <time>2022-04-21T13:53:32Z</time>
      </trkpt>
      <trkpt lat="46.57876" lon="5.48434">
        <ele>477.8</ele>
        <time>2022-04-21T13:53:33Z</time>
      </trkpt>
      <trkpt lat="46.57862" lon="5.48435">
        <ele>478.8</ele>
        <time>2022-04-21T13:53:37Z</time>
      </trkpt>
      <trkpt lat="46.57837" lon="5.48438">
        <ele>480.2</ele>
        <time>2022-04-21T13:53:43Z</time>
      </trkpt>
      <trkpt lat="46.57822" lon="5.48453">
        <ele>481.2</ele>
        <time>2022-04-21T13:53:48Z</time>
      </trkpt>
      <trkpt lat="46.57822" lon="5.48469">
        <ele>481.8</ele>
        <time>2022-04-21T13:53:52Z</time>
      </trkpt>
      <trkpt lat="46.57828" lon="5.48478">
        <ele>482.4</ele>
        <time>2022-04-21T13:53:55Z</time>
      </trkpt>
      <trkpt lat="46.57838" lon="5.48487">
        <ele>483</ele>
        <time>2022-04-21T13:53:58Z</time>
      </trkpt>
      <trkpt lat="46.57842" lon="5.48489">
        <ele>483.4</ele>
        <time>2022-04-21T13:53:59Z</time>
      </trkpt>
      <trkpt lat="46.5786" lon="5.48501">
        <ele>484.4</ele>
        <time>2022-04-21T13:54:04Z</time>
      </trkpt>
      <trkpt lat="46.57864" lon="5.48503">
        <ele>484.6</ele>
        <time>2022-04-21T13:54:05Z</time>
      </trkpt>
      <trkpt lat="46.57881" lon="5.48518">
        <ele>485.6</ele>
        <time>2022-04-21T13:54:10Z</time>
      </trkpt>
      <trkpt lat="46.57889" lon="5.48532">
        <ele>486.6</ele>
        <time>2022-04-21T13:54:13Z</time>
      </trkpt>
      <trkpt lat="46.57897" lon="5.48548">
        <ele>487.6</ele>
        <time>2022-04-21T13:54:16Z</time>
      </trkpt>
      <trkpt lat="46.57899" lon="5.48553">
        <ele>487.6</ele>
        <time>2022-04-21T13:54:17Z</time>
      </trkpt>
      <trkpt lat="46.57914" lon="5.48576">
        <ele>488.4</ele>
        <time>2022-04-21T13:54:22Z</time>
      </trkpt>
      <trkpt lat="46.57917" lon="5.4858">
        <ele>489</ele>
        <time>2022-04-21T13:54:23Z</time>
      </trkpt>
      <trkpt lat="46.5793" lon="5.48596">
        <ele>489.4</ele>
        <time>2022-04-21T13:54:27Z</time>
      </trkpt>
      <trkpt lat="46.57939" lon="5.48607">
        <ele>490.4</ele>
        <time>2022-04-21T13:54:30Z</time>
      </trkpt>
      <trkpt lat="46.57945" lon="5.48615">
        <ele>490.6</ele>
        <time>2022-04-21T13:54:32Z</time>
      </trkpt>
      <trkpt lat="46.57957" lon="5.48628">
        <ele>491.6</ele>
        <time>2022-04-21T13:54:36Z</time>
      </trkpt>
      <trkpt lat="46.57964" lon="5.48635">
        <ele>491.8</ele>
        <time>2022-04-21T13:54:38Z</time>
      </trkpt>
      <trkpt lat="46.57973" lon="5.48646">
        <ele>492.4</ele>
        <time>2022-04-21T13:54:41Z</time>
      </trkpt>
      <trkpt lat="46.57983" lon="5.48653">
        <ele>493.4</ele>
        <time>2022-04-21T13:54:44Z</time>
      </trkpt>
      <trkpt lat="46.57986" lon="5.48655">
        <ele>493.6</ele>
        <time>2022-04-21T13:54:45Z</time>
      </trkpt>
      <trkpt lat="46.58001" lon="5.48664">
        <ele>494.4</ele>
        <time>2022-04-21T13:54:50Z</time>
      </trkpt>
      <trkpt lat="46.58004" lon="5.48666">
        <ele>494.6</ele>
        <time>2022-04-21T13:54:51Z</time>
      </trkpt>
      <trkpt lat="46.58024" lon="5.48682">
        <ele>495.8</ele>
        <time>2022-04-21T13:54:57Z</time>
      </trkpt>
      <trkpt lat="46.58037" lon="5.48694">
        <ele>496.6</ele>
        <time>2022-04-21T13:55:01Z</time>
      </trkpt>
      <trkpt lat="46.58039" lon="5.48698">
        <ele>496.8</ele>
        <time>2022-04-21T13:55:02Z</time>
      </trkpt>
      <trkpt lat="46.58042" lon="5.48701">
        <ele>497.2</ele>
        <time>2022-04-21T13:55:03Z</time>
      </trkpt>
      <trkpt lat="46.58052" lon="5.4871">
        <ele>497.8</ele>
        <time>2022-04-21T13:55:06Z</time>
      </trkpt>
      <trkpt lat="46.58069" lon="5.48722">
        <ele>499</ele>
        <time>2022-04-21T13:55:10Z</time>
      </trkpt>
      <trkpt lat="46.58077" lon="5.48729">
        <ele>499.4</ele>
        <time>2022-04-21T13:55:12Z</time>
      </trkpt>
      <trkpt lat="46.58083" lon="5.48735">
        <ele>500.2</ele>
        <time>2022-04-21T13:55:14Z</time>
      </trkpt>
      <trkpt lat="46.581" lon="5.48747">
        <ele>501</ele>
        <time>2022-04-21T13:55:18Z</time>
      </trkpt>
      <trkpt lat="46.58104" lon="5.4875">
        <ele>501.2</ele>
        <time>2022-04-21T13:55:19Z</time>
      </trkpt>
      <trkpt lat="46.58122" lon="5.48762">
        <ele>502.2</ele>
        <time>2022-04-21T13:55:23Z</time>
      </trkpt>
      <trkpt lat="46.58128" lon="5.48765">
        <ele>502.4</ele>
        <time>2022-04-21T13:55:24Z</time>
      </trkpt>
      <trkpt lat="46.58147" lon="5.48776">
        <ele>503.4</ele>
        <time>2022-04-21T13:55:29Z</time>
      </trkpt>
      <trkpt lat="46.5815" lon="5.48779">
        <ele>503.8</ele>
        <time>2022-04-21T13:55:30Z</time>
      </trkpt>
      <trkpt lat="46.58154" lon="5.48784">
        <ele>504.4</ele>
        <time>2022-04-21T13:55:32Z</time>
      </trkpt>
      <trkpt lat="46.58165" lon="5.4879">
        <ele>504.8</ele>
        <time>2022-04-21T13:55:35Z</time>
      </trkpt>
      <trkpt lat="46.58172" lon="5.48796">
        <ele>505.6</ele>
        <time>2022-04-21T13:55:37Z</time>
      </trkpt>
      <trkpt lat="46.58187" lon="5.48813">
        <ele>506.4</ele>
        <time>2022-04-21T13:55:42Z</time>
      </trkpt>
      <trkpt lat="46.58191" lon="5.48819">
        <ele>506.8</ele>
        <time>2022-04-21T13:55:44Z</time>
      </trkpt>
      <trkpt lat="46.582" lon="5.48826">
        <ele>507.2</ele>
        <time>2022-04-21T13:55:46Z</time>
      </trkpt>
      <trkpt lat="46.58221" lon="5.48842">
        <ele>508</ele>
        <time>2022-04-21T13:55:51Z</time>
      </trkpt>
      <trkpt lat="46.58225" lon="5.48845">
        <ele>508.2</ele>
        <time>2022-04-21T13:55:52Z</time>
      </trkpt>
      <trkpt lat="46.58238" lon="5.48858">
        <ele>508.8</ele>
        <time>2022-04-21T13:55:55Z</time>
      </trkpt>
      <trkpt lat="46.58242" lon="5.48869">
        <ele>509</ele>
        <time>2022-04-21T13:55:57Z</time>
      </trkpt>
      <trkpt lat="46.58242" lon="5.48877">
        <ele>509.2</ele>
        <time>2022-04-21T13:55:58Z</time>
      </trkpt>
      <trkpt lat="46.58238" lon="5.48888">
        <ele>509.4</ele>
        <time>2022-04-21T13:56:00Z</time>
      </trkpt>
      <trkpt lat="46.5823" lon="5.48891">
        <ele>509.6</ele>
        <time>2022-04-21T13:56:02Z</time>
      </trkpt>
      <trkpt lat="46.58226" lon="5.4889">
        <ele>509.6</ele>
        <time>2022-04-21T13:56:03Z</time>
      </trkpt>
      <trkpt lat="46.58222" lon="5.48886">
        <ele>509.6</ele>
        <time>2022-04-21T13:56:04Z</time>
      </trkpt>
      <trkpt lat="46.58218" lon="5.48875">
        <ele>509.8</ele>
        <time>2022-04-21T13:56:06Z</time>
      </trkpt>
      <trkpt lat="46.58216" lon="5.48868">
        <ele>510</ele>
        <time>2022-04-21T13:56:08Z</time>
      </trkpt>
      <trkpt lat="46.58215" lon="5.48865">
        <ele>510.2</ele>
        <time>2022-04-21T13:56:09Z</time>
      </trkpt>
      <trkpt lat="46.58211" lon="5.4886">
        <ele>510.4</ele>
        <time>2022-04-21T13:56:11Z</time>
      </trkpt>
      <trkpt lat="46.58205" lon="5.48856">
        <ele>510.8</ele>
        <time>2022-04-21T13:56:13Z</time>
      </trkpt>
      <trkpt lat="46.58199" lon="5.48851">
        <ele>511.2</ele>
        <time>2022-04-21T13:56:15Z</time>
      </trkpt>
      <trkpt lat="46.58186" lon="5.48841">
        <ele>511.8</ele>
        <time>2022-04-21T13:56:18Z</time>
      </trkpt>
      <trkpt lat="46.5817" lon="5.48833">
        <ele>512.2</ele>
        <time>2022-04-21T13:56:22Z</time>
      </trkpt>
      <trkpt lat="46.58142" lon="5.48821">
        <ele>513.4</ele>
        <time>2022-04-21T13:56:28Z</time>
      </trkpt>
      <trkpt lat="46.58137" lon="5.48819">
        <ele>513.6</ele>
        <time>2022-04-21T13:56:29Z</time>
      </trkpt>
      <trkpt lat="46.58115" lon="5.48816">
        <ele>514.6</ele>
        <time>2022-04-21T13:56:33Z</time>
      </trkpt>
      <trkpt lat="46.58104" lon="5.48816">
        <ele>515.2</ele>
        <time>2022-04-21T13:56:35Z</time>
      </trkpt>
      <trkpt lat="46.58094" lon="5.48816">
        <ele>515.6</ele>
        <time>2022-04-21T13:56:37Z</time>
      </trkpt>
      <trkpt lat="46.58076" lon="5.48821">
        <ele>516.6</ele>
        <time>2022-04-21T13:56:41Z</time>
      </trkpt>
      <trkpt lat="46.58071" lon="5.48822">
        <ele>516.8</ele>
        <time>2022-04-21T13:56:42Z</time>
      </trkpt>
      <trkpt lat="46.58055" lon="5.48839">
        <ele>517.8</ele>
        <time>2022-04-21T13:56:46Z</time>
      </trkpt>
      <trkpt lat="46.58051" lon="5.48843">
        <ele>517.8</ele>
        <time>2022-04-21T13:56:47Z</time>
      </trkpt>
      <trkpt lat="46.58045" lon="5.48853">
        <ele>518.8</ele>
        <time>2022-04-21T13:56:49Z</time>
      </trkpt>
      <trkpt lat="46.58035" lon="5.48872">
        <ele>519.8</ele>
        <time>2022-04-21T13:56:52Z</time>
      </trkpt>
      <trkpt lat="46.58023" lon="5.48898">
        <ele>520.6</ele>
        <time>2022-04-21T13:56:56Z</time>
      </trkpt>
      <trkpt lat="46.58019" lon="5.48904">
        <ele>521.2</ele>
        <time>2022-04-21T13:56:57Z</time>
      </trkpt>
      <trkpt lat="46.58015" lon="5.48909">
        <ele>521.4</ele>
        <time>2022-04-21T13:56:58Z</time>
      </trkpt>
      <trkpt lat="46.58006" lon="5.48912">
        <ele>521.8</ele>
        <time>2022-04-21T13:57:00Z</time>
      </trkpt>
      <trkpt lat="46.57994" lon="5.48911">
        <ele>522.2</ele>
        <time>2022-04-21T13:57:03Z</time>
      </trkpt>
      <trkpt lat="46.57988" lon="5.48908">
        <ele>523</ele>
        <time>2022-04-21T13:57:05Z</time>
      </trkpt>
      <trkpt lat="46.57986" lon="5.48907">
        <ele>523.2</ele>
        <time>2022-04-21T13:57:06Z</time>
      </trkpt>
      <trkpt lat="46.57974" lon="5.48903">
        <ele>523.8</ele>
        <time>2022-04-21T13:57:10Z</time>
      </trkpt>
      <trkpt lat="46.57965" lon="5.48902">
        <ele>524.2</ele>
        <time>2022-04-21T13:57:12Z</time>
      </trkpt>
      <trkpt lat="46.5795" lon="5.489">
        <ele>525.2</ele>
        <time>2022-04-21T13:57:16Z</time>
      </trkpt>
      <trkpt lat="46.57942" lon="5.48899">
        <ele>525.6</ele>
        <time>2022-04-21T13:57:18Z</time>
      </trkpt>
      <trkpt lat="46.57926" lon="5.48894">
        <ele>526.4</ele>
        <time>2022-04-21T13:57:21Z</time>
      </trkpt>
      <trkpt lat="46.57904" lon="5.48897">
        <ele>527.6</ele>
        <time>2022-04-21T13:57:26Z</time>
      </trkpt>
      <trkpt lat="46.579" lon="5.48898">
        <ele>527.8</ele>
        <time>2022-04-21T13:57:27Z</time>
      </trkpt>
      <trkpt lat="46.57882" lon="5.48905">
        <ele>528.6</ele>
        <time>2022-04-21T13:57:31Z</time>
      </trkpt>
      <trkpt lat="46.57876" lon="5.48905">
        <ele>529</ele>
        <time>2022-04-21T13:57:32Z</time>
      </trkpt>
      <trkpt lat="46.57862" lon="5.48904">
        <ele>529.8</ele>
        <time>2022-04-21T13:57:35Z</time>
      </trkpt>
      <trkpt lat="46.57852" lon="5.48905">
        <ele>530.6</ele>
        <time>2022-04-21T13:57:37Z</time>
      </trkpt>
      <trkpt lat="46.57844" lon="5.48906">
        <ele>531.2</ele>
        <time>2022-04-21T13:57:39Z</time>
      </trkpt>
      <trkpt lat="46.57829" lon="5.48906">
        <ele>532</ele>
        <time>2022-04-21T13:57:43Z</time>
      </trkpt>
      <trkpt lat="46.57825" lon="5.48909">
        <ele>532.4</ele>
        <time>2022-04-21T13:57:44Z</time>
      </trkpt>
      <trkpt lat="46.57808" lon="5.48918">
        <ele>533.4</ele>
        <time>2022-04-21T13:57:48Z</time>
      </trkpt>
      <trkpt lat="46.57798" lon="5.48921">
        <ele>533.8</ele>
        <time>2022-04-21T13:57:50Z</time>
      </trkpt>
      <trkpt lat="46.57785" lon="5.48919">
        <ele>534</ele>
        <time>2022-04-21T13:57:52Z</time>
      </trkpt>
      <trkpt lat="46.57749" lon="5.48923">
        <ele>534</ele>
        <time>2022-04-21T13:57:58Z</time>
      </trkpt>
      <trkpt lat="46.57709" lon="5.4893">
        <ele>533.8</ele>
        <time>2022-04-21T13:58:03Z</time>
      </trkpt>
      <trkpt lat="46.57654" lon="5.48936">
        <ele>532</ele>
        <time>2022-04-21T13:58:09Z</time>
      </trkpt>
      <trkpt lat="46.57645" lon="5.48938">
        <ele>531.8</ele>
        <time>2022-04-21T13:58:10Z</time>
      </trkpt>
      <trkpt lat="46.57625" lon="5.48944">
        <ele>530.6</ele>
        <time>2022-04-21T13:58:12Z</time>
      </trkpt>
      <trkpt lat="46.57603" lon="5.48947">
        <ele>530</ele>
        <time>2022-04-21T13:58:14Z</time>
      </trkpt>
      <trkpt lat="46.57592" lon="5.48946">
        <ele>529.4</ele>
        <time>2022-04-21T13:58:15Z</time>
      </trkpt>
      <trkpt lat="46.57581" lon="5.48942">
        <ele>528.6</ele>
        <time>2022-04-21T13:58:16Z</time>
      </trkpt>
      <trkpt lat="46.57571" lon="5.48936">
        <ele>528.4</ele>
        <time>2022-04-21T13:58:17Z</time>
      </trkpt>
      <trkpt lat="46.57561" lon="5.48929">
        <ele>527.6</ele>
        <time>2022-04-21T13:58:18Z</time>
      </trkpt>
      <trkpt lat="46.57551" lon="5.48921">
        <ele>526.8</ele>
        <time>2022-04-21T13:58:19Z</time>
      </trkpt>
      <trkpt lat="46.57526" lon="5.48896">
        <ele>525.4</ele>
        <time>2022-04-21T13:58:22Z</time>
      </trkpt>
      <trkpt lat="46.5751" lon="5.48892">
        <ele>524.4</ele>
        <time>2022-04-21T13:58:24Z</time>
      </trkpt>
      <trkpt lat="46.57502" lon="5.48894">
        <ele>523.6</ele>
        <time>2022-04-21T13:58:25Z</time>
      </trkpt>
      <trkpt lat="46.57494" lon="5.48898">
        <ele>522.6</ele>
        <time>2022-04-21T13:58:26Z</time>
      </trkpt>
      <trkpt lat="46.57483" lon="5.48904">
        <ele>521.4</ele>
        <time>2022-04-21T13:58:28Z</time>
      </trkpt>
      <trkpt lat="46.57491" lon="5.48916">
        <ele>520.4</ele>
        <time>2022-04-21T13:58:30Z</time>
      </trkpt>
      <trkpt lat="46.57515" lon="5.48939">
        <ele>519.6</ele>
        <time>2022-04-21T13:58:32Z</time>
      </trkpt>
      <trkpt lat="46.57527" lon="5.48953">
        <ele>519.4</ele>
        <time>2022-04-21T13:58:33Z</time>
      </trkpt>
      <trkpt lat="46.57543" lon="5.48982">
        <ele>518</ele>
        <time>2022-04-21T13:58:35Z</time>
      </trkpt>
      <trkpt lat="46.57555" lon="5.49012">
        <ele>517.4</ele>
        <time>2022-04-21T13:58:37Z</time>
      </trkpt>
      <trkpt lat="46.57563" lon="5.49044">
        <ele>516.6</ele>
        <time>2022-04-21T13:58:39Z</time>
      </trkpt>
      <trkpt lat="46.57574" lon="5.49091">
        <ele>515.6</ele>
        <time>2022-04-21T13:58:42Z</time>
      </trkpt>
      <trkpt lat="46.57588" lon="5.49137">
        <ele>514.2</ele>
        <time>2022-04-21T13:58:45Z</time>
      </trkpt>
      <trkpt lat="46.57594" lon="5.49152">
        <ele>513.6</ele>
        <time>2022-04-21T13:58:46Z</time>
      </trkpt>
      <trkpt lat="46.576" lon="5.49166">
        <ele>513.2</ele>
        <time>2022-04-21T13:58:47Z</time>
      </trkpt>
      <trkpt lat="46.57613" lon="5.49195">
        <ele>511.4</ele>
        <time>2022-04-21T13:58:49Z</time>
      </trkpt>
      <trkpt lat="46.57626" lon="5.49224">
        <ele>510.2</ele>
        <time>2022-04-21T13:58:51Z</time>
      </trkpt>
      <trkpt lat="46.57632" lon="5.49239">
        <ele>509.6</ele>
        <time>2022-04-21T13:58:52Z</time>
      </trkpt>
      <trkpt lat="46.57637" lon="5.49254">
        <ele>509.2</ele>
        <time>2022-04-21T13:58:53Z</time>
      </trkpt>
      <trkpt lat="46.57647" lon="5.49284">
        <ele>508.2</ele>
        <time>2022-04-21T13:58:55Z</time>
      </trkpt>
      <trkpt lat="46.57649" lon="5.493">
        <ele>507.6</ele>
        <time>2022-04-21T13:58:56Z</time>
      </trkpt>
      <trkpt lat="46.57649" lon="5.49317">
        <ele>507.2</ele>
        <time>2022-04-21T13:58:57Z</time>
      </trkpt>
      <trkpt lat="46.57645" lon="5.49331">
        <ele>506.2</ele>
        <time>2022-04-21T13:58:58Z</time>
      </trkpt>
      <trkpt lat="46.57639" lon="5.49345">
        <ele>505.8</ele>
        <time>2022-04-21T13:58:59Z</time>
      </trkpt>
      <trkpt lat="46.57631" lon="5.49355">
        <ele>505.2</ele>
        <time>2022-04-21T13:59:00Z</time>
      </trkpt>
      <trkpt lat="46.5762" lon="5.4936">
        <ele>504.8</ele>
        <time>2022-04-21T13:59:01Z</time>
      </trkpt>
      <trkpt lat="46.57608" lon="5.4936">
        <ele>504.2</ele>
        <time>2022-04-21T13:59:02Z</time>
      </trkpt>
      <trkpt lat="46.57596" lon="5.49357">
        <ele>504</ele>
        <time>2022-04-21T13:59:03Z</time>
      </trkpt>
      <trkpt lat="46.57575" lon="5.49348">
        <ele>502.2</ele>
        <time>2022-04-21T13:59:05Z</time>
      </trkpt>
      <trkpt lat="46.57565" lon="5.49344">
        <ele>501.8</ele>
        <time>2022-04-21T13:59:06Z</time>
      </trkpt>
      <trkpt lat="46.57543" lon="5.49335">
        <ele>501</ele>
        <time>2022-04-21T13:59:08Z</time>
      </trkpt>
      <trkpt lat="46.57509" lon="5.49326">
        <ele>500</ele>
        <time>2022-04-21T13:59:11Z</time>
      </trkpt>
      <trkpt lat="46.57498" lon="5.49324">
        <ele>499.6</ele>
        <time>2022-04-21T13:59:12Z</time>
      </trkpt>
      <trkpt lat="46.57474" lon="5.49325">
        <ele>498.6</ele>
        <time>2022-04-21T13:59:14Z</time>
      </trkpt>
      <trkpt lat="46.57439" lon="5.49326">
        <ele>497.4</ele>
        <time>2022-04-21T13:59:17Z</time>
      </trkpt>
      <trkpt lat="46.57403" lon="5.49324">
        <ele>496.2</ele>
        <time>2022-04-21T13:59:20Z</time>
      </trkpt>
      <trkpt lat="46.57392" lon="5.49321">
        <ele>495.4</ele>
        <time>2022-04-21T13:59:21Z</time>
      </trkpt>
      <trkpt lat="46.5737" lon="5.49312">
        <ele>494.4</ele>
        <time>2022-04-21T13:59:23Z</time>
      </trkpt>
      <trkpt lat="46.57339" lon="5.49299">
        <ele>493</ele>
        <time>2022-04-21T13:59:26Z</time>
      </trkpt>
      <trkpt lat="46.57295" lon="5.49286">
        <ele>491.8</ele>
        <time>2022-04-21T13:59:30Z</time>
      </trkpt>
      <trkpt lat="46.57285" lon="5.49284">
        <ele>491.8</ele>
        <time>2022-04-21T13:59:31Z</time>
      </trkpt>
      <trkpt lat="46.57221" lon="5.49281">
        <ele>490.8</ele>
        <time>2022-04-21T13:59:37Z</time>
      </trkpt>
      <trkpt lat="46.57199" lon="5.49277">
        <ele>490</ele>
        <time>2022-04-21T13:59:39Z</time>
      </trkpt>
      <trkpt lat="46.57178" lon="5.49269">
        <ele>489.6</ele>
        <time>2022-04-21T13:59:41Z</time>
      </trkpt>
      <trkpt lat="46.57139" lon="5.49248">
        <ele>488.4</ele>
        <time>2022-04-21T13:59:45Z</time>
      </trkpt>
      <trkpt lat="46.57119" lon="5.49241">
        <ele>488.2</ele>
        <time>2022-04-21T13:59:47Z</time>
      </trkpt>
      <trkpt lat="46.57109" lon="5.4924">
        <ele>488</ele>
        <time>2022-04-21T13:59:48Z</time>
      </trkpt>
      <trkpt lat="46.571" lon="5.49239">
        <ele>487.4</ele>
        <time>2022-04-21T13:59:49Z</time>
      </trkpt>
      <trkpt lat="46.57077" lon="5.49239">
        <ele>486.8</ele>
        <time>2022-04-21T13:59:51Z</time>
      </trkpt>
      <trkpt lat="46.57069" lon="5.49238">
        <ele>487</ele>
        <time>2022-04-21T13:59:52Z</time>
      </trkpt>
      <trkpt lat="46.57048" lon="5.49231">
        <ele>486.6</ele>
        <time>2022-04-21T13:59:54Z</time>
      </trkpt>
      <trkpt lat="46.57039" lon="5.49226">
        <ele>486.4</ele>
        <time>2022-04-21T13:59:55Z</time>
      </trkpt>
      <trkpt lat="46.57033" lon="5.49217">
        <ele>486</ele>
        <time>2022-04-21T13:59:56Z</time>
      </trkpt>
      <trkpt lat="46.57018" lon="5.49189">
        <ele>485</ele>
        <time>2022-04-21T13:59:58Z</time>
      </trkpt>
      <trkpt lat="46.57007" lon="5.49177">
        <ele>485</ele>
        <time>2022-04-21T13:59:59Z</time>
      </trkpt>
      <trkpt lat="46.56979" lon="5.49159">
        <ele>484</ele>
        <time>2022-04-21T14:00:02Z</time>
      </trkpt>
      <trkpt lat="46.56925" lon="5.49135">
        <ele>482.4</ele>
        <time>2022-04-21T14:00:07Z</time>
      </trkpt>
      <trkpt lat="46.56905" lon="5.49128">
        <ele>481.6</ele>
        <time>2022-04-21T14:00:09Z</time>
      </trkpt>
      <trkpt lat="46.56883" lon="5.49125">
        <ele>481.2</ele>
        <time>2022-04-21T14:00:11Z</time>
      </trkpt>
      <trkpt lat="46.56874" lon="5.49122">
        <ele>480.8</ele>
        <time>2022-04-21T14:00:12Z</time>
      </trkpt>
      <trkpt lat="46.56864" lon="5.49117">
        <ele>480.6</ele>
        <time>2022-04-21T14:00:13Z</time>
      </trkpt>
      <trkpt lat="46.56856" lon="5.49108">
        <ele>480.4</ele>
        <time>2022-04-21T14:00:14Z</time>
      </trkpt>
      <trkpt lat="46.56849" lon="5.49096">
        <ele>480.4</ele>
        <time>2022-04-21T14:00:15Z</time>
      </trkpt>
      <trkpt lat="46.56844" lon="5.49083">
        <ele>480</ele>
        <time>2022-04-21T14:00:16Z</time>
      </trkpt>
      <trkpt lat="46.56828" lon="5.49041">
        <ele>479</ele>
        <time>2022-04-21T14:00:19Z</time>
      </trkpt>
      <trkpt lat="46.56821" lon="5.49029">
        <ele>478.6</ele>
        <time>2022-04-21T14:00:20Z</time>
      </trkpt>
      <trkpt lat="46.568" lon="5.49002">
        <ele>478.4</ele>
        <time>2022-04-21T14:00:23Z</time>
      </trkpt>
      <trkpt lat="46.56751" lon="5.48966">
        <ele>478</ele>
        <time>2022-04-21T14:00:28Z</time>
      </trkpt>
      <trkpt lat="46.56702" lon="5.48937">
        <ele>477</ele>
        <time>2022-04-21T14:00:33Z</time>
      </trkpt>
      <trkpt lat="46.56691" lon="5.48933">
        <ele>476.8</ele>
        <time>2022-04-21T14:00:34Z</time>
      </trkpt>
      <trkpt lat="46.56651" lon="5.48915">
        <ele>475.8</ele>
        <time>2022-04-21T14:00:38Z</time>
      </trkpt>
      <trkpt lat="46.56602" lon="5.48891">
        <ele>474.6</ele>
        <time>2022-04-21T14:00:43Z</time>
      </trkpt>
      <trkpt lat="46.56584" lon="5.48877">
        <ele>474.4</ele>
        <time>2022-04-21T14:00:45Z</time>
      </trkpt>
      <trkpt lat="46.5657" lon="5.48857">
        <ele>474.2</ele>
        <time>2022-04-21T14:00:47Z</time>
      </trkpt>
      <trkpt lat="46.56559" lon="5.48833">
        <ele>474</ele>
        <time>2022-04-21T14:00:49Z</time>
      </trkpt>
      <trkpt lat="46.56555" lon="5.4882">
        <ele>474</ele>
        <time>2022-04-21T14:00:50Z</time>
      </trkpt>
      <trkpt lat="46.56552" lon="5.48807">
        <ele>473.8</ele>
        <time>2022-04-21T14:00:51Z</time>
      </trkpt>
      <trkpt lat="46.56545" lon="5.48782">
        <ele>473.6</ele>
        <time>2022-04-21T14:00:53Z</time>
      </trkpt>
      <trkpt lat="46.56541" lon="5.48771">
        <ele>473.6</ele>
        <time>2022-04-21T14:00:54Z</time>
      </trkpt>
      <trkpt lat="46.56528" lon="5.48752">
        <ele>473.6</ele>
        <time>2022-04-21T14:00:56Z</time>
      </trkpt>
      <trkpt lat="46.5652" lon="5.48745">
        <ele>473.6</ele>
        <time>2022-04-21T14:00:57Z</time>
      </trkpt>
      <trkpt lat="46.56511" lon="5.4874">
        <ele>473.6</ele>
        <time>2022-04-21T14:00:58Z</time>
      </trkpt>
      <trkpt lat="46.56476" lon="5.48723">
        <ele>473.6</ele>
        <time>2022-04-21T14:01:02Z</time>
      </trkpt>
      <trkpt lat="46.56431" lon="5.48713">
        <ele>473.6</ele>
        <time>2022-04-21T14:01:07Z</time>
      </trkpt>
      <trkpt lat="46.56405" lon="5.48716">
        <ele>473.6</ele>
        <time>2022-04-21T14:01:10Z</time>
      </trkpt>
      <trkpt lat="46.56389" lon="5.48724">
        <ele>473.6</ele>
        <time>2022-04-21T14:01:12Z</time>
      </trkpt>
      <trkpt lat="46.56367" lon="5.48741">
        <ele>473.6</ele>
        <time>2022-04-21T14:01:15Z</time>
      </trkpt>
      <trkpt lat="46.56359" lon="5.48744">
        <ele>473.6</ele>
        <time>2022-04-21T14:01:16Z</time>
      </trkpt>
      <trkpt lat="46.5635" lon="5.48746">
        <ele>473.4</ele>
        <time>2022-04-21T14:01:17Z</time>
      </trkpt>
      <trkpt lat="46.56334" lon="5.4874">
        <ele>473.4</ele>
        <time>2022-04-21T14:01:19Z</time>
      </trkpt>
      <trkpt lat="46.56321" lon="5.48726">
        <ele>473.4</ele>
        <time>2022-04-21T14:01:21Z</time>
      </trkpt>
      <trkpt lat="46.56315" lon="5.48717">
        <ele>473.2</ele>
        <time>2022-04-21T14:01:22Z</time>
      </trkpt>
      <trkpt lat="46.56277" lon="5.48667">
        <ele>473</ele>
        <time>2022-04-21T14:01:28Z</time>
      </trkpt>
      <trkpt lat="46.56261" lon="5.48657">
        <ele>473.2</ele>
        <time>2022-04-21T14:01:30Z</time>
      </trkpt>
      <trkpt lat="46.56245" lon="5.4865">
        <ele>473.4</ele>
        <time>2022-04-21T14:01:32Z</time>
      </trkpt>
      <trkpt lat="46.56189" lon="5.48621">
        <ele>473.6</ele>
        <time>2022-04-21T14:01:39Z</time>
      </trkpt>
      <trkpt lat="46.56176" lon="5.48605">
        <ele>473.6</ele>
        <time>2022-04-21T14:01:41Z</time>
      </trkpt>
      <trkpt lat="46.56165" lon="5.48587">
        <ele>473.6</ele>
        <time>2022-04-21T14:01:43Z</time>
      </trkpt>
      <trkpt lat="46.56152" lon="5.48572">
        <ele>473.6</ele>
        <time>2022-04-21T14:01:45Z</time>
      </trkpt>
      <trkpt lat="46.56137" lon="5.48563">
        <ele>473.8</ele>
        <time>2022-04-21T14:01:47Z</time>
      </trkpt>
      <trkpt lat="46.56096" lon="5.48556">
        <ele>473.8</ele>
        <time>2022-04-21T14:01:52Z</time>
      </trkpt>
      <trkpt lat="46.56039" lon="5.48537">
        <ele>473.8</ele>
        <time>2022-04-21T14:01:59Z</time>
      </trkpt>
      <trkpt lat="46.56002" lon="5.48512">
        <ele>473.8</ele>
        <time>2022-04-21T14:02:04Z</time>
      </trkpt>
      <trkpt lat="46.5597" lon="5.48505">
        <ele>473.8</ele>
        <time>2022-04-21T14:02:08Z</time>
      </trkpt>
      <trkpt lat="46.55908" lon="5.48507">
        <ele>473.6</ele>
        <time>2022-04-21T14:02:15Z</time>
      </trkpt>
      <trkpt lat="46.55871" lon="5.48526">
        <ele>473</ele>
        <time>2022-04-21T14:02:19Z</time>
      </trkpt>
      <trkpt lat="46.55854" lon="5.48545">
        <ele>472.4</ele>
        <time>2022-04-21T14:02:21Z</time>
      </trkpt>
      <trkpt lat="46.55846" lon="5.48557">
        <ele>471.8</ele>
        <time>2022-04-21T14:02:22Z</time>
      </trkpt>
      <trkpt lat="46.55831" lon="5.4858">
        <ele>470.4</ele>
        <time>2022-04-21T14:02:24Z</time>
      </trkpt>
      <trkpt lat="46.55817" lon="5.48603">
        <ele>469.2</ele>
        <time>2022-04-21T14:02:26Z</time>
      </trkpt>
      <trkpt lat="46.55789" lon="5.48646">
        <ele>468</ele>
        <time>2022-04-21T14:02:30Z</time>
      </trkpt>
      <trkpt lat="46.55777" lon="5.48666">
        <ele>468</ele>
        <time>2022-04-21T14:02:32Z</time>
      </trkpt>
      <trkpt lat="46.55773" lon="5.48677">
        <ele>468</ele>
        <time>2022-04-21T14:02:33Z</time>
      </trkpt>
      <trkpt lat="46.55771" lon="5.48689">
        <ele>467.8</ele>
        <time>2022-04-21T14:02:34Z</time>
      </trkpt>
      <trkpt lat="46.55772" lon="5.48716">
        <ele>467.8</ele>
        <time>2022-04-21T14:02:36Z</time>
      </trkpt>
      <trkpt lat="46.55778" lon="5.488">
        <ele>468</ele>
        <time>2022-04-21T14:02:42Z</time>
      </trkpt>
      <trkpt lat="46.55779" lon="5.48813">
        <ele>468</ele>
        <time>2022-04-21T14:02:43Z</time>
      </trkpt>
      <trkpt lat="46.55782" lon="5.48869">
        <ele>468.4</ele>
        <time>2022-04-21T14:02:48Z</time>
      </trkpt>
      <trkpt lat="46.55784" lon="5.48897">
        <ele>469.2</ele>
        <time>2022-04-21T14:02:51Z</time>
      </trkpt>
      <trkpt lat="46.55783" lon="5.48922">
        <ele>469.8</ele>
        <time>2022-04-21T14:02:54Z</time>
      </trkpt>
      <trkpt lat="46.55781" lon="5.48938">
        <ele>470.4</ele>
        <time>2022-04-21T14:02:56Z</time>
      </trkpt>
      <trkpt lat="46.55774" lon="5.48967">
        <ele>471</ele>
        <time>2022-04-21T14:03:00Z</time>
      </trkpt>
      <trkpt lat="46.5577" lon="5.48981">
        <ele>471.4</ele>
        <time>2022-04-21T14:03:02Z</time>
      </trkpt>
      <trkpt lat="46.55768" lon="5.48988">
        <ele>471.8</ele>
        <time>2022-04-21T14:03:03Z</time>
      </trkpt>
      <trkpt lat="46.5576" lon="5.49007">
        <ele>472.4</ele>
        <time>2022-04-21T14:03:06Z</time>
      </trkpt>
      <trkpt lat="46.55757" lon="5.49012">
        <ele>472.8</ele>
        <time>2022-04-21T14:03:07Z</time>
      </trkpt>
      <trkpt lat="46.55742" lon="5.49031">
        <ele>473.8</ele>
        <time>2022-04-21T14:03:11Z</time>
      </trkpt>
      <trkpt lat="46.55734" lon="5.49038">
        <ele>474.4</ele>
        <time>2022-04-21T14:03:13Z</time>
      </trkpt>
      <trkpt lat="46.55727" lon="5.49045">
        <ele>475.2</ele>
        <time>2022-04-21T14:03:15Z</time>
      </trkpt>
      <trkpt lat="46.55713" lon="5.49057">
        <ele>476.6</ele>
        <time>2022-04-21T14:03:19Z</time>
      </trkpt>
      <trkpt lat="46.55709" lon="5.4906">
        <ele>476.8</ele>
        <time>2022-04-21T14:03:20Z</time>
      </trkpt>
      <trkpt lat="46.55699" lon="5.4907">
        <ele>477.8</ele>
        <time>2022-04-21T14:03:23Z</time>
      </trkpt>
      <trkpt lat="46.55691" lon="5.49081">
        <ele>478.2</ele>
        <time>2022-04-21T14:03:26Z</time>
      </trkpt>
      <trkpt lat="46.55683" lon="5.49094">
        <ele>479</ele>
        <time>2022-04-21T14:03:29Z</time>
      </trkpt>
      <trkpt lat="46.55676" lon="5.49106">
        <ele>479.6</ele>
        <time>2022-04-21T14:03:32Z</time>
      </trkpt>
      <trkpt lat="46.55673" lon="5.49112">
        <ele>480</ele>
        <time>2022-04-21T14:03:33Z</time>
      </trkpt>
      <trkpt lat="46.55663" lon="5.49138">
        <ele>481.2</ele>
        <time>2022-04-21T14:03:38Z</time>
      </trkpt>
      <trkpt lat="46.55662" lon="5.49144">
        <ele>481.4</ele>
        <time>2022-04-21T14:03:39Z</time>
      </trkpt>
      <trkpt lat="46.55659" lon="5.49167">
        <ele>482.6</ele>
        <time>2022-04-21T14:03:43Z</time>
      </trkpt>
      <trkpt lat="46.55659" lon="5.49184">
        <ele>483</ele>
        <time>2022-04-21T14:03:46Z</time>
      </trkpt>
      <trkpt lat="46.55659" lon="5.4919">
        <ele>483.6</ele>
        <time>2022-04-21T14:03:47Z</time>
      </trkpt>
      <trkpt lat="46.55664" lon="5.49217">
        <ele>484.8</ele>
        <time>2022-04-21T14:03:52Z</time>
      </trkpt>
      <trkpt lat="46.55673" lon="5.49236">
        <ele>486</ele>
        <time>2022-04-21T14:03:56Z</time>
      </trkpt>
      <trkpt lat="46.55676" lon="5.49241">
        <ele>486.2</ele>
        <time>2022-04-21T14:03:57Z</time>
      </trkpt>
      <trkpt lat="46.55684" lon="5.49253">
        <ele>487</ele>
        <time>2022-04-21T14:04:00Z</time>
      </trkpt>
      <trkpt lat="46.55696" lon="5.49267">
        <ele>488.2</ele>
        <time>2022-04-21T14:04:04Z</time>
      </trkpt>
      <trkpt lat="46.55698" lon="5.49272">
        <ele>488.6</ele>
        <time>2022-04-21T14:04:05Z</time>
      </trkpt>
      <trkpt lat="46.557" lon="5.49288">
        <ele>489.2</ele>
        <time>2022-04-21T14:04:08Z</time>
      </trkpt>
      <trkpt lat="46.55698" lon="5.49292">
        <ele>489.2</ele>
        <time>2022-04-21T14:04:09Z</time>
      </trkpt>
      <trkpt lat="46.55694" lon="5.49295">
        <ele>489.6</ele>
        <time>2022-04-21T14:04:10Z</time>
      </trkpt>
      <trkpt lat="46.5569" lon="5.49296">
        <ele>489.6</ele>
        <time>2022-04-21T14:04:11Z</time>
      </trkpt>
      <trkpt lat="46.55678" lon="5.4929">
        <ele>490.2</ele>
        <time>2022-04-21T14:04:14Z</time>
      </trkpt>
      <trkpt lat="46.55674" lon="5.49286">
        <ele>490.4</ele>
        <time>2022-04-21T14:04:15Z</time>
      </trkpt>
      <trkpt lat="46.55655" lon="5.49273">
        <ele>491.6</ele>
        <time>2022-04-21T14:04:20Z</time>
      </trkpt>
      <trkpt lat="46.55648" lon="5.49269">
        <ele>492.2</ele>
        <time>2022-04-21T14:04:22Z</time>
      </trkpt>
      <trkpt lat="46.5564" lon="5.49264">
        <ele>492.8</ele>
        <time>2022-04-21T14:04:24Z</time>
      </trkpt>
      <trkpt lat="46.55621" lon="5.49253">
        <ele>493.8</ele>
        <time>2022-04-21T14:04:29Z</time>
      </trkpt>
      <trkpt lat="46.55612" lon="5.49248">
        <ele>494.2</ele>
        <time>2022-04-21T14:04:31Z</time>
      </trkpt>
      <trkpt lat="46.55581" lon="5.49232">
        <ele>495</ele>
        <time>2022-04-21T14:04:38Z</time>
      </trkpt>
      <trkpt lat="46.55577" lon="5.4923">
        <ele>495.2</ele>
        <time>2022-04-21T14:04:39Z</time>
      </trkpt>
      <trkpt lat="46.55558" lon="5.49221">
        <ele>496.2</ele>
        <time>2022-04-21T14:04:43Z</time>
      </trkpt>
      <trkpt lat="46.55535" lon="5.49209">
        <ele>496.8</ele>
        <time>2022-04-21T14:04:48Z</time>
      </trkpt>
      <trkpt lat="46.55527" lon="5.49204">
        <ele>497.4</ele>
        <time>2022-04-21T14:04:50Z</time>
      </trkpt>
      <trkpt lat="46.55504" lon="5.49189">
        <ele>497.8</ele>
        <time>2022-04-21T14:04:55Z</time>
      </trkpt>
      <trkpt lat="46.55495" lon="5.4918">
        <ele>498.2</ele>
        <time>2022-04-21T14:04:57Z</time>
      </trkpt>
      <trkpt lat="46.5548" lon="5.49161">
        <ele>498.4</ele>
        <time>2022-04-21T14:05:01Z</time>
      </trkpt>
      <trkpt lat="46.55464" lon="5.49143">
        <ele>498.8</ele>
        <time>2022-04-21T14:05:05Z</time>
      </trkpt>
      <trkpt lat="46.55434" lon="5.49111">
        <ele>499.4</ele>
        <time>2022-04-21T14:05:12Z</time>
      </trkpt>
      <trkpt lat="46.5542" lon="5.491">
        <ele>499.4</ele>
        <time>2022-04-21T14:05:15Z</time>
      </trkpt>
      <trkpt lat="46.55414" lon="5.49098">
        <ele>499.6</ele>
        <time>2022-04-21T14:05:16Z</time>
      </trkpt>
      <trkpt lat="46.55408" lon="5.49097">
        <ele>499.2</ele>
        <time>2022-04-21T14:05:17Z</time>
      </trkpt>
      <trkpt lat="46.55388" lon="5.49101">
        <ele>499.2</ele>
        <time>2022-04-21T14:05:20Z</time>
      </trkpt>
      <trkpt lat="46.5535" lon="5.4911">
        <ele>498.8</ele>
        <time>2022-04-21T14:05:25Z</time>
      </trkpt>
      <trkpt lat="46.55342" lon="5.49115">
        <ele>498.6</ele>
        <time>2022-04-21T14:05:26Z</time>
      </trkpt>
      <trkpt lat="46.55335" lon="5.49122">
        <ele>498.4</ele>
        <time>2022-04-21T14:05:27Z</time>
      </trkpt>
      <trkpt lat="46.55322" lon="5.49145">
        <ele>497.4</ele>
        <time>2022-04-21T14:05:29Z</time>
      </trkpt>
      <trkpt lat="46.55308" lon="5.49181">
        <ele>495.8</ele>
        <time>2022-04-21T14:05:32Z</time>
      </trkpt>
      <trkpt lat="46.55299" lon="5.49202">
        <ele>494.8</ele>
        <time>2022-04-21T14:05:34Z</time>
      </trkpt>
      <trkpt lat="46.55276" lon="5.49244">
        <ele>494.2</ele>
        <time>2022-04-21T14:05:39Z</time>
      </trkpt>
      <trkpt lat="46.55257" lon="5.49276">
        <ele>494.2</ele>
        <time>2022-04-21T14:05:44Z</time>
      </trkpt>
      <trkpt lat="46.5525" lon="5.49289">
        <ele>495</ele>
        <time>2022-04-21T14:05:47Z</time>
      </trkpt>
      <trkpt lat="46.55248" lon="5.49292">
        <ele>495.2</ele>
        <time>2022-04-21T14:05:48Z</time>
      </trkpt>
      <trkpt lat="46.55244" lon="5.49293">
        <ele>495.4</ele>
        <time>2022-04-21T14:05:49Z</time>
      </trkpt>
      <trkpt lat="46.55238" lon="5.49287">
        <ele>495.8</ele>
        <time>2022-04-21T14:05:51Z</time>
      </trkpt>
      <trkpt lat="46.5521" lon="5.49252">
        <ele>496.6</ele>
        <time>2022-04-21T14:05:58Z</time>
      </trkpt>
      <trkpt lat="46.55191" lon="5.49227">
        <ele>497</ele>
        <time>2022-04-21T14:06:02Z</time>
      </trkpt>
      <trkpt lat="46.55177" lon="5.49209">
        <ele>497.6</ele>
        <time>2022-04-21T14:06:05Z</time>
      </trkpt>
      <trkpt lat="46.55169" lon="5.49196">
        <ele>498</ele>
        <time>2022-04-21T14:06:07Z</time>
      </trkpt>
      <trkpt lat="46.55161" lon="5.49183">
        <ele>498.8</ele>
        <time>2022-04-21T14:06:09Z</time>
      </trkpt>
      <trkpt lat="46.55157" lon="5.49169">
        <ele>499.2</ele>
        <time>2022-04-21T14:06:11Z</time>
      </trkpt>
      <trkpt lat="46.55156" lon="5.49161">
        <ele>499.4</ele>
        <time>2022-04-21T14:06:12Z</time>
      </trkpt>
      <trkpt lat="46.55156" lon="5.49135">
        <ele>499.8</ele>
        <time>2022-04-21T14:06:15Z</time>
      </trkpt>
      <trkpt lat="46.55157" lon="5.49072">
        <ele>500.2</ele>
        <time>2022-04-21T14:06:22Z</time>
      </trkpt>
      <trkpt lat="46.55159" lon="5.49024">
        <ele>500.2</ele>
        <time>2022-04-21T14:06:27Z</time>
      </trkpt>
      <trkpt lat="46.5516" lon="5.49006">
        <ele>500.2</ele>
        <time>2022-04-21T14:06:29Z</time>
      </trkpt>
      <trkpt lat="46.5516" lon="5.48996">
        <ele>500.4</ele>
        <time>2022-04-21T14:06:30Z</time>
      </trkpt>
      <trkpt lat="46.55159" lon="5.4895">
        <ele>500.6</ele>
        <time>2022-04-21T14:06:35Z</time>
      </trkpt>
      <trkpt lat="46.55159" lon="5.48941">
        <ele>500.8</ele>
        <time>2022-04-21T14:06:36Z</time>
      </trkpt>
      <trkpt lat="46.55159" lon="5.48916">
        <ele>501.4</ele>
        <time>2022-04-21T14:06:39Z</time>
      </trkpt>
      <trkpt lat="46.55158" lon="5.489">
        <ele>502</ele>
        <time>2022-04-21T14:06:41Z</time>
      </trkpt>
      <trkpt lat="46.55158" lon="5.48886">
        <ele>502.4</ele>
        <time>2022-04-21T14:06:43Z</time>
      </trkpt>
      <trkpt lat="46.55158" lon="5.48857">
        <ele>503.6</ele>
        <time>2022-04-21T14:06:47Z</time>
      </trkpt>
      <trkpt lat="46.55156" lon="5.48836">
        <ele>504.2</ele>
        <time>2022-04-21T14:06:50Z</time>
      </trkpt>
      <trkpt lat="46.55155" lon="5.48822">
        <ele>504.8</ele>
        <time>2022-04-21T14:06:52Z</time>
      </trkpt>
      <trkpt lat="46.55154" lon="5.48808">
        <ele>505.4</ele>
        <time>2022-04-21T14:06:54Z</time>
      </trkpt>
      <trkpt lat="46.55146" lon="5.48778">
        <ele>505.8</ele>
        <time>2022-04-21T14:06:58Z</time>
      </trkpt>
      <trkpt lat="46.55135" lon="5.48748">
        <ele>506.6</ele>
        <time>2022-04-21T14:07:02Z</time>
      </trkpt>
      <trkpt lat="46.55129" lon="5.48734">
        <ele>506.8</ele>
        <time>2022-04-21T14:07:04Z</time>
      </trkpt>
      <trkpt lat="46.55121" lon="5.48722">
        <ele>507</ele>
        <time>2022-04-21T14:07:06Z</time>
      </trkpt>
      <trkpt lat="46.55112" lon="5.48709">
        <ele>507.2</ele>
        <time>2022-04-21T14:07:08Z</time>
      </trkpt>
      <trkpt lat="46.55096" lon="5.48693">
        <ele>507.2</ele>
        <time>2022-04-21T14:07:11Z</time>
      </trkpt>
      <trkpt lat="46.55057" lon="5.4866">
        <ele>507.2</ele>
        <time>2022-04-21T14:07:18Z</time>
      </trkpt>
      <trkpt lat="46.55006" lon="5.48617">
        <ele>507.2</ele>
        <time>2022-04-21T14:07:27Z</time>
      </trkpt>
      <trkpt lat="46.55001" lon="5.48611">
        <ele>507.2</ele>
        <time>2022-04-21T14:07:28Z</time>
      </trkpt>
      <trkpt lat="46.54957" lon="5.48558">
        <ele>507.4</ele>
        <time>2022-04-21T14:07:36Z</time>
      </trkpt>
      <trkpt lat="46.54951" lon="5.48551">
        <ele>507.4</ele>
        <time>2022-04-21T14:07:37Z</time>
      </trkpt>
      <trkpt lat="46.54915" lon="5.48512">
        <ele>507</ele>
        <time>2022-04-21T14:07:43Z</time>
      </trkpt>
      <trkpt lat="46.54892" lon="5.48492">
        <ele>506</ele>
        <time>2022-04-21T14:07:46Z</time>
      </trkpt>
      <trkpt lat="46.54868" lon="5.48476">
        <ele>505.2</ele>
        <time>2022-04-21T14:07:49Z</time>
      </trkpt>
      <trkpt lat="46.5486" lon="5.48471">
        <ele>504.8</ele>
        <time>2022-04-21T14:07:50Z</time>
      </trkpt>
      <trkpt lat="46.54844" lon="5.48461">
        <ele>504.2</ele>
        <time>2022-04-21T14:07:52Z</time>
      </trkpt>
      <trkpt lat="46.54819" lon="5.48448">
        <ele>503.2</ele>
        <time>2022-04-21T14:07:55Z</time>
      </trkpt>
      <trkpt lat="46.54811" lon="5.48443">
        <ele>502.8</ele>
        <time>2022-04-21T14:07:56Z</time>
      </trkpt>
      <trkpt lat="46.54776" lon="5.48427">
        <ele>502</ele>
        <time>2022-04-21T14:08:00Z</time>
      </trkpt>
      <trkpt lat="46.54741" lon="5.48411">
        <ele>501.4</ele>
        <time>2022-04-21T14:08:04Z</time>
      </trkpt>
      <trkpt lat="46.54709" lon="5.48398">
        <ele>500.4</ele>
        <time>2022-04-21T14:08:08Z</time>
      </trkpt>
      <trkpt lat="46.54692" lon="5.48391">
        <ele>499.6</ele>
        <time>2022-04-21T14:08:10Z</time>
      </trkpt>
      <trkpt lat="46.54683" lon="5.48387">
        <ele>499</ele>
        <time>2022-04-21T14:08:11Z</time>
      </trkpt>
      <trkpt lat="46.54648" lon="5.48371">
        <ele>497.6</ele>
        <time>2022-04-21T14:08:15Z</time>
      </trkpt>
      <trkpt lat="46.54604" lon="5.48352">
        <ele>496.4</ele>
        <time>2022-04-21T14:08:20Z</time>
      </trkpt>
      <trkpt lat="46.54596" lon="5.48348">
        <ele>496.4</ele>
        <time>2022-04-21T14:08:21Z</time>
      </trkpt>
      <trkpt lat="46.54549" lon="5.48318">
        <ele>495.4</ele>
        <time>2022-04-21T14:08:26Z</time>
      </trkpt>
      <trkpt lat="46.5454" lon="5.4831">
        <ele>495</ele>
        <time>2022-04-21T14:08:27Z</time>
      </trkpt>
      <trkpt lat="46.5452" lon="5.48294">
        <ele>494.2</ele>
        <time>2022-04-21T14:08:29Z</time>
      </trkpt>
      <trkpt lat="46.5449" lon="5.48267">
        <ele>493</ele>
        <time>2022-04-21T14:08:32Z</time>
      </trkpt>
      <trkpt lat="46.5447" lon="5.4825">
        <ele>492.6</ele>
        <time>2022-04-21T14:08:34Z</time>
      </trkpt>
      <trkpt lat="46.5445" lon="5.48234">
        <ele>491.8</ele>
        <time>2022-04-21T14:08:36Z</time>
      </trkpt>
      <trkpt lat="46.54397" lon="5.48196">
        <ele>490.6</ele>
        <time>2022-04-21T14:08:41Z</time>
      </trkpt>
      <trkpt lat="46.54388" lon="5.48191">
        <ele>490.4</ele>
        <time>2022-04-21T14:08:42Z</time>
      </trkpt>
      <trkpt lat="46.54356" lon="5.48174">
        <ele>489.6</ele>
        <time>2022-04-21T14:08:45Z</time>
      </trkpt>
      <trkpt lat="46.54305" lon="5.48147">
        <ele>488.2</ele>
        <time>2022-04-21T14:08:50Z</time>
      </trkpt>
      <trkpt lat="46.54272" lon="5.48128">
        <ele>487</ele>
        <time>2022-04-21T14:08:53Z</time>
      </trkpt>
      <trkpt lat="46.54253" lon="5.48113">
        <ele>486.4</ele>
        <time>2022-04-21T14:08:55Z</time>
      </trkpt>
      <trkpt lat="46.54227" lon="5.48085">
        <ele>485.8</ele>
        <time>2022-04-21T14:08:58Z</time>
      </trkpt>
      <trkpt lat="46.54212" lon="5.48066">
        <ele>484.8</ele>
        <time>2022-04-21T14:09:00Z</time>
      </trkpt>
      <trkpt lat="46.54195" lon="5.48042">
        <ele>483.6</ele>
        <time>2022-04-21T14:09:02Z</time>
      </trkpt>
      <trkpt lat="46.54174" lon="5.4801">
        <ele>482.6</ele>
        <time>2022-04-21T14:09:05Z</time>
      </trkpt>
      <trkpt lat="46.54148" lon="5.47976">
        <ele>481.6</ele>
        <time>2022-04-21T14:09:08Z</time>
      </trkpt>
      <trkpt lat="46.54112" lon="5.47941">
        <ele>480.6</ele>
        <time>2022-04-21T14:09:12Z</time>
      </trkpt>
      <trkpt lat="46.54102" lon="5.47934">
        <ele>480.2</ele>
        <time>2022-04-21T14:09:13Z</time>
      </trkpt>
      <trkpt lat="46.54061" lon="5.47912">
        <ele>479.4</ele>
        <time>2022-04-21T14:09:17Z</time>
      </trkpt>
      <trkpt lat="46.54053" lon="5.47908">
        <ele>479.2</ele>
        <time>2022-04-21T14:09:18Z</time>
      </trkpt>
      <trkpt lat="46.54008" lon="5.47888">
        <ele>478</ele>
        <time>2022-04-21T14:09:22Z</time>
      </trkpt>
      <trkpt lat="46.53977" lon="5.47874">
        <ele>477</ele>
        <time>2022-04-21T14:09:25Z</time>
      </trkpt>
      <trkpt lat="46.53932" lon="5.47853">
        <ele>475.8</ele>
        <time>2022-04-21T14:09:29Z</time>
      </trkpt>
      <trkpt lat="46.5388" lon="5.47828">
        <ele>474.4</ele>
        <time>2022-04-21T14:09:34Z</time>
      </trkpt>
      <trkpt lat="46.53869" lon="5.47823">
        <ele>474.2</ele>
        <time>2022-04-21T14:09:35Z</time>
      </trkpt>
      <trkpt lat="46.53836" lon="5.47809">
        <ele>473.4</ele>
        <time>2022-04-21T14:09:38Z</time>
      </trkpt>
      <trkpt lat="46.53783" lon="5.47793">
        <ele>472.4</ele>
        <time>2022-04-21T14:09:43Z</time>
      </trkpt>
      <trkpt lat="46.53725" lon="5.4779">
        <ele>471.4</ele>
        <time>2022-04-21T14:09:48Z</time>
      </trkpt>
      <trkpt lat="46.53716" lon="5.47791">
        <ele>471</ele>
        <time>2022-04-21T14:09:49Z</time>
      </trkpt>
      <trkpt lat="46.53691" lon="5.47791">
        <ele>470</ele>
        <time>2022-04-21T14:09:51Z</time>
      </trkpt>
      <trkpt lat="46.53647" lon="5.47794">
        <ele>468.8</ele>
        <time>2022-04-21T14:09:55Z</time>
      </trkpt>
      <trkpt lat="46.53601" lon="5.47805">
        <ele>467.8</ele>
        <time>2022-04-21T14:09:59Z</time>
      </trkpt>
      <trkpt lat="46.53589" lon="5.4781">
        <ele>467.4</ele>
        <time>2022-04-21T14:10:00Z</time>
      </trkpt>
      <trkpt lat="46.53567" lon="5.4782">
        <ele>466.4</ele>
        <time>2022-04-21T14:10:02Z</time>
      </trkpt>
      <trkpt lat="46.53533" lon="5.47837">
        <ele>465.4</ele>
        <time>2022-04-21T14:10:05Z</time>
      </trkpt>
      <trkpt lat="46.53499" lon="5.47852">
        <ele>464.2</ele>
        <time>2022-04-21T14:10:08Z</time>
      </trkpt>
      <trkpt lat="46.53475" lon="5.47864">
        <ele>463.2</ele>
        <time>2022-04-21T14:10:10Z</time>
      </trkpt>
      <trkpt lat="46.53454" lon="5.47874">
        <ele>462.2</ele>
        <time>2022-04-21T14:10:12Z</time>
      </trkpt>
      <trkpt lat="46.53421" lon="5.4789">
        <ele>461.2</ele>
        <time>2022-04-21T14:10:15Z</time>
      </trkpt>
      <trkpt lat="46.53388" lon="5.47906">
        <ele>460.4</ele>
        <time>2022-04-21T14:10:18Z</time>
      </trkpt>
      <trkpt lat="46.53374" lon="5.47912">
        <ele>459.8</ele>
        <time>2022-04-21T14:10:19Z</time>
      </trkpt>
      <trkpt lat="46.53334" lon="5.47931">
        <ele>458.8</ele>
        <time>2022-04-21T14:10:23Z</time>
      </trkpt>
      <trkpt lat="46.53302" lon="5.47947">
        <ele>458.2</ele>
        <time>2022-04-21T14:10:26Z</time>
      </trkpt>
      <trkpt lat="46.5327" lon="5.47962">
        <ele>457.6</ele>
        <time>2022-04-21T14:10:29Z</time>
      </trkpt>
      <trkpt lat="46.53218" lon="5.47982">
        <ele>456.8</ele>
        <time>2022-04-21T14:10:34Z</time>
      </trkpt>
      <trkpt lat="46.53196" lon="5.47987">
        <ele>456.6</ele>
        <time>2022-04-21T14:10:36Z</time>
      </trkpt>
      <trkpt lat="46.53143" lon="5.47995">
        <ele>456.4</ele>
        <time>2022-04-21T14:10:41Z</time>
      </trkpt>
      <trkpt lat="46.53082" lon="5.48004">
        <ele>455.6</ele>
        <time>2022-04-21T14:10:47Z</time>
      </trkpt>
      <trkpt lat="46.53072" lon="5.48005">
        <ele>455.6</ele>
        <time>2022-04-21T14:10:48Z</time>
      </trkpt>
      <trkpt lat="46.53062" lon="5.48006">
        <ele>455.4</ele>
        <time>2022-04-21T14:10:49Z</time>
      </trkpt>
      <trkpt lat="46.53013" lon="5.48007">
        <ele>454.8</ele>
        <time>2022-04-21T14:10:54Z</time>
      </trkpt>
      <trkpt lat="46.52979" lon="5.47997">
        <ele>454.8</ele>
        <time>2022-04-21T14:10:58Z</time>
      </trkpt>
      <trkpt lat="46.52943" lon="5.47979">
        <ele>455.4</ele>
        <time>2022-04-21T14:11:02Z</time>
      </trkpt>
      <trkpt lat="46.52926" lon="5.47969">
        <ele>455.8</ele>
        <time>2022-04-21T14:11:04Z</time>
      </trkpt>
      <trkpt lat="46.52868" lon="5.4794">
        <ele>455.6</ele>
        <time>2022-04-21T14:11:11Z</time>
      </trkpt>
      <trkpt lat="46.52825" lon="5.4792">
        <ele>455.4</ele>
        <time>2022-04-21T14:11:16Z</time>
      </trkpt>
      <trkpt lat="46.52766" lon="5.479">
        <ele>455</ele>
        <time>2022-04-21T14:11:23Z</time>
      </trkpt>
      <trkpt lat="46.5275" lon="5.47894">
        <ele>455</ele>
        <time>2022-04-21T14:11:25Z</time>
      </trkpt>
      <trkpt lat="46.52717" lon="5.47883">
        <ele>454.6</ele>
        <time>2022-04-21T14:11:29Z</time>
      </trkpt>
      <trkpt lat="46.52659" lon="5.47863">
        <ele>455</ele>
        <time>2022-04-21T14:11:36Z</time>
      </trkpt>
      <trkpt lat="46.526" lon="5.47841">
        <ele>454.6</ele>
        <time>2022-04-21T14:11:43Z</time>
      </trkpt>
      <trkpt lat="46.52591" lon="5.47838">
        <ele>454.4</ele>
        <time>2022-04-21T14:11:44Z</time>
      </trkpt>
      <trkpt lat="46.52564" lon="5.47828">
        <ele>453.6</ele>
        <time>2022-04-21T14:11:47Z</time>
      </trkpt>
      <trkpt lat="46.52517" lon="5.47811">
        <ele>453.2</ele>
        <time>2022-04-21T14:11:52Z</time>
      </trkpt>
      <trkpt lat="46.52459" lon="5.47789">
        <ele>452.6</ele>
        <time>2022-04-21T14:11:58Z</time>
      </trkpt>
      <trkpt lat="46.52449" lon="5.47786">
        <ele>452.6</ele>
        <time>2022-04-21T14:11:59Z</time>
      </trkpt>
      <trkpt lat="46.5244" lon="5.47782">
        <ele>452.4</ele>
        <time>2022-04-21T14:12:00Z</time>
      </trkpt>
      <trkpt lat="46.52386" lon="5.4776">
        <ele>451.6</ele>
        <time>2022-04-21T14:12:06Z</time>
      </trkpt>
      <trkpt lat="46.52377" lon="5.47756">
        <ele>451.2</ele>
        <time>2022-04-21T14:12:07Z</time>
      </trkpt>
      <trkpt lat="46.52368" lon="5.47753">
        <ele>451.2</ele>
        <time>2022-04-21T14:12:08Z</time>
      </trkpt>
      <trkpt lat="46.52314" lon="5.47728">
        <ele>450.4</ele>
        <time>2022-04-21T14:12:14Z</time>
      </trkpt>
      <trkpt lat="46.52296" lon="5.4772">
        <ele>450</ele>
        <time>2022-04-21T14:12:16Z</time>
      </trkpt>
      <trkpt lat="46.52244" lon="5.47695">
        <ele>449.6</ele>
        <time>2022-04-21T14:12:22Z</time>
      </trkpt>
      <trkpt lat="46.52228" lon="5.47687">
        <ele>449.4</ele>
        <time>2022-04-21T14:12:24Z</time>
      </trkpt>
      <trkpt lat="46.52176" lon="5.47661">
        <ele>449.6</ele>
        <time>2022-04-21T14:12:30Z</time>
      </trkpt>
      <trkpt lat="46.52168" lon="5.47657">
        <ele>449.6</ele>
        <time>2022-04-21T14:12:31Z</time>
      </trkpt>
      <trkpt lat="46.52113" lon="5.47629">
        <ele>450</ele>
        <time>2022-04-21T14:12:38Z</time>
      </trkpt>
      <trkpt lat="46.52105" lon="5.47626">
        <ele>450</ele>
        <time>2022-04-21T14:12:39Z</time>
      </trkpt>
      <trkpt lat="46.52046" lon="5.47602">
        <ele>450.2</ele>
        <time>2022-04-21T14:12:46Z</time>
      </trkpt>
      <trkpt lat="46.52029" lon="5.47595">
        <ele>450.2</ele>
        <time>2022-04-21T14:12:48Z</time>
      </trkpt>
      <trkpt lat="46.51969" lon="5.4757">
        <ele>449.4</ele>
        <time>2022-04-21T14:12:55Z</time>
      </trkpt>
      <trkpt lat="46.51952" lon="5.47563">
        <ele>449.4</ele>
        <time>2022-04-21T14:12:57Z</time>
      </trkpt>
      <trkpt lat="46.51894" lon="5.4754">
        <ele>449.4</ele>
        <time>2022-04-21T14:13:04Z</time>
      </trkpt>
      <trkpt lat="46.51868" lon="5.4753">
        <ele>449.2</ele>
        <time>2022-04-21T14:13:07Z</time>
      </trkpt>
      <trkpt lat="46.51844" lon="5.47521">
        <ele>449</ele>
        <time>2022-04-21T14:13:10Z</time>
      </trkpt>
      <trkpt lat="46.51794" lon="5.475">
        <ele>448.8</ele>
        <time>2022-04-21T14:13:16Z</time>
      </trkpt>
      <trkpt lat="46.51734" lon="5.47477">
        <ele>448.6</ele>
        <time>2022-04-21T14:13:23Z</time>
      </trkpt>
      <trkpt lat="46.51717" lon="5.4747">
        <ele>448.6</ele>
        <time>2022-04-21T14:13:25Z</time>
      </trkpt>
      <trkpt lat="46.51672" lon="5.47451">
        <ele>448.2</ele>
        <time>2022-04-21T14:13:30Z</time>
      </trkpt>
      <trkpt lat="46.51648" lon="5.47441">
        <ele>448</ele>
        <time>2022-04-21T14:13:33Z</time>
      </trkpt>
      <trkpt lat="46.51593" lon="5.47418">
        <ele>447.8</ele>
        <time>2022-04-21T14:13:39Z</time>
      </trkpt>
      <trkpt lat="46.51568" lon="5.47408">
        <ele>447.8</ele>
        <time>2022-04-21T14:13:42Z</time>
      </trkpt>
      <trkpt lat="46.51509" lon="5.47384">
        <ele>447.4</ele>
        <time>2022-04-21T14:13:49Z</time>
      </trkpt>
      <trkpt lat="46.51492" lon="5.47377">
        <ele>447.2</ele>
        <time>2022-04-21T14:13:51Z</time>
      </trkpt>
      <trkpt lat="46.51475" lon="5.47371">
        <ele>446.8</ele>
        <time>2022-04-21T14:13:53Z</time>
      </trkpt>
      <trkpt lat="46.51432" lon="5.47353">
        <ele>446.6</ele>
        <time>2022-04-21T14:13:58Z</time>
      </trkpt>
      <trkpt lat="46.51378" lon="5.4733">
        <ele>446.4</ele>
        <time>2022-04-21T14:14:04Z</time>
      </trkpt>
      <trkpt lat="46.51351" lon="5.4732">
        <ele>446.6</ele>
        <time>2022-04-21T14:14:07Z</time>
      </trkpt>
      <trkpt lat="46.51292" lon="5.47296">
        <ele>446.6</ele>
        <time>2022-04-21T14:14:14Z</time>
      </trkpt>
      <trkpt lat="46.51234" lon="5.47273">
        <ele>446.6</ele>
        <time>2022-04-21T14:14:21Z</time>
      </trkpt>
      <trkpt lat="46.51226" lon="5.47269">
        <ele>446.6</ele>
        <time>2022-04-21T14:14:22Z</time>
      </trkpt>
      <trkpt lat="46.51169" lon="5.47246">
        <ele>446.2</ele>
        <time>2022-04-21T14:14:29Z</time>
      </trkpt>
      <trkpt lat="46.51153" lon="5.4724">
        <ele>446.2</ele>
        <time>2022-04-21T14:14:31Z</time>
      </trkpt>
      <trkpt lat="46.51097" lon="5.47222">
        <ele>446.2</ele>
        <time>2022-04-21T14:14:38Z</time>
      </trkpt>
      <trkpt lat="46.5104" lon="5.47201">
        <ele>446.2</ele>
        <time>2022-04-21T14:14:45Z</time>
      </trkpt>
      <trkpt lat="46.51032" lon="5.47197">
        <ele>446.2</ele>
        <time>2022-04-21T14:14:46Z</time>
      </trkpt>
      <trkpt lat="46.50984" lon="5.47178">
        <ele>446</ele>
        <time>2022-04-21T14:14:52Z</time>
      </trkpt>
      <trkpt lat="46.50927" lon="5.47153">
        <ele>445.6</ele>
        <time>2022-04-21T14:14:59Z</time>
      </trkpt>
      <trkpt lat="46.50911" lon="5.47146">
        <ele>445.6</ele>
        <time>2022-04-21T14:15:01Z</time>
      </trkpt>
      <trkpt lat="46.50856" lon="5.47121">
        <ele>445.6</ele>
        <time>2022-04-21T14:15:08Z</time>
      </trkpt>
      <trkpt lat="46.50839" lon="5.47114">
        <ele>445.4</ele>
        <time>2022-04-21T14:15:10Z</time>
      </trkpt>
      <trkpt lat="46.5078" lon="5.47089">
        <ele>445</ele>
        <time>2022-04-21T14:15:17Z</time>
      </trkpt>
      <trkpt lat="46.50744" lon="5.47074">
        <ele>444.4</ele>
        <time>2022-04-21T14:15:21Z</time>
      </trkpt>
      <trkpt lat="46.50701" lon="5.47057">
        <ele>444</ele>
        <time>2022-04-21T14:15:26Z</time>
      </trkpt>
      <trkpt lat="46.5064" lon="5.47037">
        <ele>444.6</ele>
        <time>2022-04-21T14:15:33Z</time>
      </trkpt>
      <trkpt lat="46.50585" lon="5.47021">
        <ele>443.8</ele>
        <time>2022-04-21T14:15:39Z</time>
      </trkpt>
      <trkpt lat="46.50568" lon="5.47015">
        <ele>443.4</ele>
        <time>2022-04-21T14:15:41Z</time>
      </trkpt>
      <trkpt lat="46.50509" lon="5.46997">
        <ele>443</ele>
        <time>2022-04-21T14:15:48Z</time>
      </trkpt>
      <trkpt lat="46.50466" lon="5.46981">
        <ele>443</ele>
        <time>2022-04-21T14:15:53Z</time>
      </trkpt>
      <trkpt lat="46.50433" lon="5.46971">
        <ele>443.4</ele>
        <time>2022-04-21T14:15:57Z</time>
      </trkpt>
      <trkpt lat="46.50383" lon="5.46962">
        <ele>444.4</ele>
        <time>2022-04-21T14:16:03Z</time>
      </trkpt>
      <trkpt lat="46.50333" lon="5.46963">
        <ele>445</ele>
        <time>2022-04-21T14:16:09Z</time>
      </trkpt>
      <trkpt lat="46.50316" lon="5.46963">
        <ele>445.6</ele>
        <time>2022-04-21T14:16:11Z</time>
      </trkpt>
      <trkpt lat="46.50275" lon="5.46965">
        <ele>446.8</ele>
        <time>2022-04-21T14:16:16Z</time>
      </trkpt>
      <trkpt lat="46.50222" lon="5.4697">
        <ele>447.2</ele>
        <time>2022-04-21T14:16:22Z</time>
      </trkpt>
      <trkpt lat="46.50176" lon="5.46983">
        <ele>447.4</ele>
        <time>2022-04-21T14:16:27Z</time>
      </trkpt>
      <trkpt lat="46.50123" lon="5.47005">
        <ele>447.4</ele>
        <time>2022-04-21T14:16:33Z</time>
      </trkpt>
      <trkpt lat="46.50097" lon="5.47015">
        <ele>447.4</ele>
        <time>2022-04-21T14:16:36Z</time>
      </trkpt>
      <trkpt lat="46.50053" lon="5.47027">
        <ele>447</ele>
        <time>2022-04-21T14:16:41Z</time>
      </trkpt>
      <trkpt lat="46.50034" lon="5.47029">
        <ele>446.6</ele>
        <time>2022-04-21T14:16:43Z</time>
      </trkpt>
      <trkpt lat="46.49979" lon="5.4702">
        <ele>445.6</ele>
        <time>2022-04-21T14:16:49Z</time>
      </trkpt>
      <trkpt lat="46.49926" lon="5.47004">
        <ele>445</ele>
        <time>2022-04-21T14:16:55Z</time>
      </trkpt>
      <trkpt lat="46.49908" lon="5.47001">
        <ele>444.8</ele>
        <time>2022-04-21T14:16:57Z</time>
      </trkpt>
      <trkpt lat="46.4988" lon="5.46995">
        <ele>444.6</ele>
        <time>2022-04-21T14:17:00Z</time>
      </trkpt>
      <trkpt lat="46.49824" lon="5.46984">
        <ele>444.2</ele>
        <time>2022-04-21T14:17:06Z</time>
      </trkpt>
      <trkpt lat="46.49805" lon="5.46981">
        <ele>443.8</ele>
        <time>2022-04-21T14:17:08Z</time>
      </trkpt>
      <trkpt lat="46.49786" lon="5.46977">
        <ele>443.6</ele>
        <time>2022-04-21T14:17:10Z</time>
      </trkpt>
      <trkpt lat="46.49729" lon="5.46967">
        <ele>442.8</ele>
        <time>2022-04-21T14:17:16Z</time>
      </trkpt>
      <trkpt lat="46.49719" lon="5.46966">
        <ele>442.8</ele>
        <time>2022-04-21T14:17:17Z</time>
      </trkpt>
      <trkpt lat="46.497" lon="5.46963">
        <ele>442.4</ele>
        <time>2022-04-21T14:17:19Z</time>
      </trkpt>
      <trkpt lat="46.49642" lon="5.4695">
        <ele>441.6</ele>
        <time>2022-04-21T14:17:25Z</time>
      </trkpt>
      <trkpt lat="46.49632" lon="5.46948">
        <ele>441</ele>
        <time>2022-04-21T14:17:26Z</time>
      </trkpt>
      <trkpt lat="46.49592" lon="5.46936">
        <ele>440</ele>
        <time>2022-04-21T14:17:30Z</time>
      </trkpt>
      <trkpt lat="46.49562" lon="5.46925">
        <ele>439.4</ele>
        <time>2022-04-21T14:17:33Z</time>
      </trkpt>
      <trkpt lat="46.49533" lon="5.46911">
        <ele>439</ele>
        <time>2022-04-21T14:17:36Z</time>
      </trkpt>
      <trkpt lat="46.49493" lon="5.46891">
        <ele>437.8</ele>
        <time>2022-04-21T14:17:40Z</time>
      </trkpt>
      <trkpt lat="46.49442" lon="5.46865">
        <ele>436.4</ele>
        <time>2022-04-21T14:17:45Z</time>
      </trkpt>
      <trkpt lat="46.49412" lon="5.46849">
        <ele>436</ele>
        <time>2022-04-21T14:17:48Z</time>
      </trkpt>
      <trkpt lat="46.49382" lon="5.46835">
        <ele>435.2</ele>
        <time>2022-04-21T14:17:51Z</time>
      </trkpt>
      <trkpt lat="46.49331" lon="5.46808">
        <ele>434</ele>
        <time>2022-04-21T14:17:56Z</time>
      </trkpt>
      <trkpt lat="46.49321" lon="5.46802">
        <ele>433.8</ele>
        <time>2022-04-21T14:17:57Z</time>
      </trkpt>
      <trkpt lat="46.493" lon="5.46789">
        <ele>432.6</ele>
        <time>2022-04-21T14:17:59Z</time>
      </trkpt>
      <trkpt lat="46.49267" lon="5.4677">
        <ele>431.2</ele>
        <time>2022-04-21T14:18:02Z</time>
      </trkpt>
      <trkpt lat="46.49255" lon="5.46764">
        <ele>430.4</ele>
        <time>2022-04-21T14:18:03Z</time>
      </trkpt>
      <trkpt lat="46.49244" lon="5.46757">
        <ele>430.2</ele>
        <time>2022-04-21T14:18:04Z</time>
      </trkpt>
      <trkpt lat="46.4922" lon="5.46747">
        <ele>429.6</ele>
        <time>2022-04-21T14:18:06Z</time>
      </trkpt>
      <trkpt lat="46.49207" lon="5.46744">
        <ele>428.8</ele>
        <time>2022-04-21T14:18:07Z</time>
      </trkpt>
      <trkpt lat="46.49194" lon="5.46743">
        <ele>428</ele>
        <time>2022-04-21T14:18:08Z</time>
      </trkpt>
      <trkpt lat="46.4918" lon="5.46744">
        <ele>427.6</ele>
        <time>2022-04-21T14:18:09Z</time>
      </trkpt>
      <trkpt lat="46.49167" lon="5.46748">
        <ele>426.6</ele>
        <time>2022-04-21T14:18:10Z</time>
      </trkpt>
      <trkpt lat="46.49153" lon="5.46753">
        <ele>426.6</ele>
        <time>2022-04-21T14:18:11Z</time>
      </trkpt>
      <trkpt lat="46.4914" lon="5.46761">
        <ele>425.8</ele>
        <time>2022-04-21T14:18:12Z</time>
      </trkpt>
      <trkpt lat="46.49127" lon="5.46771">
        <ele>425.4</ele>
        <time>2022-04-21T14:18:13Z</time>
      </trkpt>
      <trkpt lat="46.49115" lon="5.46781">
        <ele>424.2</ele>
        <time>2022-04-21T14:18:14Z</time>
      </trkpt>
      <trkpt lat="46.491" lon="5.46794">
        <ele>423.2</ele>
        <time>2022-04-21T14:18:15Z</time>
      </trkpt>
      <trkpt lat="46.49078" lon="5.46813">
        <ele>421.6</ele>
        <time>2022-04-21T14:18:17Z</time>
      </trkpt>
      <trkpt lat="46.49052" lon="5.46837">
        <ele>419.8</ele>
        <time>2022-04-21T14:18:19Z</time>
      </trkpt>
      <trkpt lat="46.49029" lon="5.46859">
        <ele>418.6</ele>
        <time>2022-04-21T14:18:21Z</time>
      </trkpt>
      <trkpt lat="46.49006" lon="5.46879">
        <ele>417</ele>
        <time>2022-04-21T14:18:23Z</time>
      </trkpt>
      <trkpt lat="46.48994" lon="5.46889">
        <ele>416.4</ele>
        <time>2022-04-21T14:18:24Z</time>
      </trkpt>
      <trkpt lat="46.48968" lon="5.46909">
        <ele>415</ele>
        <time>2022-04-21T14:18:26Z</time>
      </trkpt>
      <trkpt lat="46.48954" lon="5.46916">
        <ele>414.6</ele>
        <time>2022-04-21T14:18:27Z</time>
      </trkpt>
      <trkpt lat="46.48939" lon="5.4692">
        <ele>413</ele>
        <time>2022-04-21T14:18:28Z</time>
      </trkpt>
      <trkpt lat="46.48924" lon="5.46922">
        <ele>412</ele>
        <time>2022-04-21T14:18:29Z</time>
      </trkpt>
      <trkpt lat="46.48909" lon="5.46921">
        <ele>411.2</ele>
        <time>2022-04-21T14:18:30Z</time>
      </trkpt>
      <trkpt lat="46.48894" lon="5.46918">
        <ele>410.2</ele>
        <time>2022-04-21T14:18:31Z</time>
      </trkpt>
      <trkpt lat="46.48864" lon="5.4691">
        <ele>408.6</ele>
        <time>2022-04-21T14:18:33Z</time>
      </trkpt>
      <trkpt lat="46.4885" lon="5.46904">
        <ele>408.2</ele>
        <time>2022-04-21T14:18:34Z</time>
      </trkpt>
      <trkpt lat="46.48833" lon="5.46896">
        <ele>407</ele>
        <time>2022-04-21T14:18:35Z</time>
      </trkpt>
      <trkpt lat="46.48805" lon="5.4688">
        <ele>405.8</ele>
        <time>2022-04-21T14:18:37Z</time>
      </trkpt>
      <trkpt lat="46.48794" lon="5.46873">
        <ele>404.6</ele>
        <time>2022-04-21T14:18:38Z</time>
      </trkpt>
      <trkpt lat="46.48765" lon="5.46855">
        <ele>402.6</ele>
        <time>2022-04-21T14:18:40Z</time>
      </trkpt>
      <trkpt lat="46.48741" lon="5.4684">
        <ele>401.6</ele>
        <time>2022-04-21T14:18:42Z</time>
      </trkpt>
      <trkpt lat="46.48713" lon="5.46823">
        <ele>400.2</ele>
        <time>2022-04-21T14:18:44Z</time>
      </trkpt>
      <trkpt lat="46.4869" lon="5.46809">
        <ele>399</ele>
        <time>2022-04-21T14:18:46Z</time>
      </trkpt>
      <trkpt lat="46.48665" lon="5.46794">
        <ele>397.8</ele>
        <time>2022-04-21T14:18:48Z</time>
      </trkpt>
      <trkpt lat="46.48641" lon="5.46779">
        <ele>396.4</ele>
        <time>2022-04-21T14:18:50Z</time>
      </trkpt>
      <trkpt lat="46.48617" lon="5.46764">
        <ele>395.4</ele>
        <time>2022-04-21T14:18:52Z</time>
      </trkpt>
      <trkpt lat="46.48606" lon="5.46757">
        <ele>395.2</ele>
        <time>2022-04-21T14:18:53Z</time>
      </trkpt>
      <trkpt lat="46.48571" lon="5.46737">
        <ele>394.2</ele>
        <time>2022-04-21T14:18:56Z</time>
      </trkpt>
      <trkpt lat="46.48537" lon="5.46716">
        <ele>393</ele>
        <time>2022-04-21T14:18:59Z</time>
      </trkpt>
      <trkpt lat="46.48526" lon="5.4671">
        <ele>392.8</ele>
        <time>2022-04-21T14:19:00Z</time>
      </trkpt>
      <trkpt lat="46.48504" lon="5.46696">
        <ele>392</ele>
        <time>2022-04-21T14:19:02Z</time>
      </trkpt>
      <trkpt lat="46.48471" lon="5.46676">
        <ele>390.6</ele>
        <time>2022-04-21T14:19:05Z</time>
      </trkpt>
      <trkpt lat="46.4846" lon="5.4667">
        <ele>390.2</ele>
        <time>2022-04-21T14:19:06Z</time>
      </trkpt>
      <trkpt lat="46.48418" lon="5.46644">
        <ele>389.4</ele>
        <time>2022-04-21T14:19:10Z</time>
      </trkpt>
      <trkpt lat="46.48377" lon="5.46619">
        <ele>388.8</ele>
        <time>2022-04-21T14:19:14Z</time>
      </trkpt>
      <trkpt lat="46.48328" lon="5.46595">
        <ele>388.6</ele>
        <time>2022-04-21T14:19:19Z</time>
      </trkpt>
      <trkpt lat="46.48318" lon="5.46592">
        <ele>388.4</ele>
        <time>2022-04-21T14:19:20Z</time>
      </trkpt>
      <trkpt lat="46.48308" lon="5.4659">
        <ele>388.4</ele>
        <time>2022-04-21T14:19:21Z</time>
      </trkpt>
      <trkpt lat="46.48277" lon="5.46584">
        <ele>388.2</ele>
        <time>2022-04-21T14:19:24Z</time>
      </trkpt>
      <trkpt lat="46.48217" lon="5.46574">
        <ele>388.4</ele>
        <time>2022-04-21T14:19:30Z</time>
      </trkpt>
      <trkpt lat="46.48207" lon="5.46572">
        <ele>388.6</ele>
        <time>2022-04-21T14:19:31Z</time>
      </trkpt>
      <trkpt lat="46.48198" lon="5.4657">
        <ele>388.6</ele>
        <time>2022-04-21T14:19:32Z</time>
      </trkpt>
      <trkpt lat="46.48142" lon="5.46561">
        <ele>388.8</ele>
        <time>2022-04-21T14:19:38Z</time>
      </trkpt>
      <trkpt lat="46.48124" lon="5.46557">
        <ele>389</ele>
        <time>2022-04-21T14:19:40Z</time>
      </trkpt>
      <trkpt lat="46.4807" lon="5.46548">
        <ele>389.2</ele>
        <time>2022-04-21T14:19:46Z</time>
      </trkpt>
      <trkpt lat="46.48044" lon="5.46543">
        <ele>389.2</ele>
        <time>2022-04-21T14:19:49Z</time>
      </trkpt>
      <trkpt lat="46.47982" lon="5.46533">
        <ele>389.4</ele>
        <time>2022-04-21T14:19:56Z</time>
      </trkpt>
      <trkpt lat="46.47956" lon="5.46527">
        <ele>389.4</ele>
        <time>2022-04-21T14:19:59Z</time>
      </trkpt>
      <trkpt lat="46.47902" lon="5.46518">
        <ele>389.4</ele>
        <time>2022-04-21T14:20:05Z</time>
      </trkpt>
      <trkpt lat="46.47857" lon="5.4651">
        <ele>389.2</ele>
        <time>2022-04-21T14:20:10Z</time>
      </trkpt>
      <trkpt lat="46.47802" lon="5.465">
        <ele>389</ele>
        <time>2022-04-21T14:20:16Z</time>
      </trkpt>
      <trkpt lat="46.47775" lon="5.46495">
        <ele>389.2</ele>
        <time>2022-04-21T14:20:19Z</time>
      </trkpt>
      <trkpt lat="46.47719" lon="5.46484">
        <ele>389</ele>
        <time>2022-04-21T14:20:25Z</time>
      </trkpt>
      <trkpt lat="46.47701" lon="5.46481">
        <ele>389</ele>
        <time>2022-04-21T14:20:27Z</time>
      </trkpt>
      <trkpt lat="46.47644" lon="5.46471">
        <ele>388.6</ele>
        <time>2022-04-21T14:20:33Z</time>
      </trkpt>
      <trkpt lat="46.47596" lon="5.46462">
        <ele>388.2</ele>
        <time>2022-04-21T14:20:38Z</time>
      </trkpt>
      <trkpt lat="46.47537" lon="5.46452">
        <ele>387.8</ele>
        <time>2022-04-21T14:20:44Z</time>
      </trkpt>
      <trkpt lat="46.47526" lon="5.4645">
        <ele>387.6</ele>
        <time>2022-04-21T14:20:45Z</time>
      </trkpt>
      <trkpt lat="46.47516" lon="5.46448">
        <ele>387.4</ele>
        <time>2022-04-21T14:20:46Z</time>
      </trkpt>
      <trkpt lat="46.47464" lon="5.46438">
        <ele>386.6</ele>
        <time>2022-04-21T14:20:51Z</time>
      </trkpt>
      <trkpt lat="46.47419" lon="5.4643">
        <ele>386</ele>
        <time>2022-04-21T14:20:55Z</time>
      </trkpt>
      <trkpt lat="46.47397" lon="5.46426">
        <ele>385.6</ele>
        <time>2022-04-21T14:20:57Z</time>
      </trkpt>
      <trkpt lat="46.47341" lon="5.46416">
        <ele>384.8</ele>
        <time>2022-04-21T14:21:02Z</time>
      </trkpt>
      <trkpt lat="46.47332" lon="5.46415">
        <ele>384.6</ele>
        <time>2022-04-21T14:21:03Z</time>
      </trkpt>
      <trkpt lat="46.47272" lon="5.46404">
        <ele>384.2</ele>
        <time>2022-04-21T14:21:08Z</time>
      </trkpt>
      <trkpt lat="46.47236" lon="5.46398">
        <ele>383.2</ele>
        <time>2022-04-21T14:21:11Z</time>
      </trkpt>
      <trkpt lat="46.47225" lon="5.46396">
        <ele>383.2</ele>
        <time>2022-04-21T14:21:12Z</time>
      </trkpt>
      <trkpt lat="46.47189" lon="5.4639">
        <ele>382.2</ele>
        <time>2022-04-21T14:21:15Z</time>
      </trkpt>
      <trkpt lat="46.47143" lon="5.46381">
        <ele>381.2</ele>
        <time>2022-04-21T14:21:19Z</time>
      </trkpt>
      <trkpt lat="46.47133" lon="5.4638">
        <ele>381</ele>
        <time>2022-04-21T14:21:20Z</time>
      </trkpt>
      <trkpt lat="46.47077" lon="5.46369">
        <ele>380.8</ele>
        <time>2022-04-21T14:21:25Z</time>
      </trkpt>
      <trkpt lat="46.47044" lon="5.46363">
        <ele>380.8</ele>
        <time>2022-04-21T14:21:28Z</time>
      </trkpt>
      <trkpt lat="46.47033" lon="5.46361">
        <ele>380.8</ele>
        <time>2022-04-21T14:21:29Z</time>
      </trkpt>
      <trkpt lat="46.46977" lon="5.46351">
        <ele>380.8</ele>
        <time>2022-04-21T14:21:34Z</time>
      </trkpt>
      <trkpt lat="46.46947" lon="5.46346">
        <ele>380.8</ele>
        <time>2022-04-21T14:21:37Z</time>
      </trkpt>
      <trkpt lat="46.46883" lon="5.46334">
        <ele>380.2</ele>
        <time>2022-04-21T14:21:43Z</time>
      </trkpt>
      <trkpt lat="46.46875" lon="5.46333">
        <ele>380.2</ele>
        <time>2022-04-21T14:21:44Z</time>
      </trkpt>
      <trkpt lat="46.46814" lon="5.46322">
        <ele>380</ele>
        <time>2022-04-21T14:21:50Z</time>
      </trkpt>
      <trkpt lat="46.46752" lon="5.46311">
        <ele>380</ele>
        <time>2022-04-21T14:21:56Z</time>
      </trkpt>
      <trkpt lat="46.46696" lon="5.46301">
        <ele>379.8</ele>
        <time>2022-04-21T14:22:02Z</time>
      </trkpt>
      <trkpt lat="46.46646" lon="5.46292">
        <ele>379.6</ele>
        <time>2022-04-21T14:22:07Z</time>
      </trkpt>
      <trkpt lat="46.4659" lon="5.46282">
        <ele>379.6</ele>
        <time>2022-04-21T14:22:13Z</time>
      </trkpt>
      <trkpt lat="46.46552" lon="5.46275">
        <ele>379.6</ele>
        <time>2022-04-21T14:22:17Z</time>
      </trkpt>
      <trkpt lat="46.46497" lon="5.46265">
        <ele>379.6</ele>
        <time>2022-04-21T14:22:23Z</time>
      </trkpt>
      <trkpt lat="46.4646" lon="5.46258">
        <ele>379.6</ele>
        <time>2022-04-21T14:22:27Z</time>
      </trkpt>
      <trkpt lat="46.46398" lon="5.46247">
        <ele>379.4</ele>
        <time>2022-04-21T14:22:34Z</time>
      </trkpt>
      <trkpt lat="46.46369" lon="5.46242">
        <ele>379.6</ele>
        <time>2022-04-21T14:22:37Z</time>
      </trkpt>
      <trkpt lat="46.46305" lon="5.4623">
        <ele>379.6</ele>
        <time>2022-04-21T14:22:44Z</time>
      </trkpt>
      <trkpt lat="46.4628" lon="5.46226">
        <ele>379.6</ele>
        <time>2022-04-21T14:22:47Z</time>
      </trkpt>
      <trkpt lat="46.46271" lon="5.46225">
        <ele>379.4</ele>
        <time>2022-04-21T14:22:48Z</time>
      </trkpt>
      <trkpt lat="46.46218" lon="5.46215">
        <ele>379.4</ele>
        <time>2022-04-21T14:22:54Z</time>
      </trkpt>
      <trkpt lat="46.46163" lon="5.46206">
        <ele>379.6</ele>
        <time>2022-04-21T14:23:00Z</time>
      </trkpt>
      <trkpt lat="46.46136" lon="5.46201">
        <ele>379.6</ele>
        <time>2022-04-21T14:23:03Z</time>
      </trkpt>
      <trkpt lat="46.4608" lon="5.4619">
        <ele>379.4</ele>
        <time>2022-04-21T14:23:09Z</time>
      </trkpt>
      <trkpt lat="46.46037" lon="5.46183">
        <ele>379.6</ele>
        <time>2022-04-21T14:23:14Z</time>
      </trkpt>
      <trkpt lat="46.45982" lon="5.46173">
        <ele>379.6</ele>
        <time>2022-04-21T14:23:20Z</time>
      </trkpt>
      <trkpt lat="46.45937" lon="5.46165">
        <ele>379.6</ele>
        <time>2022-04-21T14:23:25Z</time>
      </trkpt>
      <trkpt lat="46.45881" lon="5.46155">
        <ele>379.4</ele>
        <time>2022-04-21T14:23:31Z</time>
      </trkpt>
      <trkpt lat="46.45846" lon="5.46148">
        <ele>379.4</ele>
        <time>2022-04-21T14:23:35Z</time>
      </trkpt>
      <trkpt lat="46.4579" lon="5.46138">
        <ele>379.4</ele>
        <time>2022-04-21T14:23:41Z</time>
      </trkpt>
      <trkpt lat="46.45773" lon="5.46135">
        <ele>379.4</ele>
        <time>2022-04-21T14:23:43Z</time>
      </trkpt>
      <trkpt lat="46.45718" lon="5.46126">
        <ele>379.4</ele>
        <time>2022-04-21T14:23:49Z</time>
      </trkpt>
      <trkpt lat="46.45693" lon="5.46122">
        <ele>379.4</ele>
        <time>2022-04-21T14:23:52Z</time>
      </trkpt>
      <trkpt lat="46.45637" lon="5.46112">
        <ele>379.6</ele>
        <time>2022-04-21T14:23:58Z</time>
      </trkpt>
      <trkpt lat="46.45611" lon="5.46108">
        <ele>379.6</ele>
        <time>2022-04-21T14:24:01Z</time>
      </trkpt>
      <trkpt lat="46.45556" lon="5.46098">
        <ele>380</ele>
        <time>2022-04-21T14:24:07Z</time>
      </trkpt>
      <trkpt lat="46.4552" lon="5.46092">
        <ele>380.8</ele>
        <time>2022-04-21T14:24:11Z</time>
      </trkpt>
      <trkpt lat="46.45494" lon="5.46087">
        <ele>381.8</ele>
        <time>2022-04-21T14:24:14Z</time>
      </trkpt>
      <trkpt lat="46.45443" lon="5.4608">
        <ele>383</ele>
        <time>2022-04-21T14:24:20Z</time>
      </trkpt>
      <trkpt lat="46.45418" lon="5.46074">
        <ele>383.4</ele>
        <time>2022-04-21T14:24:23Z</time>
      </trkpt>
      <trkpt lat="46.45383" lon="5.46068">
        <ele>384</ele>
        <time>2022-04-21T14:24:27Z</time>
      </trkpt>
      <trkpt lat="46.45354" lon="5.46062">
        <ele>385.2</ele>
        <time>2022-04-21T14:24:31Z</time>
      </trkpt>
      <trkpt lat="46.45299" lon="5.46054">
        <ele>385.6</ele>
        <time>2022-04-21T14:24:38Z</time>
      </trkpt>
      <trkpt lat="46.45253" lon="5.46046">
        <ele>386</ele>
        <time>2022-04-21T14:24:45Z</time>
      </trkpt>
      <trkpt lat="46.45249" lon="5.46028">
        <ele>386</ele>
        <time>2022-04-21T14:24:48Z</time>
      </trkpt>
      <trkpt lat="46.45261" lon="5.46005">
        <ele>385.6</ele>
        <time>2022-04-21T14:24:51Z</time>
      </trkpt>
      <trkpt lat="46.45269" lon="5.45986">
        <ele>385.4</ele>
        <time>2022-04-21T14:24:53Z</time>
      </trkpt>
      <trkpt lat="46.45276" lon="5.45963">
        <ele>385.4</ele>
        <time>2022-04-21T14:24:55Z</time>
      </trkpt>
      <trkpt lat="46.45291" lon="5.45897">
        <ele>384.2</ele>
        <time>2022-04-21T14:25:00Z</time>
      </trkpt>
      <trkpt lat="46.45295" lon="5.45884">
        <ele>383.4</ele>
        <time>2022-04-21T14:25:01Z</time>
      </trkpt>
      <trkpt lat="46.45307" lon="5.45845">
        <ele>382.4</ele>
        <time>2022-04-21T14:25:04Z</time>
      </trkpt>
      <trkpt lat="46.45314" lon="5.45821">
        <ele>381.2</ele>
        <time>2022-04-21T14:25:06Z</time>
      </trkpt>
      <trkpt lat="46.45317" lon="5.45808">
        <ele>381</ele>
        <time>2022-04-21T14:25:07Z</time>
      </trkpt>
      <trkpt lat="46.45326" lon="5.45758">
        <ele>380.4</ele>
        <time>2022-04-21T14:25:11Z</time>
      </trkpt>
      <trkpt lat="46.45328" lon="5.45746">
        <ele>380</ele>
        <time>2022-04-21T14:25:12Z</time>
      </trkpt>
      <trkpt lat="46.45341" lon="5.45662">
        <ele>379.4</ele>
        <time>2022-04-21T14:25:19Z</time>
      </trkpt>
      <trkpt lat="46.45346" lon="5.4564">
        <ele>379.4</ele>
        <time>2022-04-21T14:25:21Z</time>
      </trkpt>
      <trkpt lat="46.45353" lon="5.45621">
        <ele>379.4</ele>
        <time>2022-04-21T14:25:23Z</time>
      </trkpt>
      <trkpt lat="46.45364" lon="5.45607">
        <ele>379.6</ele>
        <time>2022-04-21T14:25:25Z</time>
      </trkpt>
      <trkpt lat="46.45371" lon="5.45602">
        <ele>379.6</ele>
        <time>2022-04-21T14:25:26Z</time>
      </trkpt>
      <trkpt lat="46.45377" lon="5.45599">
        <ele>379.4</ele>
        <time>2022-04-21T14:25:27Z</time>
      </trkpt>
      <trkpt lat="46.4539" lon="5.45596">
        <ele>379.2</ele>
        <time>2022-04-21T14:25:29Z</time>
      </trkpt>
      <trkpt lat="46.45397" lon="5.45596">
        <ele>379.4</ele>
        <time>2022-04-21T14:25:30Z</time>
      </trkpt>
      <trkpt lat="46.45403" lon="5.45597">
        <ele>379.4</ele>
        <time>2022-04-21T14:25:31Z</time>
      </trkpt>
      <trkpt lat="46.45421" lon="5.45606">
        <ele>379.6</ele>
        <time>2022-04-21T14:25:34Z</time>
      </trkpt>
      <trkpt lat="46.45456" lon="5.45636">
        <ele>380.6</ele>
        <time>2022-04-21T14:25:41Z</time>
      </trkpt>
      <trkpt lat="46.45476" lon="5.45651">
        <ele>381.4</ele>
        <time>2022-04-21T14:25:45Z</time>
      </trkpt>
      <trkpt lat="46.4549" lon="5.4566">
        <ele>381.8</ele>
        <time>2022-04-21T14:25:48Z</time>
      </trkpt>
      <trkpt lat="46.45505" lon="5.45669">
        <ele>382.4</ele>
        <time>2022-04-21T14:25:51Z</time>
      </trkpt>
      <trkpt lat="46.45532" lon="5.45685">
        <ele>383.2</ele>
        <time>2022-04-21T14:25:57Z</time>
      </trkpt>
      <trkpt lat="46.45537" lon="5.45688">
        <ele>383.8</ele>
        <time>2022-04-21T14:25:58Z</time>
      </trkpt>
      <trkpt lat="46.45557" lon="5.45697">
        <ele>384.4</ele>
        <time>2022-04-21T14:26:03Z</time>
      </trkpt>
      <trkpt lat="46.45565" lon="5.45701">
        <ele>385</ele>
        <time>2022-04-21T14:26:05Z</time>
      </trkpt>
      <trkpt lat="46.45586" lon="5.45705">
        <ele>386</ele>
        <time>2022-04-21T14:26:10Z</time>
      </trkpt>
      <trkpt lat="46.45593" lon="5.45705">
        <ele>386.8</ele>
        <time>2022-04-21T14:26:12Z</time>
      </trkpt>
      <trkpt lat="46.45605" lon="5.45702">
        <ele>387.4</ele>
        <time>2022-04-21T14:26:15Z</time>
      </trkpt>
      <trkpt lat="46.4561" lon="5.45701">
        <ele>387.4</ele>
        <time>2022-04-21T14:26:16Z</time>
      </trkpt>
      <trkpt lat="46.45623" lon="5.45699">
        <ele>388.4</ele>
        <time>2022-04-21T14:26:19Z</time>
      </trkpt>
      <trkpt lat="46.45645" lon="5.4569">
        <ele>389.2</ele>
        <time>2022-04-21T14:26:24Z</time>
      </trkpt>
      <trkpt lat="46.45649" lon="5.45687">
        <ele>389.2</ele>
        <time>2022-04-21T14:26:25Z</time>
      </trkpt>
      <trkpt lat="46.45659" lon="5.45682">
        <ele>389.4</ele>
        <time>2022-04-21T14:26:27Z</time>
      </trkpt>
      <trkpt lat="46.45674" lon="5.45671">
        <ele>390.6</ele>
        <time>2022-04-21T14:26:31Z</time>
      </trkpt>
      <trkpt lat="46.45683" lon="5.45666">
        <ele>391</ele>
        <time>2022-04-21T14:26:33Z</time>
      </trkpt>
      <trkpt lat="46.45708" lon="5.45651">
        <ele>391.6</ele>
        <time>2022-04-21T14:26:39Z</time>
      </trkpt>
      <trkpt lat="46.4572" lon="5.45644">
        <ele>392</ele>
        <time>2022-04-21T14:26:42Z</time>
      </trkpt>
      <trkpt lat="46.45769" lon="5.45615">
        <ele>392.6</ele>
        <time>2022-04-21T14:26:53Z</time>
      </trkpt>
      <trkpt lat="46.45783" lon="5.45607">
        <ele>392.6</ele>
        <time>2022-04-21T14:26:56Z</time>
      </trkpt>
      <trkpt lat="46.45814" lon="5.4559">
        <ele>392.4</ele>
        <time>2022-04-21T14:27:02Z</time>
      </trkpt>
      <trkpt lat="46.45849" lon="5.4557">
        <ele>392.2</ele>
        <time>2022-04-21T14:27:08Z</time>
      </trkpt>
      <trkpt lat="46.4589" lon="5.45547">
        <ele>391.6</ele>
        <time>2022-04-21T14:27:14Z</time>
      </trkpt>
      <trkpt lat="46.45904" lon="5.4554">
        <ele>391.2</ele>
        <time>2022-04-21T14:27:16Z</time>
      </trkpt>
      <trkpt lat="46.45924" lon="5.45528">
        <ele>390.6</ele>
        <time>2022-04-21T14:27:19Z</time>
      </trkpt>
      <trkpt lat="46.45945" lon="5.45516">
        <ele>389.4</ele>
        <time>2022-04-21T14:27:22Z</time>
      </trkpt>
      <trkpt lat="46.45952" lon="5.45512">
        <ele>389.2</ele>
        <time>2022-04-21T14:27:23Z</time>
      </trkpt>
      <trkpt lat="46.45979" lon="5.45496">
        <ele>388.2</ele>
        <time>2022-04-21T14:27:27Z</time>
      </trkpt>
      <trkpt lat="46.46027" lon="5.45468">
        <ele>387.6</ele>
        <time>2022-04-21T14:27:34Z</time>
      </trkpt>
      <trkpt lat="46.46054" lon="5.45452">
        <ele>387</ele>
        <time>2022-04-21T14:27:38Z</time>
      </trkpt>
      <trkpt lat="46.46087" lon="5.45432">
        <ele>386.4</ele>
        <time>2022-04-21T14:27:43Z</time>
      </trkpt>
      <trkpt lat="46.4612" lon="5.45411">
        <ele>386</ele>
        <time>2022-04-21T14:27:48Z</time>
      </trkpt>
      <trkpt lat="46.4616" lon="5.45385">
        <ele>385.4</ele>
        <time>2022-04-21T14:27:54Z</time>
      </trkpt>
      <trkpt lat="46.46186" lon="5.45366">
        <ele>385.2</ele>
        <time>2022-04-21T14:27:58Z</time>
      </trkpt>
      <trkpt lat="46.46217" lon="5.45343">
        <ele>384.8</ele>
        <time>2022-04-21T14:28:03Z</time>
      </trkpt>
      <trkpt lat="46.46266" lon="5.45306">
        <ele>384.4</ele>
        <time>2022-04-21T14:28:11Z</time>
      </trkpt>
      <trkpt lat="46.46278" lon="5.45296">
        <ele>384.4</ele>
        <time>2022-04-21T14:28:13Z</time>
      </trkpt>
      <trkpt lat="46.46327" lon="5.45256">
        <ele>384.2</ele>
        <time>2022-04-21T14:28:21Z</time>
      </trkpt>
      <trkpt lat="46.46333" lon="5.45251">
        <ele>384</ele>
        <time>2022-04-21T14:28:22Z</time>
      </trkpt>
      <trkpt lat="46.46339" lon="5.45247">
        <ele>383.8</ele>
        <time>2022-04-21T14:28:23Z</time>
      </trkpt>
      <trkpt lat="46.46388" lon="5.45218">
        <ele>383.4</ele>
        <time>2022-04-21T14:28:31Z</time>
      </trkpt>
      <trkpt lat="46.46399" lon="5.45211">
        <ele>383.4</ele>
        <time>2022-04-21T14:28:33Z</time>
      </trkpt>
      <trkpt lat="46.4641" lon="5.45201">
        <ele>383.6</ele>
        <time>2022-04-21T14:28:35Z</time>
      </trkpt>
      <trkpt lat="46.46415" lon="5.45194">
        <ele>383.6</ele>
        <time>2022-04-21T14:28:36Z</time>
      </trkpt>
      <trkpt lat="46.46427" lon="5.45174">
        <ele>383.8</ele>
        <time>2022-04-21T14:28:39Z</time>
      </trkpt>
      <trkpt lat="46.46432" lon="5.4516">
        <ele>383.8</ele>
        <time>2022-04-21T14:28:41Z</time>
      </trkpt>
      <trkpt lat="46.46436" lon="5.45129">
        <ele>383.8</ele>
        <time>2022-04-21T14:28:45Z</time>
      </trkpt>
      <trkpt lat="46.46436" lon="5.45121">
        <ele>383.8</ele>
        <time>2022-04-21T14:28:46Z</time>
      </trkpt>
      <trkpt lat="46.46435" lon="5.45114">
        <ele>384</ele>
        <time>2022-04-21T14:28:47Z</time>
      </trkpt>
      <trkpt lat="46.46429" lon="5.45074">
        <ele>384.2</ele>
        <time>2022-04-21T14:28:52Z</time>
      </trkpt>
      <trkpt lat="46.46414" lon="5.45019">
        <ele>384.2</ele>
        <time>2022-04-21T14:28:59Z</time>
      </trkpt>
      <trkpt lat="46.46403" lon="5.4498">
        <ele>384.2</ele>
        <time>2022-04-21T14:29:03Z</time>
      </trkpt>
      <trkpt lat="46.46393" lon="5.44943">
        <ele>384.2</ele>
        <time>2022-04-21T14:29:07Z</time>
      </trkpt>
      <trkpt lat="46.4639" lon="5.44934">
        <ele>384.2</ele>
        <time>2022-04-21T14:29:08Z</time>
      </trkpt>
      <trkpt lat="46.46367" lon="5.44891">
        <ele>385.4</ele>
        <time>2022-04-21T14:29:14Z</time>
      </trkpt>
      <trkpt lat="46.46364" lon="5.4488">
        <ele>385.6</ele>
        <time>2022-04-21T14:29:15Z</time>
      </trkpt>
      <trkpt lat="46.46358" lon="5.4485">
        <ele>386</ele>
        <time>2022-04-21T14:29:18Z</time>
      </trkpt>
      <trkpt lat="46.46355" lon="5.44811">
        <ele>386.4</ele>
        <time>2022-04-21T14:29:22Z</time>
      </trkpt>
      <trkpt lat="46.46355" lon="5.44786">
        <ele>386.8</ele>
        <time>2022-04-21T14:29:25Z</time>
      </trkpt>
      <trkpt lat="46.46354" lon="5.44753">
        <ele>387.6</ele>
        <time>2022-04-21T14:29:30Z</time>
      </trkpt>
      <trkpt lat="46.46356" lon="5.44736">
        <ele>388.2</ele>
        <time>2022-04-21T14:29:33Z</time>
      </trkpt>
      <trkpt lat="46.46357" lon="5.44725">
        <ele>388.8</ele>
        <time>2022-04-21T14:29:35Z</time>
      </trkpt>
      <trkpt lat="46.46348" lon="5.44713">
        <ele>389.4</ele>
        <time>2022-04-21T14:29:38Z</time>
      </trkpt>
      <trkpt lat="46.46343" lon="5.4471">
        <ele>389.8</ele>
        <time>2022-04-21T14:29:39Z</time>
      </trkpt>
      <trkpt lat="46.46321" lon="5.44699">
        <ele>391</ele>
        <time>2022-04-21T14:29:44Z</time>
      </trkpt>
      <trkpt lat="46.46295" lon="5.44687">
        <ele>392.2</ele>
        <time>2022-04-21T14:29:50Z</time>
      </trkpt>
      <trkpt lat="46.46287" lon="5.44683">
        <ele>392.6</ele>
        <time>2022-04-21T14:29:52Z</time>
      </trkpt>
      <trkpt lat="46.46272" lon="5.44674">
        <ele>393.4</ele>
        <time>2022-04-21T14:29:56Z</time>
      </trkpt>
      <trkpt lat="46.46253" lon="5.44664">
        <ele>394.6</ele>
        <time>2022-04-21T14:30:01Z</time>
      </trkpt>
      <trkpt lat="46.46249" lon="5.44662">
        <ele>394.6</ele>
        <time>2022-04-21T14:30:02Z</time>
      </trkpt>
      <trkpt lat="46.46239" lon="5.44655">
        <ele>395.6</ele>
        <time>2022-04-21T14:30:05Z</time>
      </trkpt>
      <trkpt lat="46.46228" lon="5.44647">
        <ele>396.6</ele>
        <time>2022-04-21T14:30:08Z</time>
      </trkpt>
      <trkpt lat="46.46223" lon="5.44642">
        <ele>397.2</ele>
        <time>2022-04-21T14:30:10Z</time>
      </trkpt>
      <trkpt lat="46.46214" lon="5.44631">
        <ele>397.8</ele>
        <time>2022-04-21T14:30:13Z</time>
      </trkpt>
      <trkpt lat="46.46205" lon="5.44611">
        <ele>398.4</ele>
        <time>2022-04-21T14:30:17Z</time>
      </trkpt>
      <trkpt lat="46.46201" lon="5.446">
        <ele>398.8</ele>
        <time>2022-04-21T14:30:19Z</time>
      </trkpt>
      <trkpt lat="46.46197" lon="5.44577">
        <ele>399.8</ele>
        <time>2022-04-21T14:30:23Z</time>
      </trkpt>
      <trkpt lat="46.46197" lon="5.44571">
        <ele>400</ele>
        <time>2022-04-21T14:30:24Z</time>
      </trkpt>
      <trkpt lat="46.46195" lon="5.44545">
        <ele>401.2</ele>
        <time>2022-04-21T14:30:29Z</time>
      </trkpt>
      <trkpt lat="46.46194" lon="5.44534">
        <ele>402.2</ele>
        <time>2022-04-21T14:30:31Z</time>
      </trkpt>
      <trkpt lat="46.46194" lon="5.44529">
        <ele>402.2</ele>
        <time>2022-04-21T14:30:32Z</time>
      </trkpt>
      <trkpt lat="46.46194" lon="5.44512">
        <ele>403.2</ele>
        <time>2022-04-21T14:30:35Z</time>
      </trkpt>
      <trkpt lat="46.46192" lon="5.44484">
        <ele>404.4</ele>
        <time>2022-04-21T14:30:40Z</time>
      </trkpt>
      <trkpt lat="46.46192" lon="5.44479">
        <ele>404.4</ele>
        <time>2022-04-21T14:30:41Z</time>
      </trkpt>
      <trkpt lat="46.46192" lon="5.44445">
        <ele>405.4</ele>
        <time>2022-04-21T14:30:47Z</time>
      </trkpt>
      <trkpt lat="46.46192" lon="5.44422">
        <ele>406</ele>
        <time>2022-04-21T14:30:51Z</time>
      </trkpt>
      <trkpt lat="46.46192" lon="5.44406">
        <ele>406.6</ele>
        <time>2022-04-21T14:30:54Z</time>
      </trkpt>
      <trkpt lat="46.46192" lon="5.44371">
        <ele>407.6</ele>
        <time>2022-04-21T14:31:00Z</time>
      </trkpt>
      <trkpt lat="46.46194" lon="5.44338">
        <ele>408.8</ele>
        <time>2022-04-21T14:31:06Z</time>
      </trkpt>
      <trkpt lat="46.46194" lon="5.44321">
        <ele>409.4</ele>
        <time>2022-04-21T14:31:09Z</time>
      </trkpt>
      <trkpt lat="46.46194" lon="5.443">
        <ele>410</ele>
        <time>2022-04-21T14:31:13Z</time>
      </trkpt>
      <trkpt lat="46.46192" lon="5.44283">
        <ele>410.6</ele>
        <time>2022-04-21T14:31:16Z</time>
      </trkpt>
      <trkpt lat="46.46189" lon="5.44266">
        <ele>411</ele>
        <time>2022-04-21T14:31:19Z</time>
      </trkpt>
      <trkpt lat="46.46185" lon="5.4425">
        <ele>412.2</ele>
        <time>2022-04-21T14:31:22Z</time>
      </trkpt>
      <trkpt lat="46.46182" lon="5.44239">
        <ele>412.6</ele>
        <time>2022-04-21T14:31:24Z</time>
      </trkpt>
      <trkpt lat="46.46174" lon="5.44212">
        <ele>413.4</ele>
        <time>2022-04-21T14:31:29Z</time>
      </trkpt>
      <trkpt lat="46.4617" lon="5.44202">
        <ele>414</ele>
        <time>2022-04-21T14:31:31Z</time>
      </trkpt>
      <trkpt lat="46.46167" lon="5.44191">
        <ele>414.4</ele>
        <time>2022-04-21T14:31:33Z</time>
      </trkpt>
      <trkpt lat="46.46158" lon="5.44166">
        <ele>415.6</ele>
        <time>2022-04-21T14:31:38Z</time>
      </trkpt>
      <trkpt lat="46.46153" lon="5.44152">
        <ele>416</ele>
        <time>2022-04-21T14:31:41Z</time>
      </trkpt>
      <trkpt lat="46.46148" lon="5.4414">
        <ele>416.6</ele>
        <time>2022-04-21T14:31:43Z</time>
      </trkpt>
      <trkpt lat="46.46141" lon="5.44108">
        <ele>417.6</ele>
        <time>2022-04-21T14:31:49Z</time>
      </trkpt>
      <trkpt lat="46.4614" lon="5.44103">
        <ele>417.8</ele>
        <time>2022-04-21T14:31:50Z</time>
      </trkpt>
      <trkpt lat="46.46133" lon="5.44071">
        <ele>419</ele>
        <time>2022-04-21T14:31:56Z</time>
      </trkpt>
      <trkpt lat="46.46131" lon="5.44059">
        <ele>419.6</ele>
        <time>2022-04-21T14:31:58Z</time>
      </trkpt>
      <trkpt lat="46.46129" lon="5.44048">
        <ele>420</ele>
        <time>2022-04-21T14:32:00Z</time>
      </trkpt>
      <trkpt lat="46.46126" lon="5.44017">
        <ele>420.8</ele>
        <time>2022-04-21T14:32:05Z</time>
      </trkpt>
      <trkpt lat="46.46126" lon="5.44011">
        <ele>421.2</ele>
        <time>2022-04-21T14:32:06Z</time>
      </trkpt>
      <trkpt lat="46.46129" lon="5.43989">
        <ele>422</ele>
        <time>2022-04-21T14:32:10Z</time>
      </trkpt>
      <trkpt lat="46.4613" lon="5.43984">
        <ele>422.2</ele>
        <time>2022-04-21T14:32:11Z</time>
      </trkpt>
      <trkpt lat="46.46136" lon="5.43958">
        <ele>423.2</ele>
        <time>2022-04-21T14:32:16Z</time>
      </trkpt>
      <trkpt lat="46.46137" lon="5.43952">
        <ele>423.6</ele>
        <time>2022-04-21T14:32:17Z</time>
      </trkpt>
      <trkpt lat="46.46142" lon="5.43936">
        <ele>424.4</ele>
        <time>2022-04-21T14:32:20Z</time>
      </trkpt>
      <trkpt lat="46.46149" lon="5.43909">
        <ele>425.4</ele>
        <time>2022-04-21T14:32:25Z</time>
      </trkpt>
      <trkpt lat="46.46156" lon="5.43887">
        <ele>426.4</ele>
        <time>2022-04-21T14:32:29Z</time>
      </trkpt>
      <trkpt lat="46.46157" lon="5.43882">
        <ele>426.6</ele>
        <time>2022-04-21T14:32:30Z</time>
      </trkpt>
      <trkpt lat="46.46163" lon="5.43861">
        <ele>427.8</ele>
        <time>2022-04-21T14:32:34Z</time>
      </trkpt>
      <trkpt lat="46.46167" lon="5.43846">
        <ele>428.8</ele>
        <time>2022-04-21T14:32:37Z</time>
      </trkpt>
      <trkpt lat="46.46172" lon="5.4383">
        <ele>429.8</ele>
        <time>2022-04-21T14:32:40Z</time>
      </trkpt>
      <trkpt lat="46.46174" lon="5.43825">
        <ele>430.4</ele>
        <time>2022-04-21T14:32:41Z</time>
      </trkpt>
      <trkpt lat="46.4618" lon="5.43806">
        <ele>431.6</ele>
        <time>2022-04-21T14:32:45Z</time>
      </trkpt>
      <trkpt lat="46.46186" lon="5.43786">
        <ele>432</ele>
        <time>2022-04-21T14:32:49Z</time>
      </trkpt>
      <trkpt lat="46.46191" lon="5.43759">
        <ele>432.8</ele>
        <time>2022-04-21T14:32:54Z</time>
      </trkpt>
      <trkpt lat="46.46192" lon="5.43741">
        <ele>433.6</ele>
        <time>2022-04-21T14:32:57Z</time>
      </trkpt>
      <trkpt lat="46.46192" lon="5.43723">
        <ele>434</ele>
        <time>2022-04-21T14:33:00Z</time>
      </trkpt>
      <trkpt lat="46.46189" lon="5.43691">
        <ele>434.6</ele>
        <time>2022-04-21T14:33:05Z</time>
      </trkpt>
      <trkpt lat="46.46184" lon="5.43671">
        <ele>435</ele>
        <time>2022-04-21T14:33:08Z</time>
      </trkpt>
      <trkpt lat="46.46176" lon="5.43645">
        <ele>435.8</ele>
        <time>2022-04-21T14:33:12Z</time>
      </trkpt>
      <trkpt lat="46.46168" lon="5.43628">
        <ele>436.2</ele>
        <time>2022-04-21T14:33:15Z</time>
      </trkpt>
      <trkpt lat="46.46161" lon="5.43616">
        <ele>436.6</ele>
        <time>2022-04-21T14:33:17Z</time>
      </trkpt>
      <trkpt lat="46.46154" lon="5.43606">
        <ele>436.6</ele>
        <time>2022-04-21T14:33:19Z</time>
      </trkpt>
      <trkpt lat="46.46129" lon="5.43583">
        <ele>436.8</ele>
        <time>2022-04-21T14:33:24Z</time>
      </trkpt>
      <trkpt lat="46.46111" lon="5.43572">
        <ele>436.8</ele>
        <time>2022-04-21T14:33:27Z</time>
      </trkpt>
      <trkpt lat="46.46097" lon="5.43568">
        <ele>436.6</ele>
        <time>2022-04-21T14:33:29Z</time>
      </trkpt>
      <trkpt lat="46.46048" lon="5.43565">
        <ele>435.2</ele>
        <time>2022-04-21T14:33:35Z</time>
      </trkpt>
      <trkpt lat="46.4603" lon="5.43562">
        <ele>434.2</ele>
        <time>2022-04-21T14:33:37Z</time>
      </trkpt>
      <trkpt lat="46.46003" lon="5.43553">
        <ele>433.6</ele>
        <time>2022-04-21T14:33:40Z</time>
      </trkpt>
      <trkpt lat="46.45979" lon="5.43538">
        <ele>433</ele>
        <time>2022-04-21T14:33:43Z</time>
      </trkpt>
      <trkpt lat="46.45962" lon="5.43525">
        <ele>432.6</ele>
        <time>2022-04-21T14:33:45Z</time>
      </trkpt>
      <trkpt lat="46.45944" lon="5.43511">
        <ele>432</ele>
        <time>2022-04-21T14:33:47Z</time>
      </trkpt>
      <trkpt lat="46.45905" lon="5.43481">
        <ele>430.4</ele>
        <time>2022-04-21T14:33:51Z</time>
      </trkpt>
      <trkpt lat="46.45896" lon="5.43474">
        <ele>430</ele>
        <time>2022-04-21T14:33:52Z</time>
      </trkpt>
      <trkpt lat="46.45886" lon="5.43466">
        <ele>429.2</ele>
        <time>2022-04-21T14:33:53Z</time>
      </trkpt>
      <trkpt lat="46.45866" lon="5.43451">
        <ele>428</ele>
        <time>2022-04-21T14:33:55Z</time>
      </trkpt>
      <trkpt lat="46.45845" lon="5.43435">
        <ele>426.6</ele>
        <time>2022-04-21T14:33:57Z</time>
      </trkpt>
      <trkpt lat="46.45827" lon="5.43421">
        <ele>426</ele>
        <time>2022-04-21T14:33:59Z</time>
      </trkpt>
      <trkpt lat="46.45814" lon="5.43412">
        <ele>425.4</ele>
        <time>2022-04-21T14:34:00Z</time>
      </trkpt>
      <trkpt lat="46.45775" lon="5.43381">
        <ele>424.2</ele>
        <time>2022-04-21T14:34:04Z</time>
      </trkpt>
      <trkpt lat="46.45754" lon="5.4336">
        <ele>423.8</ele>
        <time>2022-04-21T14:34:06Z</time>
      </trkpt>
      <trkpt lat="46.45736" lon="5.43338">
        <ele>423.4</ele>
        <time>2022-04-21T14:34:08Z</time>
      </trkpt>
      <trkpt lat="46.45729" lon="5.43329">
        <ele>422.6</ele>
        <time>2022-04-21T14:34:09Z</time>
      </trkpt>
      <trkpt lat="46.45721" lon="5.43317">
        <ele>422.2</ele>
        <time>2022-04-21T14:34:10Z</time>
      </trkpt>
      <trkpt lat="46.45706" lon="5.43288">
        <ele>421.6</ele>
        <time>2022-04-21T14:34:12Z</time>
      </trkpt>
      <trkpt lat="46.45694" lon="5.43262">
        <ele>421.2</ele>
        <time>2022-04-21T14:34:14Z</time>
      </trkpt>
      <trkpt lat="46.45683" lon="5.43238">
        <ele>420.4</ele>
        <time>2022-04-21T14:34:16Z</time>
      </trkpt>
      <trkpt lat="46.45653" lon="5.43171">
        <ele>419</ele>
        <time>2022-04-21T14:34:21Z</time>
      </trkpt>
      <trkpt lat="46.45642" lon="5.43146">
        <ele>418.4</ele>
        <time>2022-04-21T14:34:23Z</time>
      </trkpt>
      <trkpt lat="46.45631" lon="5.43121">
        <ele>417.4</ele>
        <time>2022-04-21T14:34:25Z</time>
      </trkpt>
      <trkpt lat="46.45597" lon="5.43048">
        <ele>416.6</ele>
        <time>2022-04-21T14:34:31Z</time>
      </trkpt>
      <trkpt lat="46.45592" lon="5.43037">
        <ele>416.4</ele>
        <time>2022-04-21T14:34:32Z</time>
      </trkpt>
      <trkpt lat="46.4557" lon="5.42997">
        <ele>416.6</ele>
        <time>2022-04-21T14:34:36Z</time>
      </trkpt>
      <trkpt lat="46.45542" lon="5.42959">
        <ele>417.8</ele>
        <time>2022-04-21T14:34:41Z</time>
      </trkpt>
      <trkpt lat="46.45506" lon="5.42912">
        <ele>418.6</ele>
        <time>2022-04-21T14:34:48Z</time>
      </trkpt>
      <trkpt lat="46.45491" lon="5.42894">
        <ele>419</ele>
        <time>2022-04-21T14:34:51Z</time>
      </trkpt>
      <trkpt lat="46.45466" lon="5.42863">
        <ele>420.2</ele>
        <time>2022-04-21T14:34:56Z</time>
      </trkpt>
      <trkpt lat="46.45461" lon="5.42858">
        <ele>420.4</ele>
        <time>2022-04-21T14:34:57Z</time>
      </trkpt>
      <trkpt lat="46.4543" lon="5.42826">
        <ele>421.4</ele>
        <time>2022-04-21T14:35:03Z</time>
      </trkpt>
      <trkpt lat="46.45415" lon="5.42811">
        <ele>422.2</ele>
        <time>2022-04-21T14:35:06Z</time>
      </trkpt>
      <trkpt lat="46.45409" lon="5.42806">
        <ele>422.6</ele>
        <time>2022-04-21T14:35:07Z</time>
      </trkpt>
      <trkpt lat="46.45377" lon="5.42768">
        <ele>423.4</ele>
        <time>2022-04-21T14:35:14Z</time>
      </trkpt>
      <trkpt lat="46.45373" lon="5.42762">
        <ele>423.6</ele>
        <time>2022-04-21T14:35:15Z</time>
      </trkpt>
      <trkpt lat="46.45354" lon="5.42732">
        <ele>424.8</ele>
        <time>2022-04-21T14:35:20Z</time>
      </trkpt>
      <trkpt lat="46.45343" lon="5.42714">
        <ele>425.4</ele>
        <time>2022-04-21T14:35:23Z</time>
      </trkpt>
      <trkpt lat="46.4534" lon="5.42708">
        <ele>425.8</ele>
        <time>2022-04-21T14:35:24Z</time>
      </trkpt>
      <trkpt lat="46.45321" lon="5.42673">
        <ele>427</ele>
        <time>2022-04-21T14:35:30Z</time>
      </trkpt>
      <trkpt lat="46.45317" lon="5.42667">
        <ele>427.2</ele>
        <time>2022-04-21T14:35:31Z</time>
      </trkpt>
      <trkpt lat="46.45291" lon="5.42618">
        <ele>428.2</ele>
        <time>2022-04-21T14:35:38Z</time>
      </trkpt>
      <trkpt lat="46.45276" lon="5.42589">
        <ele>428.8</ele>
        <time>2022-04-21T14:35:43Z</time>
      </trkpt>
      <trkpt lat="46.45271" lon="5.42582">
        <ele>429.2</ele>
        <time>2022-04-21T14:35:45Z</time>
      </trkpt>
      <trkpt lat="46.45245" lon="5.42535">
        <ele>430</ele>
        <time>2022-04-21T14:35:52Z</time>
      </trkpt>
      <trkpt lat="46.45241" lon="5.42527">
        <ele>430.4</ele>
        <time>2022-04-21T14:35:53Z</time>
      </trkpt>
      <trkpt lat="46.45211" lon="5.42474">
        <ele>431.4</ele>
        <time>2022-04-21T14:36:02Z</time>
      </trkpt>
      <trkpt lat="46.452" lon="5.42454">
        <ele>431.8</ele>
        <time>2022-04-21T14:36:05Z</time>
      </trkpt>
      <trkpt lat="46.45183" lon="5.42423">
        <ele>432.6</ele>
        <time>2022-04-21T14:36:10Z</time>
      </trkpt>
      <trkpt lat="46.45166" lon="5.42392">
        <ele>433.2</ele>
        <time>2022-04-21T14:36:15Z</time>
      </trkpt>
      <trkpt lat="46.45162" lon="5.42387">
        <ele>433.6</ele>
        <time>2022-04-21T14:36:16Z</time>
      </trkpt>
      <trkpt lat="46.45159" lon="5.42381">
        <ele>433.8</ele>
        <time>2022-04-21T14:36:17Z</time>
      </trkpt>
      <trkpt lat="46.45151" lon="5.4237">
        <ele>434.4</ele>
        <time>2022-04-21T14:36:19Z</time>
      </trkpt>
      <trkpt lat="46.45142" lon="5.4236">
        <ele>435</ele>
        <time>2022-04-21T14:36:21Z</time>
      </trkpt>
      <trkpt lat="46.45133" lon="5.42349">
        <ele>435.2</ele>
        <time>2022-04-21T14:36:23Z</time>
      </trkpt>
      <trkpt lat="46.45125" lon="5.42338">
        <ele>435.6</ele>
        <time>2022-04-21T14:36:25Z</time>
      </trkpt>
      <trkpt lat="46.45118" lon="5.42326">
        <ele>436</ele>
        <time>2022-04-21T14:36:28Z</time>
      </trkpt>
      <trkpt lat="46.45114" lon="5.4232">
        <ele>436.2</ele>
        <time>2022-04-21T14:36:29Z</time>
      </trkpt>
      <trkpt lat="46.45106" lon="5.4231">
        <ele>436.6</ele>
        <time>2022-04-21T14:36:30Z</time>
      </trkpt>
      <trkpt lat="46.45097" lon="5.423">
        <ele>437.2</ele>
        <time>2022-04-21T14:36:32Z</time>
      </trkpt>
      <trkpt lat="46.45093" lon="5.42294">
        <ele>437.6</ele>
        <time>2022-04-21T14:36:34Z</time>
      </trkpt>
      <trkpt lat="46.45088" lon="5.42279">
        <ele>437.8</ele>
        <time>2022-04-21T14:36:35Z</time>
      </trkpt>
      <trkpt lat="46.45086" lon="5.42271">
        <ele>438.2</ele>
        <time>2022-04-21T14:36:37Z</time>
      </trkpt>
      <trkpt lat="46.45081" lon="5.42224">
        <ele>439.8</ele>
        <time>2022-04-21T14:36:43Z</time>
      </trkpt>
      <trkpt lat="46.45076" lon="5.42185">
        <ele>440.8</ele>
        <time>2022-04-21T14:36:47Z</time>
      </trkpt>
      <trkpt lat="46.4507" lon="5.42163">
        <ele>441.8</ele>
        <time>2022-04-21T14:36:50Z</time>
      </trkpt>
      <trkpt lat="46.45067" lon="5.42156">
        <ele>442</ele>
        <time>2022-04-21T14:36:51Z</time>
      </trkpt>
      <trkpt lat="46.4505" lon="5.42111">
        <ele>443</ele>
        <time>2022-04-21T14:36:57Z</time>
      </trkpt>
      <trkpt lat="46.45047" lon="5.42103">
        <ele>443.2</ele>
        <time>2022-04-21T14:36:58Z</time>
      </trkpt>
      <trkpt lat="46.45018" lon="5.42048">
        <ele>443.8</ele>
        <time>2022-04-21T14:37:06Z</time>
      </trkpt>
      <trkpt lat="46.45002" lon="5.42024">
        <ele>444.2</ele>
        <time>2022-04-21T14:37:10Z</time>
      </trkpt>
      <trkpt lat="46.44991" lon="5.42006">
        <ele>444.8</ele>
        <time>2022-04-21T14:37:14Z</time>
      </trkpt>
      <trkpt lat="46.44984" lon="5.41996">
        <ele>445.2</ele>
        <time>2022-04-21T14:37:15Z</time>
      </trkpt>
      <trkpt lat="46.44961" lon="5.41952">
        <ele>446.2</ele>
        <time>2022-04-21T14:37:22Z</time>
      </trkpt>
      <trkpt lat="46.44959" lon="5.41945">
        <ele>446.4</ele>
        <time>2022-04-21T14:37:23Z</time>
      </trkpt>
      <trkpt lat="46.44958" lon="5.41938">
        <ele>446.6</ele>
        <time>2022-04-21T14:37:24Z</time>
      </trkpt>
      <trkpt lat="46.44957" lon="5.41915">
        <ele>447.4</ele>
        <time>2022-04-21T14:37:27Z</time>
      </trkpt>
      <trkpt lat="46.44965" lon="5.41875">
        <ele>448.4</ele>
        <time>2022-04-21T14:37:32Z</time>
      </trkpt>
      <trkpt lat="46.44967" lon="5.41869">
        <ele>448.4</ele>
        <time>2022-04-21T14:37:33Z</time>
      </trkpt>
      <trkpt lat="46.44985" lon="5.41829">
        <ele>449.2</ele>
        <time>2022-04-21T14:37:39Z</time>
      </trkpt>
      <trkpt lat="46.44994" lon="5.41818">
        <ele>449.6</ele>
        <time>2022-04-21T14:37:41Z</time>
      </trkpt>
      <trkpt lat="46.45004" lon="5.4181">
        <ele>450</ele>
        <time>2022-04-21T14:37:43Z</time>
      </trkpt>
      <trkpt lat="46.45016" lon="5.41805">
        <ele>450.2</ele>
        <time>2022-04-21T14:37:45Z</time>
      </trkpt>
      <trkpt lat="46.45028" lon="5.41804">
        <ele>450.6</ele>
        <time>2022-04-21T14:37:48Z</time>
      </trkpt>
      <trkpt lat="46.4504" lon="5.41806">
        <ele>450.6</ele>
        <time>2022-04-21T14:37:49Z</time>
      </trkpt>
      <trkpt lat="46.45046" lon="5.41808">
        <ele>450.8</ele>
        <time>2022-04-21T14:37:50Z</time>
      </trkpt>
      <trkpt lat="46.45057" lon="5.41811">
        <ele>450.8</ele>
        <time>2022-04-21T14:37:52Z</time>
      </trkpt>
      <trkpt lat="46.45064" lon="5.41812">
        <ele>451</ele>
        <time>2022-04-21T14:37:53Z</time>
      </trkpt>
      <trkpt lat="46.45077" lon="5.41814">
        <ele>451.4</ele>
        <time>2022-04-21T14:37:55Z</time>
      </trkpt>
      <trkpt lat="46.45098" lon="5.41814">
        <ele>451.4</ele>
        <time>2022-04-21T14:37:58Z</time>
      </trkpt>
      <trkpt lat="46.45137" lon="5.41804">
        <ele>450.6</ele>
        <time>2022-04-21T14:38:04Z</time>
      </trkpt>
      <trkpt lat="46.45171" lon="5.41779">
        <ele>450.4</ele>
        <time>2022-04-21T14:38:10Z</time>
      </trkpt>
      <trkpt lat="46.45192" lon="5.41749">
        <ele>450.4</ele>
        <time>2022-04-21T14:38:15Z</time>
      </trkpt>
      <trkpt lat="46.45215" lon="5.41695">
        <ele>450.6</ele>
        <time>2022-04-21T14:38:22Z</time>
      </trkpt>
      <trkpt lat="46.45227" lon="5.41652">
        <ele>451.8</ele>
        <time>2022-04-21T14:38:28Z</time>
      </trkpt>
      <trkpt lat="46.45229" lon="5.41644">
        <ele>452</ele>
        <time>2022-04-21T14:38:29Z</time>
      </trkpt>
      <trkpt lat="46.45237" lon="5.41596">
        <ele>452.6</ele>
        <time>2022-04-21T14:38:36Z</time>
      </trkpt>
      <trkpt lat="46.45239" lon="5.41589">
        <ele>452.8</ele>
        <time>2022-04-21T14:38:37Z</time>
      </trkpt>
      <trkpt lat="46.45243" lon="5.41575">
        <ele>453.2</ele>
        <time>2022-04-21T14:38:39Z</time>
      </trkpt>
      <trkpt lat="46.45253" lon="5.41556">
        <ele>453.8</ele>
        <time>2022-04-21T14:38:42Z</time>
      </trkpt>
      <trkpt lat="46.45256" lon="5.41551">
        <ele>454</ele>
        <time>2022-04-21T14:38:43Z</time>
      </trkpt>
      <trkpt lat="46.4526" lon="5.41546">
        <ele>454.2</ele>
        <time>2022-04-21T14:38:44Z</time>
      </trkpt>
      <trkpt lat="46.45269" lon="5.41538">
        <ele>454.6</ele>
        <time>2022-04-21T14:38:46Z</time>
      </trkpt>
      <trkpt lat="46.45275" lon="5.41534">
        <ele>454.6</ele>
        <time>2022-04-21T14:38:47Z</time>
      </trkpt>
      <trkpt lat="46.45289" lon="5.4153">
        <ele>455</ele>
        <time>2022-04-21T14:38:50Z</time>
      </trkpt>
      <trkpt lat="46.453" lon="5.4153">
        <ele>455</ele>
        <time>2022-04-21T14:38:52Z</time>
      </trkpt>
      <trkpt lat="46.45304" lon="5.4153">
        <ele>455.2</ele>
        <time>2022-04-21T14:38:53Z</time>
      </trkpt>
      <trkpt lat="46.45346" lon="5.41538">
        <ele>455.4</ele>
        <time>2022-04-21T14:39:02Z</time>
      </trkpt>
      <trkpt lat="46.45382" lon="5.41537">
        <ele>456.2</ele>
        <time>2022-04-21T14:39:09Z</time>
      </trkpt>
      <trkpt lat="46.45386" lon="5.41536">
        <ele>456.2</ele>
        <time>2022-04-21T14:39:10Z</time>
      </trkpt>
      <trkpt lat="46.45406" lon="5.41531">
        <ele>457.2</ele>
        <time>2022-04-21T14:39:14Z</time>
      </trkpt>
      <trkpt lat="46.4543" lon="5.41523">
        <ele>457.6</ele>
        <time>2022-04-21T14:39:19Z</time>
      </trkpt>
      <trkpt lat="46.45449" lon="5.41515">
        <ele>458.4</ele>
        <time>2022-04-21T14:39:23Z</time>
      </trkpt>
      <trkpt lat="46.45472" lon="5.41504">
        <ele>459.4</ele>
        <time>2022-04-21T14:39:28Z</time>
      </trkpt>
      <trkpt lat="46.45486" lon="5.41497">
        <ele>460.2</ele>
        <time>2022-04-21T14:39:31Z</time>
      </trkpt>
      <trkpt lat="46.45491" lon="5.41495">
        <ele>460.4</ele>
        <time>2022-04-21T14:39:32Z</time>
      </trkpt>
      <trkpt lat="46.45526" lon="5.41478">
        <ele>461.4</ele>
        <time>2022-04-21T14:39:39Z</time>
      </trkpt>
      <trkpt lat="46.45571" lon="5.41448">
        <ele>462.2</ele>
        <time>2022-04-21T14:39:48Z</time>
      </trkpt>
      <trkpt lat="46.45586" lon="5.41435">
        <ele>462.6</ele>
        <time>2022-04-21T14:39:51Z</time>
      </trkpt>
      <trkpt lat="46.45598" lon="5.41418">
        <ele>462.6</ele>
        <time>2022-04-21T14:39:54Z</time>
      </trkpt>
      <trkpt lat="46.45606" lon="5.41406">
        <ele>462.4</ele>
        <time>2022-04-21T14:39:56Z</time>
      </trkpt>
      <trkpt lat="46.45618" lon="5.4138">
        <ele>462.4</ele>
        <time>2022-04-21T14:40:00Z</time>
      </trkpt>
      <trkpt lat="46.45644" lon="5.41329">
        <ele>463</ele>
        <time>2022-04-21T14:40:08Z</time>
      </trkpt>
      <trkpt lat="46.45652" lon="5.41318">
        <ele>463.8</ele>
        <time>2022-04-21T14:40:10Z</time>
      </trkpt>
      <trkpt lat="46.45674" lon="5.41288">
        <ele>464.4</ele>
        <time>2022-04-21T14:40:15Z</time>
      </trkpt>
      <trkpt lat="46.45715" lon="5.4124">
        <ele>464.2</ele>
        <time>2022-04-21T14:40:23Z</time>
      </trkpt>
      <trkpt lat="46.45755" lon="5.41188">
        <ele>463.6</ele>
        <time>2022-04-21T14:40:31Z</time>
      </trkpt>
      <trkpt lat="46.45762" lon="5.41172">
        <ele>463.6</ele>
        <time>2022-04-21T14:40:33Z</time>
      </trkpt>
      <trkpt lat="46.4577" lon="5.41145">
        <ele>464</ele>
        <time>2022-04-21T14:40:36Z</time>
      </trkpt>
      <trkpt lat="46.45784" lon="5.41084">
        <ele>464.6</ele>
        <time>2022-04-21T14:40:43Z</time>
      </trkpt>
      <trkpt lat="46.45792" lon="5.41051">
        <ele>465</ele>
        <time>2022-04-21T14:40:47Z</time>
      </trkpt>
      <trkpt lat="46.45799" lon="5.41028">
        <ele>465.2</ele>
        <time>2022-04-21T14:40:50Z</time>
      </trkpt>
      <trkpt lat="46.45818" lon="5.40965">
        <ele>465.8</ele>
        <time>2022-04-21T14:40:59Z</time>
      </trkpt>
      <trkpt lat="46.45821" lon="5.4095">
        <ele>466</ele>
        <time>2022-04-21T14:41:01Z</time>
      </trkpt>
      <trkpt lat="46.45823" lon="5.40943">
        <ele>466.2</ele>
        <time>2022-04-21T14:41:02Z</time>
      </trkpt>
      <trkpt lat="46.45829" lon="5.40904">
        <ele>466.6</ele>
        <time>2022-04-21T14:41:07Z</time>
      </trkpt>
      <trkpt lat="46.45844" lon="5.40822">
        <ele>466.8</ele>
        <time>2022-04-21T14:41:18Z</time>
      </trkpt>
      <trkpt lat="46.45851" lon="5.4074">
        <ele>466.4</ele>
        <time>2022-04-21T14:41:28Z</time>
      </trkpt>
      <trkpt lat="46.45863" lon="5.40694">
        <ele>466.8</ele>
        <time>2022-04-21T14:41:34Z</time>
      </trkpt>
      <trkpt lat="46.45869" lon="5.40678">
        <ele>467</ele>
        <time>2022-04-21T14:41:37Z</time>
      </trkpt>
      <trkpt lat="46.45875" lon="5.40662">
        <ele>467.6</ele>
        <time>2022-04-21T14:41:40Z</time>
      </trkpt>
      <trkpt lat="46.45879" lon="5.40653">
        <ele>468.2</ele>
        <time>2022-04-21T14:41:42Z</time>
      </trkpt>
      <trkpt lat="46.45891" lon="5.40627">
        <ele>469</ele>
        <time>2022-04-21T14:41:48Z</time>
      </trkpt>
      <trkpt lat="46.45893" lon="5.40622">
        <ele>469.4</ele>
        <time>2022-04-21T14:41:49Z</time>
      </trkpt>
      <trkpt lat="46.45898" lon="5.40609">
        <ele>470.4</ele>
        <time>2022-04-21T14:41:52Z</time>
      </trkpt>
      <trkpt lat="46.45905" lon="5.40591">
        <ele>471.6</ele>
        <time>2022-04-21T14:41:56Z</time>
      </trkpt>
      <trkpt lat="46.45912" lon="5.40573">
        <ele>472.8</ele>
        <time>2022-04-21T14:42:00Z</time>
      </trkpt>
      <trkpt lat="46.45921" lon="5.40555">
        <ele>473.8</ele>
        <time>2022-04-21T14:42:04Z</time>
      </trkpt>
      <trkpt lat="46.45925" lon="5.40546">
        <ele>474.6</ele>
        <time>2022-04-21T14:42:06Z</time>
      </trkpt>
      <trkpt lat="46.4593" lon="5.40537">
        <ele>475</ele>
        <time>2022-04-21T14:42:08Z</time>
      </trkpt>
      <trkpt lat="46.45937" lon="5.40525">
        <ele>476</ele>
        <time>2022-04-21T14:42:11Z</time>
      </trkpt>
      <trkpt lat="46.45948" lon="5.40511">
        <ele>477.2</ele>
        <time>2022-04-21T14:42:15Z</time>
      </trkpt>
      <trkpt lat="46.4595" lon="5.40508">
        <ele>477.4</ele>
        <time>2022-04-21T14:42:16Z</time>
      </trkpt>
      <trkpt lat="46.45955" lon="5.40501">
        <ele>478.4</ele>
        <time>2022-04-21T14:42:18Z</time>
      </trkpt>
      <trkpt lat="46.45965" lon="5.40486">
        <ele>479.4</ele>
        <time>2022-04-21T14:42:22Z</time>
      </trkpt>
      <trkpt lat="46.4597" lon="5.40478">
        <ele>480</ele>
        <time>2022-04-21T14:42:24Z</time>
      </trkpt>
      <trkpt lat="46.45974" lon="5.40471">
        <ele>480.4</ele>
        <time>2022-04-21T14:42:26Z</time>
      </trkpt>
      <trkpt lat="46.45981" lon="5.4046">
        <ele>481.4</ele>
        <time>2022-04-21T14:42:29Z</time>
      </trkpt>
      <trkpt lat="46.45984" lon="5.40456">
        <ele>481.6</ele>
        <time>2022-04-21T14:42:30Z</time>
      </trkpt>
      <trkpt lat="46.45992" lon="5.40439">
        <ele>482.6</ele>
        <time>2022-04-21T14:42:34Z</time>
      </trkpt>
      <trkpt lat="46.46" lon="5.40421">
        <ele>483.6</ele>
        <time>2022-04-21T14:42:38Z</time>
      </trkpt>
      <trkpt lat="46.46011" lon="5.40397">
        <ele>484.6</ele>
        <time>2022-04-21T14:42:44Z</time>
      </trkpt>
      <trkpt lat="46.46013" lon="5.40393">
        <ele>484.8</ele>
        <time>2022-04-21T14:42:45Z</time>
      </trkpt>
      <trkpt lat="46.46019" lon="5.40381">
        <ele>485.8</ele>
        <time>2022-04-21T14:42:48Z</time>
      </trkpt>
      <trkpt lat="46.46026" lon="5.40364">
        <ele>487</ele>
        <time>2022-04-21T14:42:52Z</time>
      </trkpt>
      <trkpt lat="46.46034" lon="5.4035">
        <ele>488</ele>
        <time>2022-04-21T14:42:56Z</time>
      </trkpt>
      <trkpt lat="46.46042" lon="5.40341">
        <ele>489</ele>
        <time>2022-04-21T14:42:59Z</time>
      </trkpt>
      <trkpt lat="46.46052" lon="5.40334">
        <ele>490</ele>
        <time>2022-04-21T14:43:02Z</time>
      </trkpt>
      <trkpt lat="46.46065" lon="5.40327">
        <ele>491.2</ele>
        <time>2022-04-21T14:43:06Z</time>
      </trkpt>
      <trkpt lat="46.46069" lon="5.40326">
        <ele>491.4</ele>
        <time>2022-04-21T14:43:07Z</time>
      </trkpt>
      <trkpt lat="46.46082" lon="5.4032">
        <ele>492.4</ele>
        <time>2022-04-21T14:43:11Z</time>
      </trkpt>
      <trkpt lat="46.46096" lon="5.40314">
        <ele>493.4</ele>
        <time>2022-04-21T14:43:15Z</time>
      </trkpt>
      <trkpt lat="46.46099" lon="5.40312">
        <ele>493.6</ele>
        <time>2022-04-21T14:43:16Z</time>
      </trkpt>
      <trkpt lat="46.46111" lon="5.40304">
        <ele>494.8</ele>
        <time>2022-04-21T14:43:20Z</time>
      </trkpt>
      <trkpt lat="46.46121" lon="5.40297">
        <ele>495.4</ele>
        <time>2022-04-21T14:43:23Z</time>
      </trkpt>
      <trkpt lat="46.46124" lon="5.40294">
        <ele>495.6</ele>
        <time>2022-04-21T14:43:24Z</time>
      </trkpt>
      <trkpt lat="46.46139" lon="5.40271">
        <ele>496.8</ele>
        <time>2022-04-21T14:43:29Z</time>
      </trkpt>
      <trkpt lat="46.46158" lon="5.40235">
        <ele>497.8</ele>
        <time>2022-04-21T14:43:36Z</time>
      </trkpt>
      <trkpt lat="46.46161" lon="5.40231">
        <ele>497.8</ele>
        <time>2022-04-21T14:43:37Z</time>
      </trkpt>
      <trkpt lat="46.46176" lon="5.40203">
        <ele>498.4</ele>
        <time>2022-04-21T14:43:43Z</time>
      </trkpt>
      <trkpt lat="46.46183" lon="5.40189">
        <ele>498.8</ele>
        <time>2022-04-21T14:43:46Z</time>
      </trkpt>
      <trkpt lat="46.46198" lon="5.40158">
        <ele>499.8</ele>
        <time>2022-04-21T14:43:52Z</time>
      </trkpt>
      <trkpt lat="46.46201" lon="5.40153">
        <ele>500</ele>
        <time>2022-04-21T14:43:53Z</time>
      </trkpt>
      <trkpt lat="46.46219" lon="5.40129">
        <ele>500.6</ele>
        <time>2022-04-21T14:43:58Z</time>
      </trkpt>
      <trkpt lat="46.46224" lon="5.40124">
        <ele>500.8</ele>
        <time>2022-04-21T14:43:59Z</time>
      </trkpt>
      <trkpt lat="46.46246" lon="5.40103">
        <ele>501</ele>
        <time>2022-04-21T14:44:04Z</time>
      </trkpt>
      <trkpt lat="46.46251" lon="5.40099">
        <ele>501.2</ele>
        <time>2022-04-21T14:44:05Z</time>
      </trkpt>
      <trkpt lat="46.46266" lon="5.40093">
        <ele>501.4</ele>
        <time>2022-04-21T14:44:08Z</time>
      </trkpt>
      <trkpt lat="46.46271" lon="5.40093">
        <ele>501.6</ele>
        <time>2022-04-21T14:44:09Z</time>
      </trkpt>
      <trkpt lat="46.46288" lon="5.40093">
        <ele>502.2</ele>
        <time>2022-04-21T14:44:13Z</time>
      </trkpt>
      <trkpt lat="46.46292" lon="5.40094">
        <ele>502.4</ele>
        <time>2022-04-21T14:44:14Z</time>
      </trkpt>
      <trkpt lat="46.46309" lon="5.40096">
        <ele>503.2</ele>
        <time>2022-04-21T14:44:18Z</time>
      </trkpt>
      <trkpt lat="46.4632" lon="5.40096">
        <ele>504</ele>
        <time>2022-04-21T14:44:21Z</time>
      </trkpt>
      <trkpt lat="46.46324" lon="5.40096">
        <ele>504.6</ele>
        <time>2022-04-21T14:44:22Z</time>
      </trkpt>
      <trkpt lat="46.46341" lon="5.40094">
        <ele>505.6</ele>
        <time>2022-04-21T14:44:26Z</time>
      </trkpt>
      <trkpt lat="46.46356" lon="5.40092">
        <ele>506.2</ele>
        <time>2022-04-21T14:44:29Z</time>
      </trkpt>
      <trkpt lat="46.4637" lon="5.4009">
        <ele>506.8</ele>
        <time>2022-04-21T14:44:32Z</time>
      </trkpt>
      <trkpt lat="46.46389" lon="5.40087">
        <ele>508</ele>
        <time>2022-04-21T14:44:36Z</time>
      </trkpt>
      <trkpt lat="46.46426" lon="5.4008">
        <ele>509</ele>
        <time>2022-04-21T14:44:44Z</time>
      </trkpt>
      <trkpt lat="46.46439" lon="5.40077">
        <ele>509.4</ele>
        <time>2022-04-21T14:44:47Z</time>
      </trkpt>
      <trkpt lat="46.46449" lon="5.40076">
        <ele>510</ele>
        <time>2022-04-21T14:44:49Z</time>
      </trkpt>
      <trkpt lat="46.46482" lon="5.40072">
        <ele>511.4</ele>
        <time>2022-04-21T14:44:56Z</time>
      </trkpt>
      <trkpt lat="46.46507" lon="5.40075">
        <ele>512</ele>
        <time>2022-04-21T14:45:01Z</time>
      </trkpt>
      <trkpt lat="46.46516" lon="5.40078">
        <ele>512.2</ele>
        <time>2022-04-21T14:45:03Z</time>
      </trkpt>
      <trkpt lat="46.4653" lon="5.40085">
        <ele>512.4</ele>
        <time>2022-04-21T14:45:06Z</time>
      </trkpt>
      <trkpt lat="46.46552" lon="5.40096">
        <ele>513</ele>
        <time>2022-04-21T14:45:11Z</time>
      </trkpt>
      <trkpt lat="46.46566" lon="5.40103">
        <ele>513.6</ele>
        <time>2022-04-21T14:45:14Z</time>
      </trkpt>
      <trkpt lat="46.46593" lon="5.40117">
        <ele>514.4</ele>
        <time>2022-04-21T14:45:20Z</time>
      </trkpt>
      <trkpt lat="46.46597" lon="5.40119">
        <ele>514.6</ele>
        <time>2022-04-21T14:45:21Z</time>
      </trkpt>
      <trkpt lat="46.46618" lon="5.4013">
        <ele>515.8</ele>
        <time>2022-04-21T14:45:26Z</time>
      </trkpt>
      <trkpt lat="46.46626" lon="5.40134">
        <ele>516</ele>
        <time>2022-04-21T14:45:28Z</time>
      </trkpt>
      <trkpt lat="46.46642" lon="5.40143">
        <ele>516.8</ele>
        <time>2022-04-21T14:45:32Z</time>
      </trkpt>
      <trkpt lat="46.46661" lon="5.40152">
        <ele>518</ele>
        <time>2022-04-21T14:45:37Z</time>
      </trkpt>
      <trkpt lat="46.46682" lon="5.40163">
        <ele>519</ele>
        <time>2022-04-21T14:45:43Z</time>
      </trkpt>
      <trkpt lat="46.46693" lon="5.40169">
        <ele>519.8</ele>
        <time>2022-04-21T14:45:46Z</time>
      </trkpt>
      <trkpt lat="46.467" lon="5.40172">
        <ele>520.2</ele>
        <time>2022-04-21T14:45:48Z</time>
      </trkpt>
      <trkpt lat="46.46712" lon="5.40178">
        <ele>521.4</ele>
        <time>2022-04-21T14:45:51Z</time>
      </trkpt>
      <trkpt lat="46.4673" lon="5.40187">
        <ele>522.2</ele>
        <time>2022-04-21T14:45:56Z</time>
      </trkpt>
      <trkpt lat="46.46738" lon="5.40191">
        <ele>522.6</ele>
        <time>2022-04-21T14:45:58Z</time>
      </trkpt>
      <trkpt lat="46.46752" lon="5.40197">
        <ele>523.8</ele>
        <time>2022-04-21T14:46:02Z</time>
      </trkpt>
      <trkpt lat="46.4676" lon="5.40201">
        <ele>524.2</ele>
        <time>2022-04-21T14:46:04Z</time>
      </trkpt>
      <trkpt lat="46.46771" lon="5.40207">
        <ele>524.8</ele>
        <time>2022-04-21T14:46:07Z</time>
      </trkpt>
      <trkpt lat="46.46785" lon="5.40215">
        <ele>525.8</ele>
        <time>2022-04-21T14:46:11Z</time>
      </trkpt>
      <trkpt lat="46.46789" lon="5.40218">
        <ele>526</ele>
        <time>2022-04-21T14:46:12Z</time>
      </trkpt>
      <trkpt lat="46.46807" lon="5.40228">
        <ele>527.2</ele>
        <time>2022-04-21T14:46:17Z</time>
      </trkpt>
      <trkpt lat="46.46814" lon="5.40231">
        <ele>528</ele>
        <time>2022-04-21T14:46:19Z</time>
      </trkpt>
      <trkpt lat="46.46821" lon="5.40235">
        <ele>528.6</ele>
        <time>2022-04-21T14:46:21Z</time>
      </trkpt>
      <trkpt lat="46.46848" lon="5.40248">
        <ele>529.8</ele>
        <time>2022-04-21T14:46:28Z</time>
      </trkpt>
      <trkpt lat="46.46852" lon="5.40249">
        <ele>530.4</ele>
        <time>2022-04-21T14:46:29Z</time>
      </trkpt>
      <trkpt lat="46.46864" lon="5.40255">
        <ele>530.8</ele>
        <time>2022-04-21T14:46:32Z</time>
      </trkpt>
      <trkpt lat="46.46881" lon="5.40263">
        <ele>532</ele>
        <time>2022-04-21T14:46:36Z</time>
      </trkpt>
      <trkpt lat="46.4689" lon="5.40268">
        <ele>532.2</ele>
        <time>2022-04-21T14:46:38Z</time>
      </trkpt>
      <trkpt lat="46.46903" lon="5.40275">
        <ele>533</ele>
        <time>2022-04-21T14:46:41Z</time>
      </trkpt>
      <trkpt lat="46.46917" lon="5.40282">
        <ele>533.6</ele>
        <time>2022-04-21T14:46:44Z</time>
      </trkpt>
      <trkpt lat="46.46922" lon="5.40284">
        <ele>534</ele>
        <time>2022-04-21T14:46:45Z</time>
      </trkpt>
      <trkpt lat="46.46931" lon="5.40289">
        <ele>534.2</ele>
        <time>2022-04-21T14:46:47Z</time>
      </trkpt>
      <trkpt lat="46.46961" lon="5.40305">
        <ele>535.2</ele>
        <time>2022-04-21T14:46:54Z</time>
      </trkpt>
      <trkpt lat="46.46966" lon="5.40307">
        <ele>535.4</ele>
        <time>2022-04-21T14:46:55Z</time>
      </trkpt>
      <trkpt lat="46.46985" lon="5.40313">
        <ele>536.4</ele>
        <time>2022-04-21T14:46:59Z</time>
      </trkpt>
      <trkpt lat="46.46995" lon="5.40317">
        <ele>537</ele>
        <time>2022-04-21T14:47:01Z</time>
      </trkpt>
      <trkpt lat="46.47" lon="5.40318">
        <ele>537.2</ele>
        <time>2022-04-21T14:47:02Z</time>
      </trkpt>
      <trkpt lat="46.47011" lon="5.40321">
        <ele>537.6</ele>
        <time>2022-04-21T14:47:04Z</time>
      </trkpt>
      <trkpt lat="46.47037" lon="5.40324">
        <ele>538.8</ele>
        <time>2022-04-21T14:47:09Z</time>
      </trkpt>
      <trkpt lat="46.47072" lon="5.40327">
        <ele>539</ele>
        <time>2022-04-21T14:47:14Z</time>
      </trkpt>
      <trkpt lat="46.47129" lon="5.40333">
        <ele>538</ele>
        <time>2022-04-21T14:47:21Z</time>
      </trkpt>
      <trkpt lat="46.47137" lon="5.40335">
        <ele>537.6</ele>
        <time>2022-04-21T14:47:22Z</time>
      </trkpt>
      <trkpt lat="46.47153" lon="5.40338">
        <ele>536.4</ele>
        <time>2022-04-21T14:47:24Z</time>
      </trkpt>
      <trkpt lat="46.47161" lon="5.40341">
        <ele>535.4</ele>
        <time>2022-04-21T14:47:25Z</time>
      </trkpt>
      <trkpt lat="46.47178" lon="5.40348">
        <ele>534.2</ele>
        <time>2022-04-21T14:47:27Z</time>
      </trkpt>
      <trkpt lat="46.47186" lon="5.40352">
        <ele>533.8</ele>
        <time>2022-04-21T14:47:28Z</time>
      </trkpt>
      <trkpt lat="46.47193" lon="5.40358">
        <ele>533</ele>
        <time>2022-04-21T14:47:29Z</time>
      </trkpt>
      <trkpt lat="46.47201" lon="5.40365">
        <ele>532.6</ele>
        <time>2022-04-21T14:47:30Z</time>
      </trkpt>
      <trkpt lat="46.47208" lon="5.40373">
        <ele>531.8</ele>
        <time>2022-04-21T14:47:31Z</time>
      </trkpt>
      <trkpt lat="46.47214" lon="5.40382">
        <ele>531.4</ele>
        <time>2022-04-21T14:47:32Z</time>
      </trkpt>
      <trkpt lat="46.47222" lon="5.40393">
        <ele>530.6</ele>
        <time>2022-04-21T14:47:33Z</time>
      </trkpt>
      <trkpt lat="46.47228" lon="5.404">
        <ele>530</ele>
        <time>2022-04-21T14:47:34Z</time>
      </trkpt>
      <trkpt lat="46.47237" lon="5.40408">
        <ele>529.8</ele>
        <time>2022-04-21T14:47:35Z</time>
      </trkpt>
      <trkpt lat="46.47247" lon="5.40415">
        <ele>529.2</ele>
        <time>2022-04-21T14:47:36Z</time>
      </trkpt>
      <trkpt lat="46.4727" lon="5.40427">
        <ele>528.4</ele>
        <time>2022-04-21T14:47:38Z</time>
      </trkpt>
      <trkpt lat="46.47284" lon="5.40431">
        <ele>528</ele>
        <time>2022-04-21T14:47:39Z</time>
      </trkpt>
      <trkpt lat="46.47306" lon="5.40439">
        <ele>526.8</ele>
        <time>2022-04-21T14:47:41Z</time>
      </trkpt>
      <trkpt lat="46.47327" lon="5.40443">
        <ele>526</ele>
        <time>2022-04-21T14:47:43Z</time>
      </trkpt>
      <trkpt lat="46.4734" lon="5.40445">
        <ele>525.8</ele>
        <time>2022-04-21T14:47:44Z</time>
      </trkpt>
      <trkpt lat="46.47359" lon="5.40446">
        <ele>524.6</ele>
        <time>2022-04-21T14:47:46Z</time>
      </trkpt>
      <trkpt lat="46.47381" lon="5.40448">
        <ele>523.4</ele>
        <time>2022-04-21T14:47:48Z</time>
      </trkpt>
      <trkpt lat="46.47393" lon="5.40447">
        <ele>523.2</ele>
        <time>2022-04-21T14:47:49Z</time>
      </trkpt>
      <trkpt lat="46.47416" lon="5.40444">
        <ele>522.2</ele>
        <time>2022-04-21T14:47:51Z</time>
      </trkpt>
      <trkpt lat="46.47428" lon="5.40444">
        <ele>521.6</ele>
        <time>2022-04-21T14:47:52Z</time>
      </trkpt>
      <trkpt lat="46.47449" lon="5.40447">
        <ele>520.4</ele>
        <time>2022-04-21T14:47:54Z</time>
      </trkpt>
      <trkpt lat="46.47472" lon="5.40452">
        <ele>519.8</ele>
        <time>2022-04-21T14:47:56Z</time>
      </trkpt>
      <trkpt lat="46.47483" lon="5.40455">
        <ele>519</ele>
        <time>2022-04-21T14:47:57Z</time>
      </trkpt>
      <trkpt lat="46.47494" lon="5.40461">
        <ele>518.6</ele>
        <time>2022-04-21T14:47:58Z</time>
      </trkpt>
      <trkpt lat="46.47504" lon="5.40469">
        <ele>518</ele>
        <time>2022-04-21T14:47:59Z</time>
      </trkpt>
      <trkpt lat="46.47522" lon="5.40485">
        <ele>516.8</ele>
        <time>2022-04-21T14:48:01Z</time>
      </trkpt>
      <trkpt lat="46.47531" lon="5.40486">
        <ele>516.2</ele>
        <time>2022-04-21T14:48:02Z</time>
      </trkpt>
      <trkpt lat="46.47542" lon="5.40481">
        <ele>516</ele>
        <time>2022-04-21T14:48:03Z</time>
      </trkpt>
      <trkpt lat="46.47548" lon="5.40471">
        <ele>515</ele>
        <time>2022-04-21T14:48:04Z</time>
      </trkpt>
      <trkpt lat="46.47548" lon="5.40457">
        <ele>514.8</ele>
        <time>2022-04-21T14:48:05Z</time>
      </trkpt>
      <trkpt lat="46.47547" lon="5.40441">
        <ele>513.8</ele>
        <time>2022-04-21T14:48:06Z</time>
      </trkpt>
      <trkpt lat="46.47543" lon="5.40423">
        <ele>513</ele>
        <time>2022-04-21T14:48:07Z</time>
      </trkpt>
      <trkpt lat="46.47537" lon="5.40406">
        <ele>512</ele>
        <time>2022-04-21T14:48:08Z</time>
      </trkpt>
      <trkpt lat="46.47532" lon="5.40389">
        <ele>510.6</ele>
        <time>2022-04-21T14:48:09Z</time>
      </trkpt>
      <trkpt lat="46.47528" lon="5.40374">
        <ele>510.2</ele>
        <time>2022-04-21T14:48:10Z</time>
      </trkpt>
      <trkpt lat="46.47523" lon="5.40359">
        <ele>509.6</ele>
        <time>2022-04-21T14:48:11Z</time>
      </trkpt>
      <trkpt lat="46.47522" lon="5.40342">
        <ele>509.4</ele>
        <time>2022-04-21T14:48:12Z</time>
      </trkpt>
      <trkpt lat="46.47525" lon="5.40325">
        <ele>508.8</ele>
        <time>2022-04-21T14:48:13Z</time>
      </trkpt>
      <trkpt lat="46.47536" lon="5.40291">
        <ele>508</ele>
        <time>2022-04-21T14:48:15Z</time>
      </trkpt>
      <trkpt lat="46.47546" lon="5.4028">
        <ele>507.2</ele>
        <time>2022-04-21T14:48:16Z</time>
      </trkpt>
      <trkpt lat="46.47556" lon="5.40269">
        <ele>507</ele>
        <time>2022-04-21T14:48:17Z</time>
      </trkpt>
      <trkpt lat="46.47567" lon="5.40261">
        <ele>505.4</ele>
        <time>2022-04-21T14:48:18Z</time>
      </trkpt>
      <trkpt lat="46.47578" lon="5.40255">
        <ele>505</ele>
        <time>2022-04-21T14:48:19Z</time>
      </trkpt>
      <trkpt lat="46.4759" lon="5.40251">
        <ele>503.6</ele>
        <time>2022-04-21T14:48:20Z</time>
      </trkpt>
      <trkpt lat="46.47616" lon="5.40248">
        <ele>502.6</ele>
        <time>2022-04-21T14:48:22Z</time>
      </trkpt>
      <trkpt lat="46.47653" lon="5.40241">
        <ele>501</ele>
        <time>2022-04-21T14:48:25Z</time>
      </trkpt>
      <trkpt lat="46.47664" lon="5.40241">
        <ele>500.8</ele>
        <time>2022-04-21T14:48:26Z</time>
      </trkpt>
      <trkpt lat="46.47676" lon="5.40242">
        <ele>500</ele>
        <time>2022-04-21T14:48:27Z</time>
      </trkpt>
      <trkpt lat="46.47688" lon="5.40242">
        <ele>499.6</ele>
        <time>2022-04-21T14:48:28Z</time>
      </trkpt>
      <trkpt lat="46.47708" lon="5.40229">
        <ele>497.6</ele>
        <time>2022-04-21T14:48:30Z</time>
      </trkpt>
      <trkpt lat="46.47718" lon="5.40197">
        <ele>496.6</ele>
        <time>2022-04-21T14:48:32Z</time>
      </trkpt>
      <trkpt lat="46.47723" lon="5.40181">
        <ele>496.4</ele>
        <time>2022-04-21T14:48:33Z</time>
      </trkpt>
      <trkpt lat="46.47728" lon="5.40167">
        <ele>496</ele>
        <time>2022-04-21T14:48:34Z</time>
      </trkpt>
      <trkpt lat="46.47736" lon="5.40155">
        <ele>495.8</ele>
        <time>2022-04-21T14:48:35Z</time>
      </trkpt>
      <trkpt lat="46.47744" lon="5.40145">
        <ele>495.2</ele>
        <time>2022-04-21T14:48:36Z</time>
      </trkpt>
      <trkpt lat="46.47752" lon="5.40132">
        <ele>494.6</ele>
        <time>2022-04-21T14:48:37Z</time>
      </trkpt>
      <trkpt lat="46.47759" lon="5.40118">
        <ele>494.4</ele>
        <time>2022-04-21T14:48:38Z</time>
      </trkpt>
      <trkpt lat="46.47764" lon="5.40103">
        <ele>493.8</ele>
        <time>2022-04-21T14:48:39Z</time>
      </trkpt>
      <trkpt lat="46.47767" lon="5.40069">
        <ele>492.6</ele>
        <time>2022-04-21T14:48:41Z</time>
      </trkpt>
      <trkpt lat="46.47766" lon="5.40038">
        <ele>491.6</ele>
        <time>2022-04-21T14:48:43Z</time>
      </trkpt>
      <trkpt lat="46.47767" lon="5.40024">
        <ele>490.6</ele>
        <time>2022-04-21T14:48:44Z</time>
      </trkpt>
      <trkpt lat="46.47771" lon="5.40011">
        <ele>490.2</ele>
        <time>2022-04-21T14:48:45Z</time>
      </trkpt>
      <trkpt lat="46.47777" lon="5.40001">
        <ele>489.4</ele>
        <time>2022-04-21T14:48:46Z</time>
      </trkpt>
      <trkpt lat="46.47785" lon="5.39994">
        <ele>489</ele>
        <time>2022-04-21T14:48:47Z</time>
      </trkpt>
      <trkpt lat="46.47794" lon="5.3999">
        <ele>488.4</ele>
        <time>2022-04-21T14:48:48Z</time>
      </trkpt>
      <trkpt lat="46.47814" lon="5.3998">
        <ele>487.6</ele>
        <time>2022-04-21T14:48:50Z</time>
      </trkpt>
      <trkpt lat="46.47837" lon="5.39969">
        <ele>485.8</ele>
        <time>2022-04-21T14:48:52Z</time>
      </trkpt>
      <trkpt lat="46.47848" lon="5.39963">
        <ele>484.2</ele>
        <time>2022-04-21T14:48:53Z</time>
      </trkpt>
      <trkpt lat="46.47871" lon="5.39951">
        <ele>482.8</ele>
        <time>2022-04-21T14:48:55Z</time>
      </trkpt>
      <trkpt lat="46.47894" lon="5.39939">
        <ele>481.6</ele>
        <time>2022-04-21T14:48:57Z</time>
      </trkpt>
      <trkpt lat="46.47928" lon="5.3992">
        <ele>479.8</ele>
        <time>2022-04-21T14:49:00Z</time>
      </trkpt>
      <trkpt lat="46.47939" lon="5.39913">
        <ele>479.2</ele>
        <time>2022-04-21T14:49:01Z</time>
      </trkpt>
      <trkpt lat="46.4795" lon="5.39907">
        <ele>478.4</ele>
        <time>2022-04-21T14:49:02Z</time>
      </trkpt>
      <trkpt lat="46.47983" lon="5.39891">
        <ele>477.4</ele>
        <time>2022-04-21T14:49:05Z</time>
      </trkpt>
      <trkpt lat="46.48004" lon="5.39883">
        <ele>476.4</ele>
        <time>2022-04-21T14:49:07Z</time>
      </trkpt>
      <trkpt lat="46.48015" lon="5.39882">
        <ele>476.2</ele>
        <time>2022-04-21T14:49:08Z</time>
      </trkpt>
      <trkpt lat="46.48034" lon="5.39885">
        <ele>475.4</ele>
        <time>2022-04-21T14:49:10Z</time>
      </trkpt>
      <trkpt lat="46.48064" lon="5.39902">
        <ele>474.6</ele>
        <time>2022-04-21T14:49:13Z</time>
      </trkpt>
      <trkpt lat="46.48074" lon="5.39906">
        <ele>474.2</ele>
        <time>2022-04-21T14:49:14Z</time>
      </trkpt>
      <trkpt lat="46.48084" lon="5.39907">
        <ele>474.2</ele>
        <time>2022-04-21T14:49:15Z</time>
      </trkpt>
      <trkpt lat="46.48114" lon="5.39907">
        <ele>474</ele>
        <time>2022-04-21T14:49:18Z</time>
      </trkpt>
      <trkpt lat="46.48152" lon="5.39892">
        <ele>474.2</ele>
        <time>2022-04-21T14:49:22Z</time>
      </trkpt>
      <trkpt lat="46.48186" lon="5.39869">
        <ele>474.2</ele>
        <time>2022-04-21T14:49:26Z</time>
      </trkpt>
      <trkpt lat="46.48198" lon="5.3985">
        <ele>474.2</ele>
        <time>2022-04-21T14:49:28Z</time>
      </trkpt>
      <trkpt lat="46.48199" lon="5.39838">
        <ele>474.2</ele>
        <time>2022-04-21T14:49:29Z</time>
      </trkpt>
      <trkpt lat="46.48198" lon="5.39827">
        <ele>474</ele>
        <time>2022-04-21T14:49:30Z</time>
      </trkpt>
      <trkpt lat="46.48193" lon="5.39802">
        <ele>474</ele>
        <time>2022-04-21T14:49:32Z</time>
      </trkpt>
      <trkpt lat="46.48185" lon="5.39754">
        <ele>473.2</ele>
        <time>2022-04-21T14:49:36Z</time>
      </trkpt>
      <trkpt lat="46.48182" lon="5.39729">
        <ele>473</ele>
        <time>2022-04-21T14:49:38Z</time>
      </trkpt>
      <trkpt lat="46.48178" lon="5.39692">
        <ele>472.6</ele>
        <time>2022-04-21T14:49:41Z</time>
      </trkpt>
      <trkpt lat="46.4818" lon="5.39665">
        <ele>472.6</ele>
        <time>2022-04-21T14:49:43Z</time>
      </trkpt>
      <trkpt lat="46.48185" lon="5.39638">
        <ele>472.6</ele>
        <time>2022-04-21T14:49:45Z</time>
      </trkpt>
      <trkpt lat="46.48189" lon="5.39626">
        <ele>472.4</ele>
        <time>2022-04-21T14:49:46Z</time>
      </trkpt>
      <trkpt lat="46.48194" lon="5.39613">
        <ele>472.2</ele>
        <time>2022-04-21T14:49:47Z</time>
      </trkpt>
      <trkpt lat="46.48204" lon="5.39586">
        <ele>470.8</ele>
        <time>2022-04-21T14:49:49Z</time>
      </trkpt>
      <trkpt lat="46.48209" lon="5.39572">
        <ele>470</ele>
        <time>2022-04-21T14:49:50Z</time>
      </trkpt>
      <trkpt lat="46.48212" lon="5.39557">
        <ele>468.4</ele>
        <time>2022-04-21T14:49:51Z</time>
      </trkpt>
      <trkpt lat="46.48218" lon="5.39525">
        <ele>467.2</ele>
        <time>2022-04-21T14:49:53Z</time>
      </trkpt>
      <trkpt lat="46.48228" lon="5.39496">
        <ele>465.6</ele>
        <time>2022-04-21T14:49:55Z</time>
      </trkpt>
      <trkpt lat="46.48242" lon="5.39475">
        <ele>463.8</ele>
        <time>2022-04-21T14:49:57Z</time>
      </trkpt>
      <trkpt lat="46.48249" lon="5.39468">
        <ele>463.2</ele>
        <time>2022-04-21T14:49:58Z</time>
      </trkpt>
      <trkpt lat="46.48258" lon="5.39464">
        <ele>462.6</ele>
        <time>2022-04-21T14:49:59Z</time>
      </trkpt>
      <trkpt lat="46.48266" lon="5.3946">
        <ele>461.4</ele>
        <time>2022-04-21T14:50:00Z</time>
      </trkpt>
      <trkpt lat="46.48273" lon="5.39458">
        <ele>461</ele>
        <time>2022-04-21T14:50:01Z</time>
      </trkpt>
      <trkpt lat="46.48279" lon="5.39457">
        <ele>459.6</ele>
        <time>2022-04-21T14:50:02Z</time>
      </trkpt>
      <trkpt lat="46.48286" lon="5.39455">
        <ele>459.4</ele>
        <time>2022-04-21T14:50:03Z</time>
      </trkpt>
      <trkpt lat="46.48292" lon="5.39451">
        <ele>457.8</ele>
        <time>2022-04-21T14:50:04Z</time>
      </trkpt>
      <trkpt lat="46.48297" lon="5.39447">
        <ele>456.6</ele>
        <time>2022-04-21T14:50:05Z</time>
      </trkpt>
      <trkpt lat="46.48301" lon="5.39439">
        <ele>456</ele>
        <time>2022-04-21T14:50:06Z</time>
      </trkpt>
      <trkpt lat="46.48304" lon="5.39427">
        <ele>455.4</ele>
        <time>2022-04-21T14:50:07Z</time>
      </trkpt>
      <trkpt lat="46.4831" lon="5.39401">
        <ele>454.4</ele>
        <time>2022-04-21T14:50:09Z</time>
      </trkpt>
      <trkpt lat="46.48314" lon="5.39388">
        <ele>453.8</ele>
        <time>2022-04-21T14:50:10Z</time>
      </trkpt>
      <trkpt lat="46.48321" lon="5.39372">
        <ele>452.6</ele>
        <time>2022-04-21T14:50:11Z</time>
      </trkpt>
      <trkpt lat="46.48337" lon="5.39348">
        <ele>451.6</ele>
        <time>2022-04-21T14:50:13Z</time>
      </trkpt>
      <trkpt lat="46.48355" lon="5.39327">
        <ele>450.8</ele>
        <time>2022-04-21T14:50:15Z</time>
      </trkpt>
      <trkpt lat="46.48365" lon="5.39317">
        <ele>449.8</ele>
        <time>2022-04-21T14:50:16Z</time>
      </trkpt>
      <trkpt lat="46.48385" lon="5.39294">
        <ele>449</ele>
        <time>2022-04-21T14:50:18Z</time>
      </trkpt>
      <trkpt lat="46.48394" lon="5.39286">
        <ele>448.2</ele>
        <time>2022-04-21T14:50:19Z</time>
      </trkpt>
      <trkpt lat="46.48403" lon="5.39279">
        <ele>447</ele>
        <time>2022-04-21T14:50:20Z</time>
      </trkpt>
      <trkpt lat="46.48413" lon="5.39278">
        <ele>445.4</ele>
        <time>2022-04-21T14:50:21Z</time>
      </trkpt>
      <trkpt lat="46.48428" lon="5.39281">
        <ele>444.6</ele>
        <time>2022-04-21T14:50:22Z</time>
      </trkpt>
      <trkpt lat="46.48443" lon="5.39284">
        <ele>443.2</ele>
        <time>2022-04-21T14:50:23Z</time>
      </trkpt>
      <trkpt lat="46.48458" lon="5.39285">
        <ele>442.2</ele>
        <time>2022-04-21T14:50:24Z</time>
      </trkpt>
      <trkpt lat="46.48473" lon="5.39287">
        <ele>440.8</ele>
        <time>2022-04-21T14:50:25Z</time>
      </trkpt>
      <trkpt lat="46.48501" lon="5.39286">
        <ele>439.4</ele>
        <time>2022-04-21T14:50:27Z</time>
      </trkpt>
      <trkpt lat="46.48515" lon="5.39285">
        <ele>438.4</ele>
        <time>2022-04-21T14:50:28Z</time>
      </trkpt>
      <trkpt lat="46.48544" lon="5.39283">
        <ele>437</ele>
        <time>2022-04-21T14:50:30Z</time>
      </trkpt>
      <trkpt lat="46.48572" lon="5.3928">
        <ele>434.6</ele>
        <time>2022-04-21T14:50:32Z</time>
      </trkpt>
      <trkpt lat="46.48585" lon="5.39279">
        <ele>433</ele>
        <time>2022-04-21T14:50:33Z</time>
      </trkpt>
      <trkpt lat="46.48614" lon="5.39276">
        <ele>431</ele>
        <time>2022-04-21T14:50:35Z</time>
      </trkpt>
      <trkpt lat="46.4864" lon="5.39274">
        <ele>429.8</ele>
        <time>2022-04-21T14:50:37Z</time>
      </trkpt>
      <trkpt lat="46.48653" lon="5.39275">
        <ele>428.8</ele>
        <time>2022-04-21T14:50:38Z</time>
      </trkpt>
      <trkpt lat="46.48666" lon="5.39276">
        <ele>428</ele>
        <time>2022-04-21T14:50:39Z</time>
      </trkpt>
      <trkpt lat="46.48678" lon="5.39279">
        <ele>426.4</ele>
        <time>2022-04-21T14:50:40Z</time>
      </trkpt>
      <trkpt lat="46.4869" lon="5.39283">
        <ele>425.8</ele>
        <time>2022-04-21T14:50:41Z</time>
      </trkpt>
      <trkpt lat="46.487" lon="5.39289">
        <ele>423.6</ele>
        <time>2022-04-21T14:50:42Z</time>
      </trkpt>
      <trkpt lat="46.48717" lon="5.39303">
        <ele>422.2</ele>
        <time>2022-04-21T14:50:44Z</time>
      </trkpt>
      <trkpt lat="46.48726" lon="5.39308">
        <ele>422</ele>
        <time>2022-04-21T14:50:45Z</time>
      </trkpt>
      <trkpt lat="46.48734" lon="5.39312">
        <ele>421</ele>
        <time>2022-04-21T14:50:46Z</time>
      </trkpt>
      <trkpt lat="46.4874" lon="5.39312">
        <ele>420.2</ele>
        <time>2022-04-21T14:50:47Z</time>
      </trkpt>
      <trkpt lat="46.4874" lon="5.39306">
        <ele>418.6</ele>
        <time>2022-04-21T14:50:48Z</time>
      </trkpt>
      <trkpt lat="46.48738" lon="5.39295">
        <ele>416.8</ele>
        <time>2022-04-21T14:50:49Z</time>
      </trkpt>
      <trkpt lat="46.48734" lon="5.39286">
        <ele>416.2</ele>
        <time>2022-04-21T14:50:50Z</time>
      </trkpt>
      <trkpt lat="46.4873" lon="5.39278">
        <ele>415</ele>
        <time>2022-04-21T14:50:51Z</time>
      </trkpt>
      <trkpt lat="46.48719" lon="5.39261">
        <ele>414</ele>
        <time>2022-04-21T14:50:53Z</time>
      </trkpt>
      <trkpt lat="46.48712" lon="5.39253">
        <ele>413.6</ele>
        <time>2022-04-21T14:50:54Z</time>
      </trkpt>
      <trkpt lat="46.48697" lon="5.39232">
        <ele>412.6</ele>
        <time>2022-04-21T14:50:56Z</time>
      </trkpt>
      <trkpt lat="46.4868" lon="5.39208">
        <ele>410.2</ele>
        <time>2022-04-21T14:50:58Z</time>
      </trkpt>
      <trkpt lat="46.48663" lon="5.39182">
        <ele>409.2</ele>
        <time>2022-04-21T14:51:00Z</time>
      </trkpt>
      <trkpt lat="46.48645" lon="5.39157">
        <ele>407.2</ele>
        <time>2022-04-21T14:51:02Z</time>
      </trkpt>
      <trkpt lat="46.48635" lon="5.39145">
        <ele>406.4</ele>
        <time>2022-04-21T14:51:03Z</time>
      </trkpt>
      <trkpt lat="46.48624" lon="5.39136">
        <ele>406</ele>
        <time>2022-04-21T14:51:04Z</time>
      </trkpt>
      <trkpt lat="46.486" lon="5.39117">
        <ele>404.8</ele>
        <time>2022-04-21T14:51:06Z</time>
      </trkpt>
      <trkpt lat="46.48587" lon="5.39107">
        <ele>404.2</ele>
        <time>2022-04-21T14:51:07Z</time>
      </trkpt>
      <trkpt lat="46.48561" lon="5.39088">
        <ele>402.6</ele>
        <time>2022-04-21T14:51:09Z</time>
      </trkpt>
      <trkpt lat="46.48548" lon="5.39081">
        <ele>401</ele>
        <time>2022-04-21T14:51:10Z</time>
      </trkpt>
      <trkpt lat="46.48534" lon="5.39072">
        <ele>400</ele>
        <time>2022-04-21T14:51:11Z</time>
      </trkpt>
      <trkpt lat="46.48521" lon="5.39062">
        <ele>398.8</ele>
        <time>2022-04-21T14:51:12Z</time>
      </trkpt>
      <trkpt lat="46.48507" lon="5.3905">
        <ele>397.2</ele>
        <time>2022-04-21T14:51:13Z</time>
      </trkpt>
      <trkpt lat="46.48493" lon="5.39039">
        <ele>395.6</ele>
        <time>2022-04-21T14:51:14Z</time>
      </trkpt>
      <trkpt lat="46.48467" lon="5.3901">
        <ele>393</ele>
        <time>2022-04-21T14:51:16Z</time>
      </trkpt>
      <trkpt lat="46.48462" lon="5.38992">
        <ele>391.8</ele>
        <time>2022-04-21T14:51:17Z</time>
      </trkpt>
      <trkpt lat="46.48456" lon="5.38952">
        <ele>389.8</ele>
        <time>2022-04-21T14:51:19Z</time>
      </trkpt>
      <trkpt lat="46.48446" lon="5.38919">
        <ele>387</ele>
        <time>2022-04-21T14:51:21Z</time>
      </trkpt>
      <trkpt lat="46.48447" lon="5.38903">
        <ele>386.4</ele>
        <time>2022-04-21T14:51:22Z</time>
      </trkpt>
      <trkpt lat="46.4845" lon="5.38889">
        <ele>385.8</ele>
        <time>2022-04-21T14:51:23Z</time>
      </trkpt>
      <trkpt lat="46.48455" lon="5.38875">
        <ele>384.4</ele>
        <time>2022-04-21T14:51:24Z</time>
      </trkpt>
      <trkpt lat="46.48464" lon="5.38862">
        <ele>383.4</ele>
        <time>2022-04-21T14:51:25Z</time>
      </trkpt>
      <trkpt lat="46.48475" lon="5.38851">
        <ele>382.2</ele>
        <time>2022-04-21T14:51:26Z</time>
      </trkpt>
      <trkpt lat="46.48499" lon="5.38833">
        <ele>380.4</ele>
        <time>2022-04-21T14:51:28Z</time>
      </trkpt>
      <trkpt lat="46.48508" lon="5.38828">
        <ele>380</ele>
        <time>2022-04-21T14:51:29Z</time>
      </trkpt>
      <trkpt lat="46.48529" lon="5.38814">
        <ele>379</ele>
        <time>2022-04-21T14:51:31Z</time>
      </trkpt>
      <trkpt lat="46.48552" lon="5.38799">
        <ele>377.2</ele>
        <time>2022-04-21T14:51:33Z</time>
      </trkpt>
      <trkpt lat="46.48563" lon="5.38792">
        <ele>377</ele>
        <time>2022-04-21T14:51:34Z</time>
      </trkpt>
      <trkpt lat="46.48581" lon="5.3878">
        <ele>376.2</ele>
        <time>2022-04-21T14:51:36Z</time>
      </trkpt>
      <trkpt lat="46.4859" lon="5.38775">
        <ele>374.8</ele>
        <time>2022-04-21T14:51:37Z</time>
      </trkpt>
      <trkpt lat="46.48597" lon="5.38773">
        <ele>374</ele>
        <time>2022-04-21T14:51:38Z</time>
      </trkpt>
      <trkpt lat="46.48604" lon="5.38775">
        <ele>373.4</ele>
        <time>2022-04-21T14:51:39Z</time>
      </trkpt>
      <trkpt lat="46.4861" lon="5.38775">
        <ele>372.6</ele>
        <time>2022-04-21T14:51:40Z</time>
      </trkpt>
      <trkpt lat="46.48616" lon="5.38774">
        <ele>371.8</ele>
        <time>2022-04-21T14:51:41Z</time>
      </trkpt>
      <trkpt lat="46.48622" lon="5.38769">
        <ele>370.6</ele>
        <time>2022-04-21T14:51:42Z</time>
      </trkpt>
      <trkpt lat="46.48628" lon="5.38762">
        <ele>370</ele>
        <time>2022-04-21T14:51:43Z</time>
      </trkpt>
      <trkpt lat="46.48633" lon="5.38753">
        <ele>368.6</ele>
        <time>2022-04-21T14:51:44Z</time>
      </trkpt>
      <trkpt lat="46.48641" lon="5.38728">
        <ele>366.8</ele>
        <time>2022-04-21T14:51:46Z</time>
      </trkpt>
      <trkpt lat="46.48644" lon="5.38714">
        <ele>365.8</ele>
        <time>2022-04-21T14:51:47Z</time>
      </trkpt>
      <trkpt lat="46.48646" lon="5.38699">
        <ele>365.2</ele>
        <time>2022-04-21T14:51:48Z</time>
      </trkpt>
      <trkpt lat="46.48646" lon="5.38683">
        <ele>364.6</ele>
        <time>2022-04-21T14:51:49Z</time>
      </trkpt>
      <trkpt lat="46.48645" lon="5.38667">
        <ele>364</ele>
        <time>2022-04-21T14:51:50Z</time>
      </trkpt>
      <trkpt lat="46.48643" lon="5.38652">
        <ele>363.2</ele>
        <time>2022-04-21T14:51:51Z</time>
      </trkpt>
      <trkpt lat="46.4864" lon="5.38636">
        <ele>363</ele>
        <time>2022-04-21T14:51:52Z</time>
      </trkpt>
      <trkpt lat="46.48631" lon="5.38605">
        <ele>361.8</ele>
        <time>2022-04-21T14:51:54Z</time>
      </trkpt>
      <trkpt lat="46.48623" lon="5.38573">
        <ele>360.4</ele>
        <time>2022-04-21T14:51:56Z</time>
      </trkpt>
      <trkpt lat="46.48614" lon="5.38542">
        <ele>359.4</ele>
        <time>2022-04-21T14:51:58Z</time>
      </trkpt>
      <trkpt lat="46.48599" lon="5.38495">
        <ele>357.8</ele>
        <time>2022-04-21T14:52:01Z</time>
      </trkpt>
    </trkseg>
  </trk>
</gpx>